<?xml version="1.0" encoding="UTF-8" standalone="no" ?>
<gpx xmlns="http://www.topografix.com/GPX/1/1" xmlns:xsi="http://www.w3.org/2001/XMLSchema-instance" xsi:schemaLocation="http://www.topografix.com/GPX/1/1 http://www.topografix.com/GPX/1/1/gpx.xsd" version="1.1" creator="VisuGPX - https://www.visugpx.com">
  <metadata>
    <name>Rando VTT d\'Ancenis le 02 oct 2011 (55km)</name>
    <desc><![CDATA[Circuit entre vignes et sous-bois]]></desc>
  </metadata>
  <trk>
    <name><![CDATA[Track 001]]></name>
    <desc><![CDATA[2 oct. 2011  7:47 am]]></desc>
    <trkseg>
      <trkpt lat="47.3625" lon="-1.18559">
        <ele>13</ele>
        <time>2011-10-02T05:47:34Z</time>
      </trkpt>
      <trkpt lat="47.36246" lon="-1.18553">
        <ele>13</ele>
        <time>2011-10-02T05:47:38Z</time>
      </trkpt>
      <trkpt lat="47.36241" lon="-1.18551">
        <ele>13</ele>
        <time>2011-10-02T05:47:41Z</time>
      </trkpt>
      <trkpt lat="47.36235" lon="-1.1855">
        <ele>13</ele>
        <time>2011-10-02T05:47:45Z</time>
      </trkpt>
      <trkpt lat="47.36231" lon="-1.18547">
        <ele>13</ele>
        <time>2011-10-02T05:47:49Z</time>
      </trkpt>
      <trkpt lat="47.36227" lon="-1.18542">
        <ele>13</ele>
        <time>2011-10-02T05:47:53Z</time>
      </trkpt>
      <trkpt lat="47.36225" lon="-1.18536">
        <ele>13</ele>
        <time>2011-10-02T05:47:59Z</time>
      </trkpt>
      <trkpt lat="47.36221" lon="-1.18531">
        <ele>13</ele>
        <time>2011-10-02T05:48:03Z</time>
      </trkpt>
      <trkpt lat="47.36221" lon="-1.18531">
        <ele>13</ele>
        <time>2011-10-02T05:48:14Z</time>
      </trkpt>
      <trkpt lat="47.36197" lon="-1.18519">
        <ele>13</ele>
        <time>2011-10-02T05:48:37Z</time>
      </trkpt>
      <trkpt lat="47.36191" lon="-1.18514">
        <ele>12</ele>
        <time>2011-10-02T05:48:40Z</time>
      </trkpt>
      <trkpt lat="47.36188" lon="-1.18505">
        <ele>12</ele>
        <time>2011-10-02T05:48:43Z</time>
      </trkpt>
      <trkpt lat="47.36187" lon="-1.18496">
        <ele>12</ele>
        <time>2011-10-02T05:48:46Z</time>
      </trkpt>
      <trkpt lat="47.36187" lon="-1.18486">
        <ele>12</ele>
        <time>2011-10-02T05:48:48Z</time>
      </trkpt>
      <trkpt lat="47.36185" lon="-1.18478">
        <ele>12</ele>
        <time>2011-10-02T05:48:52Z</time>
      </trkpt>
      <trkpt lat="47.3618" lon="-1.18474">
        <ele>12</ele>
        <time>2011-10-02T05:48:55Z</time>
      </trkpt>
      <trkpt lat="47.36173" lon="-1.18482">
        <ele>12</ele>
        <time>2011-10-02T05:48:58Z</time>
      </trkpt>
      <trkpt lat="47.36169" lon="-1.1849">
        <ele>12</ele>
        <time>2011-10-02T05:49:00Z</time>
      </trkpt>
      <trkpt lat="47.36165" lon="-1.18499">
        <ele>12</ele>
        <time>2011-10-02T05:49:02Z</time>
      </trkpt>
      <trkpt lat="47.36159" lon="-1.1851">
        <ele>11</ele>
        <time>2011-10-02T05:49:05Z</time>
      </trkpt>
      <trkpt lat="47.36155" lon="-1.18519">
        <ele>11</ele>
        <time>2011-10-02T05:49:07Z</time>
      </trkpt>
      <trkpt lat="47.36145" lon="-1.18538">
        <ele>11</ele>
        <time>2011-10-02T05:49:10Z</time>
      </trkpt>
      <trkpt lat="47.36139" lon="-1.18552">
        <ele>11</ele>
        <time>2011-10-02T05:49:12Z</time>
      </trkpt>
      <trkpt lat="47.36127" lon="-1.18578">
        <ele>10</ele>
        <time>2011-10-02T05:49:14Z</time>
      </trkpt>
      <trkpt lat="47.36122" lon="-1.18598">
        <ele>10</ele>
        <time>2011-10-02T05:49:17Z</time>
      </trkpt>
      <trkpt lat="47.36119" lon="-1.18631">
        <ele>10</ele>
        <time>2011-10-02T05:49:20Z</time>
      </trkpt>
      <trkpt lat="47.36113" lon="-1.18649">
        <ele>10</ele>
        <time>2011-10-02T05:49:22Z</time>
      </trkpt>
      <trkpt lat="47.36101" lon="-1.18672">
        <ele>10</ele>
        <time>2011-10-02T05:49:25Z</time>
      </trkpt>
      <trkpt lat="47.36089" lon="-1.18693">
        <ele>10</ele>
        <time>2011-10-02T05:49:28Z</time>
      </trkpt>
      <trkpt lat="47.36082" lon="-1.18707">
        <ele>9</ele>
        <time>2011-10-02T05:49:30Z</time>
      </trkpt>
      <trkpt lat="47.36075" lon="-1.1872">
        <ele>9</ele>
        <time>2011-10-02T05:49:32Z</time>
      </trkpt>
      <trkpt lat="47.36068" lon="-1.18734">
        <ele>9</ele>
        <time>2011-10-02T05:49:34Z</time>
      </trkpt>
      <trkpt lat="47.36056" lon="-1.18755">
        <ele>9</ele>
        <time>2011-10-02T05:49:37Z</time>
      </trkpt>
      <trkpt lat="47.36049" lon="-1.1877">
        <ele>9</ele>
        <time>2011-10-02T05:49:39Z</time>
      </trkpt>
      <trkpt lat="47.36041" lon="-1.18784">
        <ele>9</ele>
        <time>2011-10-02T05:49:41Z</time>
      </trkpt>
      <trkpt lat="47.3603" lon="-1.18806">
        <ele>9</ele>
        <time>2011-10-02T05:49:44Z</time>
      </trkpt>
      <trkpt lat="47.36021" lon="-1.18826">
        <ele>9</ele>
        <time>2011-10-02T05:49:46Z</time>
      </trkpt>
      <trkpt lat="47.36013" lon="-1.18845">
        <ele>9</ele>
        <time>2011-10-02T05:49:49Z</time>
      </trkpt>
      <trkpt lat="47.36007" lon="-1.18857">
        <ele>9</ele>
        <time>2011-10-02T05:49:52Z</time>
      </trkpt>
      <trkpt lat="47.35999" lon="-1.18874">
        <ele>8</ele>
        <time>2011-10-02T05:49:54Z</time>
      </trkpt>
      <trkpt lat="47.35988" lon="-1.18892">
        <ele>9</ele>
        <time>2011-10-02T05:49:58Z</time>
      </trkpt>
      <trkpt lat="47.35978" lon="-1.18912">
        <ele>9</ele>
        <time>2011-10-02T05:50:01Z</time>
      </trkpt>
      <trkpt lat="47.35969" lon="-1.18931">
        <ele>9</ele>
        <time>2011-10-02T05:50:03Z</time>
      </trkpt>
      <trkpt lat="47.35962" lon="-1.18944">
        <ele>9</ele>
        <time>2011-10-02T05:50:05Z</time>
      </trkpt>
      <trkpt lat="47.35955" lon="-1.18957">
        <ele>9</ele>
        <time>2011-10-02T05:50:08Z</time>
      </trkpt>
      <trkpt lat="47.35944" lon="-1.18975">
        <ele>9</ele>
        <time>2011-10-02T05:50:10Z</time>
      </trkpt>
      <trkpt lat="47.35936" lon="-1.18987">
        <ele>10</ele>
        <time>2011-10-02T05:50:13Z</time>
      </trkpt>
      <trkpt lat="47.35924" lon="-1.19005">
        <ele>10</ele>
        <time>2011-10-02T05:50:15Z</time>
      </trkpt>
      <trkpt lat="47.35912" lon="-1.19022">
        <ele>9</ele>
        <time>2011-10-02T05:50:19Z</time>
      </trkpt>
      <trkpt lat="47.35902" lon="-1.19041">
        <ele>9</ele>
        <time>2011-10-02T05:50:22Z</time>
      </trkpt>
      <trkpt lat="47.35894" lon="-1.19062">
        <ele>9</ele>
        <time>2011-10-02T05:50:25Z</time>
      </trkpt>
      <trkpt lat="47.35889" lon="-1.19085">
        <ele>9</ele>
        <time>2011-10-02T05:50:27Z</time>
      </trkpt>
      <trkpt lat="47.35884" lon="-1.19108">
        <ele>8</ele>
        <time>2011-10-02T05:50:30Z</time>
      </trkpt>
      <trkpt lat="47.35882" lon="-1.19123">
        <ele>8</ele>
        <time>2011-10-02T05:50:32Z</time>
      </trkpt>
      <trkpt lat="47.35879" lon="-1.1914">
        <ele>8</ele>
        <time>2011-10-02T05:50:35Z</time>
      </trkpt>
      <trkpt lat="47.35874" lon="-1.19165">
        <ele>8</ele>
        <time>2011-10-02T05:50:38Z</time>
      </trkpt>
      <trkpt lat="47.3587" lon="-1.19187">
        <ele>8</ele>
        <time>2011-10-02T05:50:41Z</time>
      </trkpt>
      <trkpt lat="47.35867" lon="-1.19201">
        <ele>9</ele>
        <time>2011-10-02T05:50:43Z</time>
      </trkpt>
      <trkpt lat="47.35864" lon="-1.19222">
        <ele>9</ele>
        <time>2011-10-02T05:50:46Z</time>
      </trkpt>
      <trkpt lat="47.35861" lon="-1.19244">
        <ele>9</ele>
        <time>2011-10-02T05:50:49Z</time>
      </trkpt>
      <trkpt lat="47.35859" lon="-1.1926">
        <ele>10</ele>
        <time>2011-10-02T05:50:51Z</time>
      </trkpt>
      <trkpt lat="47.35854" lon="-1.19283">
        <ele>10</ele>
        <time>2011-10-02T05:50:54Z</time>
      </trkpt>
      <trkpt lat="47.35844" lon="-1.19302">
        <ele>10</ele>
        <time>2011-10-02T05:50:57Z</time>
      </trkpt>
      <trkpt lat="47.35837" lon="-1.19314">
        <ele>10</ele>
        <time>2011-10-02T05:50:59Z</time>
      </trkpt>
      <trkpt lat="47.3583" lon="-1.19327">
        <ele>10</ele>
        <time>2011-10-02T05:51:01Z</time>
      </trkpt>
      <trkpt lat="47.3582" lon="-1.19347">
        <ele>10</ele>
        <time>2011-10-02T05:51:04Z</time>
      </trkpt>
      <trkpt lat="47.35811" lon="-1.19368">
        <ele>10</ele>
        <time>2011-10-02T05:51:06Z</time>
      </trkpt>
      <trkpt lat="47.35804" lon="-1.19383">
        <ele>10</ele>
        <time>2011-10-02T05:51:09Z</time>
      </trkpt>
      <trkpt lat="47.35796" lon="-1.19399">
        <ele>10</ele>
        <time>2011-10-02T05:51:11Z</time>
      </trkpt>
      <trkpt lat="47.35787" lon="-1.19422">
        <ele>11</ele>
        <time>2011-10-02T05:51:14Z</time>
      </trkpt>
      <trkpt lat="47.3578" lon="-1.19446">
        <ele>11</ele>
        <time>2011-10-02T05:51:17Z</time>
      </trkpt>
      <trkpt lat="47.35775" lon="-1.19471">
        <ele>12</ele>
        <time>2011-10-02T05:51:20Z</time>
      </trkpt>
      <trkpt lat="47.35768" lon="-1.19497">
        <ele>12</ele>
        <time>2011-10-02T05:51:23Z</time>
      </trkpt>
      <trkpt lat="47.35759" lon="-1.1952">
        <ele>11</ele>
        <time>2011-10-02T05:51:26Z</time>
      </trkpt>
      <trkpt lat="47.3575" lon="-1.19543">
        <ele>11</ele>
        <time>2011-10-02T05:51:29Z</time>
      </trkpt>
      <trkpt lat="47.35747" lon="-1.19558">
        <ele>9</ele>
        <time>2011-10-02T05:51:31Z</time>
      </trkpt>
      <trkpt lat="47.35741" lon="-1.19582">
        <ele>10</ele>
        <time>2011-10-02T05:51:34Z</time>
      </trkpt>
      <trkpt lat="47.35735" lon="-1.19607">
        <ele>9</ele>
        <time>2011-10-02T05:51:37Z</time>
      </trkpt>
      <trkpt lat="47.35727" lon="-1.1963">
        <ele>8</ele>
        <time>2011-10-02T05:51:39Z</time>
      </trkpt>
      <trkpt lat="47.3572" lon="-1.19655">
        <ele>8</ele>
        <time>2011-10-02T05:51:43Z</time>
      </trkpt>
      <trkpt lat="47.35713" lon="-1.1968">
        <ele>9</ele>
        <time>2011-10-02T05:51:46Z</time>
      </trkpt>
      <trkpt lat="47.35707" lon="-1.19707">
        <ele>9</ele>
        <time>2011-10-02T05:51:48Z</time>
      </trkpt>
      <trkpt lat="47.35702" lon="-1.19734">
        <ele>9</ele>
        <time>2011-10-02T05:51:52Z</time>
      </trkpt>
      <trkpt lat="47.35697" lon="-1.19761">
        <ele>10</ele>
        <time>2011-10-02T05:51:55Z</time>
      </trkpt>
      <trkpt lat="47.35688" lon="-1.19785">
        <ele>10</ele>
        <time>2011-10-02T05:51:58Z</time>
      </trkpt>
      <trkpt lat="47.35678" lon="-1.19809">
        <ele>10</ele>
        <time>2011-10-02T05:52:00Z</time>
      </trkpt>
      <trkpt lat="47.35671" lon="-1.19825">
        <ele>9</ele>
        <time>2011-10-02T05:52:03Z</time>
      </trkpt>
      <trkpt lat="47.35665" lon="-1.19838">
        <ele>9</ele>
        <time>2011-10-02T05:52:05Z</time>
      </trkpt>
      <trkpt lat="47.35657" lon="-1.19859">
        <ele>8</ele>
        <time>2011-10-02T05:52:07Z</time>
      </trkpt>
      <trkpt lat="47.3565" lon="-1.19873">
        <ele>8</ele>
        <time>2011-10-02T05:52:10Z</time>
      </trkpt>
      <trkpt lat="47.35641" lon="-1.19892">
        <ele>7</ele>
        <time>2011-10-02T05:52:13Z</time>
      </trkpt>
      <trkpt lat="47.35633" lon="-1.19912">
        <ele>7</ele>
        <time>2011-10-02T05:52:15Z</time>
      </trkpt>
      <trkpt lat="47.35628" lon="-1.19928">
        <ele>8</ele>
        <time>2011-10-02T05:52:17Z</time>
      </trkpt>
      <trkpt lat="47.35625" lon="-1.19946">
        <ele>8</ele>
        <time>2011-10-02T05:52:20Z</time>
      </trkpt>
      <trkpt lat="47.35622" lon="-1.19966">
        <ele>8</ele>
        <time>2011-10-02T05:52:22Z</time>
      </trkpt>
      <trkpt lat="47.35617" lon="-1.19995">
        <ele>8</ele>
        <time>2011-10-02T05:52:25Z</time>
      </trkpt>
      <trkpt lat="47.3561" lon="-1.20026">
        <ele>9</ele>
        <time>2011-10-02T05:52:27Z</time>
      </trkpt>
      <trkpt lat="47.35607" lon="-1.20047">
        <ele>9</ele>
        <time>2011-10-02T05:52:29Z</time>
      </trkpt>
      <trkpt lat="47.35604" lon="-1.2007">
        <ele>9</ele>
        <time>2011-10-02T05:52:32Z</time>
      </trkpt>
      <trkpt lat="47.35601" lon="-1.20092">
        <ele>10</ele>
        <time>2011-10-02T05:52:34Z</time>
      </trkpt>
      <trkpt lat="47.356" lon="-1.20124">
        <ele>9</ele>
        <time>2011-10-02T05:52:37Z</time>
      </trkpt>
      <trkpt lat="47.35602" lon="-1.20155">
        <ele>9</ele>
        <time>2011-10-02T05:52:40Z</time>
      </trkpt>
      <trkpt lat="47.35606" lon="-1.20183">
        <ele>9</ele>
        <time>2011-10-02T05:52:43Z</time>
      </trkpt>
      <trkpt lat="47.35608" lon="-1.20192">
        <ele>9</ele>
        <time>2011-10-02T05:52:45Z</time>
      </trkpt>
      <trkpt lat="47.35611" lon="-1.20202">
        <ele>9</ele>
        <time>2011-10-02T05:52:48Z</time>
      </trkpt>
      <trkpt lat="47.35611" lon="-1.20202">
        <ele>9</ele>
        <time>2011-10-02T05:52:50Z</time>
      </trkpt>
      <trkpt lat="47.35627" lon="-1.20201">
        <ele>9</ele>
        <time>2011-10-02T05:52:54Z</time>
      </trkpt>
      <trkpt lat="47.35636" lon="-1.20193">
        <ele>9</ele>
        <time>2011-10-02T05:52:57Z</time>
      </trkpt>
      <trkpt lat="47.35653" lon="-1.20179">
        <ele>9</ele>
        <time>2011-10-02T05:53:00Z</time>
      </trkpt>
      <trkpt lat="47.35665" lon="-1.20169">
        <ele>9</ele>
        <time>2011-10-02T05:53:02Z</time>
      </trkpt>
      <trkpt lat="47.35682" lon="-1.20153">
        <ele>9</ele>
        <time>2011-10-02T05:53:05Z</time>
      </trkpt>
      <trkpt lat="47.35698" lon="-1.20138">
        <ele>9</ele>
        <time>2011-10-02T05:53:08Z</time>
      </trkpt>
      <trkpt lat="47.35714" lon="-1.20124">
        <ele>8</ele>
        <time>2011-10-02T05:53:11Z</time>
      </trkpt>
      <trkpt lat="47.35732" lon="-1.20118">
        <ele>8</ele>
        <time>2011-10-02T05:53:13Z</time>
      </trkpt>
      <trkpt lat="47.35743" lon="-1.20119">
        <ele>8</ele>
        <time>2011-10-02T05:53:16Z</time>
      </trkpt>
      <trkpt lat="47.3576" lon="-1.20126">
        <ele>9</ele>
        <time>2011-10-02T05:53:18Z</time>
      </trkpt>
      <trkpt lat="47.35771" lon="-1.20132">
        <ele>9</ele>
        <time>2011-10-02T05:53:21Z</time>
      </trkpt>
      <trkpt lat="47.35787" lon="-1.20141">
        <ele>9</ele>
        <time>2011-10-02T05:53:23Z</time>
      </trkpt>
      <trkpt lat="47.35797" lon="-1.20147">
        <ele>9</ele>
        <time>2011-10-02T05:53:26Z</time>
      </trkpt>
      <trkpt lat="47.35813" lon="-1.20155">
        <ele>9</ele>
        <time>2011-10-02T05:53:29Z</time>
      </trkpt>
      <trkpt lat="47.35824" lon="-1.20159">
        <ele>9</ele>
        <time>2011-10-02T05:53:31Z</time>
      </trkpt>
      <trkpt lat="47.3584" lon="-1.20163">
        <ele>9</ele>
        <time>2011-10-02T05:53:34Z</time>
      </trkpt>
      <trkpt lat="47.35857" lon="-1.20166">
        <ele>9</ele>
        <time>2011-10-02T05:53:36Z</time>
      </trkpt>
      <trkpt lat="47.35874" lon="-1.20163">
        <ele>8</ele>
        <time>2011-10-02T05:53:40Z</time>
      </trkpt>
      <trkpt lat="47.3589" lon="-1.20155">
        <ele>8</ele>
        <time>2011-10-02T05:53:43Z</time>
      </trkpt>
      <trkpt lat="47.35905" lon="-1.20141">
        <ele>8</ele>
        <time>2011-10-02T05:53:46Z</time>
      </trkpt>
      <trkpt lat="47.3592" lon="-1.20123">
        <ele>8</ele>
        <time>2011-10-02T05:53:48Z</time>
      </trkpt>
      <trkpt lat="47.35934" lon="-1.20104">
        <ele>8</ele>
        <time>2011-10-02T05:53:51Z</time>
      </trkpt>
      <trkpt lat="47.3595" lon="-1.20084">
        <ele>8</ele>
        <time>2011-10-02T05:53:55Z</time>
      </trkpt>
      <trkpt lat="47.35962" lon="-1.20067">
        <ele>9</ele>
        <time>2011-10-02T05:53:57Z</time>
      </trkpt>
      <trkpt lat="47.35973" lon="-1.20048">
        <ele>9</ele>
        <time>2011-10-02T05:54:01Z</time>
      </trkpt>
      <trkpt lat="47.35983" lon="-1.20029">
        <ele>9</ele>
        <time>2011-10-02T05:54:04Z</time>
      </trkpt>
      <trkpt lat="47.35993" lon="-1.2001">
        <ele>9</ele>
        <time>2011-10-02T05:54:06Z</time>
      </trkpt>
      <trkpt lat="47.36" lon="-1.19999">
        <ele>9</ele>
        <time>2011-10-02T05:54:08Z</time>
      </trkpt>
      <trkpt lat="47.36008" lon="-1.19989">
        <ele>9</ele>
        <time>2011-10-02T05:54:10Z</time>
      </trkpt>
      <trkpt lat="47.36017" lon="-1.19985">
        <ele>9</ele>
        <time>2011-10-02T05:54:13Z</time>
      </trkpt>
      <trkpt lat="47.36032" lon="-1.19984">
        <ele>9</ele>
        <time>2011-10-02T05:54:16Z</time>
      </trkpt>
      <trkpt lat="47.36043" lon="-1.19986">
        <ele>9</ele>
        <time>2011-10-02T05:54:18Z</time>
      </trkpt>
      <trkpt lat="47.3606" lon="-1.19986">
        <ele>9</ele>
        <time>2011-10-02T05:54:21Z</time>
      </trkpt>
      <trkpt lat="47.36071" lon="-1.19984">
        <ele>10</ele>
        <time>2011-10-02T05:54:23Z</time>
      </trkpt>
      <trkpt lat="47.36082" lon="-1.19981">
        <ele>10</ele>
        <time>2011-10-02T05:54:25Z</time>
      </trkpt>
      <trkpt lat="47.36099" lon="-1.19977">
        <ele>9</ele>
        <time>2011-10-02T05:54:28Z</time>
      </trkpt>
      <trkpt lat="47.36116" lon="-1.19972">
        <ele>9</ele>
        <time>2011-10-02T05:54:31Z</time>
      </trkpt>
      <trkpt lat="47.36133" lon="-1.19967">
        <ele>9</ele>
        <time>2011-10-02T05:54:33Z</time>
      </trkpt>
      <trkpt lat="47.36149" lon="-1.19966">
        <ele>9</ele>
        <time>2011-10-02T05:54:36Z</time>
      </trkpt>
      <trkpt lat="47.3616" lon="-1.19969">
        <ele>9</ele>
        <time>2011-10-02T05:54:38Z</time>
      </trkpt>
      <trkpt lat="47.36171" lon="-1.19974">
        <ele>10</ele>
        <time>2011-10-02T05:54:41Z</time>
      </trkpt>
      <trkpt lat="47.36186" lon="-1.19988">
        <ele>10</ele>
        <time>2011-10-02T05:54:43Z</time>
      </trkpt>
      <trkpt lat="47.3619" lon="-1.19996">
        <ele>10</ele>
        <time>2011-10-02T05:54:46Z</time>
      </trkpt>
      <trkpt lat="47.36189" lon="-1.20013">
        <ele>11</ele>
        <time>2011-10-02T05:54:48Z</time>
      </trkpt>
      <trkpt lat="47.36188" lon="-1.20034">
        <ele>11</ele>
        <time>2011-10-02T05:54:52Z</time>
      </trkpt>
      <trkpt lat="47.36186" lon="-1.20051">
        <ele>11</ele>
        <time>2011-10-02T05:54:54Z</time>
      </trkpt>
      <trkpt lat="47.36182" lon="-1.20078">
        <ele>11</ele>
        <time>2011-10-02T05:54:56Z</time>
      </trkpt>
      <trkpt lat="47.36178" lon="-1.20094">
        <ele>11</ele>
        <time>2011-10-02T05:54:59Z</time>
      </trkpt>
      <trkpt lat="47.36177" lon="-1.2011">
        <ele>11</ele>
        <time>2011-10-02T05:55:01Z</time>
      </trkpt>
      <trkpt lat="47.36179" lon="-1.20121">
        <ele>11</ele>
        <time>2011-10-02T05:55:03Z</time>
      </trkpt>
      <trkpt lat="47.36179" lon="-1.20129">
        <ele>11</ele>
        <time>2011-10-02T05:55:07Z</time>
      </trkpt>
      <trkpt lat="47.362" lon="-1.20153">
        <ele>11</ele>
        <time>2011-10-02T05:55:20Z</time>
      </trkpt>
      <trkpt lat="47.36217" lon="-1.20173">
        <ele>12</ele>
        <time>2011-10-02T05:55:23Z</time>
      </trkpt>
      <trkpt lat="47.36235" lon="-1.20188">
        <ele>12</ele>
        <time>2011-10-02T05:55:26Z</time>
      </trkpt>
      <trkpt lat="47.36239" lon="-1.2021">
        <ele>12</ele>
        <time>2011-10-02T05:55:29Z</time>
      </trkpt>
      <trkpt lat="47.36235" lon="-1.20226">
        <ele>12</ele>
        <time>2011-10-02T05:55:31Z</time>
      </trkpt>
      <trkpt lat="47.3623" lon="-1.20248">
        <ele>12</ele>
        <time>2011-10-02T05:55:34Z</time>
      </trkpt>
      <trkpt lat="47.36226" lon="-1.2027">
        <ele>12</ele>
        <time>2011-10-02T05:55:37Z</time>
      </trkpt>
      <trkpt lat="47.36222" lon="-1.2029">
        <ele>12</ele>
        <time>2011-10-02T05:55:40Z</time>
      </trkpt>
      <trkpt lat="47.36218" lon="-1.2031">
        <ele>13</ele>
        <time>2011-10-02T05:55:42Z</time>
      </trkpt>
      <trkpt lat="47.36216" lon="-1.20329">
        <ele>13</ele>
        <time>2011-10-02T05:55:45Z</time>
      </trkpt>
      <trkpt lat="47.36215" lon="-1.20347">
        <ele>15</ele>
        <time>2011-10-02T05:55:49Z</time>
      </trkpt>
      <trkpt lat="47.36212" lon="-1.20361">
        <ele>15</ele>
        <time>2011-10-02T05:55:52Z</time>
      </trkpt>
      <trkpt lat="47.3621" lon="-1.20376">
        <ele>15</ele>
        <time>2011-10-02T05:55:54Z</time>
      </trkpt>
      <trkpt lat="47.36208" lon="-1.20392">
        <ele>15</ele>
        <time>2011-10-02T05:55:58Z</time>
      </trkpt>
      <trkpt lat="47.36206" lon="-1.20409">
        <ele>15</ele>
        <time>2011-10-02T05:56:01Z</time>
      </trkpt>
      <trkpt lat="47.36204" lon="-1.20431">
        <ele>17</ele>
        <time>2011-10-02T05:56:04Z</time>
      </trkpt>
      <trkpt lat="47.36203" lon="-1.20454">
        <ele>17</ele>
        <time>2011-10-02T05:56:07Z</time>
      </trkpt>
      <trkpt lat="47.36202" lon="-1.20474">
        <ele>18</ele>
        <time>2011-10-02T05:56:09Z</time>
      </trkpt>
      <trkpt lat="47.36199" lon="-1.20487">
        <ele>17</ele>
        <time>2011-10-02T05:56:11Z</time>
      </trkpt>
      <trkpt lat="47.36196" lon="-1.20502">
        <ele>17</ele>
        <time>2011-10-02T05:56:14Z</time>
      </trkpt>
      <trkpt lat="47.36188" lon="-1.20522">
        <ele>17</ele>
        <time>2011-10-02T05:56:16Z</time>
      </trkpt>
      <trkpt lat="47.36181" lon="-1.20535">
        <ele>17</ele>
        <time>2011-10-02T05:56:19Z</time>
      </trkpt>
      <trkpt lat="47.36174" lon="-1.20555">
        <ele>17</ele>
        <time>2011-10-02T05:56:22Z</time>
      </trkpt>
      <trkpt lat="47.3617" lon="-1.20574">
        <ele>16</ele>
        <time>2011-10-02T05:56:24Z</time>
      </trkpt>
      <trkpt lat="47.36166" lon="-1.20595">
        <ele>14</ele>
        <time>2011-10-02T05:56:28Z</time>
      </trkpt>
      <trkpt lat="47.36163" lon="-1.20616">
        <ele>14</ele>
        <time>2011-10-02T05:56:30Z</time>
      </trkpt>
      <trkpt lat="47.3616" lon="-1.20637">
        <ele>14</ele>
        <time>2011-10-02T05:56:34Z</time>
      </trkpt>
      <trkpt lat="47.36156" lon="-1.20658">
        <ele>15</ele>
        <time>2011-10-02T05:56:37Z</time>
      </trkpt>
      <trkpt lat="47.36153" lon="-1.20679">
        <ele>15</ele>
        <time>2011-10-02T05:56:39Z</time>
      </trkpt>
      <trkpt lat="47.36151" lon="-1.20692">
        <ele>15</ele>
        <time>2011-10-02T05:56:42Z</time>
      </trkpt>
      <trkpt lat="47.36147" lon="-1.20713">
        <ele>15</ele>
        <time>2011-10-02T05:56:44Z</time>
      </trkpt>
      <trkpt lat="47.36145" lon="-1.20726">
        <ele>15</ele>
        <time>2011-10-02T05:56:46Z</time>
      </trkpt>
      <trkpt lat="47.3614" lon="-1.20745">
        <ele>15</ele>
        <time>2011-10-02T05:56:50Z</time>
      </trkpt>
      <trkpt lat="47.36136" lon="-1.20764">
        <ele>16</ele>
        <time>2011-10-02T05:56:53Z</time>
      </trkpt>
      <trkpt lat="47.36133" lon="-1.20785">
        <ele>16</ele>
        <time>2011-10-02T05:56:56Z</time>
      </trkpt>
      <trkpt lat="47.36134" lon="-1.20804">
        <ele>16</ele>
        <time>2011-10-02T05:56:59Z</time>
      </trkpt>
      <trkpt lat="47.36138" lon="-1.2081">
        <ele>17</ele>
        <time>2011-10-02T05:57:01Z</time>
      </trkpt>
      <trkpt lat="47.36148" lon="-1.20812">
        <ele>18</ele>
        <time>2011-10-02T05:57:03Z</time>
      </trkpt>
      <trkpt lat="47.36157" lon="-1.20814">
        <ele>18</ele>
        <time>2011-10-02T05:57:06Z</time>
      </trkpt>
      <trkpt lat="47.36165" lon="-1.20815">
        <ele>19</ele>
        <time>2011-10-02T05:57:09Z</time>
      </trkpt>
      <trkpt lat="47.3617" lon="-1.20817">
        <ele>22</ele>
        <time>2011-10-02T05:57:11Z</time>
      </trkpt>
      <trkpt lat="47.36178" lon="-1.20819">
        <ele>22</ele>
        <time>2011-10-02T05:57:14Z</time>
      </trkpt>
      <trkpt lat="47.36183" lon="-1.20821">
        <ele>23</ele>
        <time>2011-10-02T05:57:17Z</time>
      </trkpt>
      <trkpt lat="47.3619" lon="-1.20825">
        <ele>23</ele>
        <time>2011-10-02T05:57:20Z</time>
      </trkpt>
      <trkpt lat="47.36192" lon="-1.20837">
        <ele>25</ele>
        <time>2011-10-02T05:57:22Z</time>
      </trkpt>
      <trkpt lat="47.36193" lon="-1.2085">
        <ele>25</ele>
        <time>2011-10-02T05:57:25Z</time>
      </trkpt>
      <trkpt lat="47.36194" lon="-1.20863">
        <ele>25</ele>
        <time>2011-10-02T05:57:29Z</time>
      </trkpt>
      <trkpt lat="47.36195" lon="-1.20875">
        <ele>25</ele>
        <time>2011-10-02T05:57:31Z</time>
      </trkpt>
      <trkpt lat="47.36196" lon="-1.20888">
        <ele>25</ele>
        <time>2011-10-02T05:57:35Z</time>
      </trkpt>
      <trkpt lat="47.36196" lon="-1.20896">
        <ele>25</ele>
        <time>2011-10-02T05:57:37Z</time>
      </trkpt>
      <trkpt lat="47.36202" lon="-1.20901">
        <ele>26</ele>
        <time>2011-10-02T05:57:40Z</time>
      </trkpt>
      <trkpt lat="47.36211" lon="-1.20902">
        <ele>26</ele>
        <time>2011-10-02T05:57:42Z</time>
      </trkpt>
      <trkpt lat="47.36217" lon="-1.20902">
        <ele>26</ele>
        <time>2011-10-02T05:57:44Z</time>
      </trkpt>
      <trkpt lat="47.36224" lon="-1.20902">
        <ele>27</ele>
        <time>2011-10-02T05:57:47Z</time>
      </trkpt>
      <trkpt lat="47.36234" lon="-1.20901">
        <ele>27</ele>
        <time>2011-10-02T05:57:50Z</time>
      </trkpt>
      <trkpt lat="47.36244" lon="-1.20902">
        <ele>28</ele>
        <time>2011-10-02T05:57:53Z</time>
      </trkpt>
      <trkpt lat="47.36254" lon="-1.20903">
        <ele>30</ele>
        <time>2011-10-02T05:57:55Z</time>
      </trkpt>
      <trkpt lat="47.36264" lon="-1.20903">
        <ele>30</ele>
        <time>2011-10-02T05:57:58Z</time>
      </trkpt>
      <trkpt lat="47.36273" lon="-1.20909">
        <ele>30</ele>
        <time>2011-10-02T05:58:02Z</time>
      </trkpt>
      <trkpt lat="47.36275" lon="-1.20924">
        <ele>31</ele>
        <time>2011-10-02T05:58:05Z</time>
      </trkpt>
      <trkpt lat="47.36275" lon="-1.20935">
        <ele>31</ele>
        <time>2011-10-02T05:58:07Z</time>
      </trkpt>
      <trkpt lat="47.36274" lon="-1.20947">
        <ele>32</ele>
        <time>2011-10-02T05:58:09Z</time>
      </trkpt>
      <trkpt lat="47.36274" lon="-1.20964">
        <ele>32</ele>
        <time>2011-10-02T05:58:12Z</time>
      </trkpt>
      <trkpt lat="47.36273" lon="-1.2098">
        <ele>32</ele>
        <time>2011-10-02T05:58:14Z</time>
      </trkpt>
      <trkpt lat="47.36273" lon="-1.20991">
        <ele>32</ele>
        <time>2011-10-02T05:58:17Z</time>
      </trkpt>
      <trkpt lat="47.36275" lon="-1.20998">
        <ele>32</ele>
        <time>2011-10-02T05:58:19Z</time>
      </trkpt>
      <trkpt lat="47.36283" lon="-1.21">
        <ele>32</ele>
        <time>2011-10-02T05:58:22Z</time>
      </trkpt>
      <trkpt lat="47.36295" lon="-1.21">
        <ele>33</ele>
        <time>2011-10-02T05:58:24Z</time>
      </trkpt>
      <trkpt lat="47.36307" lon="-1.21001">
        <ele>33</ele>
        <time>2011-10-02T05:58:28Z</time>
      </trkpt>
      <trkpt lat="47.36317" lon="-1.21002">
        <ele>33</ele>
        <time>2011-10-02T05:58:30Z</time>
      </trkpt>
      <trkpt lat="47.36328" lon="-1.21004">
        <ele>34</ele>
        <time>2011-10-02T05:58:33Z</time>
      </trkpt>
      <trkpt lat="47.36334" lon="-1.21005">
        <ele>34</ele>
        <time>2011-10-02T05:58:36Z</time>
      </trkpt>
      <trkpt lat="47.36341" lon="-1.21006">
        <ele>35</ele>
        <time>2011-10-02T05:58:38Z</time>
      </trkpt>
      <trkpt lat="47.36351" lon="-1.21009">
        <ele>35</ele>
        <time>2011-10-02T05:58:40Z</time>
      </trkpt>
      <trkpt lat="47.36356" lon="-1.21018">
        <ele>36</ele>
        <time>2011-10-02T05:58:42Z</time>
      </trkpt>
      <trkpt lat="47.36359" lon="-1.21034">
        <ele>36</ele>
        <time>2011-10-02T05:58:45Z</time>
      </trkpt>
      <trkpt lat="47.36361" lon="-1.21049">
        <ele>36</ele>
        <time>2011-10-02T05:58:48Z</time>
      </trkpt>
      <trkpt lat="47.36371" lon="-1.21053">
        <ele>36</ele>
        <time>2011-10-02T05:58:51Z</time>
      </trkpt>
      <trkpt lat="47.36382" lon="-1.21052">
        <ele>36</ele>
        <time>2011-10-02T05:58:54Z</time>
      </trkpt>
      <trkpt lat="47.36394" lon="-1.2105">
        <ele>37</ele>
        <time>2011-10-02T05:58:58Z</time>
      </trkpt>
      <trkpt lat="47.36406" lon="-1.21047">
        <ele>37</ele>
        <time>2011-10-02T05:59:01Z</time>
      </trkpt>
      <trkpt lat="47.36413" lon="-1.21046">
        <ele>37</ele>
        <time>2011-10-02T05:59:03Z</time>
      </trkpt>
      <trkpt lat="47.36425" lon="-1.21045">
        <ele>39</ele>
        <time>2011-10-02T05:59:05Z</time>
      </trkpt>
      <trkpt lat="47.36437" lon="-1.21044">
        <ele>39</ele>
        <time>2011-10-02T05:59:09Z</time>
      </trkpt>
      <trkpt lat="47.36445" lon="-1.21043">
        <ele>39</ele>
        <time>2011-10-02T05:59:11Z</time>
      </trkpt>
      <trkpt lat="47.36457" lon="-1.21046">
        <ele>39</ele>
        <time>2011-10-02T05:59:13Z</time>
      </trkpt>
      <trkpt lat="47.36462" lon="-1.21055">
        <ele>39</ele>
        <time>2011-10-02T05:59:16Z</time>
      </trkpt>
      <trkpt lat="47.3646" lon="-1.21073">
        <ele>39</ele>
        <time>2011-10-02T05:59:18Z</time>
      </trkpt>
      <trkpt lat="47.36456" lon="-1.21091">
        <ele>40</ele>
        <time>2011-10-02T05:59:22Z</time>
      </trkpt>
      <trkpt lat="47.36454" lon="-1.2111">
        <ele>40</ele>
        <time>2011-10-02T05:59:24Z</time>
      </trkpt>
      <trkpt lat="47.36454" lon="-1.21128">
        <ele>40</ele>
        <time>2011-10-02T05:59:28Z</time>
      </trkpt>
      <trkpt lat="47.36466" lon="-1.21136">
        <ele>40</ele>
        <time>2011-10-02T05:59:30Z</time>
      </trkpt>
      <trkpt lat="47.36474" lon="-1.21136">
        <ele>40</ele>
        <time>2011-10-02T05:59:32Z</time>
      </trkpt>
      <trkpt lat="47.36483" lon="-1.21136">
        <ele>40</ele>
        <time>2011-10-02T05:59:35Z</time>
      </trkpt>
      <trkpt lat="47.36492" lon="-1.21137">
        <ele>40</ele>
        <time>2011-10-02T05:59:37Z</time>
      </trkpt>
      <trkpt lat="47.36506" lon="-1.21137">
        <ele>41</ele>
        <time>2011-10-02T05:59:39Z</time>
      </trkpt>
      <trkpt lat="47.36519" lon="-1.21143">
        <ele>42</ele>
        <time>2011-10-02T05:59:42Z</time>
      </trkpt>
      <trkpt lat="47.36523" lon="-1.21164">
        <ele>42</ele>
        <time>2011-10-02T05:59:45Z</time>
      </trkpt>
      <trkpt lat="47.36523" lon="-1.21178">
        <ele>42</ele>
        <time>2011-10-02T05:59:47Z</time>
      </trkpt>
      <trkpt lat="47.36522" lon="-1.21193">
        <ele>42</ele>
        <time>2011-10-02T05:59:50Z</time>
      </trkpt>
      <trkpt lat="47.3652" lon="-1.21208">
        <ele>42</ele>
        <time>2011-10-02T05:59:52Z</time>
      </trkpt>
      <trkpt lat="47.36517" lon="-1.2123">
        <ele>42</ele>
        <time>2011-10-02T05:59:54Z</time>
      </trkpt>
      <trkpt lat="47.36515" lon="-1.21245">
        <ele>41</ele>
        <time>2011-10-02T05:59:57Z</time>
      </trkpt>
      <trkpt lat="47.36513" lon="-1.2126">
        <ele>42</ele>
        <time>2011-10-02T05:59:59Z</time>
      </trkpt>
      <trkpt lat="47.36511" lon="-1.21283">
        <ele>42</ele>
        <time>2011-10-02T06:00:02Z</time>
      </trkpt>
      <trkpt lat="47.36508" lon="-1.21307">
        <ele>42</ele>
        <time>2011-10-02T06:00:05Z</time>
      </trkpt>
      <trkpt lat="47.36505" lon="-1.21323">
        <ele>42</ele>
        <time>2011-10-02T06:00:07Z</time>
      </trkpt>
      <trkpt lat="47.36501" lon="-1.21348">
        <ele>42</ele>
        <time>2011-10-02T06:00:10Z</time>
      </trkpt>
      <trkpt lat="47.36497" lon="-1.21373">
        <ele>41</ele>
        <time>2011-10-02T06:00:12Z</time>
      </trkpt>
      <trkpt lat="47.36492" lon="-1.21398">
        <ele>41</ele>
        <time>2011-10-02T06:00:15Z</time>
      </trkpt>
      <trkpt lat="47.36487" lon="-1.21424">
        <ele>40</ele>
        <time>2011-10-02T06:00:18Z</time>
      </trkpt>
      <trkpt lat="47.36482" lon="-1.21449">
        <ele>39</ele>
        <time>2011-10-02T06:00:22Z</time>
      </trkpt>
      <trkpt lat="47.36479" lon="-1.21467">
        <ele>39</ele>
        <time>2011-10-02T06:00:24Z</time>
      </trkpt>
      <trkpt lat="47.36476" lon="-1.21494">
        <ele>39</ele>
        <time>2011-10-02T06:00:26Z</time>
      </trkpt>
      <trkpt lat="47.36474" lon="-1.21512">
        <ele>38</ele>
        <time>2011-10-02T06:00:29Z</time>
      </trkpt>
      <trkpt lat="47.36472" lon="-1.2154">
        <ele>38</ele>
        <time>2011-10-02T06:00:32Z</time>
      </trkpt>
      <trkpt lat="47.36469" lon="-1.21566">
        <ele>38</ele>
        <time>2011-10-02T06:00:35Z</time>
      </trkpt>
      <trkpt lat="47.36467" lon="-1.21591">
        <ele>38</ele>
        <time>2011-10-02T06:00:38Z</time>
      </trkpt>
      <trkpt lat="47.36466" lon="-1.21616">
        <ele>39</ele>
        <time>2011-10-02T06:00:41Z</time>
      </trkpt>
      <trkpt lat="47.36465" lon="-1.2164">
        <ele>39</ele>
        <time>2011-10-02T06:00:44Z</time>
      </trkpt>
      <trkpt lat="47.36464" lon="-1.21657">
        <ele>39</ele>
        <time>2011-10-02T06:00:46Z</time>
      </trkpt>
      <trkpt lat="47.36462" lon="-1.21682">
        <ele>39</ele>
        <time>2011-10-02T06:00:48Z</time>
      </trkpt>
      <trkpt lat="47.36459" lon="-1.21705">
        <ele>39</ele>
        <time>2011-10-02T06:00:52Z</time>
      </trkpt>
      <trkpt lat="47.36455" lon="-1.21727">
        <ele>40</ele>
        <time>2011-10-02T06:00:54Z</time>
      </trkpt>
      <trkpt lat="47.36449" lon="-1.21748">
        <ele>40</ele>
        <time>2011-10-02T06:00:57Z</time>
      </trkpt>
      <trkpt lat="47.3644" lon="-1.21766">
        <ele>40</ele>
        <time>2011-10-02T06:01:01Z</time>
      </trkpt>
      <trkpt lat="47.36432" lon="-1.21777">
        <ele>40</ele>
        <time>2011-10-02T06:01:03Z</time>
      </trkpt>
      <trkpt lat="47.36419" lon="-1.21792">
        <ele>40</ele>
        <time>2011-10-02T06:01:05Z</time>
      </trkpt>
      <trkpt lat="47.36412" lon="-1.21803">
        <ele>39</ele>
        <time>2011-10-02T06:01:08Z</time>
      </trkpt>
      <trkpt lat="47.36403" lon="-1.21817">
        <ele>39</ele>
        <time>2011-10-02T06:01:10Z</time>
      </trkpt>
      <trkpt lat="47.364" lon="-1.21823">
        <ele>39</ele>
        <time>2011-10-02T06:01:13Z</time>
      </trkpt>
      <trkpt lat="47.36393" lon="-1.21829">
        <ele>39</ele>
        <time>2011-10-02T06:01:15Z</time>
      </trkpt>
      <trkpt lat="47.36379" lon="-1.21832">
        <ele>39</ele>
        <time>2011-10-02T06:01:18Z</time>
      </trkpt>
      <trkpt lat="47.36365" lon="-1.21837">
        <ele>40</ele>
        <time>2011-10-02T06:01:22Z</time>
      </trkpt>
      <trkpt lat="47.36351" lon="-1.21845">
        <ele>39</ele>
        <time>2011-10-02T06:01:25Z</time>
      </trkpt>
      <trkpt lat="47.36337" lon="-1.21847">
        <ele>39</ele>
        <time>2011-10-02T06:01:28Z</time>
      </trkpt>
      <trkpt lat="47.36319" lon="-1.21847">
        <ele>38</ele>
        <time>2011-10-02T06:01:31Z</time>
      </trkpt>
      <trkpt lat="47.363" lon="-1.21851">
        <ele>38</ele>
        <time>2011-10-02T06:01:33Z</time>
      </trkpt>
      <trkpt lat="47.36288" lon="-1.21856">
        <ele>38</ele>
        <time>2011-10-02T06:01:36Z</time>
      </trkpt>
      <trkpt lat="47.36279" lon="-1.21876">
        <ele>38</ele>
        <time>2011-10-02T06:01:39Z</time>
      </trkpt>
      <trkpt lat="47.36278" lon="-1.21897">
        <ele>39</ele>
        <time>2011-10-02T06:01:42Z</time>
      </trkpt>
      <trkpt lat="47.36279" lon="-1.21918">
        <ele>41</ele>
        <time>2011-10-02T06:01:44Z</time>
      </trkpt>
      <trkpt lat="47.3628" lon="-1.21931">
        <ele>41</ele>
        <time>2011-10-02T06:01:47Z</time>
      </trkpt>
      <trkpt lat="47.3628" lon="-1.21951">
        <ele>42</ele>
        <time>2011-10-02T06:01:49Z</time>
      </trkpt>
      <trkpt lat="47.36279" lon="-1.21969">
        <ele>42</ele>
        <time>2011-10-02T06:01:53Z</time>
      </trkpt>
      <trkpt lat="47.36278" lon="-1.21981">
        <ele>42</ele>
        <time>2011-10-02T06:01:55Z</time>
      </trkpt>
      <trkpt lat="47.36273" lon="-1.21998">
        <ele>43</ele>
        <time>2011-10-02T06:01:57Z</time>
      </trkpt>
      <trkpt lat="47.3627" lon="-1.22009">
        <ele>44</ele>
        <time>2011-10-02T06:01:59Z</time>
      </trkpt>
      <trkpt lat="47.36267" lon="-1.2202">
        <ele>44</ele>
        <time>2011-10-02T06:02:02Z</time>
      </trkpt>
      <trkpt lat="47.36261" lon="-1.22035">
        <ele>45</ele>
        <time>2011-10-02T06:02:05Z</time>
      </trkpt>
      <trkpt lat="47.36255" lon="-1.22049">
        <ele>45</ele>
        <time>2011-10-02T06:02:07Z</time>
      </trkpt>
      <trkpt lat="47.36251" lon="-1.22057">
        <ele>45</ele>
        <time>2011-10-02T06:02:10Z</time>
      </trkpt>
      <trkpt lat="47.36245" lon="-1.22066">
        <ele>46</ele>
        <time>2011-10-02T06:02:12Z</time>
      </trkpt>
      <trkpt lat="47.36237" lon="-1.22066">
        <ele>46</ele>
        <time>2011-10-02T06:02:15Z</time>
      </trkpt>
      <trkpt lat="47.36229" lon="-1.22061">
        <ele>46</ele>
        <time>2011-10-02T06:02:17Z</time>
      </trkpt>
      <trkpt lat="47.36217" lon="-1.22056">
        <ele>46</ele>
        <time>2011-10-02T06:02:19Z</time>
      </trkpt>
      <trkpt lat="47.36205" lon="-1.22051">
        <ele>46</ele>
        <time>2011-10-02T06:02:22Z</time>
      </trkpt>
      <trkpt lat="47.36194" lon="-1.22041">
        <ele>46</ele>
        <time>2011-10-02T06:02:26Z</time>
      </trkpt>
      <trkpt lat="47.36182" lon="-1.22027">
        <ele>46</ele>
        <time>2011-10-02T06:02:29Z</time>
      </trkpt>
      <trkpt lat="47.3617" lon="-1.22008">
        <ele>45</ele>
        <time>2011-10-02T06:02:32Z</time>
      </trkpt>
      <trkpt lat="47.36163" lon="-1.21995">
        <ele>44</ele>
        <time>2011-10-02T06:02:34Z</time>
      </trkpt>
      <trkpt lat="47.36152" lon="-1.21976">
        <ele>43</ele>
        <time>2011-10-02T06:02:36Z</time>
      </trkpt>
      <trkpt lat="47.36142" lon="-1.21956">
        <ele>42</ele>
        <time>2011-10-02T06:02:40Z</time>
      </trkpt>
      <trkpt lat="47.3613" lon="-1.21937">
        <ele>42</ele>
        <time>2011-10-02T06:02:42Z</time>
      </trkpt>
      <trkpt lat="47.36114" lon="-1.21937">
        <ele>42</ele>
        <time>2011-10-02T06:02:45Z</time>
      </trkpt>
      <trkpt lat="47.36104" lon="-1.21942">
        <ele>42</ele>
        <time>2011-10-02T06:02:48Z</time>
      </trkpt>
      <trkpt lat="47.36091" lon="-1.2194">
        <ele>41</ele>
        <time>2011-10-02T06:02:50Z</time>
      </trkpt>
      <trkpt lat="47.36085" lon="-1.2193">
        <ele>41</ele>
        <time>2011-10-02T06:02:53Z</time>
      </trkpt>
      <trkpt lat="47.36077" lon="-1.21914">
        <ele>39</ele>
        <time>2011-10-02T06:02:56Z</time>
      </trkpt>
      <trkpt lat="47.36072" lon="-1.21897">
        <ele>37</ele>
        <time>2011-10-02T06:02:58Z</time>
      </trkpt>
      <trkpt lat="47.36066" lon="-1.21879">
        <ele>36</ele>
        <time>2011-10-02T06:03:01Z</time>
      </trkpt>
      <trkpt lat="47.36054" lon="-1.21845">
        <ele>35</ele>
        <time>2011-10-02T06:03:04Z</time>
      </trkpt>
      <trkpt lat="47.36041" lon="-1.21809">
        <ele>31</ele>
        <time>2011-10-02T06:03:07Z</time>
      </trkpt>
      <trkpt lat="47.36031" lon="-1.21771">
        <ele>30</ele>
        <time>2011-10-02T06:03:09Z</time>
      </trkpt>
      <trkpt lat="47.36025" lon="-1.21746">
        <ele>25</ele>
        <time>2011-10-02T06:03:11Z</time>
      </trkpt>
      <trkpt lat="47.36022" lon="-1.21721">
        <ele>25</ele>
        <time>2011-10-02T06:03:14Z</time>
      </trkpt>
      <trkpt lat="47.36022" lon="-1.21692">
        <ele>23</ele>
        <time>2011-10-02T06:03:16Z</time>
      </trkpt>
      <trkpt lat="47.36019" lon="-1.21678">
        <ele>22</ele>
        <time>2011-10-02T06:03:19Z</time>
      </trkpt>
      <trkpt lat="47.36005" lon="-1.2166">
        <ele>19</ele>
        <time>2011-10-02T06:03:21Z</time>
      </trkpt>
      <trkpt lat="47.35986" lon="-1.21642">
        <ele>15</ele>
        <time>2011-10-02T06:03:24Z</time>
      </trkpt>
      <trkpt lat="47.35979" lon="-1.21628">
        <ele>14</ele>
        <time>2011-10-02T06:03:26Z</time>
      </trkpt>
      <trkpt lat="47.35981" lon="-1.21612">
        <ele>14</ele>
        <time>2011-10-02T06:03:28Z</time>
      </trkpt>
      <trkpt lat="47.35988" lon="-1.21588">
        <ele>14</ele>
        <time>2011-10-02T06:03:31Z</time>
      </trkpt>
      <trkpt lat="47.35994" lon="-1.21564">
        <ele>12</ele>
        <time>2011-10-02T06:03:35Z</time>
      </trkpt>
      <trkpt lat="47.35997" lon="-1.21544">
        <ele>11</ele>
        <time>2011-10-02T06:03:38Z</time>
      </trkpt>
      <trkpt lat="47.35995" lon="-1.21532">
        <ele>11</ele>
        <time>2011-10-02T06:03:40Z</time>
      </trkpt>
      <trkpt lat="47.35992" lon="-1.21526">
        <ele>11</ele>
        <time>2011-10-02T06:03:43Z</time>
      </trkpt>
      <trkpt lat="47.35983" lon="-1.21523">
        <ele>11</ele>
        <time>2011-10-02T06:03:45Z</time>
      </trkpt>
      <trkpt lat="47.35983" lon="-1.21523">
        <ele>11</ele>
        <time>2011-10-02T06:03:47Z</time>
      </trkpt>
      <trkpt lat="47.3597" lon="-1.2154">
        <ele>11</ele>
        <time>2011-10-02T06:03:53Z</time>
      </trkpt>
      <trkpt lat="47.35967" lon="-1.21548">
        <ele>11</ele>
        <time>2011-10-02T06:03:56Z</time>
      </trkpt>
      <trkpt lat="47.35964" lon="-1.21556">
        <ele>11</ele>
        <time>2011-10-02T06:03:57Z</time>
      </trkpt>
      <trkpt lat="47.35953" lon="-1.21572">
        <ele>11</ele>
        <time>2011-10-02T06:04:02Z</time>
      </trkpt>
      <trkpt lat="47.35944" lon="-1.21581">
        <ele>10</ele>
        <time>2011-10-02T06:04:04Z</time>
      </trkpt>
      <trkpt lat="47.35936" lon="-1.21595">
        <ele>11</ele>
        <time>2011-10-02T06:04:07Z</time>
      </trkpt>
      <trkpt lat="47.35931" lon="-1.21608">
        <ele>12</ele>
        <time>2011-10-02T06:04:09Z</time>
      </trkpt>
      <trkpt lat="47.35926" lon="-1.21628">
        <ele>12</ele>
        <time>2011-10-02T06:04:13Z</time>
      </trkpt>
      <trkpt lat="47.35925" lon="-1.21641">
        <ele>12</ele>
        <time>2011-10-02T06:04:15Z</time>
      </trkpt>
      <trkpt lat="47.35924" lon="-1.21656">
        <ele>11</ele>
        <time>2011-10-02T06:04:17Z</time>
      </trkpt>
      <trkpt lat="47.35923" lon="-1.21664">
        <ele>11</ele>
        <time>2011-10-02T06:04:19Z</time>
      </trkpt>
      <trkpt lat="47.35923" lon="-1.21676">
        <ele>12</ele>
        <time>2011-10-02T06:04:22Z</time>
      </trkpt>
      <trkpt lat="47.35923" lon="-1.2169">
        <ele>14</ele>
        <time>2011-10-02T06:04:25Z</time>
      </trkpt>
      <trkpt lat="47.35923" lon="-1.21704">
        <ele>14</ele>
        <time>2011-10-02T06:04:28Z</time>
      </trkpt>
      <trkpt lat="47.35925" lon="-1.21721">
        <ele>15</ele>
        <time>2011-10-02T06:04:31Z</time>
      </trkpt>
      <trkpt lat="47.35925" lon="-1.21728">
        <ele>14</ele>
        <time>2011-10-02T06:04:34Z</time>
      </trkpt>
      <trkpt lat="47.35925" lon="-1.21728">
        <ele>14</ele>
        <time>2011-10-02T06:04:34Z</time>
      </trkpt>
      <trkpt lat="47.35919" lon="-1.2177">
        <ele>15</ele>
        <time>2011-10-02T06:04:41Z</time>
      </trkpt>
      <trkpt lat="47.35919" lon="-1.2177">
        <ele>15</ele>
        <time>2011-10-02T06:04:44Z</time>
      </trkpt>
      <trkpt lat="47.35912" lon="-1.21803">
        <ele>11</ele>
        <time>2011-10-02T06:04:47Z</time>
      </trkpt>
      <trkpt lat="47.3591" lon="-1.21815">
        <ele>11</ele>
        <time>2011-10-02T06:04:50Z</time>
      </trkpt>
      <trkpt lat="47.35908" lon="-1.21829">
        <ele>12</ele>
        <time>2011-10-02T06:04:52Z</time>
      </trkpt>
      <trkpt lat="47.35908" lon="-1.21829">
        <ele>12</ele>
        <time>2011-10-02T06:04:54Z</time>
      </trkpt>
      <trkpt lat="47.35905" lon="-1.21859">
        <ele>12</ele>
        <time>2011-10-02T06:04:59Z</time>
      </trkpt>
      <trkpt lat="47.35905" lon="-1.21875">
        <ele>12</ele>
        <time>2011-10-02T06:05:02Z</time>
      </trkpt>
      <trkpt lat="47.35904" lon="-1.21893">
        <ele>12</ele>
        <time>2011-10-02T06:05:04Z</time>
      </trkpt>
      <trkpt lat="47.359" lon="-1.2191">
        <ele>13</ele>
        <time>2011-10-02T06:05:07Z</time>
      </trkpt>
      <trkpt lat="47.35898" lon="-1.2192">
        <ele>13</ele>
        <time>2011-10-02T06:05:09Z</time>
      </trkpt>
      <trkpt lat="47.35898" lon="-1.2192">
        <ele>13</ele>
        <time>2011-10-02T06:05:11Z</time>
      </trkpt>
      <trkpt lat="47.35893" lon="-1.21947">
        <ele>12</ele>
        <time>2011-10-02T06:05:15Z</time>
      </trkpt>
      <trkpt lat="47.35887" lon="-1.21973">
        <ele>12</ele>
        <time>2011-10-02T06:05:18Z</time>
      </trkpt>
      <trkpt lat="47.35883" lon="-1.2199">
        <ele>12</ele>
        <time>2011-10-02T06:05:21Z</time>
      </trkpt>
      <trkpt lat="47.35877" lon="-1.22013">
        <ele>11</ele>
        <time>2011-10-02T06:05:23Z</time>
      </trkpt>
      <trkpt lat="47.35873" lon="-1.22028">
        <ele>10</ele>
        <time>2011-10-02T06:05:26Z</time>
      </trkpt>
      <trkpt lat="47.35868" lon="-1.22048">
        <ele>10</ele>
        <time>2011-10-02T06:05:29Z</time>
      </trkpt>
      <trkpt lat="47.35864" lon="-1.2207">
        <ele>10</ele>
        <time>2011-10-02T06:05:31Z</time>
      </trkpt>
      <trkpt lat="47.3586" lon="-1.22085">
        <ele>9</ele>
        <time>2011-10-02T06:05:34Z</time>
      </trkpt>
      <trkpt lat="47.35853" lon="-1.22111">
        <ele>9</ele>
        <time>2011-10-02T06:05:36Z</time>
      </trkpt>
      <trkpt lat="47.35846" lon="-1.22134">
        <ele>8</ele>
        <time>2011-10-02T06:05:39Z</time>
      </trkpt>
      <trkpt lat="47.35841" lon="-1.22148">
        <ele>8</ele>
        <time>2011-10-02T06:05:42Z</time>
      </trkpt>
      <trkpt lat="47.35836" lon="-1.2216">
        <ele>8</ele>
        <time>2011-10-02T06:05:44Z</time>
      </trkpt>
      <trkpt lat="47.35829" lon="-1.22179">
        <ele>8</ele>
        <time>2011-10-02T06:05:47Z</time>
      </trkpt>
      <trkpt lat="47.35821" lon="-1.22198">
        <ele>8</ele>
        <time>2011-10-02T06:05:50Z</time>
      </trkpt>
      <trkpt lat="47.35814" lon="-1.22216">
        <ele>9</ele>
        <time>2011-10-02T06:05:53Z</time>
      </trkpt>
      <trkpt lat="47.35808" lon="-1.22232">
        <ele>9</ele>
        <time>2011-10-02T06:05:56Z</time>
      </trkpt>
      <trkpt lat="47.35804" lon="-1.22243">
        <ele>9</ele>
        <time>2011-10-02T06:05:58Z</time>
      </trkpt>
      <trkpt lat="47.35796" lon="-1.22258">
        <ele>10</ele>
        <time>2011-10-02T06:06:00Z</time>
      </trkpt>
      <trkpt lat="47.35791" lon="-1.22268">
        <ele>10</ele>
        <time>2011-10-02T06:06:02Z</time>
      </trkpt>
      <trkpt lat="47.35782" lon="-1.22286">
        <ele>10</ele>
        <time>2011-10-02T06:06:05Z</time>
      </trkpt>
      <trkpt lat="47.35775" lon="-1.22299">
        <ele>10</ele>
        <time>2011-10-02T06:06:08Z</time>
      </trkpt>
      <trkpt lat="47.35766" lon="-1.22318">
        <ele>10</ele>
        <time>2011-10-02T06:06:11Z</time>
      </trkpt>
      <trkpt lat="47.35756" lon="-1.22328">
        <ele>9</ele>
        <time>2011-10-02T06:06:13Z</time>
      </trkpt>
      <trkpt lat="47.3575" lon="-1.22335">
        <ele>9</ele>
        <time>2011-10-02T06:06:15Z</time>
      </trkpt>
      <trkpt lat="47.35738" lon="-1.22347">
        <ele>9</ele>
        <time>2011-10-02T06:06:18Z</time>
      </trkpt>
      <trkpt lat="47.35729" lon="-1.22359">
        <ele>9</ele>
        <time>2011-10-02T06:06:21Z</time>
      </trkpt>
      <trkpt lat="47.35724" lon="-1.22369">
        <ele>9</ele>
        <time>2011-10-02T06:06:24Z</time>
      </trkpt>
      <trkpt lat="47.35711" lon="-1.2238">
        <ele>9</ele>
        <time>2011-10-02T06:06:30Z</time>
      </trkpt>
      <trkpt lat="47.35713" lon="-1.22388">
        <ele>9</ele>
        <time>2011-10-02T06:06:32Z</time>
      </trkpt>
      <trkpt lat="47.35717" lon="-1.22395">
        <ele>9</ele>
        <time>2011-10-02T06:06:34Z</time>
      </trkpt>
      <trkpt lat="47.35726" lon="-1.22405">
        <ele>10</ele>
        <time>2011-10-02T06:06:37Z</time>
      </trkpt>
      <trkpt lat="47.35735" lon="-1.22414">
        <ele>10</ele>
        <time>2011-10-02T06:06:40Z</time>
      </trkpt>
      <trkpt lat="47.35747" lon="-1.22427">
        <ele>11</ele>
        <time>2011-10-02T06:06:42Z</time>
      </trkpt>
      <trkpt lat="47.35752" lon="-1.22433">
        <ele>13</ele>
        <time>2011-10-02T06:06:45Z</time>
      </trkpt>
      <trkpt lat="47.35761" lon="-1.22447">
        <ele>14</ele>
        <time>2011-10-02T06:06:47Z</time>
      </trkpt>
      <trkpt lat="47.35764" lon="-1.22456">
        <ele>14</ele>
        <time>2011-10-02T06:06:49Z</time>
      </trkpt>
      <trkpt lat="47.3576" lon="-1.22468">
        <ele>14</ele>
        <time>2011-10-02T06:06:52Z</time>
      </trkpt>
      <trkpt lat="47.35752" lon="-1.22486">
        <ele>15</ele>
        <time>2011-10-02T06:06:55Z</time>
      </trkpt>
      <trkpt lat="47.35742" lon="-1.22505">
        <ele>15</ele>
        <time>2011-10-02T06:06:57Z</time>
      </trkpt>
      <trkpt lat="47.35735" lon="-1.22517">
        <ele>14</ele>
        <time>2011-10-02T06:06:59Z</time>
      </trkpt>
      <trkpt lat="47.35728" lon="-1.22529">
        <ele>14</ele>
        <time>2011-10-02T06:07:01Z</time>
      </trkpt>
      <trkpt lat="47.35721" lon="-1.2254">
        <ele>14</ele>
        <time>2011-10-02T06:07:04Z</time>
      </trkpt>
      <trkpt lat="47.35712" lon="-1.22556">
        <ele>14</ele>
        <time>2011-10-02T06:07:06Z</time>
      </trkpt>
      <trkpt lat="47.35704" lon="-1.22572">
        <ele>14</ele>
        <time>2011-10-02T06:07:09Z</time>
      </trkpt>
      <trkpt lat="47.35697" lon="-1.22587">
        <ele>16</ele>
        <time>2011-10-02T06:07:12Z</time>
      </trkpt>
      <trkpt lat="47.35689" lon="-1.226">
        <ele>15</ele>
        <time>2011-10-02T06:07:15Z</time>
      </trkpt>
      <trkpt lat="47.35682" lon="-1.22614">
        <ele>16</ele>
        <time>2011-10-02T06:07:18Z</time>
      </trkpt>
      <trkpt lat="47.35674" lon="-1.22627">
        <ele>16</ele>
        <time>2011-10-02T06:07:22Z</time>
      </trkpt>
      <trkpt lat="47.35665" lon="-1.2263">
        <ele>12</ele>
        <time>2011-10-02T06:07:24Z</time>
      </trkpt>
      <trkpt lat="47.3566" lon="-1.22629">
        <ele>11</ele>
        <time>2011-10-02T06:07:26Z</time>
      </trkpt>
      <trkpt lat="47.35654" lon="-1.22627">
        <ele>11</ele>
        <time>2011-10-02T06:07:28Z</time>
      </trkpt>
      <trkpt lat="47.35646" lon="-1.22634">
        <ele>11</ele>
        <time>2011-10-02T06:07:32Z</time>
      </trkpt>
      <trkpt lat="47.3564" lon="-1.22645">
        <ele>11</ele>
        <time>2011-10-02T06:07:34Z</time>
      </trkpt>
      <trkpt lat="47.35632" lon="-1.22662">
        <ele>11</ele>
        <time>2011-10-02T06:07:37Z</time>
      </trkpt>
      <trkpt lat="47.35624" lon="-1.2268">
        <ele>14</ele>
        <time>2011-10-02T06:07:39Z</time>
      </trkpt>
      <trkpt lat="47.35615" lon="-1.22698">
        <ele>14</ele>
        <time>2011-10-02T06:07:42Z</time>
      </trkpt>
      <trkpt lat="47.35608" lon="-1.2271">
        <ele>14</ele>
        <time>2011-10-02T06:07:44Z</time>
      </trkpt>
      <trkpt lat="47.35599" lon="-1.22726">
        <ele>14</ele>
        <time>2011-10-02T06:07:47Z</time>
      </trkpt>
      <trkpt lat="47.35593" lon="-1.22738">
        <ele>14</ele>
        <time>2011-10-02T06:07:49Z</time>
      </trkpt>
      <trkpt lat="47.35584" lon="-1.22754">
        <ele>15</ele>
        <time>2011-10-02T06:07:53Z</time>
      </trkpt>
      <trkpt lat="47.35576" lon="-1.2277">
        <ele>14</ele>
        <time>2011-10-02T06:07:56Z</time>
      </trkpt>
      <trkpt lat="47.35576" lon="-1.22777">
        <ele>14</ele>
        <time>2011-10-02T06:07:58Z</time>
      </trkpt>
      <trkpt lat="47.35574" lon="-1.22787">
        <ele>14</ele>
        <time>2011-10-02T06:08:01Z</time>
      </trkpt>
      <trkpt lat="47.3557" lon="-1.22798">
        <ele>15</ele>
        <time>2011-10-02T06:08:04Z</time>
      </trkpt>
      <trkpt lat="47.35564" lon="-1.22812">
        <ele>15</ele>
        <time>2011-10-02T06:08:06Z</time>
      </trkpt>
      <trkpt lat="47.35556" lon="-1.22827">
        <ele>15</ele>
        <time>2011-10-02T06:08:09Z</time>
      </trkpt>
      <trkpt lat="47.35542" lon="-1.22842">
        <ele>18</ele>
        <time>2011-10-02T06:08:12Z</time>
      </trkpt>
      <trkpt lat="47.35535" lon="-1.22854">
        <ele>18</ele>
        <time>2011-10-02T06:08:14Z</time>
      </trkpt>
      <trkpt lat="47.35524" lon="-1.22873">
        <ele>18</ele>
        <time>2011-10-02T06:08:17Z</time>
      </trkpt>
      <trkpt lat="47.35518" lon="-1.22887">
        <ele>18</ele>
        <time>2011-10-02T06:08:20Z</time>
      </trkpt>
      <trkpt lat="47.35507" lon="-1.22908">
        <ele>16</ele>
        <time>2011-10-02T06:08:22Z</time>
      </trkpt>
      <trkpt lat="47.35501" lon="-1.22922">
        <ele>17</ele>
        <time>2011-10-02T06:08:24Z</time>
      </trkpt>
      <trkpt lat="47.3549" lon="-1.22944">
        <ele>15</ele>
        <time>2011-10-02T06:08:27Z</time>
      </trkpt>
      <trkpt lat="47.3548" lon="-1.22966">
        <ele>17</ele>
        <time>2011-10-02T06:08:31Z</time>
      </trkpt>
      <trkpt lat="47.35469" lon="-1.22989">
        <ele>18</ele>
        <time>2011-10-02T06:08:33Z</time>
      </trkpt>
      <trkpt lat="47.35457" lon="-1.23011">
        <ele>22</ele>
        <time>2011-10-02T06:08:37Z</time>
      </trkpt>
      <trkpt lat="47.35446" lon="-1.23034">
        <ele>22</ele>
        <time>2011-10-02T06:08:39Z</time>
      </trkpt>
      <trkpt lat="47.35435" lon="-1.23057">
        <ele>21</ele>
        <time>2011-10-02T06:08:42Z</time>
      </trkpt>
      <trkpt lat="47.35424" lon="-1.23081">
        <ele>19</ele>
        <time>2011-10-02T06:08:45Z</time>
      </trkpt>
      <trkpt lat="47.35413" lon="-1.23104">
        <ele>16</ele>
        <time>2011-10-02T06:08:48Z</time>
      </trkpt>
      <trkpt lat="47.35405" lon="-1.23118">
        <ele>16</ele>
        <time>2011-10-02T06:08:50Z</time>
      </trkpt>
      <trkpt lat="47.35398" lon="-1.23134">
        <ele>16</ele>
        <time>2011-10-02T06:08:53Z</time>
      </trkpt>
      <trkpt lat="47.35388" lon="-1.23156">
        <ele>16</ele>
        <time>2011-10-02T06:08:55Z</time>
      </trkpt>
      <trkpt lat="47.35378" lon="-1.23179">
        <ele>19</ele>
        <time>2011-10-02T06:08:59Z</time>
      </trkpt>
      <trkpt lat="47.35368" lon="-1.23202">
        <ele>19</ele>
        <time>2011-10-02T06:09:02Z</time>
      </trkpt>
      <trkpt lat="47.35358" lon="-1.23226">
        <ele>19</ele>
        <time>2011-10-02T06:09:05Z</time>
      </trkpt>
      <trkpt lat="47.35348" lon="-1.2325">
        <ele>21</ele>
        <time>2011-10-02T06:09:07Z</time>
      </trkpt>
      <trkpt lat="47.35342" lon="-1.23265">
        <ele>21</ele>
        <time>2011-10-02T06:09:10Z</time>
      </trkpt>
      <trkpt lat="47.35336" lon="-1.23286">
        <ele>25</ele>
        <time>2011-10-02T06:09:12Z</time>
      </trkpt>
      <trkpt lat="47.35331" lon="-1.233">
        <ele>14</ele>
        <time>2011-10-02T06:09:14Z</time>
      </trkpt>
      <trkpt lat="47.35322" lon="-1.23322">
        <ele>16</ele>
        <time>2011-10-02T06:09:17Z</time>
      </trkpt>
      <trkpt lat="47.35316" lon="-1.23339">
        <ele>18</ele>
        <time>2011-10-02T06:09:19Z</time>
      </trkpt>
      <trkpt lat="47.35305" lon="-1.23369">
        <ele>17</ele>
        <time>2011-10-02T06:09:23Z</time>
      </trkpt>
      <trkpt lat="47.35294" lon="-1.23398">
        <ele>17</ele>
        <time>2011-10-02T06:09:26Z</time>
      </trkpt>
      <trkpt lat="47.35286" lon="-1.23427">
        <ele>19</ele>
        <time>2011-10-02T06:09:29Z</time>
      </trkpt>
      <trkpt lat="47.35279" lon="-1.23455">
        <ele>19</ele>
        <time>2011-10-02T06:09:31Z</time>
      </trkpt>
      <trkpt lat="47.35272" lon="-1.23482">
        <ele>19</ele>
        <time>2011-10-02T06:09:35Z</time>
      </trkpt>
      <trkpt lat="47.35267" lon="-1.23499">
        <ele>17</ele>
        <time>2011-10-02T06:09:37Z</time>
      </trkpt>
      <trkpt lat="47.35259" lon="-1.23526">
        <ele>21</ele>
        <time>2011-10-02T06:09:39Z</time>
      </trkpt>
      <trkpt lat="47.35252" lon="-1.23552">
        <ele>21</ele>
        <time>2011-10-02T06:09:42Z</time>
      </trkpt>
      <trkpt lat="47.35245" lon="-1.23578">
        <ele>14</ele>
        <time>2011-10-02T06:09:45Z</time>
      </trkpt>
      <trkpt lat="47.3524" lon="-1.23595">
        <ele>14</ele>
        <time>2011-10-02T06:09:47Z</time>
      </trkpt>
      <trkpt lat="47.35235" lon="-1.23612">
        <ele>13</ele>
        <time>2011-10-02T06:09:50Z</time>
      </trkpt>
      <trkpt lat="47.35228" lon="-1.23638">
        <ele>14</ele>
        <time>2011-10-02T06:09:52Z</time>
      </trkpt>
      <trkpt lat="47.35223" lon="-1.23655">
        <ele>14</ele>
        <time>2011-10-02T06:09:54Z</time>
      </trkpt>
      <trkpt lat="47.35216" lon="-1.23682">
        <ele>15</ele>
        <time>2011-10-02T06:09:57Z</time>
      </trkpt>
      <trkpt lat="47.35208" lon="-1.23708">
        <ele>15</ele>
        <time>2011-10-02T06:10:00Z</time>
      </trkpt>
      <trkpt lat="47.35202" lon="-1.23734">
        <ele>15</ele>
        <time>2011-10-02T06:10:03Z</time>
      </trkpt>
      <trkpt lat="47.35195" lon="-1.23759">
        <ele>14</ele>
        <time>2011-10-02T06:10:07Z</time>
      </trkpt>
      <trkpt lat="47.35189" lon="-1.23783">
        <ele>14</ele>
        <time>2011-10-02T06:10:09Z</time>
      </trkpt>
      <trkpt lat="47.35182" lon="-1.23803">
        <ele>13</ele>
        <time>2011-10-02T06:10:12Z</time>
      </trkpt>
      <trkpt lat="47.35176" lon="-1.2381">
        <ele>12</ele>
        <time>2011-10-02T06:10:14Z</time>
      </trkpt>
      <trkpt lat="47.35179" lon="-1.23822">
        <ele>12</ele>
        <time>2011-10-02T06:10:18Z</time>
      </trkpt>
      <trkpt lat="47.35187" lon="-1.23831">
        <ele>12</ele>
        <time>2011-10-02T06:10:20Z</time>
      </trkpt>
      <trkpt lat="47.35192" lon="-1.2383">
        <ele>13</ele>
        <time>2011-10-02T06:10:22Z</time>
      </trkpt>
      <trkpt lat="47.35204" lon="-1.23833">
        <ele>14</ele>
        <time>2011-10-02T06:10:26Z</time>
      </trkpt>
      <trkpt lat="47.35216" lon="-1.2384">
        <ele>15</ele>
        <time>2011-10-02T06:10:29Z</time>
      </trkpt>
      <trkpt lat="47.35228" lon="-1.23848">
        <ele>15</ele>
        <time>2011-10-02T06:10:31Z</time>
      </trkpt>
      <trkpt lat="47.35238" lon="-1.23858">
        <ele>16</ele>
        <time>2011-10-02T06:10:35Z</time>
      </trkpt>
      <trkpt lat="47.35248" lon="-1.23867">
        <ele>16</ele>
        <time>2011-10-02T06:10:37Z</time>
      </trkpt>
      <trkpt lat="47.35254" lon="-1.23873">
        <ele>21</ele>
        <time>2011-10-02T06:10:39Z</time>
      </trkpt>
      <trkpt lat="47.3526" lon="-1.2388">
        <ele>22</ele>
        <time>2011-10-02T06:10:41Z</time>
      </trkpt>
      <trkpt lat="47.35265" lon="-1.23887">
        <ele>22</ele>
        <time>2011-10-02T06:10:44Z</time>
      </trkpt>
      <trkpt lat="47.35271" lon="-1.23899">
        <ele>22</ele>
        <time>2011-10-02T06:10:47Z</time>
      </trkpt>
      <trkpt lat="47.35277" lon="-1.2391">
        <ele>22</ele>
        <time>2011-10-02T06:10:49Z</time>
      </trkpt>
      <trkpt lat="47.35279" lon="-1.23917">
        <ele>24</ele>
        <time>2011-10-02T06:10:51Z</time>
      </trkpt>
      <trkpt lat="47.35282" lon="-1.23929">
        <ele>25</ele>
        <time>2011-10-02T06:10:54Z</time>
      </trkpt>
      <trkpt lat="47.35282" lon="-1.23942">
        <ele>25</ele>
        <time>2011-10-02T06:10:57Z</time>
      </trkpt>
      <trkpt lat="47.3528" lon="-1.23952">
        <ele>26</ele>
        <time>2011-10-02T06:11:00Z</time>
      </trkpt>
      <trkpt lat="47.35275" lon="-1.23962">
        <ele>27</ele>
        <time>2011-10-02T06:11:03Z</time>
      </trkpt>
      <trkpt lat="47.35275" lon="-1.23962">
        <ele>27</ele>
        <time>2011-10-02T06:11:05Z</time>
      </trkpt>
      <trkpt lat="47.35254" lon="-1.23991">
        <ele>31</ele>
        <time>2011-10-02T06:11:14Z</time>
      </trkpt>
      <trkpt lat="47.35254" lon="-1.23991">
        <ele>31</ele>
        <time>2011-10-02T06:11:18Z</time>
      </trkpt>
      <trkpt lat="47.35225" lon="-1.24018">
        <ele>33</ele>
        <time>2011-10-02T06:11:32Z</time>
      </trkpt>
      <trkpt lat="47.35225" lon="-1.24018">
        <ele>33</ele>
        <time>2011-10-02T06:11:35Z</time>
      </trkpt>
      <trkpt lat="47.35226" lon="-1.24061">
        <ele>36</ele>
        <time>2011-10-02T06:11:48Z</time>
      </trkpt>
      <trkpt lat="47.35228" lon="-1.24075">
        <ele>37</ele>
        <time>2011-10-02T06:11:53Z</time>
      </trkpt>
      <trkpt lat="47.35229" lon="-1.24091">
        <ele>41</ele>
        <time>2011-10-02T06:11:57Z</time>
      </trkpt>
      <trkpt lat="47.3523" lon="-1.24104">
        <ele>42</ele>
        <time>2011-10-02T06:12:02Z</time>
      </trkpt>
      <trkpt lat="47.35231" lon="-1.2412">
        <ele>42</ele>
        <time>2011-10-02T06:12:08Z</time>
      </trkpt>
      <trkpt lat="47.35228" lon="-1.24135">
        <ele>42</ele>
        <time>2011-10-02T06:12:15Z</time>
      </trkpt>
      <trkpt lat="47.35225" lon="-1.24142">
        <ele>42</ele>
        <time>2011-10-02T06:12:18Z</time>
      </trkpt>
      <trkpt lat="47.35219" lon="-1.24155">
        <ele>42</ele>
        <time>2011-10-02T06:12:23Z</time>
      </trkpt>
      <trkpt lat="47.35216" lon="-1.24161">
        <ele>42</ele>
        <time>2011-10-02T06:12:25Z</time>
      </trkpt>
      <trkpt lat="47.35212" lon="-1.24171">
        <ele>44</ele>
        <time>2011-10-02T06:12:28Z</time>
      </trkpt>
      <trkpt lat="47.3521" lon="-1.2418">
        <ele>44</ele>
        <time>2011-10-02T06:12:30Z</time>
      </trkpt>
      <trkpt lat="47.35208" lon="-1.24193">
        <ele>44</ele>
        <time>2011-10-02T06:12:33Z</time>
      </trkpt>
      <trkpt lat="47.35207" lon="-1.24206">
        <ele>44</ele>
        <time>2011-10-02T06:12:36Z</time>
      </trkpt>
      <trkpt lat="47.35207" lon="-1.24219">
        <ele>44</ele>
        <time>2011-10-02T06:12:39Z</time>
      </trkpt>
      <trkpt lat="47.35206" lon="-1.24227">
        <ele>44</ele>
        <time>2011-10-02T06:12:41Z</time>
      </trkpt>
      <trkpt lat="47.35206" lon="-1.24235">
        <ele>44</ele>
        <time>2011-10-02T06:12:44Z</time>
      </trkpt>
      <trkpt lat="47.35205" lon="-1.24247">
        <ele>44</ele>
        <time>2011-10-02T06:12:46Z</time>
      </trkpt>
      <trkpt lat="47.35203" lon="-1.2426">
        <ele>47</ele>
        <time>2011-10-02T06:12:50Z</time>
      </trkpt>
      <trkpt lat="47.35201" lon="-1.24271">
        <ele>47</ele>
        <time>2011-10-02T06:12:53Z</time>
      </trkpt>
      <trkpt lat="47.35198" lon="-1.24283">
        <ele>48</ele>
        <time>2011-10-02T06:12:56Z</time>
      </trkpt>
      <trkpt lat="47.35197" lon="-1.2429">
        <ele>48</ele>
        <time>2011-10-02T06:12:58Z</time>
      </trkpt>
      <trkpt lat="47.35194" lon="-1.24301">
        <ele>48</ele>
        <time>2011-10-02T06:13:01Z</time>
      </trkpt>
      <trkpt lat="47.3519" lon="-1.24311">
        <ele>48</ele>
        <time>2011-10-02T06:13:03Z</time>
      </trkpt>
      <trkpt lat="47.35188" lon="-1.24317">
        <ele>48</ele>
        <time>2011-10-02T06:13:05Z</time>
      </trkpt>
      <trkpt lat="47.35184" lon="-1.24327">
        <ele>48</ele>
        <time>2011-10-02T06:13:08Z</time>
      </trkpt>
      <trkpt lat="47.35182" lon="-1.24333">
        <ele>48</ele>
        <time>2011-10-02T06:13:10Z</time>
      </trkpt>
      <trkpt lat="47.35178" lon="-1.24344">
        <ele>51</ele>
        <time>2011-10-02T06:13:14Z</time>
      </trkpt>
      <trkpt lat="47.35175" lon="-1.24351">
        <ele>52</ele>
        <time>2011-10-02T06:13:16Z</time>
      </trkpt>
      <trkpt lat="47.35175" lon="-1.24351">
        <ele>52</ele>
        <time>2011-10-02T06:13:17Z</time>
      </trkpt>
      <trkpt lat="47.35162" lon="-1.24383">
        <ele>48</ele>
        <time>2011-10-02T06:13:25Z</time>
      </trkpt>
      <trkpt lat="47.35156" lon="-1.24395">
        <ele>49</ele>
        <time>2011-10-02T06:13:29Z</time>
      </trkpt>
      <trkpt lat="47.35151" lon="-1.24408">
        <ele>51</ele>
        <time>2011-10-02T06:13:31Z</time>
      </trkpt>
      <trkpt lat="47.35146" lon="-1.24421">
        <ele>55</ele>
        <time>2011-10-02T06:13:35Z</time>
      </trkpt>
      <trkpt lat="47.35141" lon="-1.24431">
        <ele>54</ele>
        <time>2011-10-02T06:13:37Z</time>
      </trkpt>
      <trkpt lat="47.35136" lon="-1.24442">
        <ele>54</ele>
        <time>2011-10-02T06:13:41Z</time>
      </trkpt>
      <trkpt lat="47.35132" lon="-1.24454">
        <ele>53</ele>
        <time>2011-10-02T06:13:44Z</time>
      </trkpt>
      <trkpt lat="47.35129" lon="-1.24466">
        <ele>54</ele>
        <time>2011-10-02T06:13:47Z</time>
      </trkpt>
      <trkpt lat="47.35128" lon="-1.24479">
        <ele>54</ele>
        <time>2011-10-02T06:13:50Z</time>
      </trkpt>
      <trkpt lat="47.35129" lon="-1.24493">
        <ele>55</ele>
        <time>2011-10-02T06:13:52Z</time>
      </trkpt>
      <trkpt lat="47.35132" lon="-1.24507">
        <ele>59</ele>
        <time>2011-10-02T06:13:56Z</time>
      </trkpt>
      <trkpt lat="47.35136" lon="-1.2452">
        <ele>60</ele>
        <time>2011-10-02T06:13:59Z</time>
      </trkpt>
      <trkpt lat="47.35141" lon="-1.24534">
        <ele>60</ele>
        <time>2011-10-02T06:14:01Z</time>
      </trkpt>
      <trkpt lat="47.35145" lon="-1.24548">
        <ele>61</ele>
        <time>2011-10-02T06:14:05Z</time>
      </trkpt>
      <trkpt lat="47.35146" lon="-1.24563">
        <ele>61</ele>
        <time>2011-10-02T06:14:07Z</time>
      </trkpt>
      <trkpt lat="47.35143" lon="-1.24575">
        <ele>61</ele>
        <time>2011-10-02T06:14:09Z</time>
      </trkpt>
      <trkpt lat="47.35135" lon="-1.2459">
        <ele>63</ele>
        <time>2011-10-02T06:14:12Z</time>
      </trkpt>
      <trkpt lat="47.35128" lon="-1.24599">
        <ele>63</ele>
        <time>2011-10-02T06:14:14Z</time>
      </trkpt>
      <trkpt lat="47.35122" lon="-1.24609">
        <ele>63</ele>
        <time>2011-10-02T06:14:16Z</time>
      </trkpt>
      <trkpt lat="47.35116" lon="-1.24618">
        <ele>63</ele>
        <time>2011-10-02T06:14:19Z</time>
      </trkpt>
      <trkpt lat="47.35107" lon="-1.24633">
        <ele>64</ele>
        <time>2011-10-02T06:14:22Z</time>
      </trkpt>
      <trkpt lat="47.35098" lon="-1.2465">
        <ele>64</ele>
        <time>2011-10-02T06:14:25Z</time>
      </trkpt>
      <trkpt lat="47.35089" lon="-1.2467">
        <ele>66</ele>
        <time>2011-10-02T06:14:27Z</time>
      </trkpt>
      <trkpt lat="47.35086" lon="-1.24696">
        <ele>66</ele>
        <time>2011-10-02T06:14:30Z</time>
      </trkpt>
      <trkpt lat="47.35089" lon="-1.24722">
        <ele>66</ele>
        <time>2011-10-02T06:14:34Z</time>
      </trkpt>
      <trkpt lat="47.35094" lon="-1.24746">
        <ele>66</ele>
        <time>2011-10-02T06:14:37Z</time>
      </trkpt>
      <trkpt lat="47.35099" lon="-1.24769">
        <ele>67</ele>
        <time>2011-10-02T06:14:39Z</time>
      </trkpt>
      <trkpt lat="47.35105" lon="-1.24791">
        <ele>67</ele>
        <time>2011-10-02T06:14:42Z</time>
      </trkpt>
      <trkpt lat="47.3511" lon="-1.24813">
        <ele>67</ele>
        <time>2011-10-02T06:14:45Z</time>
      </trkpt>
      <trkpt lat="47.35113" lon="-1.24836">
        <ele>67</ele>
        <time>2011-10-02T06:14:48Z</time>
      </trkpt>
      <trkpt lat="47.35115" lon="-1.24852">
        <ele>68</ele>
        <time>2011-10-02T06:14:50Z</time>
      </trkpt>
      <trkpt lat="47.35117" lon="-1.24867">
        <ele>68</ele>
        <time>2011-10-02T06:14:52Z</time>
      </trkpt>
      <trkpt lat="47.35119" lon="-1.24891">
        <ele>68</ele>
        <time>2011-10-02T06:14:56Z</time>
      </trkpt>
      <trkpt lat="47.35122" lon="-1.24914">
        <ele>68</ele>
        <time>2011-10-02T06:14:58Z</time>
      </trkpt>
      <trkpt lat="47.35124" lon="-1.2493">
        <ele>68</ele>
        <time>2011-10-02T06:15:00Z</time>
      </trkpt>
      <trkpt lat="47.35127" lon="-1.24954">
        <ele>68</ele>
        <time>2011-10-02T06:15:03Z</time>
      </trkpt>
      <trkpt lat="47.3513" lon="-1.24978">
        <ele>68</ele>
        <time>2011-10-02T06:15:06Z</time>
      </trkpt>
      <trkpt lat="47.35133" lon="-1.24994">
        <ele>68</ele>
        <time>2011-10-02T06:15:09Z</time>
      </trkpt>
      <trkpt lat="47.35137" lon="-1.25017">
        <ele>68</ele>
        <time>2011-10-02T06:15:12Z</time>
      </trkpt>
      <trkpt lat="47.35141" lon="-1.2504">
        <ele>68</ele>
        <time>2011-10-02T06:15:14Z</time>
      </trkpt>
      <trkpt lat="47.35144" lon="-1.25055">
        <ele>68</ele>
        <time>2011-10-02T06:15:16Z</time>
      </trkpt>
      <trkpt lat="47.35147" lon="-1.2507">
        <ele>68</ele>
        <time>2011-10-02T06:15:18Z</time>
      </trkpt>
      <trkpt lat="47.35151" lon="-1.25092">
        <ele>69</ele>
        <time>2011-10-02T06:15:21Z</time>
      </trkpt>
      <trkpt lat="47.35154" lon="-1.2511">
        <ele>69</ele>
        <time>2011-10-02T06:15:24Z</time>
      </trkpt>
      <trkpt lat="47.35156" lon="-1.25119">
        <ele>69</ele>
        <time>2011-10-02T06:15:27Z</time>
      </trkpt>
      <trkpt lat="47.35151" lon="-1.25121">
        <ele>69</ele>
        <time>2011-10-02T06:15:31Z</time>
      </trkpt>
      <trkpt lat="47.35147" lon="-1.25113">
        <ele>69</ele>
        <time>2011-10-02T06:15:33Z</time>
      </trkpt>
      <trkpt lat="47.35147" lon="-1.25113">
        <ele>69</ele>
        <time>2011-10-02T06:15:36Z</time>
      </trkpt>
      <trkpt lat="47.35136" lon="-1.25121">
        <ele>69</ele>
        <time>2011-10-02T06:15:46Z</time>
      </trkpt>
      <trkpt lat="47.35125" lon="-1.25122">
        <ele>68</ele>
        <time>2011-10-02T06:15:49Z</time>
      </trkpt>
      <trkpt lat="47.35112" lon="-1.25122">
        <ele>68</ele>
        <time>2011-10-02T06:15:52Z</time>
      </trkpt>
      <trkpt lat="47.351" lon="-1.25122">
        <ele>68</ele>
        <time>2011-10-02T06:15:55Z</time>
      </trkpt>
      <trkpt lat="47.35087" lon="-1.25122">
        <ele>68</ele>
        <time>2011-10-02T06:15:58Z</time>
      </trkpt>
      <trkpt lat="47.35074" lon="-1.25122">
        <ele>67</ele>
        <time>2011-10-02T06:16:01Z</time>
      </trkpt>
      <trkpt lat="47.35061" lon="-1.25125">
        <ele>67</ele>
        <time>2011-10-02T06:16:05Z</time>
      </trkpt>
      <trkpt lat="47.35044" lon="-1.25129">
        <ele>66</ele>
        <time>2011-10-02T06:16:07Z</time>
      </trkpt>
      <trkpt lat="47.35024" lon="-1.25133">
        <ele>66</ele>
        <time>2011-10-02T06:16:10Z</time>
      </trkpt>
      <trkpt lat="47.35002" lon="-1.25137">
        <ele>65</ele>
        <time>2011-10-02T06:16:13Z</time>
      </trkpt>
      <trkpt lat="47.34986" lon="-1.2514">
        <ele>60</ele>
        <time>2011-10-02T06:16:15Z</time>
      </trkpt>
      <trkpt lat="47.34969" lon="-1.25143">
        <ele>59</ele>
        <time>2011-10-02T06:16:18Z</time>
      </trkpt>
      <trkpt lat="47.34947" lon="-1.25148">
        <ele>57</ele>
        <time>2011-10-02T06:16:20Z</time>
      </trkpt>
      <trkpt lat="47.34936" lon="-1.25151">
        <ele>56</ele>
        <time>2011-10-02T06:16:23Z</time>
      </trkpt>
      <trkpt lat="47.34925" lon="-1.25155">
        <ele>54</ele>
        <time>2011-10-02T06:16:25Z</time>
      </trkpt>
      <trkpt lat="47.34918" lon="-1.25158">
        <ele>53</ele>
        <time>2011-10-02T06:16:27Z</time>
      </trkpt>
      <trkpt lat="47.34909" lon="-1.25163">
        <ele>49</ele>
        <time>2011-10-02T06:16:30Z</time>
      </trkpt>
      <trkpt lat="47.34902" lon="-1.25167">
        <ele>47</ele>
        <time>2011-10-02T06:16:33Z</time>
      </trkpt>
      <trkpt lat="47.34895" lon="-1.25171">
        <ele>43</ele>
        <time>2011-10-02T06:16:36Z</time>
      </trkpt>
      <trkpt lat="47.34889" lon="-1.25175">
        <ele>42</ele>
        <time>2011-10-02T06:16:38Z</time>
      </trkpt>
      <trkpt lat="47.34883" lon="-1.25177">
        <ele>41</ele>
        <time>2011-10-02T06:16:41Z</time>
      </trkpt>
      <trkpt lat="47.34875" lon="-1.25181">
        <ele>39</ele>
        <time>2011-10-02T06:16:43Z</time>
      </trkpt>
      <trkpt lat="47.34867" lon="-1.25184">
        <ele>38</ele>
        <time>2011-10-02T06:16:46Z</time>
      </trkpt>
      <trkpt lat="47.34857" lon="-1.25189">
        <ele>37</ele>
        <time>2011-10-02T06:16:49Z</time>
      </trkpt>
      <trkpt lat="47.34848" lon="-1.25194">
        <ele>36</ele>
        <time>2011-10-02T06:16:52Z</time>
      </trkpt>
      <trkpt lat="47.3484" lon="-1.252">
        <ele>35</ele>
        <time>2011-10-02T06:16:55Z</time>
      </trkpt>
      <trkpt lat="47.34833" lon="-1.25205">
        <ele>23</ele>
        <time>2011-10-02T06:16:59Z</time>
      </trkpt>
      <trkpt lat="47.34825" lon="-1.25209">
        <ele>22</ele>
        <time>2011-10-02T06:17:02Z</time>
      </trkpt>
      <trkpt lat="47.34819" lon="-1.25212">
        <ele>22</ele>
        <time>2011-10-02T06:17:04Z</time>
      </trkpt>
      <trkpt lat="47.34813" lon="-1.25216">
        <ele>21</ele>
        <time>2011-10-02T06:17:07Z</time>
      </trkpt>
      <trkpt lat="47.34808" lon="-1.25219">
        <ele>21</ele>
        <time>2011-10-02T06:17:10Z</time>
      </trkpt>
      <trkpt lat="47.34787" lon="-1.25245">
        <ele>18</ele>
        <time>2011-10-02T06:17:23Z</time>
      </trkpt>
      <trkpt lat="47.34786" lon="-1.25259">
        <ele>16</ele>
        <time>2011-10-02T06:17:26Z</time>
      </trkpt>
      <trkpt lat="47.34787" lon="-1.25269">
        <ele>16</ele>
        <time>2011-10-02T06:17:29Z</time>
      </trkpt>
      <trkpt lat="47.3479" lon="-1.25288">
        <ele>16</ele>
        <time>2011-10-02T06:17:31Z</time>
      </trkpt>
      <trkpt lat="47.34792" lon="-1.25299">
        <ele>16</ele>
        <time>2011-10-02T06:17:33Z</time>
      </trkpt>
      <trkpt lat="47.34794" lon="-1.25309">
        <ele>16</ele>
        <time>2011-10-02T06:17:35Z</time>
      </trkpt>
      <trkpt lat="47.34795" lon="-1.2532">
        <ele>16</ele>
        <time>2011-10-02T06:17:37Z</time>
      </trkpt>
      <trkpt lat="47.34797" lon="-1.25341">
        <ele>15</ele>
        <time>2011-10-02T06:17:41Z</time>
      </trkpt>
      <trkpt lat="47.34799" lon="-1.25364">
        <ele>15</ele>
        <time>2011-10-02T06:17:43Z</time>
      </trkpt>
      <trkpt lat="47.34801" lon="-1.25382">
        <ele>15</ele>
        <time>2011-10-02T06:17:47Z</time>
      </trkpt>
      <trkpt lat="47.34801" lon="-1.25398">
        <ele>15</ele>
        <time>2011-10-02T06:17:49Z</time>
      </trkpt>
      <trkpt lat="47.348" lon="-1.25421">
        <ele>14</ele>
        <time>2011-10-02T06:17:52Z</time>
      </trkpt>
      <trkpt lat="47.34798" lon="-1.25448">
        <ele>14</ele>
        <time>2011-10-02T06:17:55Z</time>
      </trkpt>
      <trkpt lat="47.34797" lon="-1.25465">
        <ele>14</ele>
        <time>2011-10-02T06:17:57Z</time>
      </trkpt>
      <trkpt lat="47.34796" lon="-1.25489">
        <ele>14</ele>
        <time>2011-10-02T06:18:01Z</time>
      </trkpt>
      <trkpt lat="47.34795" lon="-1.25513">
        <ele>14</ele>
        <time>2011-10-02T06:18:03Z</time>
      </trkpt>
      <trkpt lat="47.34792" lon="-1.25535">
        <ele>13</ele>
        <time>2011-10-02T06:18:07Z</time>
      </trkpt>
      <trkpt lat="47.34788" lon="-1.25556">
        <ele>13</ele>
        <time>2011-10-02T06:18:10Z</time>
      </trkpt>
      <trkpt lat="47.34782" lon="-1.25577">
        <ele>12</ele>
        <time>2011-10-02T06:18:12Z</time>
      </trkpt>
      <trkpt lat="47.34779" lon="-1.25591">
        <ele>11</ele>
        <time>2011-10-02T06:18:14Z</time>
      </trkpt>
      <trkpt lat="47.34776" lon="-1.25605">
        <ele>11</ele>
        <time>2011-10-02T06:18:16Z</time>
      </trkpt>
      <trkpt lat="47.34772" lon="-1.25627">
        <ele>11</ele>
        <time>2011-10-02T06:18:19Z</time>
      </trkpt>
      <trkpt lat="47.3477" lon="-1.25649">
        <ele>10</ele>
        <time>2011-10-02T06:18:22Z</time>
      </trkpt>
      <trkpt lat="47.3477" lon="-1.25674">
        <ele>9</ele>
        <time>2011-10-02T06:18:25Z</time>
      </trkpt>
      <trkpt lat="47.34773" lon="-1.257">
        <ele>10</ele>
        <time>2011-10-02T06:18:28Z</time>
      </trkpt>
      <trkpt lat="47.34776" lon="-1.25725">
        <ele>10</ele>
        <time>2011-10-02T06:18:31Z</time>
      </trkpt>
      <trkpt lat="47.3478" lon="-1.2575">
        <ele>10</ele>
        <time>2011-10-02T06:18:34Z</time>
      </trkpt>
      <trkpt lat="47.34785" lon="-1.25774">
        <ele>10</ele>
        <time>2011-10-02T06:18:37Z</time>
      </trkpt>
      <trkpt lat="47.34791" lon="-1.25797">
        <ele>10</ele>
        <time>2011-10-02T06:18:41Z</time>
      </trkpt>
      <trkpt lat="47.34796" lon="-1.2582">
        <ele>10</ele>
        <time>2011-10-02T06:18:43Z</time>
      </trkpt>
      <trkpt lat="47.348" lon="-1.25842">
        <ele>11</ele>
        <time>2011-10-02T06:18:46Z</time>
      </trkpt>
      <trkpt lat="47.34805" lon="-1.25864">
        <ele>10</ele>
        <time>2011-10-02T06:18:49Z</time>
      </trkpt>
      <trkpt lat="47.34809" lon="-1.25886">
        <ele>10</ele>
        <time>2011-10-02T06:18:52Z</time>
      </trkpt>
      <trkpt lat="47.34813" lon="-1.25909">
        <ele>10</ele>
        <time>2011-10-02T06:18:55Z</time>
      </trkpt>
      <trkpt lat="47.34815" lon="-1.25924">
        <ele>10</ele>
        <time>2011-10-02T06:18:57Z</time>
      </trkpt>
      <trkpt lat="47.34819" lon="-1.25946">
        <ele>10</ele>
        <time>2011-10-02T06:19:00Z</time>
      </trkpt>
      <trkpt lat="47.34823" lon="-1.25967">
        <ele>10</ele>
        <time>2011-10-02T06:19:03Z</time>
      </trkpt>
      <trkpt lat="47.34826" lon="-1.25989">
        <ele>10</ele>
        <time>2011-10-02T06:19:06Z</time>
      </trkpt>
      <trkpt lat="47.3483" lon="-1.26008">
        <ele>10</ele>
        <time>2011-10-02T06:19:09Z</time>
      </trkpt>
      <trkpt lat="47.3483" lon="-1.26008">
        <ele>10</ele>
        <time>2011-10-02T06:19:11Z</time>
      </trkpt>
      <trkpt lat="47.34865" lon="-1.25995">
        <ele>15</ele>
        <time>2011-10-02T06:19:36Z</time>
      </trkpt>
      <trkpt lat="47.34865" lon="-1.25995">
        <ele>15</ele>
        <time>2011-10-02T06:19:40Z</time>
      </trkpt>
      <trkpt lat="47.34885" lon="-1.26009">
        <ele>15</ele>
        <time>2011-10-02T06:19:53Z</time>
      </trkpt>
      <trkpt lat="47.34895" lon="-1.26033">
        <ele>15</ele>
        <time>2011-10-02T06:19:58Z</time>
      </trkpt>
      <trkpt lat="47.3492" lon="-1.26049">
        <ele>21</ele>
        <time>2011-10-02T06:20:07Z</time>
      </trkpt>
      <trkpt lat="47.34941" lon="-1.26055">
        <ele>21</ele>
        <time>2011-10-02T06:20:11Z</time>
      </trkpt>
      <trkpt lat="47.3497" lon="-1.26065">
        <ele>23</ele>
        <time>2011-10-02T06:20:25Z</time>
      </trkpt>
      <trkpt lat="47.34987" lon="-1.26051">
        <ele>24</ele>
        <time>2011-10-02T06:20:34Z</time>
      </trkpt>
      <trkpt lat="47.35002" lon="-1.26039">
        <ele>29</ele>
        <time>2011-10-02T06:20:40Z</time>
      </trkpt>
      <trkpt lat="47.35012" lon="-1.26032">
        <ele>29</ele>
        <time>2011-10-02T06:20:44Z</time>
      </trkpt>
      <trkpt lat="47.35022" lon="-1.26025">
        <ele>30</ele>
        <time>2011-10-02T06:20:48Z</time>
      </trkpt>
      <trkpt lat="47.35036" lon="-1.26018">
        <ele>30</ele>
        <time>2011-10-02T06:20:53Z</time>
      </trkpt>
      <trkpt lat="47.35043" lon="-1.26013">
        <ele>30</ele>
        <time>2011-10-02T06:20:56Z</time>
      </trkpt>
      <trkpt lat="47.35047" lon="-1.26009">
        <ele>30</ele>
        <time>2011-10-02T06:20:59Z</time>
      </trkpt>
      <trkpt lat="47.3507" lon="-1.25991">
        <ele>33</ele>
        <time>2011-10-02T06:21:11Z</time>
      </trkpt>
      <trkpt lat="47.3508" lon="-1.25985">
        <ele>33</ele>
        <time>2011-10-02T06:21:17Z</time>
      </trkpt>
      <trkpt lat="47.35084" lon="-1.25981">
        <ele>36</ele>
        <time>2011-10-02T06:21:20Z</time>
      </trkpt>
      <trkpt lat="47.35089" lon="-1.25978">
        <ele>37</ele>
        <time>2011-10-02T06:21:23Z</time>
      </trkpt>
      <trkpt lat="47.35104" lon="-1.25968">
        <ele>39</ele>
        <time>2011-10-02T06:21:32Z</time>
      </trkpt>
      <trkpt lat="47.35114" lon="-1.25964">
        <ele>40</ele>
        <time>2011-10-02T06:21:38Z</time>
      </trkpt>
      <trkpt lat="47.35123" lon="-1.25962">
        <ele>40</ele>
        <time>2011-10-02T06:21:44Z</time>
      </trkpt>
      <trkpt lat="47.35132" lon="-1.2596">
        <ele>41</ele>
        <time>2011-10-02T06:21:51Z</time>
      </trkpt>
      <trkpt lat="47.35141" lon="-1.25958">
        <ele>42</ele>
        <time>2011-10-02T06:21:57Z</time>
      </trkpt>
      <trkpt lat="47.35149" lon="-1.25955">
        <ele>42</ele>
        <time>2011-10-02T06:22:03Z</time>
      </trkpt>
      <trkpt lat="47.3516" lon="-1.2595">
        <ele>43</ele>
        <time>2011-10-02T06:22:10Z</time>
      </trkpt>
      <trkpt lat="47.35165" lon="-1.25947">
        <ele>43</ele>
        <time>2011-10-02T06:22:14Z</time>
      </trkpt>
      <trkpt lat="47.35171" lon="-1.25945">
        <ele>50</ele>
        <time>2011-10-02T06:22:19Z</time>
      </trkpt>
      <trkpt lat="47.35176" lon="-1.25941">
        <ele>50</ele>
        <time>2011-10-02T06:22:26Z</time>
      </trkpt>
      <trkpt lat="47.35181" lon="-1.25936">
        <ele>50</ele>
        <time>2011-10-02T06:22:30Z</time>
      </trkpt>
      <trkpt lat="47.35189" lon="-1.25928">
        <ele>50</ele>
        <time>2011-10-02T06:22:38Z</time>
      </trkpt>
      <trkpt lat="47.35194" lon="-1.25923">
        <ele>50</ele>
        <time>2011-10-02T06:22:42Z</time>
      </trkpt>
      <trkpt lat="47.35198" lon="-1.25918">
        <ele>51</ele>
        <time>2011-10-02T06:22:46Z</time>
      </trkpt>
      <trkpt lat="47.35201" lon="-1.25912">
        <ele>52</ele>
        <time>2011-10-02T06:22:49Z</time>
      </trkpt>
      <trkpt lat="47.35206" lon="-1.25907">
        <ele>53</ele>
        <time>2011-10-02T06:22:53Z</time>
      </trkpt>
      <trkpt lat="47.35213" lon="-1.259">
        <ele>53</ele>
        <time>2011-10-02T06:22:58Z</time>
      </trkpt>
      <trkpt lat="47.35217" lon="-1.25896">
        <ele>54</ele>
        <time>2011-10-02T06:23:01Z</time>
      </trkpt>
      <trkpt lat="47.35223" lon="-1.25893">
        <ele>54</ele>
        <time>2011-10-02T06:23:05Z</time>
      </trkpt>
      <trkpt lat="47.35228" lon="-1.2589">
        <ele>54</ele>
        <time>2011-10-02T06:23:08Z</time>
      </trkpt>
      <trkpt lat="47.35235" lon="-1.25886">
        <ele>54</ele>
        <time>2011-10-02T06:23:13Z</time>
      </trkpt>
      <trkpt lat="47.3524" lon="-1.25884">
        <ele>55</ele>
        <time>2011-10-02T06:23:16Z</time>
      </trkpt>
      <trkpt lat="47.35244" lon="-1.25881">
        <ele>55</ele>
        <time>2011-10-02T06:23:19Z</time>
      </trkpt>
      <trkpt lat="47.35249" lon="-1.25878">
        <ele>55</ele>
        <time>2011-10-02T06:23:22Z</time>
      </trkpt>
      <trkpt lat="47.35254" lon="-1.25874">
        <ele>59</ele>
        <time>2011-10-02T06:23:25Z</time>
      </trkpt>
      <trkpt lat="47.35259" lon="-1.25869">
        <ele>59</ele>
        <time>2011-10-02T06:23:28Z</time>
      </trkpt>
      <trkpt lat="47.35264" lon="-1.25863">
        <ele>59</ele>
        <time>2011-10-02T06:23:31Z</time>
      </trkpt>
      <trkpt lat="47.35269" lon="-1.25859">
        <ele>59</ele>
        <time>2011-10-02T06:23:34Z</time>
      </trkpt>
      <trkpt lat="47.35273" lon="-1.25859">
        <ele>59</ele>
        <time>2011-10-02T06:23:37Z</time>
      </trkpt>
      <trkpt lat="47.35276" lon="-1.25864">
        <ele>59</ele>
        <time>2011-10-02T06:23:39Z</time>
      </trkpt>
      <trkpt lat="47.35279" lon="-1.25881">
        <ele>59</ele>
        <time>2011-10-02T06:23:43Z</time>
      </trkpt>
      <trkpt lat="47.35277" lon="-1.25902">
        <ele>59</ele>
        <time>2011-10-02T06:23:45Z</time>
      </trkpt>
      <trkpt lat="47.35273" lon="-1.25922">
        <ele>58</ele>
        <time>2011-10-02T06:23:48Z</time>
      </trkpt>
      <trkpt lat="47.35272" lon="-1.2594">
        <ele>59</ele>
        <time>2011-10-02T06:23:51Z</time>
      </trkpt>
      <trkpt lat="47.3527" lon="-1.2596">
        <ele>59</ele>
        <time>2011-10-02T06:23:54Z</time>
      </trkpt>
      <trkpt lat="47.35269" lon="-1.25981">
        <ele>59</ele>
        <time>2011-10-02T06:23:57Z</time>
      </trkpt>
      <trkpt lat="47.35268" lon="-1.26003">
        <ele>58</ele>
        <time>2011-10-02T06:24:00Z</time>
      </trkpt>
      <trkpt lat="47.35266" lon="-1.26029">
        <ele>59</ele>
        <time>2011-10-02T06:24:03Z</time>
      </trkpt>
      <trkpt lat="47.35264" lon="-1.26055">
        <ele>59</ele>
        <time>2011-10-02T06:24:06Z</time>
      </trkpt>
      <trkpt lat="47.35262" lon="-1.26081">
        <ele>58</ele>
        <time>2011-10-02T06:24:09Z</time>
      </trkpt>
      <trkpt lat="47.35259" lon="-1.26109">
        <ele>59</ele>
        <time>2011-10-02T06:24:13Z</time>
      </trkpt>
      <trkpt lat="47.35258" lon="-1.26139">
        <ele>59</ele>
        <time>2011-10-02T06:24:15Z</time>
      </trkpt>
      <trkpt lat="47.35257" lon="-1.26168">
        <ele>57</ele>
        <time>2011-10-02T06:24:18Z</time>
      </trkpt>
      <trkpt lat="47.35255" lon="-1.26196">
        <ele>58</ele>
        <time>2011-10-02T06:24:21Z</time>
      </trkpt>
      <trkpt lat="47.35253" lon="-1.26214">
        <ele>59</ele>
        <time>2011-10-02T06:24:23Z</time>
      </trkpt>
      <trkpt lat="47.35252" lon="-1.26232">
        <ele>58</ele>
        <time>2011-10-02T06:24:25Z</time>
      </trkpt>
      <trkpt lat="47.35247" lon="-1.26254">
        <ele>56</ele>
        <time>2011-10-02T06:24:28Z</time>
      </trkpt>
      <trkpt lat="47.35243" lon="-1.26269">
        <ele>55</ele>
        <time>2011-10-02T06:24:31Z</time>
      </trkpt>
      <trkpt lat="47.35246" lon="-1.26292">
        <ele>55</ele>
        <time>2011-10-02T06:24:34Z</time>
      </trkpt>
      <trkpt lat="47.35248" lon="-1.26322">
        <ele>55</ele>
        <time>2011-10-02T06:24:37Z</time>
      </trkpt>
      <trkpt lat="47.35247" lon="-1.26355">
        <ele>54</ele>
        <time>2011-10-02T06:24:40Z</time>
      </trkpt>
      <trkpt lat="47.35249" lon="-1.26391">
        <ele>54</ele>
        <time>2011-10-02T06:24:43Z</time>
      </trkpt>
      <trkpt lat="47.35251" lon="-1.26413">
        <ele>56</ele>
        <time>2011-10-02T06:24:46Z</time>
      </trkpt>
      <trkpt lat="47.35253" lon="-1.26445">
        <ele>56</ele>
        <time>2011-10-02T06:24:48Z</time>
      </trkpt>
      <trkpt lat="47.35255" lon="-1.26478">
        <ele>56</ele>
        <time>2011-10-02T06:24:51Z</time>
      </trkpt>
      <trkpt lat="47.35257" lon="-1.26514">
        <ele>54</ele>
        <time>2011-10-02T06:24:54Z</time>
      </trkpt>
      <trkpt lat="47.3526" lon="-1.26552">
        <ele>54</ele>
        <time>2011-10-02T06:24:57Z</time>
      </trkpt>
      <trkpt lat="47.35263" lon="-1.26593">
        <ele>52</ele>
        <time>2011-10-02T06:25:00Z</time>
      </trkpt>
      <trkpt lat="47.35267" lon="-1.26633">
        <ele>51</ele>
        <time>2011-10-02T06:25:03Z</time>
      </trkpt>
      <trkpt lat="47.35271" lon="-1.26673">
        <ele>48</ele>
        <time>2011-10-02T06:25:06Z</time>
      </trkpt>
      <trkpt lat="47.35273" lon="-1.26717">
        <ele>48</ele>
        <time>2011-10-02T06:25:09Z</time>
      </trkpt>
      <trkpt lat="47.35277" lon="-1.26765">
        <ele>47</ele>
        <time>2011-10-02T06:25:12Z</time>
      </trkpt>
      <trkpt lat="47.35279" lon="-1.26805">
        <ele>47</ele>
        <time>2011-10-02T06:25:15Z</time>
      </trkpt>
      <trkpt lat="47.35281" lon="-1.26828">
        <ele>47</ele>
        <time>2011-10-02T06:25:18Z</time>
      </trkpt>
      <trkpt lat="47.35283" lon="-1.26865">
        <ele>46</ele>
        <time>2011-10-02T06:25:20Z</time>
      </trkpt>
      <trkpt lat="47.35284" lon="-1.26904">
        <ele>45</ele>
        <time>2011-10-02T06:25:23Z</time>
      </trkpt>
      <trkpt lat="47.35285" lon="-1.26944">
        <ele>44</ele>
        <time>2011-10-02T06:25:26Z</time>
      </trkpt>
      <trkpt lat="47.35285" lon="-1.26972">
        <ele>44</ele>
        <time>2011-10-02T06:25:28Z</time>
      </trkpt>
      <trkpt lat="47.35283" lon="-1.27013">
        <ele>43</ele>
        <time>2011-10-02T06:25:31Z</time>
      </trkpt>
      <trkpt lat="47.35275" lon="-1.27046">
        <ele>43</ele>
        <time>2011-10-02T06:25:34Z</time>
      </trkpt>
      <trkpt lat="47.35262" lon="-1.27076">
        <ele>42</ele>
        <time>2011-10-02T06:25:37Z</time>
      </trkpt>
      <trkpt lat="47.35254" lon="-1.27094">
        <ele>41</ele>
        <time>2011-10-02T06:25:39Z</time>
      </trkpt>
      <trkpt lat="47.35245" lon="-1.27112">
        <ele>39</ele>
        <time>2011-10-02T06:25:42Z</time>
      </trkpt>
      <trkpt lat="47.35244" lon="-1.27119">
        <ele>39</ele>
        <time>2011-10-02T06:25:44Z</time>
      </trkpt>
      <trkpt lat="47.35245" lon="-1.27132">
        <ele>39</ele>
        <time>2011-10-02T06:25:47Z</time>
      </trkpt>
      <trkpt lat="47.35242" lon="-1.27143">
        <ele>39</ele>
        <time>2011-10-02T06:25:49Z</time>
      </trkpt>
      <trkpt lat="47.35238" lon="-1.27157">
        <ele>39</ele>
        <time>2011-10-02T06:25:52Z</time>
      </trkpt>
      <trkpt lat="47.35228" lon="-1.27179">
        <ele>39</ele>
        <time>2011-10-02T06:25:55Z</time>
      </trkpt>
      <trkpt lat="47.35217" lon="-1.27201">
        <ele>39</ele>
        <time>2011-10-02T06:25:57Z</time>
      </trkpt>
      <trkpt lat="47.35209" lon="-1.27217">
        <ele>39</ele>
        <time>2011-10-02T06:25:59Z</time>
      </trkpt>
      <trkpt lat="47.35196" lon="-1.27243">
        <ele>38</ele>
        <time>2011-10-02T06:26:02Z</time>
      </trkpt>
      <trkpt lat="47.35188" lon="-1.27261">
        <ele>38</ele>
        <time>2011-10-02T06:26:04Z</time>
      </trkpt>
      <trkpt lat="47.3518" lon="-1.27279">
        <ele>38</ele>
        <time>2011-10-02T06:26:06Z</time>
      </trkpt>
      <trkpt lat="47.35171" lon="-1.27296">
        <ele>38</ele>
        <time>2011-10-02T06:26:08Z</time>
      </trkpt>
      <trkpt lat="47.35162" lon="-1.27315">
        <ele>34</ele>
        <time>2011-10-02T06:26:10Z</time>
      </trkpt>
      <trkpt lat="47.3515" lon="-1.27342">
        <ele>34</ele>
        <time>2011-10-02T06:26:13Z</time>
      </trkpt>
      <trkpt lat="47.35141" lon="-1.27359">
        <ele>32</ele>
        <time>2011-10-02T06:26:15Z</time>
      </trkpt>
      <trkpt lat="47.35129" lon="-1.27377">
        <ele>32</ele>
        <time>2011-10-02T06:26:18Z</time>
      </trkpt>
      <trkpt lat="47.35112" lon="-1.27376">
        <ele>31</ele>
        <time>2011-10-02T06:26:21Z</time>
      </trkpt>
      <trkpt lat="47.35094" lon="-1.27374">
        <ele>30</ele>
        <time>2011-10-02T06:26:24Z</time>
      </trkpt>
      <trkpt lat="47.35069" lon="-1.27373">
        <ele>26</ele>
        <time>2011-10-02T06:26:27Z</time>
      </trkpt>
      <trkpt lat="47.35041" lon="-1.2737">
        <ele>25</ele>
        <time>2011-10-02T06:26:30Z</time>
      </trkpt>
      <trkpt lat="47.35014" lon="-1.27367">
        <ele>24</ele>
        <time>2011-10-02T06:26:33Z</time>
      </trkpt>
      <trkpt lat="47.34997" lon="-1.27365">
        <ele>21</ele>
        <time>2011-10-02T06:26:35Z</time>
      </trkpt>
      <trkpt lat="47.34981" lon="-1.27364">
        <ele>21</ele>
        <time>2011-10-02T06:26:37Z</time>
      </trkpt>
      <trkpt lat="47.34965" lon="-1.27362">
        <ele>20</ele>
        <time>2011-10-02T06:26:39Z</time>
      </trkpt>
      <trkpt lat="47.34945" lon="-1.27359">
        <ele>20</ele>
        <time>2011-10-02T06:26:42Z</time>
      </trkpt>
      <trkpt lat="47.34931" lon="-1.27365">
        <ele>19</ele>
        <time>2011-10-02T06:26:45Z</time>
      </trkpt>
      <trkpt lat="47.34922" lon="-1.27374">
        <ele>19</ele>
        <time>2011-10-02T06:26:48Z</time>
      </trkpt>
      <trkpt lat="47.3491" lon="-1.27394">
        <ele>16</ele>
        <time>2011-10-02T06:26:50Z</time>
      </trkpt>
      <trkpt lat="47.34906" lon="-1.27408">
        <ele>16</ele>
        <time>2011-10-02T06:26:52Z</time>
      </trkpt>
      <trkpt lat="47.34904" lon="-1.2743">
        <ele>16</ele>
        <time>2011-10-02T06:26:55Z</time>
      </trkpt>
      <trkpt lat="47.34903" lon="-1.27451">
        <ele>15</ele>
        <time>2011-10-02T06:26:58Z</time>
      </trkpt>
      <trkpt lat="47.34895" lon="-1.27457">
        <ele>15</ele>
        <time>2011-10-02T06:27:02Z</time>
      </trkpt>
      <trkpt lat="47.34885" lon="-1.27458">
        <ele>14</ele>
        <time>2011-10-02T06:27:04Z</time>
      </trkpt>
      <trkpt lat="47.34879" lon="-1.27464">
        <ele>14</ele>
        <time>2011-10-02T06:27:07Z</time>
      </trkpt>
      <trkpt lat="47.34865" lon="-1.27479">
        <ele>13</ele>
        <time>2011-10-02T06:27:09Z</time>
      </trkpt>
      <trkpt lat="47.34854" lon="-1.27482">
        <ele>13</ele>
        <time>2011-10-02T06:27:12Z</time>
      </trkpt>
      <trkpt lat="47.34846" lon="-1.27504">
        <ele>12</ele>
        <time>2011-10-02T06:27:18Z</time>
      </trkpt>
      <trkpt lat="47.34843" lon="-1.27519">
        <ele>12</ele>
        <time>2011-10-02T06:27:20Z</time>
      </trkpt>
      <trkpt lat="47.34839" lon="-1.27542">
        <ele>12</ele>
        <time>2011-10-02T06:27:23Z</time>
      </trkpt>
      <trkpt lat="47.34836" lon="-1.27559">
        <ele>12</ele>
        <time>2011-10-02T06:27:25Z</time>
      </trkpt>
      <trkpt lat="47.34829" lon="-1.27583">
        <ele>9</ele>
        <time>2011-10-02T06:27:28Z</time>
      </trkpt>
      <trkpt lat="47.34826" lon="-1.27608">
        <ele>8</ele>
        <time>2011-10-02T06:27:32Z</time>
      </trkpt>
      <trkpt lat="47.34826" lon="-1.27636">
        <ele>9</ele>
        <time>2011-10-02T06:27:34Z</time>
      </trkpt>
      <trkpt lat="47.34826" lon="-1.27653">
        <ele>9</ele>
        <time>2011-10-02T06:27:36Z</time>
      </trkpt>
      <trkpt lat="47.34822" lon="-1.2768">
        <ele>9</ele>
        <time>2011-10-02T06:27:39Z</time>
      </trkpt>
      <trkpt lat="47.34816" lon="-1.2771">
        <ele>9</ele>
        <time>2011-10-02T06:27:42Z</time>
      </trkpt>
      <trkpt lat="47.34813" lon="-1.2773">
        <ele>10</ele>
        <time>2011-10-02T06:27:45Z</time>
      </trkpt>
      <trkpt lat="47.34809" lon="-1.27759">
        <ele>11</ele>
        <time>2011-10-02T06:27:48Z</time>
      </trkpt>
      <trkpt lat="47.34807" lon="-1.27787">
        <ele>11</ele>
        <time>2011-10-02T06:27:50Z</time>
      </trkpt>
      <trkpt lat="47.34807" lon="-1.27805">
        <ele>11</ele>
        <time>2011-10-02T06:27:52Z</time>
      </trkpt>
      <trkpt lat="47.34805" lon="-1.27822">
        <ele>11</ele>
        <time>2011-10-02T06:27:55Z</time>
      </trkpt>
      <trkpt lat="47.34795" lon="-1.27837">
        <ele>12</ele>
        <time>2011-10-02T06:27:58Z</time>
      </trkpt>
      <trkpt lat="47.34786" lon="-1.27855">
        <ele>12</ele>
        <time>2011-10-02T06:28:00Z</time>
      </trkpt>
      <trkpt lat="47.34783" lon="-1.27869">
        <ele>12</ele>
        <time>2011-10-02T06:28:02Z</time>
      </trkpt>
      <trkpt lat="47.34781" lon="-1.27885">
        <ele>12</ele>
        <time>2011-10-02T06:28:04Z</time>
      </trkpt>
      <trkpt lat="47.34777" lon="-1.27911">
        <ele>12</ele>
        <time>2011-10-02T06:28:07Z</time>
      </trkpt>
      <trkpt lat="47.34773" lon="-1.27937">
        <ele>14</ele>
        <time>2011-10-02T06:28:10Z</time>
      </trkpt>
      <trkpt lat="47.34769" lon="-1.27954">
        <ele>14</ele>
        <time>2011-10-02T06:28:12Z</time>
      </trkpt>
      <trkpt lat="47.34763" lon="-1.27982">
        <ele>14</ele>
        <time>2011-10-02T06:28:16Z</time>
      </trkpt>
      <trkpt lat="47.34757" lon="-1.2801">
        <ele>14</ele>
        <time>2011-10-02T06:28:18Z</time>
      </trkpt>
      <trkpt lat="47.34753" lon="-1.28028">
        <ele>16</ele>
        <time>2011-10-02T06:28:20Z</time>
      </trkpt>
      <trkpt lat="47.34747" lon="-1.28053">
        <ele>12</ele>
        <time>2011-10-02T06:28:23Z</time>
      </trkpt>
      <trkpt lat="47.34743" lon="-1.28067">
        <ele>12</ele>
        <time>2011-10-02T06:28:25Z</time>
      </trkpt>
      <trkpt lat="47.34741" lon="-1.28074">
        <ele>12</ele>
        <time>2011-10-02T06:28:28Z</time>
      </trkpt>
      <trkpt lat="47.34741" lon="-1.28074">
        <ele>12</ele>
        <time>2011-10-02T06:28:31Z</time>
      </trkpt>
      <trkpt lat="47.34771" lon="-1.28087">
        <ele>18</ele>
        <time>2011-10-02T06:28:46Z</time>
      </trkpt>
      <trkpt lat="47.3478" lon="-1.2809">
        <ele>19</ele>
        <time>2011-10-02T06:28:50Z</time>
      </trkpt>
      <trkpt lat="47.34808" lon="-1.28099">
        <ele>22</ele>
        <time>2011-10-02T06:29:09Z</time>
      </trkpt>
      <trkpt lat="47.34817" lon="-1.28105">
        <ele>23</ele>
        <time>2011-10-02T06:29:15Z</time>
      </trkpt>
      <trkpt lat="47.34832" lon="-1.28116">
        <ele>23</ele>
        <time>2011-10-02T06:29:24Z</time>
      </trkpt>
      <trkpt lat="47.34838" lon="-1.28113">
        <ele>29</ele>
        <time>2011-10-02T06:29:27Z</time>
      </trkpt>
      <trkpt lat="47.34844" lon="-1.2811">
        <ele>29</ele>
        <time>2011-10-02T06:29:29Z</time>
      </trkpt>
      <trkpt lat="47.34854" lon="-1.28105">
        <ele>30</ele>
        <time>2011-10-02T06:29:32Z</time>
      </trkpt>
      <trkpt lat="47.34864" lon="-1.28102">
        <ele>30</ele>
        <time>2011-10-02T06:29:35Z</time>
      </trkpt>
      <trkpt lat="47.3487" lon="-1.28101">
        <ele>30</ele>
        <time>2011-10-02T06:29:37Z</time>
      </trkpt>
      <trkpt lat="47.34878" lon="-1.28101">
        <ele>31</ele>
        <time>2011-10-02T06:29:40Z</time>
      </trkpt>
      <trkpt lat="47.34884" lon="-1.281">
        <ele>31</ele>
        <time>2011-10-02T06:29:43Z</time>
      </trkpt>
      <trkpt lat="47.34891" lon="-1.281">
        <ele>32</ele>
        <time>2011-10-02T06:29:45Z</time>
      </trkpt>
      <trkpt lat="47.34898" lon="-1.281">
        <ele>32</ele>
        <time>2011-10-02T06:29:48Z</time>
      </trkpt>
      <trkpt lat="47.34905" lon="-1.28102">
        <ele>32</ele>
        <time>2011-10-02T06:29:51Z</time>
      </trkpt>
      <trkpt lat="47.34905" lon="-1.28102">
        <ele>32</ele>
        <time>2011-10-02T06:29:53Z</time>
      </trkpt>
      <trkpt lat="47.34921" lon="-1.28102">
        <ele>36</ele>
        <time>2011-10-02T06:29:58Z</time>
      </trkpt>
      <trkpt lat="47.34928" lon="-1.28101">
        <ele>36</ele>
        <time>2011-10-02T06:30:01Z</time>
      </trkpt>
      <trkpt lat="47.34942" lon="-1.28104">
        <ele>38</ele>
        <time>2011-10-02T06:30:07Z</time>
      </trkpt>
      <trkpt lat="47.34949" lon="-1.28107">
        <ele>38</ele>
        <time>2011-10-02T06:30:10Z</time>
      </trkpt>
      <trkpt lat="47.34956" lon="-1.28109">
        <ele>38</ele>
        <time>2011-10-02T06:30:14Z</time>
      </trkpt>
      <trkpt lat="47.34962" lon="-1.28111">
        <ele>39</ele>
        <time>2011-10-02T06:30:16Z</time>
      </trkpt>
      <trkpt lat="47.34967" lon="-1.28112">
        <ele>39</ele>
        <time>2011-10-02T06:30:18Z</time>
      </trkpt>
      <trkpt lat="47.34979" lon="-1.28115">
        <ele>40</ele>
        <time>2011-10-02T06:30:25Z</time>
      </trkpt>
      <trkpt lat="47.34984" lon="-1.28117">
        <ele>40</ele>
        <time>2011-10-02T06:30:27Z</time>
      </trkpt>
      <trkpt lat="47.34992" lon="-1.2812">
        <ele>40</ele>
        <time>2011-10-02T06:30:30Z</time>
      </trkpt>
      <trkpt lat="47.35" lon="-1.28122">
        <ele>44</ele>
        <time>2011-10-02T06:30:33Z</time>
      </trkpt>
      <trkpt lat="47.35008" lon="-1.28117">
        <ele>44</ele>
        <time>2011-10-02T06:30:36Z</time>
      </trkpt>
      <trkpt lat="47.35014" lon="-1.28104">
        <ele>44</ele>
        <time>2011-10-02T06:30:39Z</time>
      </trkpt>
      <trkpt lat="47.35023" lon="-1.28087">
        <ele>44</ele>
        <time>2011-10-02T06:30:42Z</time>
      </trkpt>
      <trkpt lat="47.35034" lon="-1.28082">
        <ele>42</ele>
        <time>2011-10-02T06:30:44Z</time>
      </trkpt>
      <trkpt lat="47.35047" lon="-1.28083">
        <ele>45</ele>
        <time>2011-10-02T06:30:47Z</time>
      </trkpt>
      <trkpt lat="47.35055" lon="-1.28085">
        <ele>45</ele>
        <time>2011-10-02T06:30:49Z</time>
      </trkpt>
      <trkpt lat="47.35066" lon="-1.28088">
        <ele>45</ele>
        <time>2011-10-02T06:30:52Z</time>
      </trkpt>
      <trkpt lat="47.35075" lon="-1.28092">
        <ele>46</ele>
        <time>2011-10-02T06:30:55Z</time>
      </trkpt>
      <trkpt lat="47.35082" lon="-1.28094">
        <ele>46</ele>
        <time>2011-10-02T06:30:57Z</time>
      </trkpt>
      <trkpt lat="47.35091" lon="-1.28097">
        <ele>48</ele>
        <time>2011-10-02T06:31:00Z</time>
      </trkpt>
      <trkpt lat="47.35097" lon="-1.28099">
        <ele>48</ele>
        <time>2011-10-02T06:31:02Z</time>
      </trkpt>
      <trkpt lat="47.35107" lon="-1.28103">
        <ele>49</ele>
        <time>2011-10-02T06:31:05Z</time>
      </trkpt>
      <trkpt lat="47.35116" lon="-1.28106">
        <ele>50</ele>
        <time>2011-10-02T06:31:08Z</time>
      </trkpt>
      <trkpt lat="47.35125" lon="-1.28109">
        <ele>50</ele>
        <time>2011-10-02T06:31:11Z</time>
      </trkpt>
      <trkpt lat="47.35131" lon="-1.28112">
        <ele>50</ele>
        <time>2011-10-02T06:31:13Z</time>
      </trkpt>
      <trkpt lat="47.35139" lon="-1.28118">
        <ele>51</ele>
        <time>2011-10-02T06:31:16Z</time>
      </trkpt>
      <trkpt lat="47.35143" lon="-1.28126">
        <ele>51</ele>
        <time>2011-10-02T06:31:18Z</time>
      </trkpt>
      <trkpt lat="47.35143" lon="-1.28141">
        <ele>51</ele>
        <time>2011-10-02T06:31:21Z</time>
      </trkpt>
      <trkpt lat="47.35142" lon="-1.2816">
        <ele>52</ele>
        <time>2011-10-02T06:31:24Z</time>
      </trkpt>
      <trkpt lat="47.35138" lon="-1.28178">
        <ele>53</ele>
        <time>2011-10-02T06:31:27Z</time>
      </trkpt>
      <trkpt lat="47.35135" lon="-1.28198">
        <ele>53</ele>
        <time>2011-10-02T06:31:30Z</time>
      </trkpt>
      <trkpt lat="47.35133" lon="-1.28212">
        <ele>54</ele>
        <time>2011-10-02T06:31:32Z</time>
      </trkpt>
      <trkpt lat="47.3513" lon="-1.28234">
        <ele>54</ele>
        <time>2011-10-02T06:31:35Z</time>
      </trkpt>
      <trkpt lat="47.35127" lon="-1.28255">
        <ele>55</ele>
        <time>2011-10-02T06:31:38Z</time>
      </trkpt>
      <trkpt lat="47.35125" lon="-1.28269">
        <ele>55</ele>
        <time>2011-10-02T06:31:40Z</time>
      </trkpt>
      <trkpt lat="47.35123" lon="-1.28289">
        <ele>55</ele>
        <time>2011-10-02T06:31:43Z</time>
      </trkpt>
      <trkpt lat="47.35119" lon="-1.28309">
        <ele>55</ele>
        <time>2011-10-02T06:31:46Z</time>
      </trkpt>
      <trkpt lat="47.35114" lon="-1.2832">
        <ele>55</ele>
        <time>2011-10-02T06:31:48Z</time>
      </trkpt>
      <trkpt lat="47.35101" lon="-1.28326">
        <ele>54</ele>
        <time>2011-10-02T06:31:51Z</time>
      </trkpt>
      <trkpt lat="47.35087" lon="-1.28325">
        <ele>54</ele>
        <time>2011-10-02T06:31:54Z</time>
      </trkpt>
      <trkpt lat="47.35078" lon="-1.28323">
        <ele>53</ele>
        <time>2011-10-02T06:31:56Z</time>
      </trkpt>
      <trkpt lat="47.35069" lon="-1.2832">
        <ele>53</ele>
        <time>2011-10-02T06:31:58Z</time>
      </trkpt>
      <trkpt lat="47.35056" lon="-1.28316">
        <ele>53</ele>
        <time>2011-10-02T06:32:01Z</time>
      </trkpt>
      <trkpt lat="47.35042" lon="-1.28312">
        <ele>53</ele>
        <time>2011-10-02T06:32:04Z</time>
      </trkpt>
      <trkpt lat="47.35028" lon="-1.2831">
        <ele>53</ele>
        <time>2011-10-02T06:32:07Z</time>
      </trkpt>
      <trkpt lat="47.35014" lon="-1.28312">
        <ele>53</ele>
        <time>2011-10-02T06:32:10Z</time>
      </trkpt>
      <trkpt lat="47.3501" lon="-1.28324">
        <ele>54</ele>
        <time>2011-10-02T06:32:12Z</time>
      </trkpt>
      <trkpt lat="47.3501" lon="-1.28346">
        <ele>54</ele>
        <time>2011-10-02T06:32:15Z</time>
      </trkpt>
      <trkpt lat="47.35011" lon="-1.28362">
        <ele>54</ele>
        <time>2011-10-02T06:32:17Z</time>
      </trkpt>
      <trkpt lat="47.35012" lon="-1.28386">
        <ele>54</ele>
        <time>2011-10-02T06:32:20Z</time>
      </trkpt>
      <trkpt lat="47.35013" lon="-1.28412">
        <ele>54</ele>
        <time>2011-10-02T06:32:23Z</time>
      </trkpt>
      <trkpt lat="47.35013" lon="-1.28429">
        <ele>53</ele>
        <time>2011-10-02T06:32:25Z</time>
      </trkpt>
      <trkpt lat="47.35013" lon="-1.28454">
        <ele>53</ele>
        <time>2011-10-02T06:32:28Z</time>
      </trkpt>
      <trkpt lat="47.35013" lon="-1.2848">
        <ele>53</ele>
        <time>2011-10-02T06:32:31Z</time>
      </trkpt>
      <trkpt lat="47.35014" lon="-1.28498">
        <ele>53</ele>
        <time>2011-10-02T06:32:33Z</time>
      </trkpt>
      <trkpt lat="47.35014" lon="-1.28528">
        <ele>52</ele>
        <time>2011-10-02T06:32:36Z</time>
      </trkpt>
      <trkpt lat="47.35015" lon="-1.28548">
        <ele>51</ele>
        <time>2011-10-02T06:32:39Z</time>
      </trkpt>
      <trkpt lat="47.35019" lon="-1.28564">
        <ele>51</ele>
        <time>2011-10-02T06:32:42Z</time>
      </trkpt>
      <trkpt lat="47.35021" lon="-1.28581">
        <ele>51</ele>
        <time>2011-10-02T06:32:44Z</time>
      </trkpt>
      <trkpt lat="47.35023" lon="-1.28599">
        <ele>49</ele>
        <time>2011-10-02T06:32:46Z</time>
      </trkpt>
      <trkpt lat="47.35024" lon="-1.28629">
        <ele>49</ele>
        <time>2011-10-02T06:32:49Z</time>
      </trkpt>
      <trkpt lat="47.35025" lon="-1.28659">
        <ele>49</ele>
        <time>2011-10-02T06:32:52Z</time>
      </trkpt>
      <trkpt lat="47.35031" lon="-1.28683">
        <ele>46</ele>
        <time>2011-10-02T06:32:55Z</time>
      </trkpt>
      <trkpt lat="47.35048" lon="-1.28687">
        <ele>46</ele>
        <time>2011-10-02T06:32:58Z</time>
      </trkpt>
      <trkpt lat="47.35067" lon="-1.28686">
        <ele>46</ele>
        <time>2011-10-02T06:33:01Z</time>
      </trkpt>
      <trkpt lat="47.35084" lon="-1.28682">
        <ele>45</ele>
        <time>2011-10-02T06:33:04Z</time>
      </trkpt>
      <trkpt lat="47.35098" lon="-1.2868">
        <ele>44</ele>
        <time>2011-10-02T06:33:07Z</time>
      </trkpt>
      <trkpt lat="47.35103" lon="-1.28677">
        <ele>44</ele>
        <time>2011-10-02T06:33:10Z</time>
      </trkpt>
      <trkpt lat="47.35133" lon="-1.28665">
        <ele>46</ele>
        <time>2011-10-02T06:33:47Z</time>
      </trkpt>
      <trkpt lat="47.35136" lon="-1.28657">
        <ele>46</ele>
        <time>2011-10-02T06:33:49Z</time>
      </trkpt>
      <trkpt lat="47.35143" lon="-1.28641">
        <ele>46</ele>
        <time>2011-10-02T06:33:52Z</time>
      </trkpt>
      <trkpt lat="47.35154" lon="-1.28632">
        <ele>46</ele>
        <time>2011-10-02T06:33:55Z</time>
      </trkpt>
      <trkpt lat="47.35163" lon="-1.2862">
        <ele>46</ele>
        <time>2011-10-02T06:33:58Z</time>
      </trkpt>
      <trkpt lat="47.35171" lon="-1.28607">
        <ele>44</ele>
        <time>2011-10-02T06:34:01Z</time>
      </trkpt>
      <trkpt lat="47.35176" lon="-1.28599">
        <ele>44</ele>
        <time>2011-10-02T06:34:03Z</time>
      </trkpt>
      <trkpt lat="47.35182" lon="-1.28591">
        <ele>45</ele>
        <time>2011-10-02T06:34:05Z</time>
      </trkpt>
      <trkpt lat="47.35191" lon="-1.28581">
        <ele>47</ele>
        <time>2011-10-02T06:34:08Z</time>
      </trkpt>
      <trkpt lat="47.35201" lon="-1.28571">
        <ele>47</ele>
        <time>2011-10-02T06:34:11Z</time>
      </trkpt>
      <trkpt lat="47.35208" lon="-1.28563">
        <ele>47</ele>
        <time>2011-10-02T06:34:13Z</time>
      </trkpt>
      <trkpt lat="47.35217" lon="-1.28551">
        <ele>48</ele>
        <time>2011-10-02T06:34:16Z</time>
      </trkpt>
      <trkpt lat="47.35224" lon="-1.28544">
        <ele>48</ele>
        <time>2011-10-02T06:34:18Z</time>
      </trkpt>
      <trkpt lat="47.35235" lon="-1.28532">
        <ele>48</ele>
        <time>2011-10-02T06:34:21Z</time>
      </trkpt>
      <trkpt lat="47.35247" lon="-1.28521">
        <ele>49</ele>
        <time>2011-10-02T06:34:24Z</time>
      </trkpt>
      <trkpt lat="47.3526" lon="-1.28512">
        <ele>48</ele>
        <time>2011-10-02T06:34:27Z</time>
      </trkpt>
      <trkpt lat="47.35269" lon="-1.28506">
        <ele>47</ele>
        <time>2011-10-02T06:34:29Z</time>
      </trkpt>
      <trkpt lat="47.35283" lon="-1.28499">
        <ele>50</ele>
        <time>2011-10-02T06:34:32Z</time>
      </trkpt>
      <trkpt lat="47.35297" lon="-1.285">
        <ele>50</ele>
        <time>2011-10-02T06:34:35Z</time>
      </trkpt>
      <trkpt lat="47.35303" lon="-1.28513">
        <ele>46</ele>
        <time>2011-10-02T06:34:37Z</time>
      </trkpt>
      <trkpt lat="47.35307" lon="-1.28531">
        <ele>45</ele>
        <time>2011-10-02T06:34:39Z</time>
      </trkpt>
      <trkpt lat="47.35312" lon="-1.2856">
        <ele>44</ele>
        <time>2011-10-02T06:34:42Z</time>
      </trkpt>
      <trkpt lat="47.35317" lon="-1.28589">
        <ele>41</ele>
        <time>2011-10-02T06:34:45Z</time>
      </trkpt>
      <trkpt lat="47.35321" lon="-1.28609">
        <ele>41</ele>
        <time>2011-10-02T06:34:47Z</time>
      </trkpt>
      <trkpt lat="47.35327" lon="-1.28641">
        <ele>40</ele>
        <time>2011-10-02T06:34:50Z</time>
      </trkpt>
      <trkpt lat="47.35331" lon="-1.28664">
        <ele>38</ele>
        <time>2011-10-02T06:34:52Z</time>
      </trkpt>
      <trkpt lat="47.35336" lon="-1.287">
        <ele>36</ele>
        <time>2011-10-02T06:34:55Z</time>
      </trkpt>
      <trkpt lat="47.35342" lon="-1.28734">
        <ele>35</ele>
        <time>2011-10-02T06:34:58Z</time>
      </trkpt>
      <trkpt lat="47.35348" lon="-1.28768">
        <ele>31</ele>
        <time>2011-10-02T06:35:01Z</time>
      </trkpt>
      <trkpt lat="47.35353" lon="-1.28803">
        <ele>30</ele>
        <time>2011-10-02T06:35:04Z</time>
      </trkpt>
      <trkpt lat="47.35359" lon="-1.28837">
        <ele>26</ele>
        <time>2011-10-02T06:35:07Z</time>
      </trkpt>
      <trkpt lat="47.35366" lon="-1.28858">
        <ele>26</ele>
        <time>2011-10-02T06:35:09Z</time>
      </trkpt>
      <trkpt lat="47.35374" lon="-1.28883">
        <ele>26</ele>
        <time>2011-10-02T06:35:12Z</time>
      </trkpt>
      <trkpt lat="47.35383" lon="-1.28907">
        <ele>26</ele>
        <time>2011-10-02T06:35:15Z</time>
      </trkpt>
      <trkpt lat="47.35393" lon="-1.28935">
        <ele>24</ele>
        <time>2011-10-02T06:35:18Z</time>
      </trkpt>
      <trkpt lat="47.35403" lon="-1.28959">
        <ele>23</ele>
        <time>2011-10-02T06:35:21Z</time>
      </trkpt>
      <trkpt lat="47.3541" lon="-1.28975">
        <ele>24</ele>
        <time>2011-10-02T06:35:24Z</time>
      </trkpt>
      <trkpt lat="47.35416" lon="-1.28989">
        <ele>25</ele>
        <time>2011-10-02T06:35:27Z</time>
      </trkpt>
      <trkpt lat="47.3542" lon="-1.28999">
        <ele>27</ele>
        <time>2011-10-02T06:35:29Z</time>
      </trkpt>
      <trkpt lat="47.35424" lon="-1.2901">
        <ele>27</ele>
        <time>2011-10-02T06:35:31Z</time>
      </trkpt>
      <trkpt lat="47.35429" lon="-1.29027">
        <ele>28</ele>
        <time>2011-10-02T06:35:34Z</time>
      </trkpt>
      <trkpt lat="47.35432" lon="-1.29037">
        <ele>28</ele>
        <time>2011-10-02T06:35:36Z</time>
      </trkpt>
      <trkpt lat="47.35437" lon="-1.29052">
        <ele>28</ele>
        <time>2011-10-02T06:35:39Z</time>
      </trkpt>
      <trkpt lat="47.3544" lon="-1.29063">
        <ele>28</ele>
        <time>2011-10-02T06:35:41Z</time>
      </trkpt>
      <trkpt lat="47.35444" lon="-1.29074">
        <ele>28</ele>
        <time>2011-10-02T06:35:43Z</time>
      </trkpt>
      <trkpt lat="47.35451" lon="-1.29095">
        <ele>26</ele>
        <time>2011-10-02T06:35:46Z</time>
      </trkpt>
      <trkpt lat="47.35459" lon="-1.29119">
        <ele>27</ele>
        <time>2011-10-02T06:35:49Z</time>
      </trkpt>
      <trkpt lat="47.35466" lon="-1.29143">
        <ele>27</ele>
        <time>2011-10-02T06:35:52Z</time>
      </trkpt>
      <trkpt lat="47.35473" lon="-1.29164">
        <ele>28</ele>
        <time>2011-10-02T06:35:55Z</time>
      </trkpt>
      <trkpt lat="47.35476" lon="-1.29176">
        <ele>26</ele>
        <time>2011-10-02T06:35:57Z</time>
      </trkpt>
      <trkpt lat="47.35479" lon="-1.29197">
        <ele>24</ele>
        <time>2011-10-02T06:36:00Z</time>
      </trkpt>
      <trkpt lat="47.35482" lon="-1.29224">
        <ele>24</ele>
        <time>2011-10-02T06:36:03Z</time>
      </trkpt>
      <trkpt lat="47.35487" lon="-1.29254">
        <ele>23</ele>
        <time>2011-10-02T06:36:06Z</time>
      </trkpt>
      <trkpt lat="47.35491" lon="-1.29284">
        <ele>20</ele>
        <time>2011-10-02T06:36:09Z</time>
      </trkpt>
      <trkpt lat="47.35497" lon="-1.29314">
        <ele>20</ele>
        <time>2011-10-02T06:36:12Z</time>
      </trkpt>
      <trkpt lat="47.35503" lon="-1.29341">
        <ele>20</ele>
        <time>2011-10-02T06:36:15Z</time>
      </trkpt>
      <trkpt lat="47.35507" lon="-1.29357">
        <ele>19</ele>
        <time>2011-10-02T06:36:17Z</time>
      </trkpt>
      <trkpt lat="47.3551" lon="-1.2938">
        <ele>18</ele>
        <time>2011-10-02T06:36:20Z</time>
      </trkpt>
      <trkpt lat="47.35506" lon="-1.29394">
        <ele>17</ele>
        <time>2011-10-02T06:36:22Z</time>
      </trkpt>
      <trkpt lat="47.35495" lon="-1.29412">
        <ele>16</ele>
        <time>2011-10-02T06:36:25Z</time>
      </trkpt>
      <trkpt lat="47.35485" lon="-1.29424">
        <ele>14</ele>
        <time>2011-10-02T06:36:27Z</time>
      </trkpt>
      <trkpt lat="47.35469" lon="-1.29436">
        <ele>13</ele>
        <time>2011-10-02T06:36:30Z</time>
      </trkpt>
      <trkpt lat="47.35458" lon="-1.29447">
        <ele>12</ele>
        <time>2011-10-02T06:36:33Z</time>
      </trkpt>
      <trkpt lat="47.35452" lon="-1.29459">
        <ele>12</ele>
        <time>2011-10-02T06:36:36Z</time>
      </trkpt>
      <trkpt lat="47.35452" lon="-1.29459">
        <ele>12</ele>
        <time>2011-10-02T06:36:37Z</time>
      </trkpt>
      <trkpt lat="47.35445" lon="-1.2944">
        <ele>12</ele>
        <time>2011-10-02T06:36:49Z</time>
      </trkpt>
      <trkpt lat="47.35446" lon="-1.29425">
        <ele>12</ele>
        <time>2011-10-02T06:36:52Z</time>
      </trkpt>
      <trkpt lat="47.35447" lon="-1.29415">
        <ele>14</ele>
        <time>2011-10-02T06:36:54Z</time>
      </trkpt>
      <trkpt lat="47.35447" lon="-1.29408">
        <ele>14</ele>
        <time>2011-10-02T06:36:56Z</time>
      </trkpt>
      <trkpt lat="47.35447" lon="-1.29364">
        <ele>15</ele>
        <time>2011-10-02T06:37:09Z</time>
      </trkpt>
      <trkpt lat="47.35446" lon="-1.29357">
        <ele>15</ele>
        <time>2011-10-02T06:37:12Z</time>
      </trkpt>
      <trkpt lat="47.35446" lon="-1.29357">
        <ele>15</ele>
        <time>2011-10-02T06:37:13Z</time>
      </trkpt>
      <trkpt lat="47.35437" lon="-1.29337">
        <ele>15</ele>
        <time>2011-10-02T06:37:18Z</time>
      </trkpt>
      <trkpt lat="47.35437" lon="-1.29337">
        <ele>15</ele>
        <time>2011-10-02T06:37:22Z</time>
      </trkpt>
      <trkpt lat="47.35422" lon="-1.29305">
        <ele>16</ele>
        <time>2011-10-02T06:37:27Z</time>
      </trkpt>
      <trkpt lat="47.35418" lon="-1.29291">
        <ele>16</ele>
        <time>2011-10-02T06:37:30Z</time>
      </trkpt>
      <trkpt lat="47.35416" lon="-1.29281">
        <ele>14</ele>
        <time>2011-10-02T06:37:32Z</time>
      </trkpt>
      <trkpt lat="47.35415" lon="-1.29272">
        <ele>14</ele>
        <time>2011-10-02T06:37:34Z</time>
      </trkpt>
      <trkpt lat="47.35412" lon="-1.29254">
        <ele>13</ele>
        <time>2011-10-02T06:37:37Z</time>
      </trkpt>
      <trkpt lat="47.3541" lon="-1.29239">
        <ele>13</ele>
        <time>2011-10-02T06:37:39Z</time>
      </trkpt>
      <trkpt lat="47.35407" lon="-1.29224">
        <ele>13</ele>
        <time>2011-10-02T06:37:41Z</time>
      </trkpt>
      <trkpt lat="47.35404" lon="-1.29205">
        <ele>14</ele>
        <time>2011-10-02T06:37:44Z</time>
      </trkpt>
      <trkpt lat="47.35398" lon="-1.29186">
        <ele>14</ele>
        <time>2011-10-02T06:37:47Z</time>
      </trkpt>
      <trkpt lat="47.35385" lon="-1.29167">
        <ele>14</ele>
        <time>2011-10-02T06:37:50Z</time>
      </trkpt>
      <trkpt lat="47.35377" lon="-1.29153">
        <ele>14</ele>
        <time>2011-10-02T06:37:52Z</time>
      </trkpt>
      <trkpt lat="47.35365" lon="-1.29131">
        <ele>14</ele>
        <time>2011-10-02T06:37:55Z</time>
      </trkpt>
      <trkpt lat="47.3536" lon="-1.29111">
        <ele>14</ele>
        <time>2011-10-02T06:37:57Z</time>
      </trkpt>
      <trkpt lat="47.35353" lon="-1.29081">
        <ele>14</ele>
        <time>2011-10-02T06:38:00Z</time>
      </trkpt>
      <trkpt lat="47.3535" lon="-1.29062">
        <ele>15</ele>
        <time>2011-10-02T06:38:02Z</time>
      </trkpt>
      <trkpt lat="47.35344" lon="-1.29037">
        <ele>16</ele>
        <time>2011-10-02T06:38:05Z</time>
      </trkpt>
      <trkpt lat="47.35339" lon="-1.29023">
        <ele>15</ele>
        <time>2011-10-02T06:38:07Z</time>
      </trkpt>
      <trkpt lat="47.35333" lon="-1.29009">
        <ele>12</ele>
        <time>2011-10-02T06:38:09Z</time>
      </trkpt>
      <trkpt lat="47.35322" lon="-1.28992">
        <ele>13</ele>
        <time>2011-10-02T06:38:12Z</time>
      </trkpt>
      <trkpt lat="47.35312" lon="-1.28976">
        <ele>13</ele>
        <time>2011-10-02T06:38:15Z</time>
      </trkpt>
      <trkpt lat="47.35305" lon="-1.28959">
        <ele>13</ele>
        <time>2011-10-02T06:38:18Z</time>
      </trkpt>
      <trkpt lat="47.35297" lon="-1.28944">
        <ele>13</ele>
        <time>2011-10-02T06:38:21Z</time>
      </trkpt>
      <trkpt lat="47.35285" lon="-1.28937">
        <ele>13</ele>
        <time>2011-10-02T06:38:24Z</time>
      </trkpt>
      <trkpt lat="47.35275" lon="-1.28933">
        <ele>12</ele>
        <time>2011-10-02T06:38:27Z</time>
      </trkpt>
      <trkpt lat="47.35265" lon="-1.28927">
        <ele>12</ele>
        <time>2011-10-02T06:38:30Z</time>
      </trkpt>
      <trkpt lat="47.35255" lon="-1.28917">
        <ele>11</ele>
        <time>2011-10-02T06:38:33Z</time>
      </trkpt>
      <trkpt lat="47.35246" lon="-1.289">
        <ele>13</ele>
        <time>2011-10-02T06:38:36Z</time>
      </trkpt>
      <trkpt lat="47.35236" lon="-1.28884">
        <ele>14</ele>
        <time>2011-10-02T06:38:39Z</time>
      </trkpt>
      <trkpt lat="47.35228" lon="-1.28874">
        <ele>15</ele>
        <time>2011-10-02T06:38:41Z</time>
      </trkpt>
      <trkpt lat="47.35212" lon="-1.28861">
        <ele>15</ele>
        <time>2011-10-02T06:38:44Z</time>
      </trkpt>
      <trkpt lat="47.35196" lon="-1.28855">
        <ele>15</ele>
        <time>2011-10-02T06:38:47Z</time>
      </trkpt>
      <trkpt lat="47.35185" lon="-1.28851">
        <ele>15</ele>
        <time>2011-10-02T06:38:50Z</time>
      </trkpt>
      <trkpt lat="47.35177" lon="-1.28848">
        <ele>15</ele>
        <time>2011-10-02T06:38:52Z</time>
      </trkpt>
      <trkpt lat="47.35163" lon="-1.28845">
        <ele>16</ele>
        <time>2011-10-02T06:38:55Z</time>
      </trkpt>
      <trkpt lat="47.35146" lon="-1.28845">
        <ele>16</ele>
        <time>2011-10-02T06:38:58Z</time>
      </trkpt>
      <trkpt lat="47.35127" lon="-1.28842">
        <ele>17</ele>
        <time>2011-10-02T06:39:01Z</time>
      </trkpt>
      <trkpt lat="47.35114" lon="-1.28844">
        <ele>17</ele>
        <time>2011-10-02T06:39:03Z</time>
      </trkpt>
      <trkpt lat="47.35096" lon="-1.2885">
        <ele>18</ele>
        <time>2011-10-02T06:39:06Z</time>
      </trkpt>
      <trkpt lat="47.35084" lon="-1.28853">
        <ele>18</ele>
        <time>2011-10-02T06:39:09Z</time>
      </trkpt>
      <trkpt lat="47.35077" lon="-1.28857">
        <ele>19</ele>
        <time>2011-10-02T06:39:12Z</time>
      </trkpt>
      <trkpt lat="47.35068" lon="-1.28864">
        <ele>18</ele>
        <time>2011-10-02T06:39:14Z</time>
      </trkpt>
      <trkpt lat="47.35052" lon="-1.28877">
        <ele>17</ele>
        <time>2011-10-02T06:39:17Z</time>
      </trkpt>
      <trkpt lat="47.35041" lon="-1.28884">
        <ele>17</ele>
        <time>2011-10-02T06:39:19Z</time>
      </trkpt>
      <trkpt lat="47.35026" lon="-1.28892">
        <ele>16</ele>
        <time>2011-10-02T06:39:22Z</time>
      </trkpt>
      <trkpt lat="47.35011" lon="-1.28898">
        <ele>15</ele>
        <time>2011-10-02T06:39:25Z</time>
      </trkpt>
      <trkpt lat="47.35" lon="-1.28903">
        <ele>14</ele>
        <time>2011-10-02T06:39:27Z</time>
      </trkpt>
      <trkpt lat="47.34984" lon="-1.2891">
        <ele>14</ele>
        <time>2011-10-02T06:39:30Z</time>
      </trkpt>
      <trkpt lat="47.34973" lon="-1.28913">
        <ele>14</ele>
        <time>2011-10-02T06:39:32Z</time>
      </trkpt>
      <trkpt lat="47.34961" lon="-1.28916">
        <ele>14</ele>
        <time>2011-10-02T06:39:34Z</time>
      </trkpt>
      <trkpt lat="47.34944" lon="-1.28922">
        <ele>12</ele>
        <time>2011-10-02T06:39:37Z</time>
      </trkpt>
      <trkpt lat="47.34927" lon="-1.28928">
        <ele>11</ele>
        <time>2011-10-02T06:39:40Z</time>
      </trkpt>
      <trkpt lat="47.34909" lon="-1.28932">
        <ele>10</ele>
        <time>2011-10-02T06:39:43Z</time>
      </trkpt>
      <trkpt lat="47.34894" lon="-1.28933">
        <ele>11</ele>
        <time>2011-10-02T06:39:46Z</time>
      </trkpt>
      <trkpt lat="47.34883" lon="-1.28933">
        <ele>11</ele>
        <time>2011-10-02T06:39:48Z</time>
      </trkpt>
      <trkpt lat="47.34867" lon="-1.28929">
        <ele>11</ele>
        <time>2011-10-02T06:39:51Z</time>
      </trkpt>
      <trkpt lat="47.34856" lon="-1.28927">
        <ele>11</ele>
        <time>2011-10-02T06:39:53Z</time>
      </trkpt>
      <trkpt lat="47.3484" lon="-1.28927">
        <ele>11</ele>
        <time>2011-10-02T06:39:56Z</time>
      </trkpt>
      <trkpt lat="47.34828" lon="-1.28928">
        <ele>11</ele>
        <time>2011-10-02T06:39:58Z</time>
      </trkpt>
      <trkpt lat="47.34811" lon="-1.28929">
        <ele>11</ele>
        <time>2011-10-02T06:40:01Z</time>
      </trkpt>
      <trkpt lat="47.34795" lon="-1.28929">
        <ele>12</ele>
        <time>2011-10-02T06:40:04Z</time>
      </trkpt>
      <trkpt lat="47.34784" lon="-1.28927">
        <ele>12</ele>
        <time>2011-10-02T06:40:06Z</time>
      </trkpt>
      <trkpt lat="47.34772" lon="-1.28921">
        <ele>11</ele>
        <time>2011-10-02T06:40:09Z</time>
      </trkpt>
      <trkpt lat="47.34762" lon="-1.28909">
        <ele>12</ele>
        <time>2011-10-02T06:40:12Z</time>
      </trkpt>
      <trkpt lat="47.34752" lon="-1.28894">
        <ele>13</ele>
        <time>2011-10-02T06:40:15Z</time>
      </trkpt>
      <trkpt lat="47.34741" lon="-1.28879">
        <ele>12</ele>
        <time>2011-10-02T06:40:18Z</time>
      </trkpt>
      <trkpt lat="47.34727" lon="-1.28862">
        <ele>12</ele>
        <time>2011-10-02T06:40:21Z</time>
      </trkpt>
      <trkpt lat="47.34708" lon="-1.28839">
        <ele>11</ele>
        <time>2011-10-02T06:40:24Z</time>
      </trkpt>
      <trkpt lat="47.34688" lon="-1.28817">
        <ele>12</ele>
        <time>2011-10-02T06:40:27Z</time>
      </trkpt>
      <trkpt lat="47.34665" lon="-1.28812">
        <ele>10</ele>
        <time>2011-10-02T06:40:30Z</time>
      </trkpt>
      <trkpt lat="47.34645" lon="-1.28815">
        <ele>10</ele>
        <time>2011-10-02T06:40:33Z</time>
      </trkpt>
      <trkpt lat="47.34629" lon="-1.28817">
        <ele>10</ele>
        <time>2011-10-02T06:40:36Z</time>
      </trkpt>
      <trkpt lat="47.34614" lon="-1.28816">
        <ele>9</ele>
        <time>2011-10-02T06:40:39Z</time>
      </trkpt>
      <trkpt lat="47.34602" lon="-1.28815">
        <ele>9</ele>
        <time>2011-10-02T06:40:42Z</time>
      </trkpt>
      <trkpt lat="47.34594" lon="-1.28815">
        <ele>9</ele>
        <time>2011-10-02T06:40:44Z</time>
      </trkpt>
      <trkpt lat="47.34586" lon="-1.28815">
        <ele>9</ele>
        <time>2011-10-02T06:40:46Z</time>
      </trkpt>
      <trkpt lat="47.34573" lon="-1.28811">
        <ele>9</ele>
        <time>2011-10-02T06:40:49Z</time>
      </trkpt>
      <trkpt lat="47.34564" lon="-1.28815">
        <ele>9</ele>
        <time>2011-10-02T06:40:52Z</time>
      </trkpt>
      <trkpt lat="47.34559" lon="-1.28827">
        <ele>9</ele>
        <time>2011-10-02T06:40:55Z</time>
      </trkpt>
      <trkpt lat="47.34557" lon="-1.28836">
        <ele>11</ele>
        <time>2011-10-02T06:40:57Z</time>
      </trkpt>
      <trkpt lat="47.34554" lon="-1.2885">
        <ele>11</ele>
        <time>2011-10-02T06:41:00Z</time>
      </trkpt>
      <trkpt lat="47.34551" lon="-1.28864">
        <ele>12</ele>
        <time>2011-10-02T06:41:03Z</time>
      </trkpt>
      <trkpt lat="47.34549" lon="-1.28874">
        <ele>12</ele>
        <time>2011-10-02T06:41:05Z</time>
      </trkpt>
      <trkpt lat="47.34543" lon="-1.28881">
        <ele>12</ele>
        <time>2011-10-02T06:41:07Z</time>
      </trkpt>
      <trkpt lat="47.34533" lon="-1.28893">
        <ele>13</ele>
        <time>2011-10-02T06:41:10Z</time>
      </trkpt>
      <trkpt lat="47.34526" lon="-1.28902">
        <ele>13</ele>
        <time>2011-10-02T06:41:12Z</time>
      </trkpt>
      <trkpt lat="47.34518" lon="-1.28918">
        <ele>16</ele>
        <time>2011-10-02T06:41:15Z</time>
      </trkpt>
      <trkpt lat="47.34509" lon="-1.28933">
        <ele>16</ele>
        <time>2011-10-02T06:41:18Z</time>
      </trkpt>
      <trkpt lat="47.34499" lon="-1.28952">
        <ele>13</ele>
        <time>2011-10-02T06:41:21Z</time>
      </trkpt>
      <trkpt lat="47.34493" lon="-1.28967">
        <ele>13</ele>
        <time>2011-10-02T06:41:23Z</time>
      </trkpt>
      <trkpt lat="47.34484" lon="-1.2898">
        <ele>14</ele>
        <time>2011-10-02T06:41:25Z</time>
      </trkpt>
      <trkpt lat="47.34475" lon="-1.28993">
        <ele>13</ele>
        <time>2011-10-02T06:41:27Z</time>
      </trkpt>
      <trkpt lat="47.34464" lon="-1.29015">
        <ele>13</ele>
        <time>2011-10-02T06:41:30Z</time>
      </trkpt>
      <trkpt lat="47.34457" lon="-1.2903">
        <ele>13</ele>
        <time>2011-10-02T06:41:32Z</time>
      </trkpt>
      <trkpt lat="47.34448" lon="-1.29053">
        <ele>13</ele>
        <time>2011-10-02T06:41:35Z</time>
      </trkpt>
      <trkpt lat="47.34445" lon="-1.29069">
        <ele>12</ele>
        <time>2011-10-02T06:41:37Z</time>
      </trkpt>
      <trkpt lat="47.34443" lon="-1.29092">
        <ele>12</ele>
        <time>2011-10-02T06:41:40Z</time>
      </trkpt>
      <trkpt lat="47.34444" lon="-1.2911">
        <ele>12</ele>
        <time>2011-10-02T06:41:43Z</time>
      </trkpt>
      <trkpt lat="47.34448" lon="-1.29108">
        <ele>13</ele>
        <time>2011-10-02T06:41:45Z</time>
      </trkpt>
      <trkpt lat="47.34453" lon="-1.291">
        <ele>13</ele>
        <time>2011-10-02T06:41:48Z</time>
      </trkpt>
      <trkpt lat="47.34453" lon="-1.291">
        <ele>13</ele>
        <time>2011-10-02T06:42:18Z</time>
      </trkpt>
      <trkpt lat="47.34427" lon="-1.29119">
        <ele>12</ele>
        <time>2011-10-02T06:48:03Z</time>
      </trkpt>
      <trkpt lat="47.34421" lon="-1.29117">
        <ele>12</ele>
        <time>2011-10-02T06:48:06Z</time>
      </trkpt>
      <trkpt lat="47.34415" lon="-1.29115">
        <ele>9</ele>
        <time>2011-10-02T06:48:09Z</time>
      </trkpt>
      <trkpt lat="47.34409" lon="-1.29113">
        <ele>9</ele>
        <time>2011-10-02T06:48:12Z</time>
      </trkpt>
      <trkpt lat="47.34403" lon="-1.29112">
        <ele>9</ele>
        <time>2011-10-02T06:48:15Z</time>
      </trkpt>
      <trkpt lat="47.34395" lon="-1.2911">
        <ele>9</ele>
        <time>2011-10-02T06:48:18Z</time>
      </trkpt>
      <trkpt lat="47.34388" lon="-1.29108">
        <ele>9</ele>
        <time>2011-10-02T06:48:21Z</time>
      </trkpt>
      <trkpt lat="47.34381" lon="-1.29108">
        <ele>9</ele>
        <time>2011-10-02T06:48:24Z</time>
      </trkpt>
      <trkpt lat="47.34377" lon="-1.29114">
        <ele>9</ele>
        <time>2011-10-02T06:48:28Z</time>
      </trkpt>
      <trkpt lat="47.34377" lon="-1.29114">
        <ele>9</ele>
        <time>2011-10-02T06:48:33Z</time>
      </trkpt>
      <trkpt lat="47.34368" lon="-1.29103">
        <ele>9</ele>
        <time>2011-10-02T06:48:42Z</time>
      </trkpt>
      <trkpt lat="47.34359" lon="-1.29115">
        <ele>9</ele>
        <time>2011-10-02T06:48:45Z</time>
      </trkpt>
      <trkpt lat="47.34356" lon="-1.29135">
        <ele>9</ele>
        <time>2011-10-02T06:48:48Z</time>
      </trkpt>
      <trkpt lat="47.34354" lon="-1.29155">
        <ele>9</ele>
        <time>2011-10-02T06:48:51Z</time>
      </trkpt>
      <trkpt lat="47.34353" lon="-1.29167">
        <ele>9</ele>
        <time>2011-10-02T06:48:53Z</time>
      </trkpt>
      <trkpt lat="47.34353" lon="-1.2918">
        <ele>9</ele>
        <time>2011-10-02T06:48:55Z</time>
      </trkpt>
      <trkpt lat="47.34351" lon="-1.29206">
        <ele>9</ele>
        <time>2011-10-02T06:48:58Z</time>
      </trkpt>
      <trkpt lat="47.34345" lon="-1.29231">
        <ele>8</ele>
        <time>2011-10-02T06:49:01Z</time>
      </trkpt>
      <trkpt lat="47.34339" lon="-1.29242">
        <ele>8</ele>
        <time>2011-10-02T06:49:03Z</time>
      </trkpt>
      <trkpt lat="47.34323" lon="-1.29243">
        <ele>8</ele>
        <time>2011-10-02T06:49:06Z</time>
      </trkpt>
      <trkpt lat="47.34308" lon="-1.2924">
        <ele>7</ele>
        <time>2011-10-02T06:49:09Z</time>
      </trkpt>
      <trkpt lat="47.34299" lon="-1.29235">
        <ele>7</ele>
        <time>2011-10-02T06:49:12Z</time>
      </trkpt>
      <trkpt lat="47.34296" lon="-1.29246">
        <ele>7</ele>
        <time>2011-10-02T06:49:15Z</time>
      </trkpt>
      <trkpt lat="47.34299" lon="-1.29264">
        <ele>7</ele>
        <time>2011-10-02T06:49:18Z</time>
      </trkpt>
      <trkpt lat="47.343" lon="-1.29277">
        <ele>6</ele>
        <time>2011-10-02T06:49:20Z</time>
      </trkpt>
      <trkpt lat="47.34301" lon="-1.29299">
        <ele>6</ele>
        <time>2011-10-02T06:49:23Z</time>
      </trkpt>
      <trkpt lat="47.34302" lon="-1.29315">
        <ele>6</ele>
        <time>2011-10-02T06:49:25Z</time>
      </trkpt>
      <trkpt lat="47.34302" lon="-1.29338">
        <ele>6</ele>
        <time>2011-10-02T06:49:28Z</time>
      </trkpt>
      <trkpt lat="47.343" lon="-1.29361">
        <ele>6</ele>
        <time>2011-10-02T06:49:31Z</time>
      </trkpt>
      <trkpt lat="47.34299" lon="-1.29377">
        <ele>6</ele>
        <time>2011-10-02T06:49:33Z</time>
      </trkpt>
      <trkpt lat="47.34296" lon="-1.294">
        <ele>6</ele>
        <time>2011-10-02T06:49:36Z</time>
      </trkpt>
      <trkpt lat="47.34294" lon="-1.29416">
        <ele>6</ele>
        <time>2011-10-02T06:49:38Z</time>
      </trkpt>
      <trkpt lat="47.34291" lon="-1.29439">
        <ele>6</ele>
        <time>2011-10-02T06:49:41Z</time>
      </trkpt>
      <trkpt lat="47.34288" lon="-1.29462">
        <ele>6</ele>
        <time>2011-10-02T06:49:44Z</time>
      </trkpt>
      <trkpt lat="47.34285" lon="-1.29484">
        <ele>6</ele>
        <time>2011-10-02T06:49:47Z</time>
      </trkpt>
      <trkpt lat="47.34282" lon="-1.29506">
        <ele>6</ele>
        <time>2011-10-02T06:49:50Z</time>
      </trkpt>
      <trkpt lat="47.34277" lon="-1.29527">
        <ele>6</ele>
        <time>2011-10-02T06:49:53Z</time>
      </trkpt>
      <trkpt lat="47.3427" lon="-1.29537">
        <ele>6</ele>
        <time>2011-10-02T06:49:55Z</time>
      </trkpt>
      <trkpt lat="47.34263" lon="-1.29556">
        <ele>6</ele>
        <time>2011-10-02T06:49:58Z</time>
      </trkpt>
      <trkpt lat="47.34258" lon="-1.29568">
        <ele>6</ele>
        <time>2011-10-02T06:50:00Z</time>
      </trkpt>
      <trkpt lat="47.34252" lon="-1.29581">
        <ele>6</ele>
        <time>2011-10-02T06:50:02Z</time>
      </trkpt>
      <trkpt lat="47.34242" lon="-1.29599">
        <ele>6</ele>
        <time>2011-10-02T06:50:05Z</time>
      </trkpt>
      <trkpt lat="47.34231" lon="-1.29618">
        <ele>6</ele>
        <time>2011-10-02T06:50:08Z</time>
      </trkpt>
      <trkpt lat="47.34225" lon="-1.29631">
        <ele>6</ele>
        <time>2011-10-02T06:50:10Z</time>
      </trkpt>
      <trkpt lat="47.34219" lon="-1.29644">
        <ele>6</ele>
        <time>2011-10-02T06:50:12Z</time>
      </trkpt>
      <trkpt lat="47.34211" lon="-1.29663">
        <ele>6</ele>
        <time>2011-10-02T06:50:15Z</time>
      </trkpt>
      <trkpt lat="47.34206" lon="-1.29675">
        <ele>6</ele>
        <time>2011-10-02T06:50:17Z</time>
      </trkpt>
      <trkpt lat="47.34198" lon="-1.29692">
        <ele>6</ele>
        <time>2011-10-02T06:50:20Z</time>
      </trkpt>
      <trkpt lat="47.34191" lon="-1.29702">
        <ele>6</ele>
        <time>2011-10-02T06:50:22Z</time>
      </trkpt>
      <trkpt lat="47.34182" lon="-1.29719">
        <ele>6</ele>
        <time>2011-10-02T06:50:25Z</time>
      </trkpt>
      <trkpt lat="47.34181" lon="-1.29741">
        <ele>5</ele>
        <time>2011-10-02T06:50:28Z</time>
      </trkpt>
      <trkpt lat="47.3418" lon="-1.29765">
        <ele>5</ele>
        <time>2011-10-02T06:50:31Z</time>
      </trkpt>
      <trkpt lat="47.34181" lon="-1.29789">
        <ele>6</ele>
        <time>2011-10-02T06:50:34Z</time>
      </trkpt>
      <trkpt lat="47.34179" lon="-1.29813">
        <ele>5</ele>
        <time>2011-10-02T06:50:37Z</time>
      </trkpt>
      <trkpt lat="47.34176" lon="-1.29837">
        <ele>5</ele>
        <time>2011-10-02T06:50:40Z</time>
      </trkpt>
      <trkpt lat="47.34174" lon="-1.29861">
        <ele>5</ele>
        <time>2011-10-02T06:50:43Z</time>
      </trkpt>
      <trkpt lat="47.34174" lon="-1.29877">
        <ele>5</ele>
        <time>2011-10-02T06:50:45Z</time>
      </trkpt>
      <trkpt lat="47.34174" lon="-1.29893">
        <ele>5</ele>
        <time>2011-10-02T06:50:47Z</time>
      </trkpt>
      <trkpt lat="47.34171" lon="-1.29909">
        <ele>5</ele>
        <time>2011-10-02T06:50:49Z</time>
      </trkpt>
      <trkpt lat="47.34166" lon="-1.29931">
        <ele>5</ele>
        <time>2011-10-02T06:50:52Z</time>
      </trkpt>
      <trkpt lat="47.34164" lon="-1.29954">
        <ele>6</ele>
        <time>2011-10-02T06:50:55Z</time>
      </trkpt>
      <trkpt lat="47.34162" lon="-1.2997">
        <ele>6</ele>
        <time>2011-10-02T06:50:57Z</time>
      </trkpt>
      <trkpt lat="47.3416" lon="-1.29993">
        <ele>5</ele>
        <time>2011-10-02T06:51:00Z</time>
      </trkpt>
      <trkpt lat="47.34158" lon="-1.30009">
        <ele>5</ele>
        <time>2011-10-02T06:51:02Z</time>
      </trkpt>
      <trkpt lat="47.34154" lon="-1.30033">
        <ele>5</ele>
        <time>2011-10-02T06:51:05Z</time>
      </trkpt>
      <trkpt lat="47.3415" lon="-1.30048">
        <ele>5</ele>
        <time>2011-10-02T06:51:07Z</time>
      </trkpt>
      <trkpt lat="47.34147" lon="-1.30071">
        <ele>5</ele>
        <time>2011-10-02T06:51:10Z</time>
      </trkpt>
      <trkpt lat="47.34147" lon="-1.30087">
        <ele>4</ele>
        <time>2011-10-02T06:51:12Z</time>
      </trkpt>
      <trkpt lat="47.34147" lon="-1.30111">
        <ele>4</ele>
        <time>2011-10-02T06:51:15Z</time>
      </trkpt>
      <trkpt lat="47.34146" lon="-1.30128">
        <ele>4</ele>
        <time>2011-10-02T06:51:17Z</time>
      </trkpt>
      <trkpt lat="47.34143" lon="-1.30155">
        <ele>4</ele>
        <time>2011-10-02T06:51:20Z</time>
      </trkpt>
      <trkpt lat="47.34139" lon="-1.30173">
        <ele>5</ele>
        <time>2011-10-02T06:51:22Z</time>
      </trkpt>
      <trkpt lat="47.34135" lon="-1.3019">
        <ele>5</ele>
        <time>2011-10-02T06:51:24Z</time>
      </trkpt>
      <trkpt lat="47.34127" lon="-1.30215">
        <ele>6</ele>
        <time>2011-10-02T06:51:27Z</time>
      </trkpt>
      <trkpt lat="47.34122" lon="-1.30231">
        <ele>6</ele>
        <time>2011-10-02T06:51:29Z</time>
      </trkpt>
      <trkpt lat="47.34115" lon="-1.30255">
        <ele>8</ele>
        <time>2011-10-02T06:51:32Z</time>
      </trkpt>
      <trkpt lat="47.34111" lon="-1.30272">
        <ele>8</ele>
        <time>2011-10-02T06:51:34Z</time>
      </trkpt>
      <trkpt lat="47.34103" lon="-1.30297">
        <ele>8</ele>
        <time>2011-10-02T06:51:37Z</time>
      </trkpt>
      <trkpt lat="47.34091" lon="-1.30317">
        <ele>8</ele>
        <time>2011-10-02T06:51:40Z</time>
      </trkpt>
      <trkpt lat="47.34078" lon="-1.30335">
        <ele>6</ele>
        <time>2011-10-02T06:51:43Z</time>
      </trkpt>
      <trkpt lat="47.34073" lon="-1.3035">
        <ele>6</ele>
        <time>2011-10-02T06:51:45Z</time>
      </trkpt>
      <trkpt lat="47.34067" lon="-1.30366">
        <ele>6</ele>
        <time>2011-10-02T06:51:47Z</time>
      </trkpt>
      <trkpt lat="47.34058" lon="-1.30379">
        <ele>6</ele>
        <time>2011-10-02T06:51:49Z</time>
      </trkpt>
      <trkpt lat="47.34042" lon="-1.30396">
        <ele>6</ele>
        <time>2011-10-02T06:51:52Z</time>
      </trkpt>
      <trkpt lat="47.34027" lon="-1.30416">
        <ele>7</ele>
        <time>2011-10-02T06:51:55Z</time>
      </trkpt>
      <trkpt lat="47.3402" lon="-1.30432">
        <ele>8</ele>
        <time>2011-10-02T06:51:57Z</time>
      </trkpt>
      <trkpt lat="47.34013" lon="-1.30455">
        <ele>8</ele>
        <time>2011-10-02T06:52:00Z</time>
      </trkpt>
      <trkpt lat="47.34011" lon="-1.30471">
        <ele>8</ele>
        <time>2011-10-02T06:52:02Z</time>
      </trkpt>
      <trkpt lat="47.34011" lon="-1.30499">
        <ele>8</ele>
        <time>2011-10-02T06:52:05Z</time>
      </trkpt>
      <trkpt lat="47.34012" lon="-1.3052">
        <ele>9</ele>
        <time>2011-10-02T06:52:07Z</time>
      </trkpt>
      <trkpt lat="47.34012" lon="-1.30551">
        <ele>10</ele>
        <time>2011-10-02T06:52:10Z</time>
      </trkpt>
      <trkpt lat="47.3401" lon="-1.3058">
        <ele>9</ele>
        <time>2011-10-02T06:52:13Z</time>
      </trkpt>
      <trkpt lat="47.34005" lon="-1.30606">
        <ele>12</ele>
        <time>2011-10-02T06:52:16Z</time>
      </trkpt>
      <trkpt lat="47.33999" lon="-1.30622">
        <ele>9</ele>
        <time>2011-10-02T06:52:18Z</time>
      </trkpt>
      <trkpt lat="47.3399" lon="-1.30645">
        <ele>10</ele>
        <time>2011-10-02T06:52:21Z</time>
      </trkpt>
      <trkpt lat="47.33983" lon="-1.30659">
        <ele>10</ele>
        <time>2011-10-02T06:52:23Z</time>
      </trkpt>
      <trkpt lat="47.33973" lon="-1.30676">
        <ele>14</ele>
        <time>2011-10-02T06:52:26Z</time>
      </trkpt>
      <trkpt lat="47.33967" lon="-1.30693">
        <ele>15</ele>
        <time>2011-10-02T06:52:29Z</time>
      </trkpt>
      <trkpt lat="47.3398" lon="-1.30703">
        <ele>16</ele>
        <time>2011-10-02T06:52:32Z</time>
      </trkpt>
      <trkpt lat="47.33984" lon="-1.3071">
        <ele>16</ele>
        <time>2011-10-02T06:52:34Z</time>
      </trkpt>
      <trkpt lat="47.33987" lon="-1.30719">
        <ele>17</ele>
        <time>2011-10-02T06:52:37Z</time>
      </trkpt>
      <trkpt lat="47.3399" lon="-1.30725">
        <ele>18</ele>
        <time>2011-10-02T06:52:40Z</time>
      </trkpt>
      <trkpt lat="47.33985" lon="-1.30769">
        <ele>26</ele>
        <time>2011-10-02T06:53:14Z</time>
      </trkpt>
      <trkpt lat="47.33983" lon="-1.30782">
        <ele>27</ele>
        <time>2011-10-02T06:53:26Z</time>
      </trkpt>
      <trkpt lat="47.33983" lon="-1.30782">
        <ele>27</ele>
        <time>2011-10-02T06:53:39Z</time>
      </trkpt>
      <trkpt lat="47.33983" lon="-1.30782">
        <ele>27</ele>
        <time>2011-10-02T06:53:57Z</time>
      </trkpt>
      <trkpt lat="47.34001" lon="-1.30817">
        <ele>38</ele>
        <time>2011-10-02T06:54:43Z</time>
      </trkpt>
      <trkpt lat="47.34001" lon="-1.30817">
        <ele>38</ele>
        <time>2011-10-02T06:54:55Z</time>
      </trkpt>
      <trkpt lat="47.33971" lon="-1.30837">
        <ele>41</ele>
        <time>2011-10-02T06:55:29Z</time>
      </trkpt>
      <trkpt lat="47.33966" lon="-1.30839">
        <ele>41</ele>
        <time>2011-10-02T06:55:33Z</time>
      </trkpt>
      <trkpt lat="47.33961" lon="-1.30843">
        <ele>41</ele>
        <time>2011-10-02T06:55:38Z</time>
      </trkpt>
      <trkpt lat="47.33956" lon="-1.30846">
        <ele>40</ele>
        <time>2011-10-02T06:55:41Z</time>
      </trkpt>
      <trkpt lat="47.33952" lon="-1.30849">
        <ele>40</ele>
        <time>2011-10-02T06:55:43Z</time>
      </trkpt>
      <trkpt lat="47.33943" lon="-1.30855">
        <ele>40</ele>
        <time>2011-10-02T06:55:46Z</time>
      </trkpt>
      <trkpt lat="47.33936" lon="-1.30862">
        <ele>40</ele>
        <time>2011-10-02T06:55:49Z</time>
      </trkpt>
      <trkpt lat="47.33929" lon="-1.30868">
        <ele>41</ele>
        <time>2011-10-02T06:55:52Z</time>
      </trkpt>
      <trkpt lat="47.33924" lon="-1.30872">
        <ele>42</ele>
        <time>2011-10-02T06:55:54Z</time>
      </trkpt>
      <trkpt lat="47.3392" lon="-1.30875">
        <ele>42</ele>
        <time>2011-10-02T06:55:57Z</time>
      </trkpt>
      <trkpt lat="47.33911" lon="-1.30882">
        <ele>37</ele>
        <time>2011-10-02T06:56:01Z</time>
      </trkpt>
      <trkpt lat="47.33908" lon="-1.30886">
        <ele>37</ele>
        <time>2011-10-02T06:56:04Z</time>
      </trkpt>
      <trkpt lat="47.339" lon="-1.30891">
        <ele>38</ele>
        <time>2011-10-02T06:56:11Z</time>
      </trkpt>
      <trkpt lat="47.33897" lon="-1.30896">
        <ele>38</ele>
        <time>2011-10-02T06:56:16Z</time>
      </trkpt>
      <trkpt lat="47.33894" lon="-1.30902">
        <ele>39</ele>
        <time>2011-10-02T06:56:22Z</time>
      </trkpt>
      <trkpt lat="47.3389" lon="-1.30908">
        <ele>39</ele>
        <time>2011-10-02T06:56:28Z</time>
      </trkpt>
      <trkpt lat="47.33888" lon="-1.30914">
        <ele>39</ele>
        <time>2011-10-02T06:56:33Z</time>
      </trkpt>
      <trkpt lat="47.33886" lon="-1.3092">
        <ele>48</ele>
        <time>2011-10-02T06:56:39Z</time>
      </trkpt>
      <trkpt lat="47.33886" lon="-1.30927">
        <ele>48</ele>
        <time>2011-10-02T06:56:52Z</time>
      </trkpt>
      <trkpt lat="47.33884" lon="-1.30934">
        <ele>48</ele>
        <time>2011-10-02T06:56:57Z</time>
      </trkpt>
      <trkpt lat="47.33885" lon="-1.30942">
        <ele>49</ele>
        <time>2011-10-02T06:57:00Z</time>
      </trkpt>
      <trkpt lat="47.33886" lon="-1.3095">
        <ele>49</ele>
        <time>2011-10-02T06:57:03Z</time>
      </trkpt>
      <trkpt lat="47.33889" lon="-1.30959">
        <ele>50</ele>
        <time>2011-10-02T06:57:06Z</time>
      </trkpt>
      <trkpt lat="47.33891" lon="-1.30965">
        <ele>50</ele>
        <time>2011-10-02T06:57:08Z</time>
      </trkpt>
      <trkpt lat="47.33894" lon="-1.30971">
        <ele>51</ele>
        <time>2011-10-02T06:57:10Z</time>
      </trkpt>
      <trkpt lat="47.33898" lon="-1.30979">
        <ele>52</ele>
        <time>2011-10-02T06:57:13Z</time>
      </trkpt>
      <trkpt lat="47.339" lon="-1.30985">
        <ele>53</ele>
        <time>2011-10-02T06:57:15Z</time>
      </trkpt>
      <trkpt lat="47.33903" lon="-1.30994">
        <ele>55</ele>
        <time>2011-10-02T06:57:18Z</time>
      </trkpt>
      <trkpt lat="47.33907" lon="-1.31001">
        <ele>58</ele>
        <time>2011-10-02T06:57:21Z</time>
      </trkpt>
      <trkpt lat="47.33913" lon="-1.31004">
        <ele>58</ele>
        <time>2011-10-02T06:57:24Z</time>
      </trkpt>
      <trkpt lat="47.33918" lon="-1.31004">
        <ele>59</ele>
        <time>2011-10-02T06:57:26Z</time>
      </trkpt>
      <trkpt lat="47.33926" lon="-1.31004">
        <ele>60</ele>
        <time>2011-10-02T06:57:29Z</time>
      </trkpt>
      <trkpt lat="47.33932" lon="-1.31004">
        <ele>60</ele>
        <time>2011-10-02T06:57:31Z</time>
      </trkpt>
      <trkpt lat="47.33937" lon="-1.31004">
        <ele>61</ele>
        <time>2011-10-02T06:57:33Z</time>
      </trkpt>
      <trkpt lat="47.33946" lon="-1.31004">
        <ele>61</ele>
        <time>2011-10-02T06:57:36Z</time>
      </trkpt>
      <trkpt lat="47.33951" lon="-1.31005">
        <ele>61</ele>
        <time>2011-10-02T06:57:38Z</time>
      </trkpt>
      <trkpt lat="47.33951" lon="-1.31005">
        <ele>61</ele>
        <time>2011-10-02T06:57:40Z</time>
      </trkpt>
      <trkpt lat="47.33959" lon="-1.31027">
        <ele>62</ele>
        <time>2011-10-02T06:57:45Z</time>
      </trkpt>
      <trkpt lat="47.3396" lon="-1.31043">
        <ele>62</ele>
        <time>2011-10-02T06:57:48Z</time>
      </trkpt>
      <trkpt lat="47.33959" lon="-1.3106">
        <ele>62</ele>
        <time>2011-10-02T06:57:51Z</time>
      </trkpt>
      <trkpt lat="47.33959" lon="-1.31078">
        <ele>62</ele>
        <time>2011-10-02T06:57:54Z</time>
      </trkpt>
      <trkpt lat="47.33958" lon="-1.31095">
        <ele>64</ele>
        <time>2011-10-02T06:57:57Z</time>
      </trkpt>
      <trkpt lat="47.33961" lon="-1.31114">
        <ele>64</ele>
        <time>2011-10-02T06:58:00Z</time>
      </trkpt>
      <trkpt lat="47.33964" lon="-1.31133">
        <ele>64</ele>
        <time>2011-10-02T06:58:03Z</time>
      </trkpt>
      <trkpt lat="47.33967" lon="-1.3115">
        <ele>65</ele>
        <time>2011-10-02T06:58:06Z</time>
      </trkpt>
      <trkpt lat="47.33965" lon="-1.31164">
        <ele>65</ele>
        <time>2011-10-02T06:58:09Z</time>
      </trkpt>
      <trkpt lat="47.33961" lon="-1.31172">
        <ele>65</ele>
        <time>2011-10-02T06:58:11Z</time>
      </trkpt>
      <trkpt lat="47.33951" lon="-1.31187">
        <ele>65</ele>
        <time>2011-10-02T06:58:14Z</time>
      </trkpt>
      <trkpt lat="47.33942" lon="-1.31205">
        <ele>65</ele>
        <time>2011-10-02T06:58:17Z</time>
      </trkpt>
      <trkpt lat="47.33932" lon="-1.31225">
        <ele>65</ele>
        <time>2011-10-02T06:58:20Z</time>
      </trkpt>
      <trkpt lat="47.33922" lon="-1.31243">
        <ele>65</ele>
        <time>2011-10-02T06:58:23Z</time>
      </trkpt>
      <trkpt lat="47.33908" lon="-1.31259">
        <ele>66</ele>
        <time>2011-10-02T06:58:26Z</time>
      </trkpt>
      <trkpt lat="47.33901" lon="-1.31269">
        <ele>66</ele>
        <time>2011-10-02T06:58:28Z</time>
      </trkpt>
      <trkpt lat="47.3389" lon="-1.31285">
        <ele>66</ele>
        <time>2011-10-02T06:58:31Z</time>
      </trkpt>
      <trkpt lat="47.33882" lon="-1.31295">
        <ele>67</ele>
        <time>2011-10-02T06:58:33Z</time>
      </trkpt>
      <trkpt lat="47.33875" lon="-1.31306">
        <ele>67</ele>
        <time>2011-10-02T06:58:35Z</time>
      </trkpt>
      <trkpt lat="47.33864" lon="-1.31322">
        <ele>67</ele>
        <time>2011-10-02T06:58:38Z</time>
      </trkpt>
      <trkpt lat="47.33857" lon="-1.31332">
        <ele>67</ele>
        <time>2011-10-02T06:58:40Z</time>
      </trkpt>
      <trkpt lat="47.3385" lon="-1.31342">
        <ele>68</ele>
        <time>2011-10-02T06:58:42Z</time>
      </trkpt>
      <trkpt lat="47.33851" lon="-1.31361">
        <ele>68</ele>
        <time>2011-10-02T06:58:45Z</time>
      </trkpt>
      <trkpt lat="47.3386" lon="-1.31371">
        <ele>68</ele>
        <time>2011-10-02T06:58:48Z</time>
      </trkpt>
      <trkpt lat="47.3387" lon="-1.31381">
        <ele>68</ele>
        <time>2011-10-02T06:58:51Z</time>
      </trkpt>
      <trkpt lat="47.33876" lon="-1.31388">
        <ele>68</ele>
        <time>2011-10-02T06:58:53Z</time>
      </trkpt>
      <trkpt lat="47.33883" lon="-1.31395">
        <ele>68</ele>
        <time>2011-10-02T06:58:55Z</time>
      </trkpt>
      <trkpt lat="47.33892" lon="-1.31408">
        <ele>69</ele>
        <time>2011-10-02T06:58:58Z</time>
      </trkpt>
      <trkpt lat="47.339" lon="-1.31424">
        <ele>69</ele>
        <time>2011-10-02T06:59:01Z</time>
      </trkpt>
      <trkpt lat="47.33904" lon="-1.31435">
        <ele>70</ele>
        <time>2011-10-02T06:59:03Z</time>
      </trkpt>
      <trkpt lat="47.33912" lon="-1.3145">
        <ele>70</ele>
        <time>2011-10-02T06:59:06Z</time>
      </trkpt>
      <trkpt lat="47.33921" lon="-1.31461">
        <ele>71</ele>
        <time>2011-10-02T06:59:09Z</time>
      </trkpt>
      <trkpt lat="47.33931" lon="-1.31469">
        <ele>71</ele>
        <time>2011-10-02T06:59:12Z</time>
      </trkpt>
      <trkpt lat="47.33939" lon="-1.31474">
        <ele>71</ele>
        <time>2011-10-02T06:59:14Z</time>
      </trkpt>
      <trkpt lat="47.33945" lon="-1.31481">
        <ele>71</ele>
        <time>2011-10-02T06:59:16Z</time>
      </trkpt>
      <trkpt lat="47.33955" lon="-1.31492">
        <ele>71</ele>
        <time>2011-10-02T06:59:19Z</time>
      </trkpt>
      <trkpt lat="47.33961" lon="-1.31501">
        <ele>73</ele>
        <time>2011-10-02T06:59:21Z</time>
      </trkpt>
      <trkpt lat="47.33969" lon="-1.31515">
        <ele>73</ele>
        <time>2011-10-02T06:59:24Z</time>
      </trkpt>
      <trkpt lat="47.33974" lon="-1.31526">
        <ele>73</ele>
        <time>2011-10-02T06:59:26Z</time>
      </trkpt>
      <trkpt lat="47.33978" lon="-1.31537">
        <ele>73</ele>
        <time>2011-10-02T06:59:28Z</time>
      </trkpt>
      <trkpt lat="47.33983" lon="-1.31555">
        <ele>74</ele>
        <time>2011-10-02T06:59:31Z</time>
      </trkpt>
      <trkpt lat="47.33988" lon="-1.31573">
        <ele>74</ele>
        <time>2011-10-02T06:59:34Z</time>
      </trkpt>
      <trkpt lat="47.33993" lon="-1.31591">
        <ele>75</ele>
        <time>2011-10-02T06:59:37Z</time>
      </trkpt>
      <trkpt lat="47.33998" lon="-1.31609">
        <ele>75</ele>
        <time>2011-10-02T06:59:40Z</time>
      </trkpt>
      <trkpt lat="47.34003" lon="-1.31626">
        <ele>75</ele>
        <time>2011-10-02T06:59:43Z</time>
      </trkpt>
      <trkpt lat="47.34009" lon="-1.31643">
        <ele>75</ele>
        <time>2011-10-02T06:59:46Z</time>
      </trkpt>
      <trkpt lat="47.34015" lon="-1.31661">
        <ele>75</ele>
        <time>2011-10-02T06:59:49Z</time>
      </trkpt>
      <trkpt lat="47.34019" lon="-1.31672">
        <ele>76</ele>
        <time>2011-10-02T06:59:51Z</time>
      </trkpt>
      <trkpt lat="47.34023" lon="-1.31691">
        <ele>76</ele>
        <time>2011-10-02T06:59:54Z</time>
      </trkpt>
      <trkpt lat="47.34025" lon="-1.31704">
        <ele>76</ele>
        <time>2011-10-02T06:59:56Z</time>
      </trkpt>
      <trkpt lat="47.34026" lon="-1.31717">
        <ele>76</ele>
        <time>2011-10-02T06:59:58Z</time>
      </trkpt>
      <trkpt lat="47.34023" lon="-1.31734">
        <ele>76</ele>
        <time>2011-10-02T07:00:01Z</time>
      </trkpt>
      <trkpt lat="47.34013" lon="-1.31745">
        <ele>76</ele>
        <time>2011-10-02T07:00:04Z</time>
      </trkpt>
      <trkpt lat="47.34006" lon="-1.31752">
        <ele>76</ele>
        <time>2011-10-02T07:00:06Z</time>
      </trkpt>
      <trkpt lat="47.33996" lon="-1.31765">
        <ele>76</ele>
        <time>2011-10-02T07:00:09Z</time>
      </trkpt>
      <trkpt lat="47.33986" lon="-1.31777">
        <ele>76</ele>
        <time>2011-10-02T07:00:12Z</time>
      </trkpt>
      <trkpt lat="47.33976" lon="-1.31793">
        <ele>76</ele>
        <time>2011-10-02T07:00:15Z</time>
      </trkpt>
      <trkpt lat="47.33966" lon="-1.31812">
        <ele>76</ele>
        <time>2011-10-02T07:00:18Z</time>
      </trkpt>
      <trkpt lat="47.33955" lon="-1.31832">
        <ele>75</ele>
        <time>2011-10-02T07:00:21Z</time>
      </trkpt>
      <trkpt lat="47.33945" lon="-1.31853">
        <ele>75</ele>
        <time>2011-10-02T07:00:24Z</time>
      </trkpt>
      <trkpt lat="47.33939" lon="-1.31867">
        <ele>75</ele>
        <time>2011-10-02T07:00:26Z</time>
      </trkpt>
      <trkpt lat="47.33932" lon="-1.31881">
        <ele>75</ele>
        <time>2011-10-02T07:00:28Z</time>
      </trkpt>
      <trkpt lat="47.33922" lon="-1.31905">
        <ele>74</ele>
        <time>2011-10-02T07:00:31Z</time>
      </trkpt>
      <trkpt lat="47.33914" lon="-1.31919">
        <ele>74</ele>
        <time>2011-10-02T07:00:33Z</time>
      </trkpt>
      <trkpt lat="47.33906" lon="-1.31933">
        <ele>73</ele>
        <time>2011-10-02T07:00:35Z</time>
      </trkpt>
      <trkpt lat="47.33895" lon="-1.31954">
        <ele>73</ele>
        <time>2011-10-02T07:00:38Z</time>
      </trkpt>
      <trkpt lat="47.33889" lon="-1.31969">
        <ele>73</ele>
        <time>2011-10-02T07:00:40Z</time>
      </trkpt>
      <trkpt lat="47.33879" lon="-1.3199">
        <ele>73</ele>
        <time>2011-10-02T07:00:43Z</time>
      </trkpt>
      <trkpt lat="47.3388" lon="-1.32009">
        <ele>72</ele>
        <time>2011-10-02T07:00:46Z</time>
      </trkpt>
      <trkpt lat="47.33888" lon="-1.3203">
        <ele>72</ele>
        <time>2011-10-02T07:00:49Z</time>
      </trkpt>
      <trkpt lat="47.33895" lon="-1.32044">
        <ele>72</ele>
        <time>2011-10-02T07:00:51Z</time>
      </trkpt>
      <trkpt lat="47.33904" lon="-1.32064">
        <ele>72</ele>
        <time>2011-10-02T07:00:54Z</time>
      </trkpt>
      <trkpt lat="47.33913" lon="-1.32086">
        <ele>72</ele>
        <time>2011-10-02T07:00:57Z</time>
      </trkpt>
      <trkpt lat="47.33923" lon="-1.32106">
        <ele>72</ele>
        <time>2011-10-02T07:01:00Z</time>
      </trkpt>
      <trkpt lat="47.33933" lon="-1.32126">
        <ele>72</ele>
        <time>2011-10-02T07:01:03Z</time>
      </trkpt>
      <trkpt lat="47.33943" lon="-1.32146">
        <ele>71</ele>
        <time>2011-10-02T07:01:06Z</time>
      </trkpt>
      <trkpt lat="47.3395" lon="-1.32157">
        <ele>71</ele>
        <time>2011-10-02T07:01:08Z</time>
      </trkpt>
      <trkpt lat="47.33962" lon="-1.32171">
        <ele>71</ele>
        <time>2011-10-02T07:01:11Z</time>
      </trkpt>
      <trkpt lat="47.33968" lon="-1.32185">
        <ele>71</ele>
        <time>2011-10-02T07:01:13Z</time>
      </trkpt>
      <trkpt lat="47.33975" lon="-1.32208">
        <ele>71</ele>
        <time>2011-10-02T07:01:16Z</time>
      </trkpt>
      <trkpt lat="47.33984" lon="-1.32233">
        <ele>72</ele>
        <time>2011-10-02T07:01:19Z</time>
      </trkpt>
      <trkpt lat="47.33994" lon="-1.32256">
        <ele>72</ele>
        <time>2011-10-02T07:01:22Z</time>
      </trkpt>
      <trkpt lat="47.34006" lon="-1.32274">
        <ele>73</ele>
        <time>2011-10-02T07:01:25Z</time>
      </trkpt>
      <trkpt lat="47.34017" lon="-1.32295">
        <ele>72</ele>
        <time>2011-10-02T07:01:28Z</time>
      </trkpt>
      <trkpt lat="47.34023" lon="-1.32311">
        <ele>72</ele>
        <time>2011-10-02T07:01:30Z</time>
      </trkpt>
      <trkpt lat="47.34022" lon="-1.32342">
        <ele>70</ele>
        <time>2011-10-02T07:01:33Z</time>
      </trkpt>
      <trkpt lat="47.34023" lon="-1.32373">
        <ele>70</ele>
        <time>2011-10-02T07:01:36Z</time>
      </trkpt>
      <trkpt lat="47.34034" lon="-1.32398">
        <ele>69</ele>
        <time>2011-10-02T07:01:39Z</time>
      </trkpt>
      <trkpt lat="47.34042" lon="-1.32412">
        <ele>69</ele>
        <time>2011-10-02T07:01:41Z</time>
      </trkpt>
      <trkpt lat="47.34053" lon="-1.32429">
        <ele>68</ele>
        <time>2011-10-02T07:01:44Z</time>
      </trkpt>
      <trkpt lat="47.3406" lon="-1.32438">
        <ele>68</ele>
        <time>2011-10-02T07:01:46Z</time>
      </trkpt>
      <trkpt lat="47.34073" lon="-1.32449">
        <ele>67</ele>
        <time>2011-10-02T07:01:49Z</time>
      </trkpt>
      <trkpt lat="47.34085" lon="-1.32466">
        <ele>65</ele>
        <time>2011-10-02T07:01:52Z</time>
      </trkpt>
      <trkpt lat="47.34096" lon="-1.32483">
        <ele>64</ele>
        <time>2011-10-02T07:01:55Z</time>
      </trkpt>
      <trkpt lat="47.34105" lon="-1.32495">
        <ele>64</ele>
        <time>2011-10-02T07:01:57Z</time>
      </trkpt>
      <trkpt lat="47.34119" lon="-1.32511">
        <ele>60</ele>
        <time>2011-10-02T07:02:00Z</time>
      </trkpt>
      <trkpt lat="47.34128" lon="-1.32523">
        <ele>59</ele>
        <time>2011-10-02T07:02:02Z</time>
      </trkpt>
      <trkpt lat="47.34137" lon="-1.32536">
        <ele>59</ele>
        <time>2011-10-02T07:02:04Z</time>
      </trkpt>
      <trkpt lat="47.34145" lon="-1.32549">
        <ele>58</ele>
        <time>2011-10-02T07:02:06Z</time>
      </trkpt>
      <trkpt lat="47.34157" lon="-1.32562">
        <ele>57</ele>
        <time>2011-10-02T07:02:09Z</time>
      </trkpt>
      <trkpt lat="47.34169" lon="-1.32576">
        <ele>55</ele>
        <time>2011-10-02T07:02:12Z</time>
      </trkpt>
      <trkpt lat="47.34181" lon="-1.32593">
        <ele>53</ele>
        <time>2011-10-02T07:02:15Z</time>
      </trkpt>
      <trkpt lat="47.34193" lon="-1.3261">
        <ele>52</ele>
        <time>2011-10-02T07:02:18Z</time>
      </trkpt>
      <trkpt lat="47.342" lon="-1.32617">
        <ele>51</ele>
        <time>2011-10-02T07:02:20Z</time>
      </trkpt>
      <trkpt lat="47.342" lon="-1.32617">
        <ele>51</ele>
        <time>2011-10-02T07:02:22Z</time>
      </trkpt>
      <trkpt lat="47.34192" lon="-1.32662">
        <ele>50</ele>
        <time>2011-10-02T07:02:34Z</time>
      </trkpt>
      <trkpt lat="47.34184" lon="-1.32678">
        <ele>48</ele>
        <time>2011-10-02T07:02:37Z</time>
      </trkpt>
      <trkpt lat="47.3418" lon="-1.32686">
        <ele>48</ele>
        <time>2011-10-02T07:02:39Z</time>
      </trkpt>
      <trkpt lat="47.34169" lon="-1.32718">
        <ele>48</ele>
        <time>2011-10-02T07:02:47Z</time>
      </trkpt>
      <trkpt lat="47.34164" lon="-1.32729">
        <ele>46</ele>
        <time>2011-10-02T07:02:49Z</time>
      </trkpt>
      <trkpt lat="47.34157" lon="-1.32744">
        <ele>46</ele>
        <time>2011-10-02T07:02:52Z</time>
      </trkpt>
      <trkpt lat="47.34151" lon="-1.32753">
        <ele>45</ele>
        <time>2011-10-02T07:02:54Z</time>
      </trkpt>
      <trkpt lat="47.34147" lon="-1.32759">
        <ele>45</ele>
        <time>2011-10-02T07:02:56Z</time>
      </trkpt>
      <trkpt lat="47.34126" lon="-1.32791">
        <ele>45</ele>
        <time>2011-10-02T07:03:05Z</time>
      </trkpt>
      <trkpt lat="47.34118" lon="-1.32801">
        <ele>44</ele>
        <time>2011-10-02T07:03:08Z</time>
      </trkpt>
      <trkpt lat="47.34118" lon="-1.32801">
        <ele>44</ele>
        <time>2011-10-02T07:03:09Z</time>
      </trkpt>
      <trkpt lat="47.34096" lon="-1.32829">
        <ele>42</ele>
        <time>2011-10-02T07:03:13Z</time>
      </trkpt>
      <trkpt lat="47.34086" lon="-1.32842">
        <ele>43</ele>
        <time>2011-10-02T07:03:16Z</time>
      </trkpt>
      <trkpt lat="47.34077" lon="-1.32856">
        <ele>42</ele>
        <time>2011-10-02T07:03:19Z</time>
      </trkpt>
      <trkpt lat="47.34065" lon="-1.3287">
        <ele>43</ele>
        <time>2011-10-02T07:03:21Z</time>
      </trkpt>
      <trkpt lat="47.34047" lon="-1.32891">
        <ele>43</ele>
        <time>2011-10-02T07:03:24Z</time>
      </trkpt>
      <trkpt lat="47.34036" lon="-1.32905">
        <ele>42</ele>
        <time>2011-10-02T07:03:26Z</time>
      </trkpt>
      <trkpt lat="47.34019" lon="-1.32925">
        <ele>42</ele>
        <time>2011-10-02T07:03:29Z</time>
      </trkpt>
      <trkpt lat="47.34004" lon="-1.32945">
        <ele>42</ele>
        <time>2011-10-02T07:03:32Z</time>
      </trkpt>
      <trkpt lat="47.3399" lon="-1.32958">
        <ele>38</ele>
        <time>2011-10-02T07:03:35Z</time>
      </trkpt>
      <trkpt lat="47.33982" lon="-1.32965">
        <ele>38</ele>
        <time>2011-10-02T07:03:37Z</time>
      </trkpt>
      <trkpt lat="47.33974" lon="-1.32971">
        <ele>38</ele>
        <time>2011-10-02T07:03:40Z</time>
      </trkpt>
      <trkpt lat="47.33974" lon="-1.32971">
        <ele>38</ele>
        <time>2011-10-02T07:03:42Z</time>
      </trkpt>
      <trkpt lat="47.3396" lon="-1.33021">
        <ele>37</ele>
        <time>2011-10-02T07:04:09Z</time>
      </trkpt>
      <trkpt lat="47.3396" lon="-1.33021">
        <ele>37</ele>
        <time>2011-10-02T07:04:12Z</time>
      </trkpt>
      <trkpt lat="47.33962" lon="-1.33064">
        <ele>38</ele>
        <time>2011-10-02T07:04:26Z</time>
      </trkpt>
      <trkpt lat="47.33969" lon="-1.33074">
        <ele>38</ele>
        <time>2011-10-02T07:04:29Z</time>
      </trkpt>
      <trkpt lat="47.33978" lon="-1.33089">
        <ele>41</ele>
        <time>2011-10-02T07:04:32Z</time>
      </trkpt>
      <trkpt lat="47.33985" lon="-1.331">
        <ele>41</ele>
        <time>2011-10-02T07:04:34Z</time>
      </trkpt>
      <trkpt lat="47.33994" lon="-1.33113">
        <ele>41</ele>
        <time>2011-10-02T07:04:37Z</time>
      </trkpt>
      <trkpt lat="47.34001" lon="-1.33122">
        <ele>45</ele>
        <time>2011-10-02T07:04:39Z</time>
      </trkpt>
      <trkpt lat="47.3401" lon="-1.33133">
        <ele>45</ele>
        <time>2011-10-02T07:04:42Z</time>
      </trkpt>
      <trkpt lat="47.34016" lon="-1.3314">
        <ele>45</ele>
        <time>2011-10-02T07:04:44Z</time>
      </trkpt>
      <trkpt lat="47.34025" lon="-1.33151">
        <ele>45</ele>
        <time>2011-10-02T07:04:47Z</time>
      </trkpt>
      <trkpt lat="47.34031" lon="-1.33157">
        <ele>46</ele>
        <time>2011-10-02T07:04:49Z</time>
      </trkpt>
      <trkpt lat="47.34037" lon="-1.33163">
        <ele>46</ele>
        <time>2011-10-02T07:04:51Z</time>
      </trkpt>
      <trkpt lat="47.34043" lon="-1.3317">
        <ele>47</ele>
        <time>2011-10-02T07:04:53Z</time>
      </trkpt>
      <trkpt lat="47.34052" lon="-1.3318">
        <ele>47</ele>
        <time>2011-10-02T07:04:56Z</time>
      </trkpt>
      <trkpt lat="47.3406" lon="-1.3319">
        <ele>48</ele>
        <time>2011-10-02T07:04:59Z</time>
      </trkpt>
      <trkpt lat="47.34065" lon="-1.33196">
        <ele>48</ele>
        <time>2011-10-02T07:05:01Z</time>
      </trkpt>
      <trkpt lat="47.34071" lon="-1.33205">
        <ele>48</ele>
        <time>2011-10-02T07:05:04Z</time>
      </trkpt>
      <trkpt lat="47.34076" lon="-1.3321">
        <ele>48</ele>
        <time>2011-10-02T07:05:06Z</time>
      </trkpt>
      <trkpt lat="47.34081" lon="-1.33215">
        <ele>48</ele>
        <time>2011-10-02T07:05:08Z</time>
      </trkpt>
      <trkpt lat="47.34088" lon="-1.33223">
        <ele>51</ele>
        <time>2011-10-02T07:05:11Z</time>
      </trkpt>
      <trkpt lat="47.34092" lon="-1.3323">
        <ele>50</ele>
        <time>2011-10-02T07:05:13Z</time>
      </trkpt>
      <trkpt lat="47.34097" lon="-1.3324">
        <ele>50</ele>
        <time>2011-10-02T07:05:16Z</time>
      </trkpt>
      <trkpt lat="47.34101" lon="-1.33247">
        <ele>50</ele>
        <time>2011-10-02T07:05:18Z</time>
      </trkpt>
      <trkpt lat="47.34107" lon="-1.33258">
        <ele>50</ele>
        <time>2011-10-02T07:05:21Z</time>
      </trkpt>
      <trkpt lat="47.34113" lon="-1.3327">
        <ele>50</ele>
        <time>2011-10-02T07:05:24Z</time>
      </trkpt>
      <trkpt lat="47.34118" lon="-1.33282">
        <ele>50</ele>
        <time>2011-10-02T07:05:27Z</time>
      </trkpt>
      <trkpt lat="47.34122" lon="-1.33289">
        <ele>50</ele>
        <time>2011-10-02T07:05:29Z</time>
      </trkpt>
      <trkpt lat="47.34128" lon="-1.33299">
        <ele>51</ele>
        <time>2011-10-02T07:05:32Z</time>
      </trkpt>
      <trkpt lat="47.34133" lon="-1.33305">
        <ele>51</ele>
        <time>2011-10-02T07:05:34Z</time>
      </trkpt>
      <trkpt lat="47.34141" lon="-1.33313">
        <ele>50</ele>
        <time>2011-10-02T07:05:37Z</time>
      </trkpt>
      <trkpt lat="47.34141" lon="-1.33313">
        <ele>50</ele>
        <time>2011-10-02T07:05:39Z</time>
      </trkpt>
      <trkpt lat="47.34162" lon="-1.33345">
        <ele>51</ele>
        <time>2011-10-02T07:05:49Z</time>
      </trkpt>
      <trkpt lat="47.34169" lon="-1.33354">
        <ele>52</ele>
        <time>2011-10-02T07:05:52Z</time>
      </trkpt>
      <trkpt lat="47.34169" lon="-1.33354">
        <ele>52</ele>
        <time>2011-10-02T07:05:54Z</time>
      </trkpt>
      <trkpt lat="47.34188" lon="-1.33378">
        <ele>53</ele>
        <time>2011-10-02T07:06:00Z</time>
      </trkpt>
      <trkpt lat="47.34193" lon="-1.33388">
        <ele>53</ele>
        <time>2011-10-02T07:06:03Z</time>
      </trkpt>
      <trkpt lat="47.34193" lon="-1.33388">
        <ele>53</ele>
        <time>2011-10-02T07:06:05Z</time>
      </trkpt>
      <trkpt lat="47.34179" lon="-1.33426">
        <ele>54</ele>
        <time>2011-10-02T07:06:22Z</time>
      </trkpt>
      <trkpt lat="47.34175" lon="-1.33434">
        <ele>54</ele>
        <time>2011-10-02T07:06:25Z</time>
      </trkpt>
      <trkpt lat="47.34171" lon="-1.3344">
        <ele>54</ele>
        <time>2011-10-02T07:06:28Z</time>
      </trkpt>
      <trkpt lat="47.34163" lon="-1.33452">
        <ele>56</ele>
        <time>2011-10-02T07:06:35Z</time>
      </trkpt>
      <trkpt lat="47.34155" lon="-1.33461">
        <ele>56</ele>
        <time>2011-10-02T07:06:45Z</time>
      </trkpt>
      <trkpt lat="47.3415" lon="-1.33473">
        <ele>56</ele>
        <time>2011-10-02T07:06:53Z</time>
      </trkpt>
      <trkpt lat="47.34142" lon="-1.33488">
        <ele>57</ele>
        <time>2011-10-02T07:07:05Z</time>
      </trkpt>
      <trkpt lat="47.34139" lon="-1.33495">
        <ele>57</ele>
        <time>2011-10-02T07:07:08Z</time>
      </trkpt>
      <trkpt lat="47.34136" lon="-1.33503">
        <ele>59</ele>
        <time>2011-10-02T07:07:11Z</time>
      </trkpt>
      <trkpt lat="47.34132" lon="-1.33511">
        <ele>60</ele>
        <time>2011-10-02T07:07:14Z</time>
      </trkpt>
      <trkpt lat="47.3413" lon="-1.33518">
        <ele>60</ele>
        <time>2011-10-02T07:07:16Z</time>
      </trkpt>
      <trkpt lat="47.34126" lon="-1.33526">
        <ele>60</ele>
        <time>2011-10-02T07:07:19Z</time>
      </trkpt>
      <trkpt lat="47.34122" lon="-1.33535">
        <ele>60</ele>
        <time>2011-10-02T07:07:22Z</time>
      </trkpt>
      <trkpt lat="47.34116" lon="-1.33543">
        <ele>61</ele>
        <time>2011-10-02T07:07:25Z</time>
      </trkpt>
      <trkpt lat="47.34112" lon="-1.33552">
        <ele>61</ele>
        <time>2011-10-02T07:07:28Z</time>
      </trkpt>
      <trkpt lat="47.34107" lon="-1.3356">
        <ele>61</ele>
        <time>2011-10-02T07:07:31Z</time>
      </trkpt>
      <trkpt lat="47.34103" lon="-1.33567">
        <ele>61</ele>
        <time>2011-10-02T07:07:34Z</time>
      </trkpt>
      <trkpt lat="47.34098" lon="-1.33574">
        <ele>62</ele>
        <time>2011-10-02T07:07:37Z</time>
      </trkpt>
      <trkpt lat="47.34093" lon="-1.33582">
        <ele>62</ele>
        <time>2011-10-02T07:07:40Z</time>
      </trkpt>
      <trkpt lat="47.3409" lon="-1.33587">
        <ele>63</ele>
        <time>2011-10-02T07:07:42Z</time>
      </trkpt>
      <trkpt lat="47.34087" lon="-1.33595">
        <ele>63</ele>
        <time>2011-10-02T07:07:45Z</time>
      </trkpt>
      <trkpt lat="47.34083" lon="-1.33603">
        <ele>65</ele>
        <time>2011-10-02T07:07:48Z</time>
      </trkpt>
      <trkpt lat="47.3408" lon="-1.33611">
        <ele>65</ele>
        <time>2011-10-02T07:07:51Z</time>
      </trkpt>
      <trkpt lat="47.34077" lon="-1.33619">
        <ele>65</ele>
        <time>2011-10-02T07:07:54Z</time>
      </trkpt>
      <trkpt lat="47.34074" lon="-1.33626">
        <ele>66</ele>
        <time>2011-10-02T07:07:57Z</time>
      </trkpt>
      <trkpt lat="47.34071" lon="-1.33633">
        <ele>66</ele>
        <time>2011-10-02T07:08:00Z</time>
      </trkpt>
      <trkpt lat="47.34068" lon="-1.33641">
        <ele>66</ele>
        <time>2011-10-02T07:08:03Z</time>
      </trkpt>
      <trkpt lat="47.34064" lon="-1.33649">
        <ele>66</ele>
        <time>2011-10-02T07:08:06Z</time>
      </trkpt>
      <trkpt lat="47.34061" lon="-1.33658">
        <ele>66</ele>
        <time>2011-10-02T07:08:09Z</time>
      </trkpt>
      <trkpt lat="47.34056" lon="-1.33668">
        <ele>67</ele>
        <time>2011-10-02T07:08:12Z</time>
      </trkpt>
      <trkpt lat="47.34052" lon="-1.33678">
        <ele>67</ele>
        <time>2011-10-02T07:08:15Z</time>
      </trkpt>
      <trkpt lat="47.34047" lon="-1.33688">
        <ele>68</ele>
        <time>2011-10-02T07:08:18Z</time>
      </trkpt>
      <trkpt lat="47.34043" lon="-1.33694">
        <ele>68</ele>
        <time>2011-10-02T07:08:20Z</time>
      </trkpt>
      <trkpt lat="47.34037" lon="-1.33705">
        <ele>68</ele>
        <time>2011-10-02T07:08:23Z</time>
      </trkpt>
      <trkpt lat="47.34033" lon="-1.33712">
        <ele>68</ele>
        <time>2011-10-02T07:08:25Z</time>
      </trkpt>
      <trkpt lat="47.34029" lon="-1.3372">
        <ele>68</ele>
        <time>2011-10-02T07:08:27Z</time>
      </trkpt>
      <trkpt lat="47.34023" lon="-1.33732">
        <ele>68</ele>
        <time>2011-10-02T07:08:30Z</time>
      </trkpt>
      <trkpt lat="47.34019" lon="-1.3374">
        <ele>69</ele>
        <time>2011-10-02T07:08:32Z</time>
      </trkpt>
      <trkpt lat="47.34013" lon="-1.33753">
        <ele>69</ele>
        <time>2011-10-02T07:08:35Z</time>
      </trkpt>
      <trkpt lat="47.34007" lon="-1.33761">
        <ele>69</ele>
        <time>2011-10-02T07:08:37Z</time>
      </trkpt>
      <trkpt lat="47.33999" lon="-1.33764">
        <ele>70</ele>
        <time>2011-10-02T07:08:39Z</time>
      </trkpt>
      <trkpt lat="47.33989" lon="-1.33759">
        <ele>71</ele>
        <time>2011-10-02T07:08:42Z</time>
      </trkpt>
      <trkpt lat="47.33979" lon="-1.33748">
        <ele>71</ele>
        <time>2011-10-02T07:08:45Z</time>
      </trkpt>
      <trkpt lat="47.33969" lon="-1.33738">
        <ele>71</ele>
        <time>2011-10-02T07:08:48Z</time>
      </trkpt>
      <trkpt lat="47.33958" lon="-1.33728">
        <ele>71</ele>
        <time>2011-10-02T07:08:51Z</time>
      </trkpt>
      <trkpt lat="47.33947" lon="-1.33721">
        <ele>71</ele>
        <time>2011-10-02T07:08:54Z</time>
      </trkpt>
      <trkpt lat="47.33936" lon="-1.33715">
        <ele>71</ele>
        <time>2011-10-02T07:08:57Z</time>
      </trkpt>
      <trkpt lat="47.33924" lon="-1.33708">
        <ele>71</ele>
        <time>2011-10-02T07:09:00Z</time>
      </trkpt>
      <trkpt lat="47.33917" lon="-1.33701">
        <ele>72</ele>
        <time>2011-10-02T07:09:02Z</time>
      </trkpt>
      <trkpt lat="47.33904" lon="-1.3369">
        <ele>72</ele>
        <time>2011-10-02T07:09:05Z</time>
      </trkpt>
      <trkpt lat="47.33891" lon="-1.33678">
        <ele>72</ele>
        <time>2011-10-02T07:09:08Z</time>
      </trkpt>
      <trkpt lat="47.33884" lon="-1.33668">
        <ele>72</ele>
        <time>2011-10-02T07:09:10Z</time>
      </trkpt>
      <trkpt lat="47.33877" lon="-1.33658">
        <ele>70</ele>
        <time>2011-10-02T07:09:12Z</time>
      </trkpt>
      <trkpt lat="47.33865" lon="-1.33644">
        <ele>70</ele>
        <time>2011-10-02T07:09:15Z</time>
      </trkpt>
      <trkpt lat="47.33852" lon="-1.3363">
        <ele>70</ele>
        <time>2011-10-02T07:09:18Z</time>
      </trkpt>
      <trkpt lat="47.33838" lon="-1.33617">
        <ele>70</ele>
        <time>2011-10-02T07:09:21Z</time>
      </trkpt>
      <trkpt lat="47.33829" lon="-1.33607">
        <ele>71</ele>
        <time>2011-10-02T07:09:23Z</time>
      </trkpt>
      <trkpt lat="47.33817" lon="-1.33591">
        <ele>71</ele>
        <time>2011-10-02T07:09:26Z</time>
      </trkpt>
      <trkpt lat="47.33805" lon="-1.33574">
        <ele>70</ele>
        <time>2011-10-02T07:09:29Z</time>
      </trkpt>
      <trkpt lat="47.33789" lon="-1.33561">
        <ele>70</ele>
        <time>2011-10-02T07:09:32Z</time>
      </trkpt>
      <trkpt lat="47.33779" lon="-1.33553">
        <ele>69</ele>
        <time>2011-10-02T07:09:34Z</time>
      </trkpt>
      <trkpt lat="47.33765" lon="-1.33536">
        <ele>69</ele>
        <time>2011-10-02T07:09:37Z</time>
      </trkpt>
      <trkpt lat="47.33758" lon="-1.33525">
        <ele>69</ele>
        <time>2011-10-02T07:09:39Z</time>
      </trkpt>
      <trkpt lat="47.33748" lon="-1.33523">
        <ele>69</ele>
        <time>2011-10-02T07:09:42Z</time>
      </trkpt>
      <trkpt lat="47.33744" lon="-1.33527">
        <ele>69</ele>
        <time>2011-10-02T07:09:44Z</time>
      </trkpt>
      <trkpt lat="47.33738" lon="-1.33532">
        <ele>70</ele>
        <time>2011-10-02T07:09:46Z</time>
      </trkpt>
      <trkpt lat="47.3373" lon="-1.33542">
        <ele>70</ele>
        <time>2011-10-02T07:09:49Z</time>
      </trkpt>
      <trkpt lat="47.3372" lon="-1.33552">
        <ele>70</ele>
        <time>2011-10-02T07:09:52Z</time>
      </trkpt>
      <trkpt lat="47.3371" lon="-1.33562">
        <ele>70</ele>
        <time>2011-10-02T07:09:55Z</time>
      </trkpt>
      <trkpt lat="47.33698" lon="-1.33572">
        <ele>71</ele>
        <time>2011-10-02T07:09:58Z</time>
      </trkpt>
      <trkpt lat="47.33686" lon="-1.33584">
        <ele>72</ele>
        <time>2011-10-02T07:10:01Z</time>
      </trkpt>
      <trkpt lat="47.33674" lon="-1.33596">
        <ele>72</ele>
        <time>2011-10-02T07:10:04Z</time>
      </trkpt>
      <trkpt lat="47.33663" lon="-1.3361">
        <ele>73</ele>
        <time>2011-10-02T07:10:07Z</time>
      </trkpt>
      <trkpt lat="47.33652" lon="-1.33626">
        <ele>73</ele>
        <time>2011-10-02T07:10:10Z</time>
      </trkpt>
      <trkpt lat="47.33642" lon="-1.33642">
        <ele>73</ele>
        <time>2011-10-02T07:10:13Z</time>
      </trkpt>
      <trkpt lat="47.33636" lon="-1.33653">
        <ele>73</ele>
        <time>2011-10-02T07:10:15Z</time>
      </trkpt>
      <trkpt lat="47.33627" lon="-1.3367">
        <ele>74</ele>
        <time>2011-10-02T07:10:18Z</time>
      </trkpt>
      <trkpt lat="47.33621" lon="-1.3368">
        <ele>73</ele>
        <time>2011-10-02T07:10:20Z</time>
      </trkpt>
      <trkpt lat="47.33612" lon="-1.33696">
        <ele>73</ele>
        <time>2011-10-02T07:10:23Z</time>
      </trkpt>
      <trkpt lat="47.33608" lon="-1.33706">
        <ele>73</ele>
        <time>2011-10-02T07:10:25Z</time>
      </trkpt>
      <trkpt lat="47.33603" lon="-1.33717">
        <ele>73</ele>
        <time>2011-10-02T07:10:27Z</time>
      </trkpt>
      <trkpt lat="47.33594" lon="-1.33731">
        <ele>73</ele>
        <time>2011-10-02T07:10:30Z</time>
      </trkpt>
      <trkpt lat="47.33587" lon="-1.3374">
        <ele>73</ele>
        <time>2011-10-02T07:10:32Z</time>
      </trkpt>
      <trkpt lat="47.33575" lon="-1.33753">
        <ele>72</ele>
        <time>2011-10-02T07:10:35Z</time>
      </trkpt>
      <trkpt lat="47.33566" lon="-1.33763">
        <ele>72</ele>
        <time>2011-10-02T07:10:37Z</time>
      </trkpt>
      <trkpt lat="47.33556" lon="-1.33773">
        <ele>71</ele>
        <time>2011-10-02T07:10:39Z</time>
      </trkpt>
      <trkpt lat="47.3354" lon="-1.33789">
        <ele>71</ele>
        <time>2011-10-02T07:10:42Z</time>
      </trkpt>
      <trkpt lat="47.33529" lon="-1.33802">
        <ele>71</ele>
        <time>2011-10-02T07:10:44Z</time>
      </trkpt>
      <trkpt lat="47.33513" lon="-1.33825">
        <ele>70</ele>
        <time>2011-10-02T07:10:47Z</time>
      </trkpt>
      <trkpt lat="47.33498" lon="-1.33848">
        <ele>69</ele>
        <time>2011-10-02T07:10:50Z</time>
      </trkpt>
      <trkpt lat="47.33488" lon="-1.33865">
        <ele>69</ele>
        <time>2011-10-02T07:10:52Z</time>
      </trkpt>
      <trkpt lat="47.33478" lon="-1.33879">
        <ele>69</ele>
        <time>2011-10-02T07:10:54Z</time>
      </trkpt>
      <trkpt lat="47.33461" lon="-1.33897">
        <ele>69</ele>
        <time>2011-10-02T07:10:57Z</time>
      </trkpt>
      <trkpt lat="47.33449" lon="-1.33903">
        <ele>69</ele>
        <time>2011-10-02T07:10:59Z</time>
      </trkpt>
      <trkpt lat="47.33431" lon="-1.33908">
        <ele>69</ele>
        <time>2011-10-02T07:11:02Z</time>
      </trkpt>
      <trkpt lat="47.3342" lon="-1.3391">
        <ele>69</ele>
        <time>2011-10-02T07:11:04Z</time>
      </trkpt>
      <trkpt lat="47.33405" lon="-1.33914">
        <ele>68</ele>
        <time>2011-10-02T07:11:07Z</time>
      </trkpt>
      <trkpt lat="47.3339" lon="-1.3392">
        <ele>69</ele>
        <time>2011-10-02T07:11:10Z</time>
      </trkpt>
      <trkpt lat="47.33376" lon="-1.33925">
        <ele>69</ele>
        <time>2011-10-02T07:11:13Z</time>
      </trkpt>
      <trkpt lat="47.33367" lon="-1.33928">
        <ele>69</ele>
        <time>2011-10-02T07:11:15Z</time>
      </trkpt>
      <trkpt lat="47.33354" lon="-1.33933">
        <ele>69</ele>
        <time>2011-10-02T07:11:18Z</time>
      </trkpt>
      <trkpt lat="47.33341" lon="-1.33937">
        <ele>68</ele>
        <time>2011-10-02T07:11:21Z</time>
      </trkpt>
      <trkpt lat="47.33328" lon="-1.33941">
        <ele>60</ele>
        <time>2011-10-02T07:11:24Z</time>
      </trkpt>
      <trkpt lat="47.3332" lon="-1.33944">
        <ele>59</ele>
        <time>2011-10-02T07:11:26Z</time>
      </trkpt>
      <trkpt lat="47.33307" lon="-1.33949">
        <ele>58</ele>
        <time>2011-10-02T07:11:29Z</time>
      </trkpt>
      <trkpt lat="47.33296" lon="-1.33955">
        <ele>56</ele>
        <time>2011-10-02T07:11:32Z</time>
      </trkpt>
      <trkpt lat="47.33285" lon="-1.33964">
        <ele>55</ele>
        <time>2011-10-02T07:11:35Z</time>
      </trkpt>
      <trkpt lat="47.33279" lon="-1.33971">
        <ele>54</ele>
        <time>2011-10-02T07:11:37Z</time>
      </trkpt>
      <trkpt lat="47.33275" lon="-1.33988">
        <ele>54</ele>
        <time>2011-10-02T07:11:40Z</time>
      </trkpt>
      <trkpt lat="47.33278" lon="-1.34008">
        <ele>62</ele>
        <time>2011-10-02T07:11:43Z</time>
      </trkpt>
      <trkpt lat="47.33285" lon="-1.34025">
        <ele>65</ele>
        <time>2011-10-02T07:11:46Z</time>
      </trkpt>
      <trkpt lat="47.33293" lon="-1.3404">
        <ele>67</ele>
        <time>2011-10-02T07:11:49Z</time>
      </trkpt>
      <trkpt lat="47.33301" lon="-1.34056">
        <ele>69</ele>
        <time>2011-10-02T07:11:52Z</time>
      </trkpt>
      <trkpt lat="47.33303" lon="-1.34069">
        <ele>70</ele>
        <time>2011-10-02T07:11:54Z</time>
      </trkpt>
      <trkpt lat="47.333" lon="-1.34082">
        <ele>71</ele>
        <time>2011-10-02T07:11:56Z</time>
      </trkpt>
      <trkpt lat="47.33294" lon="-1.34099">
        <ele>75</ele>
        <time>2011-10-02T07:11:59Z</time>
      </trkpt>
      <trkpt lat="47.33287" lon="-1.34116">
        <ele>75</ele>
        <time>2011-10-02T07:12:02Z</time>
      </trkpt>
      <trkpt lat="47.33279" lon="-1.34135">
        <ele>75</ele>
        <time>2011-10-02T07:12:05Z</time>
      </trkpt>
      <trkpt lat="47.33273" lon="-1.34149">
        <ele>75</ele>
        <time>2011-10-02T07:12:07Z</time>
      </trkpt>
      <trkpt lat="47.33262" lon="-1.34169">
        <ele>76</ele>
        <time>2011-10-02T07:12:10Z</time>
      </trkpt>
      <trkpt lat="47.33248" lon="-1.34186">
        <ele>72</ele>
        <time>2011-10-02T07:12:13Z</time>
      </trkpt>
      <trkpt lat="47.33235" lon="-1.34203">
        <ele>71</ele>
        <time>2011-10-02T07:12:16Z</time>
      </trkpt>
      <trkpt lat="47.33225" lon="-1.34214">
        <ele>71</ele>
        <time>2011-10-02T07:12:18Z</time>
      </trkpt>
      <trkpt lat="47.33212" lon="-1.3423">
        <ele>71</ele>
        <time>2011-10-02T07:12:21Z</time>
      </trkpt>
      <trkpt lat="47.33204" lon="-1.34242">
        <ele>71</ele>
        <time>2011-10-02T07:12:23Z</time>
      </trkpt>
      <trkpt lat="47.33192" lon="-1.34259">
        <ele>73</ele>
        <time>2011-10-02T07:12:26Z</time>
      </trkpt>
      <trkpt lat="47.33184" lon="-1.34271">
        <ele>73</ele>
        <time>2011-10-02T07:12:28Z</time>
      </trkpt>
      <trkpt lat="47.33174" lon="-1.34284">
        <ele>74</ele>
        <time>2011-10-02T07:12:31Z</time>
      </trkpt>
      <trkpt lat="47.33166" lon="-1.34295">
        <ele>72</ele>
        <time>2011-10-02T07:12:34Z</time>
      </trkpt>
      <trkpt lat="47.33158" lon="-1.34311">
        <ele>72</ele>
        <time>2011-10-02T07:12:37Z</time>
      </trkpt>
      <trkpt lat="47.33152" lon="-1.34325">
        <ele>73</ele>
        <time>2011-10-02T07:12:39Z</time>
      </trkpt>
      <trkpt lat="47.33142" lon="-1.34349">
        <ele>72</ele>
        <time>2011-10-02T07:12:42Z</time>
      </trkpt>
      <trkpt lat="47.33133" lon="-1.34366">
        <ele>71</ele>
        <time>2011-10-02T07:12:44Z</time>
      </trkpt>
      <trkpt lat="47.33123" lon="-1.34383">
        <ele>71</ele>
        <time>2011-10-02T07:12:46Z</time>
      </trkpt>
      <trkpt lat="47.33113" lon="-1.344">
        <ele>71</ele>
        <time>2011-10-02T07:12:48Z</time>
      </trkpt>
      <trkpt lat="47.33099" lon="-1.34422">
        <ele>71</ele>
        <time>2011-10-02T07:12:51Z</time>
      </trkpt>
      <trkpt lat="47.33087" lon="-1.3444">
        <ele>71</ele>
        <time>2011-10-02T07:12:54Z</time>
      </trkpt>
      <trkpt lat="47.3308" lon="-1.34451">
        <ele>71</ele>
        <time>2011-10-02T07:12:56Z</time>
      </trkpt>
      <trkpt lat="47.3307" lon="-1.34467">
        <ele>71</ele>
        <time>2011-10-02T07:12:59Z</time>
      </trkpt>
      <trkpt lat="47.33063" lon="-1.34478">
        <ele>71</ele>
        <time>2011-10-02T07:13:01Z</time>
      </trkpt>
      <trkpt lat="47.33054" lon="-1.34493">
        <ele>72</ele>
        <time>2011-10-02T07:13:04Z</time>
      </trkpt>
      <trkpt lat="47.33044" lon="-1.34509">
        <ele>73</ele>
        <time>2011-10-02T07:13:07Z</time>
      </trkpt>
      <trkpt lat="47.33037" lon="-1.34519">
        <ele>73</ele>
        <time>2011-10-02T07:13:09Z</time>
      </trkpt>
      <trkpt lat="47.3303" lon="-1.34536">
        <ele>73</ele>
        <time>2011-10-02T07:13:12Z</time>
      </trkpt>
      <trkpt lat="47.33025" lon="-1.34548">
        <ele>73</ele>
        <time>2011-10-02T07:13:14Z</time>
      </trkpt>
      <trkpt lat="47.33018" lon="-1.34564">
        <ele>74</ele>
        <time>2011-10-02T07:13:17Z</time>
      </trkpt>
      <trkpt lat="47.33014" lon="-1.34575">
        <ele>74</ele>
        <time>2011-10-02T07:13:19Z</time>
      </trkpt>
      <trkpt lat="47.33007" lon="-1.34591">
        <ele>75</ele>
        <time>2011-10-02T07:13:22Z</time>
      </trkpt>
      <trkpt lat="47.32999" lon="-1.34606">
        <ele>77</ele>
        <time>2011-10-02T07:13:25Z</time>
      </trkpt>
      <trkpt lat="47.32995" lon="-1.34617">
        <ele>78</ele>
        <time>2011-10-02T07:13:27Z</time>
      </trkpt>
      <trkpt lat="47.3299" lon="-1.34627">
        <ele>78</ele>
        <time>2011-10-02T07:13:29Z</time>
      </trkpt>
      <trkpt lat="47.32983" lon="-1.34632">
        <ele>78</ele>
        <time>2011-10-02T07:13:31Z</time>
      </trkpt>
      <trkpt lat="47.32974" lon="-1.34644">
        <ele>79</ele>
        <time>2011-10-02T07:13:34Z</time>
      </trkpt>
      <trkpt lat="47.32969" lon="-1.34658">
        <ele>79</ele>
        <time>2011-10-02T07:13:37Z</time>
      </trkpt>
      <trkpt lat="47.32967" lon="-1.34667">
        <ele>80</ele>
        <time>2011-10-02T07:13:39Z</time>
      </trkpt>
      <trkpt lat="47.32964" lon="-1.34678">
        <ele>80</ele>
        <time>2011-10-02T07:13:41Z</time>
      </trkpt>
      <trkpt lat="47.3296" lon="-1.34693">
        <ele>80</ele>
        <time>2011-10-02T07:13:44Z</time>
      </trkpt>
      <trkpt lat="47.32955" lon="-1.34713">
        <ele>80</ele>
        <time>2011-10-02T07:13:47Z</time>
      </trkpt>
      <trkpt lat="47.32951" lon="-1.34726">
        <ele>80</ele>
        <time>2011-10-02T07:13:49Z</time>
      </trkpt>
      <trkpt lat="47.32945" lon="-1.34746">
        <ele>79</ele>
        <time>2011-10-02T07:13:52Z</time>
      </trkpt>
      <trkpt lat="47.32939" lon="-1.34766">
        <ele>79</ele>
        <time>2011-10-02T07:13:55Z</time>
      </trkpt>
      <trkpt lat="47.32935" lon="-1.34787">
        <ele>79</ele>
        <time>2011-10-02T07:13:58Z</time>
      </trkpt>
      <trkpt lat="47.32932" lon="-1.34801">
        <ele>79</ele>
        <time>2011-10-02T07:14:00Z</time>
      </trkpt>
      <trkpt lat="47.32928" lon="-1.34821">
        <ele>79</ele>
        <time>2011-10-02T07:14:03Z</time>
      </trkpt>
      <trkpt lat="47.32926" lon="-1.34834">
        <ele>78</ele>
        <time>2011-10-02T07:14:05Z</time>
      </trkpt>
      <trkpt lat="47.32923" lon="-1.34847">
        <ele>78</ele>
        <time>2011-10-02T07:14:07Z</time>
      </trkpt>
      <trkpt lat="47.32921" lon="-1.3486">
        <ele>78</ele>
        <time>2011-10-02T07:14:09Z</time>
      </trkpt>
      <trkpt lat="47.32919" lon="-1.34873">
        <ele>78</ele>
        <time>2011-10-02T07:14:11Z</time>
      </trkpt>
      <trkpt lat="47.32915" lon="-1.34893">
        <ele>78</ele>
        <time>2011-10-02T07:14:14Z</time>
      </trkpt>
      <trkpt lat="47.32911" lon="-1.34905">
        <ele>78</ele>
        <time>2011-10-02T07:14:16Z</time>
      </trkpt>
      <trkpt lat="47.32913" lon="-1.34925">
        <ele>79</ele>
        <time>2011-10-02T07:14:19Z</time>
      </trkpt>
      <trkpt lat="47.32923" lon="-1.34936">
        <ele>78</ele>
        <time>2011-10-02T07:14:22Z</time>
      </trkpt>
      <trkpt lat="47.3293" lon="-1.34942">
        <ele>78</ele>
        <time>2011-10-02T07:14:24Z</time>
      </trkpt>
      <trkpt lat="47.32942" lon="-1.34951">
        <ele>78</ele>
        <time>2011-10-02T07:14:27Z</time>
      </trkpt>
      <trkpt lat="47.32954" lon="-1.34963">
        <ele>78</ele>
        <time>2011-10-02T07:14:30Z</time>
      </trkpt>
      <trkpt lat="47.32967" lon="-1.34974">
        <ele>78</ele>
        <time>2011-10-02T07:14:33Z</time>
      </trkpt>
      <trkpt lat="47.32976" lon="-1.34982">
        <ele>78</ele>
        <time>2011-10-02T07:14:35Z</time>
      </trkpt>
      <trkpt lat="47.3299" lon="-1.34995">
        <ele>77</ele>
        <time>2011-10-02T07:14:38Z</time>
      </trkpt>
      <trkpt lat="47.32999" lon="-1.35004">
        <ele>77</ele>
        <time>2011-10-02T07:14:40Z</time>
      </trkpt>
      <trkpt lat="47.3301" lon="-1.35012">
        <ele>77</ele>
        <time>2011-10-02T07:14:42Z</time>
      </trkpt>
      <trkpt lat="47.33026" lon="-1.35026">
        <ele>77</ele>
        <time>2011-10-02T07:14:45Z</time>
      </trkpt>
      <trkpt lat="47.33043" lon="-1.35041">
        <ele>77</ele>
        <time>2011-10-02T07:14:48Z</time>
      </trkpt>
      <trkpt lat="47.33054" lon="-1.3505">
        <ele>78</ele>
        <time>2011-10-02T07:14:50Z</time>
      </trkpt>
      <trkpt lat="47.33065" lon="-1.35059">
        <ele>78</ele>
        <time>2011-10-02T07:14:52Z</time>
      </trkpt>
      <trkpt lat="47.3308" lon="-1.35072">
        <ele>78</ele>
        <time>2011-10-02T07:14:55Z</time>
      </trkpt>
      <trkpt lat="47.3309" lon="-1.3508">
        <ele>78</ele>
        <time>2011-10-02T07:14:57Z</time>
      </trkpt>
      <trkpt lat="47.33105" lon="-1.35092">
        <ele>79</ele>
        <time>2011-10-02T07:15:00Z</time>
      </trkpt>
      <trkpt lat="47.33115" lon="-1.35099">
        <ele>79</ele>
        <time>2011-10-02T07:15:02Z</time>
      </trkpt>
      <trkpt lat="47.3313" lon="-1.35108">
        <ele>79</ele>
        <time>2011-10-02T07:15:05Z</time>
      </trkpt>
      <trkpt lat="47.33139" lon="-1.35116">
        <ele>79</ele>
        <time>2011-10-02T07:15:07Z</time>
      </trkpt>
      <trkpt lat="47.33146" lon="-1.3513">
        <ele>79</ele>
        <time>2011-10-02T07:15:09Z</time>
      </trkpt>
      <trkpt lat="47.33152" lon="-1.35145">
        <ele>79</ele>
        <time>2011-10-02T07:15:11Z</time>
      </trkpt>
      <trkpt lat="47.33159" lon="-1.35166">
        <ele>80</ele>
        <time>2011-10-02T07:15:14Z</time>
      </trkpt>
      <trkpt lat="47.33164" lon="-1.3518">
        <ele>80</ele>
        <time>2011-10-02T07:15:16Z</time>
      </trkpt>
      <trkpt lat="47.3317" lon="-1.35194">
        <ele>80</ele>
        <time>2011-10-02T07:15:18Z</time>
      </trkpt>
      <trkpt lat="47.33175" lon="-1.35209">
        <ele>80</ele>
        <time>2011-10-02T07:15:20Z</time>
      </trkpt>
      <trkpt lat="47.33182" lon="-1.3523">
        <ele>80</ele>
        <time>2011-10-02T07:15:23Z</time>
      </trkpt>
      <trkpt lat="47.33186" lon="-1.35244">
        <ele>81</ele>
        <time>2011-10-02T07:15:25Z</time>
      </trkpt>
      <trkpt lat="47.3319" lon="-1.35258">
        <ele>81</ele>
        <time>2011-10-02T07:15:27Z</time>
      </trkpt>
      <trkpt lat="47.33194" lon="-1.35272">
        <ele>81</ele>
        <time>2011-10-02T07:15:29Z</time>
      </trkpt>
      <trkpt lat="47.33201" lon="-1.35294">
        <ele>81</ele>
        <time>2011-10-02T07:15:32Z</time>
      </trkpt>
      <trkpt lat="47.33206" lon="-1.35308">
        <ele>81</ele>
        <time>2011-10-02T07:15:34Z</time>
      </trkpt>
      <trkpt lat="47.3321" lon="-1.35323">
        <ele>81</ele>
        <time>2011-10-02T07:15:36Z</time>
      </trkpt>
      <trkpt lat="47.33218" lon="-1.35345">
        <ele>82</ele>
        <time>2011-10-02T07:15:39Z</time>
      </trkpt>
      <trkpt lat="47.33222" lon="-1.3536">
        <ele>82</ele>
        <time>2011-10-02T07:15:41Z</time>
      </trkpt>
      <trkpt lat="47.33229" lon="-1.3538">
        <ele>82</ele>
        <time>2011-10-02T07:15:44Z</time>
      </trkpt>
      <trkpt lat="47.33234" lon="-1.35393">
        <ele>82</ele>
        <time>2011-10-02T07:15:46Z</time>
      </trkpt>
      <trkpt lat="47.33242" lon="-1.35414">
        <ele>82</ele>
        <time>2011-10-02T07:15:49Z</time>
      </trkpt>
      <trkpt lat="47.3325" lon="-1.35436">
        <ele>81</ele>
        <time>2011-10-02T07:15:52Z</time>
      </trkpt>
      <trkpt lat="47.33258" lon="-1.35458">
        <ele>81</ele>
        <time>2011-10-02T07:15:55Z</time>
      </trkpt>
      <trkpt lat="47.33266" lon="-1.3548">
        <ele>81</ele>
        <time>2011-10-02T07:15:58Z</time>
      </trkpt>
      <trkpt lat="47.33276" lon="-1.355">
        <ele>80</ele>
        <time>2011-10-02T07:16:01Z</time>
      </trkpt>
      <trkpt lat="47.33289" lon="-1.35522">
        <ele>80</ele>
        <time>2011-10-02T07:16:04Z</time>
      </trkpt>
      <trkpt lat="47.333" lon="-1.35543">
        <ele>80</ele>
        <time>2011-10-02T07:16:07Z</time>
      </trkpt>
      <trkpt lat="47.3331" lon="-1.35568">
        <ele>80</ele>
        <time>2011-10-02T07:16:10Z</time>
      </trkpt>
      <trkpt lat="47.33315" lon="-1.35584">
        <ele>79</ele>
        <time>2011-10-02T07:16:12Z</time>
      </trkpt>
      <trkpt lat="47.33323" lon="-1.35609">
        <ele>79</ele>
        <time>2011-10-02T07:16:15Z</time>
      </trkpt>
      <trkpt lat="47.33328" lon="-1.35626">
        <ele>79</ele>
        <time>2011-10-02T07:16:17Z</time>
      </trkpt>
      <trkpt lat="47.33327" lon="-1.35642">
        <ele>79</ele>
        <time>2011-10-02T07:16:19Z</time>
      </trkpt>
      <trkpt lat="47.33321" lon="-1.35653">
        <ele>79</ele>
        <time>2011-10-02T07:16:21Z</time>
      </trkpt>
      <trkpt lat="47.3331" lon="-1.35654">
        <ele>79</ele>
        <time>2011-10-02T07:16:24Z</time>
      </trkpt>
      <trkpt lat="47.333" lon="-1.35652">
        <ele>79</ele>
        <time>2011-10-02T07:16:26Z</time>
      </trkpt>
      <trkpt lat="47.33285" lon="-1.35648">
        <ele>79</ele>
        <time>2011-10-02T07:16:29Z</time>
      </trkpt>
      <trkpt lat="47.33274" lon="-1.35646">
        <ele>79</ele>
        <time>2011-10-02T07:16:31Z</time>
      </trkpt>
      <trkpt lat="47.33264" lon="-1.35647">
        <ele>79</ele>
        <time>2011-10-02T07:16:33Z</time>
      </trkpt>
      <trkpt lat="47.33249" lon="-1.3565">
        <ele>79</ele>
        <time>2011-10-02T07:16:36Z</time>
      </trkpt>
      <trkpt lat="47.33234" lon="-1.35652">
        <ele>79</ele>
        <time>2011-10-02T07:16:39Z</time>
      </trkpt>
      <trkpt lat="47.33218" lon="-1.35653">
        <ele>79</ele>
        <time>2011-10-02T07:16:42Z</time>
      </trkpt>
      <trkpt lat="47.33203" lon="-1.35657">
        <ele>79</ele>
        <time>2011-10-02T07:16:45Z</time>
      </trkpt>
      <trkpt lat="47.33188" lon="-1.35662">
        <ele>79</ele>
        <time>2011-10-02T07:16:48Z</time>
      </trkpt>
      <trkpt lat="47.33173" lon="-1.35669">
        <ele>78</ele>
        <time>2011-10-02T07:16:51Z</time>
      </trkpt>
      <trkpt lat="47.33157" lon="-1.35677">
        <ele>78</ele>
        <time>2011-10-02T07:16:54Z</time>
      </trkpt>
      <trkpt lat="47.33142" lon="-1.35686">
        <ele>78</ele>
        <time>2011-10-02T07:16:57Z</time>
      </trkpt>
      <trkpt lat="47.33127" lon="-1.35694">
        <ele>78</ele>
        <time>2011-10-02T07:17:00Z</time>
      </trkpt>
      <trkpt lat="47.33113" lon="-1.35699">
        <ele>78</ele>
        <time>2011-10-02T07:17:03Z</time>
      </trkpt>
      <trkpt lat="47.331" lon="-1.35703">
        <ele>78</ele>
        <time>2011-10-02T07:17:06Z</time>
      </trkpt>
      <trkpt lat="47.33085" lon="-1.35708">
        <ele>78</ele>
        <time>2011-10-02T07:17:09Z</time>
      </trkpt>
      <trkpt lat="47.33068" lon="-1.3571">
        <ele>78</ele>
        <time>2011-10-02T07:17:12Z</time>
      </trkpt>
      <trkpt lat="47.3305" lon="-1.3571">
        <ele>78</ele>
        <time>2011-10-02T07:17:15Z</time>
      </trkpt>
      <trkpt lat="47.33038" lon="-1.3571">
        <ele>78</ele>
        <time>2011-10-02T07:17:17Z</time>
      </trkpt>
      <trkpt lat="47.33021" lon="-1.35714">
        <ele>78</ele>
        <time>2011-10-02T07:17:20Z</time>
      </trkpt>
      <trkpt lat="47.33011" lon="-1.35719">
        <ele>78</ele>
        <time>2011-10-02T07:17:22Z</time>
      </trkpt>
      <trkpt lat="47.33003" lon="-1.35729">
        <ele>78</ele>
        <time>2011-10-02T07:17:24Z</time>
      </trkpt>
      <trkpt lat="47.32999" lon="-1.35753">
        <ele>78</ele>
        <time>2011-10-02T07:17:27Z</time>
      </trkpt>
      <trkpt lat="47.32997" lon="-1.35772">
        <ele>78</ele>
        <time>2011-10-02T07:17:29Z</time>
      </trkpt>
      <trkpt lat="47.32993" lon="-1.35802">
        <ele>78</ele>
        <time>2011-10-02T07:17:32Z</time>
      </trkpt>
      <trkpt lat="47.3299" lon="-1.35822">
        <ele>78</ele>
        <time>2011-10-02T07:17:34Z</time>
      </trkpt>
      <trkpt lat="47.32987" lon="-1.35842">
        <ele>78</ele>
        <time>2011-10-02T07:17:36Z</time>
      </trkpt>
      <trkpt lat="47.32986" lon="-1.35874">
        <ele>77</ele>
        <time>2011-10-02T07:17:39Z</time>
      </trkpt>
      <trkpt lat="47.3299" lon="-1.35904">
        <ele>76</ele>
        <time>2011-10-02T07:17:42Z</time>
      </trkpt>
      <trkpt lat="47.33" lon="-1.35932">
        <ele>75</ele>
        <time>2011-10-02T07:17:45Z</time>
      </trkpt>
      <trkpt lat="47.33012" lon="-1.35959">
        <ele>73</ele>
        <time>2011-10-02T07:17:48Z</time>
      </trkpt>
      <trkpt lat="47.33019" lon="-1.35978">
        <ele>73</ele>
        <time>2011-10-02T07:17:50Z</time>
      </trkpt>
      <trkpt lat="47.33028" lon="-1.35999">
        <ele>72</ele>
        <time>2011-10-02T07:17:52Z</time>
      </trkpt>
      <trkpt lat="47.33041" lon="-1.36033">
        <ele>70</ele>
        <time>2011-10-02T07:17:55Z</time>
      </trkpt>
      <trkpt lat="47.3305" lon="-1.36055">
        <ele>69</ele>
        <time>2011-10-02T07:17:57Z</time>
      </trkpt>
      <trkpt lat="47.33063" lon="-1.36091">
        <ele>67</ele>
        <time>2011-10-02T07:18:00Z</time>
      </trkpt>
      <trkpt lat="47.33077" lon="-1.36127">
        <ele>66</ele>
        <time>2011-10-02T07:18:03Z</time>
      </trkpt>
      <trkpt lat="47.33091" lon="-1.36162">
        <ele>66</ele>
        <time>2011-10-02T07:18:06Z</time>
      </trkpt>
      <trkpt lat="47.33102" lon="-1.36182">
        <ele>67</ele>
        <time>2011-10-02T07:18:09Z</time>
      </trkpt>
      <trkpt lat="47.33102" lon="-1.36188">
        <ele>67</ele>
        <time>2011-10-02T07:18:12Z</time>
      </trkpt>
      <trkpt lat="47.33102" lon="-1.36188">
        <ele>67</ele>
        <time>2011-10-02T07:18:13Z</time>
      </trkpt>
      <trkpt lat="47.33087" lon="-1.36176">
        <ele>66</ele>
        <time>2011-10-02T07:18:19Z</time>
      </trkpt>
      <trkpt lat="47.33079" lon="-1.36174">
        <ele>65</ele>
        <time>2011-10-02T07:18:22Z</time>
      </trkpt>
      <trkpt lat="47.33074" lon="-1.3618">
        <ele>65</ele>
        <time>2011-10-02T07:18:24Z</time>
      </trkpt>
      <trkpt lat="47.33064" lon="-1.3619">
        <ele>65</ele>
        <time>2011-10-02T07:18:27Z</time>
      </trkpt>
      <trkpt lat="47.33052" lon="-1.36201">
        <ele>65</ele>
        <time>2011-10-02T07:18:30Z</time>
      </trkpt>
      <trkpt lat="47.33035" lon="-1.36209">
        <ele>65</ele>
        <time>2011-10-02T07:18:33Z</time>
      </trkpt>
      <trkpt lat="47.33022" lon="-1.36213">
        <ele>65</ele>
        <time>2011-10-02T07:18:35Z</time>
      </trkpt>
      <trkpt lat="47.3301" lon="-1.36221">
        <ele>65</ele>
        <time>2011-10-02T07:18:37Z</time>
      </trkpt>
      <trkpt lat="47.32994" lon="-1.36233">
        <ele>63</ele>
        <time>2011-10-02T07:18:40Z</time>
      </trkpt>
      <trkpt lat="47.32977" lon="-1.36245">
        <ele>63</ele>
        <time>2011-10-02T07:18:43Z</time>
      </trkpt>
      <trkpt lat="47.32961" lon="-1.3626">
        <ele>62</ele>
        <time>2011-10-02T07:18:46Z</time>
      </trkpt>
      <trkpt lat="47.32944" lon="-1.36274">
        <ele>62</ele>
        <time>2011-10-02T07:18:49Z</time>
      </trkpt>
      <trkpt lat="47.32925" lon="-1.36286">
        <ele>61</ele>
        <time>2011-10-02T07:18:52Z</time>
      </trkpt>
      <trkpt lat="47.32906" lon="-1.36297">
        <ele>58</ele>
        <time>2011-10-02T07:18:55Z</time>
      </trkpt>
      <trkpt lat="47.32893" lon="-1.36306">
        <ele>58</ele>
        <time>2011-10-02T07:18:57Z</time>
      </trkpt>
      <trkpt lat="47.32873" lon="-1.36321">
        <ele>57</ele>
        <time>2011-10-02T07:19:00Z</time>
      </trkpt>
      <trkpt lat="47.32854" lon="-1.36332">
        <ele>56</ele>
        <time>2011-10-02T07:19:03Z</time>
      </trkpt>
      <trkpt lat="47.32834" lon="-1.36344">
        <ele>55</ele>
        <time>2011-10-02T07:19:06Z</time>
      </trkpt>
      <trkpt lat="47.32824" lon="-1.36353">
        <ele>56</ele>
        <time>2011-10-02T07:19:09Z</time>
      </trkpt>
      <trkpt lat="47.32824" lon="-1.3636">
        <ele>56</ele>
        <time>2011-10-02T07:19:11Z</time>
      </trkpt>
      <trkpt lat="47.32832" lon="-1.36377">
        <ele>56</ele>
        <time>2011-10-02T07:19:16Z</time>
      </trkpt>
      <trkpt lat="47.32836" lon="-1.36383">
        <ele>57</ele>
        <time>2011-10-02T07:19:18Z</time>
      </trkpt>
      <trkpt lat="47.3284" lon="-1.3639">
        <ele>57</ele>
        <time>2011-10-02T07:19:20Z</time>
      </trkpt>
      <trkpt lat="47.32845" lon="-1.36402">
        <ele>57</ele>
        <time>2011-10-02T07:19:23Z</time>
      </trkpt>
      <trkpt lat="47.3285" lon="-1.36413">
        <ele>58</ele>
        <time>2011-10-02T07:19:26Z</time>
      </trkpt>
      <trkpt lat="47.32853" lon="-1.36428">
        <ele>58</ele>
        <time>2011-10-02T07:19:29Z</time>
      </trkpt>
      <trkpt lat="47.32855" lon="-1.36438">
        <ele>59</ele>
        <time>2011-10-02T07:19:31Z</time>
      </trkpt>
      <trkpt lat="47.32858" lon="-1.36449">
        <ele>59</ele>
        <time>2011-10-02T07:19:33Z</time>
      </trkpt>
      <trkpt lat="47.32864" lon="-1.36465">
        <ele>59</ele>
        <time>2011-10-02T07:19:36Z</time>
      </trkpt>
      <trkpt lat="47.32869" lon="-1.36475">
        <ele>59</ele>
        <time>2011-10-02T07:19:38Z</time>
      </trkpt>
      <trkpt lat="47.32875" lon="-1.36489">
        <ele>59</ele>
        <time>2011-10-02T07:19:41Z</time>
      </trkpt>
      <trkpt lat="47.32879" lon="-1.36499">
        <ele>59</ele>
        <time>2011-10-02T07:19:43Z</time>
      </trkpt>
      <trkpt lat="47.32887" lon="-1.36514">
        <ele>60</ele>
        <time>2011-10-02T07:19:46Z</time>
      </trkpt>
      <trkpt lat="47.32891" lon="-1.36523">
        <ele>60</ele>
        <time>2011-10-02T07:19:48Z</time>
      </trkpt>
      <trkpt lat="47.32891" lon="-1.36523">
        <ele>60</ele>
        <time>2011-10-02T07:19:49Z</time>
      </trkpt>
      <trkpt lat="47.32904" lon="-1.36542">
        <ele>60</ele>
        <time>2011-10-02T07:19:53Z</time>
      </trkpt>
      <trkpt lat="47.32911" lon="-1.36549">
        <ele>59</ele>
        <time>2011-10-02T07:19:56Z</time>
      </trkpt>
      <trkpt lat="47.32911" lon="-1.36549">
        <ele>59</ele>
        <time>2011-10-02T07:19:58Z</time>
      </trkpt>
      <trkpt lat="47.3293" lon="-1.36582">
        <ele>58</ele>
        <time>2011-10-02T07:20:06Z</time>
      </trkpt>
      <trkpt lat="47.3294" lon="-1.36597">
        <ele>58</ele>
        <time>2011-10-02T07:20:09Z</time>
      </trkpt>
      <trkpt lat="47.32948" lon="-1.36607">
        <ele>59</ele>
        <time>2011-10-02T07:20:11Z</time>
      </trkpt>
      <trkpt lat="47.32959" lon="-1.36624">
        <ele>59</ele>
        <time>2011-10-02T07:20:14Z</time>
      </trkpt>
      <trkpt lat="47.32965" lon="-1.36635">
        <ele>59</ele>
        <time>2011-10-02T07:20:16Z</time>
      </trkpt>
      <trkpt lat="47.32974" lon="-1.36651">
        <ele>59</ele>
        <time>2011-10-02T07:20:19Z</time>
      </trkpt>
      <trkpt lat="47.32982" lon="-1.36667">
        <ele>58</ele>
        <time>2011-10-02T07:20:22Z</time>
      </trkpt>
      <trkpt lat="47.32989" lon="-1.36682">
        <ele>59</ele>
        <time>2011-10-02T07:20:25Z</time>
      </trkpt>
      <trkpt lat="47.32998" lon="-1.36696">
        <ele>59</ele>
        <time>2011-10-02T07:20:28Z</time>
      </trkpt>
      <trkpt lat="47.33007" lon="-1.3671">
        <ele>60</ele>
        <time>2011-10-02T07:20:31Z</time>
      </trkpt>
      <trkpt lat="47.33014" lon="-1.36717">
        <ele>60</ele>
        <time>2011-10-02T07:20:33Z</time>
      </trkpt>
      <trkpt lat="47.33025" lon="-1.36728">
        <ele>60</ele>
        <time>2011-10-02T07:20:36Z</time>
      </trkpt>
      <trkpt lat="47.33035" lon="-1.36739">
        <ele>61</ele>
        <time>2011-10-02T07:20:39Z</time>
      </trkpt>
      <trkpt lat="47.33044" lon="-1.36747">
        <ele>61</ele>
        <time>2011-10-02T07:20:42Z</time>
      </trkpt>
      <trkpt lat="47.33053" lon="-1.36755">
        <ele>62</ele>
        <time>2011-10-02T07:20:45Z</time>
      </trkpt>
      <trkpt lat="47.33061" lon="-1.36761">
        <ele>62</ele>
        <time>2011-10-02T07:20:48Z</time>
      </trkpt>
      <trkpt lat="47.33066" lon="-1.36764">
        <ele>62</ele>
        <time>2011-10-02T07:20:50Z</time>
      </trkpt>
      <trkpt lat="47.3307" lon="-1.36768">
        <ele>62</ele>
        <time>2011-10-02T07:20:52Z</time>
      </trkpt>
      <trkpt lat="47.33077" lon="-1.36774">
        <ele>62</ele>
        <time>2011-10-02T07:20:55Z</time>
      </trkpt>
      <trkpt lat="47.33077" lon="-1.36774">
        <ele>62</ele>
        <time>2011-10-02T07:20:56Z</time>
      </trkpt>
      <trkpt lat="47.33099" lon="-1.36791">
        <ele>64</ele>
        <time>2011-10-02T07:21:04Z</time>
      </trkpt>
      <trkpt lat="47.33107" lon="-1.36799">
        <ele>64</ele>
        <time>2011-10-02T07:21:07Z</time>
      </trkpt>
      <trkpt lat="47.33111" lon="-1.36804">
        <ele>64</ele>
        <time>2011-10-02T07:21:09Z</time>
      </trkpt>
      <trkpt lat="47.33119" lon="-1.36813">
        <ele>64</ele>
        <time>2011-10-02T07:21:12Z</time>
      </trkpt>
      <trkpt lat="47.33127" lon="-1.36821">
        <ele>64</ele>
        <time>2011-10-02T07:21:15Z</time>
      </trkpt>
      <trkpt lat="47.33133" lon="-1.36832">
        <ele>64</ele>
        <time>2011-10-02T07:21:18Z</time>
      </trkpt>
      <trkpt lat="47.3314" lon="-1.36846">
        <ele>64</ele>
        <time>2011-10-02T07:21:21Z</time>
      </trkpt>
      <trkpt lat="47.33148" lon="-1.36859">
        <ele>64</ele>
        <time>2011-10-02T07:21:24Z</time>
      </trkpt>
      <trkpt lat="47.33154" lon="-1.36868">
        <ele>64</ele>
        <time>2011-10-02T07:21:26Z</time>
      </trkpt>
      <trkpt lat="47.33162" lon="-1.36882">
        <ele>64</ele>
        <time>2011-10-02T07:21:29Z</time>
      </trkpt>
      <trkpt lat="47.33162" lon="-1.36882">
        <ele>64</ele>
        <time>2011-10-02T07:21:30Z</time>
      </trkpt>
      <trkpt lat="47.33177" lon="-1.36917">
        <ele>62</ele>
        <time>2011-10-02T07:21:43Z</time>
      </trkpt>
      <trkpt lat="47.33177" lon="-1.36917">
        <ele>62</ele>
        <time>2011-10-02T07:21:46Z</time>
      </trkpt>
      <trkpt lat="47.33201" lon="-1.36941">
        <ele>63</ele>
        <time>2011-10-02T07:22:02Z</time>
      </trkpt>
      <trkpt lat="47.33218" lon="-1.36953">
        <ele>63</ele>
        <time>2011-10-02T07:22:09Z</time>
      </trkpt>
      <trkpt lat="47.33233" lon="-1.36973">
        <ele>63</ele>
        <time>2011-10-02T07:22:15Z</time>
      </trkpt>
      <trkpt lat="47.33242" lon="-1.36983">
        <ele>63</ele>
        <time>2011-10-02T07:22:18Z</time>
      </trkpt>
      <trkpt lat="47.33248" lon="-1.3699">
        <ele>62</ele>
        <time>2011-10-02T07:22:20Z</time>
      </trkpt>
      <trkpt lat="47.33257" lon="-1.37003">
        <ele>63</ele>
        <time>2011-10-02T07:22:23Z</time>
      </trkpt>
      <trkpt lat="47.33262" lon="-1.37011">
        <ele>63</ele>
        <time>2011-10-02T07:22:25Z</time>
      </trkpt>
      <trkpt lat="47.33267" lon="-1.3702">
        <ele>64</ele>
        <time>2011-10-02T07:22:27Z</time>
      </trkpt>
      <trkpt lat="47.33276" lon="-1.37033">
        <ele>64</ele>
        <time>2011-10-02T07:22:30Z</time>
      </trkpt>
      <trkpt lat="47.33281" lon="-1.37041">
        <ele>64</ele>
        <time>2011-10-02T07:22:32Z</time>
      </trkpt>
      <trkpt lat="47.33285" lon="-1.37046">
        <ele>64</ele>
        <time>2011-10-02T07:22:35Z</time>
      </trkpt>
      <trkpt lat="47.33303" lon="-1.37082">
        <ele>64</ele>
        <time>2011-10-02T07:22:43Z</time>
      </trkpt>
      <trkpt lat="47.33306" lon="-1.3709">
        <ele>65</ele>
        <time>2011-10-02T07:22:46Z</time>
      </trkpt>
      <trkpt lat="47.33306" lon="-1.3709">
        <ele>65</ele>
        <time>2011-10-02T07:22:47Z</time>
      </trkpt>
      <trkpt lat="47.33326" lon="-1.37117">
        <ele>65</ele>
        <time>2011-10-02T07:22:55Z</time>
      </trkpt>
      <trkpt lat="47.33333" lon="-1.37128">
        <ele>65</ele>
        <time>2011-10-02T07:22:58Z</time>
      </trkpt>
      <trkpt lat="47.33336" lon="-1.37138">
        <ele>66</ele>
        <time>2011-10-02T07:23:00Z</time>
      </trkpt>
      <trkpt lat="47.3334" lon="-1.37154">
        <ele>66</ele>
        <time>2011-10-02T07:23:03Z</time>
      </trkpt>
      <trkpt lat="47.33343" lon="-1.37165">
        <ele>66</ele>
        <time>2011-10-02T07:23:05Z</time>
      </trkpt>
      <trkpt lat="47.33346" lon="-1.37178">
        <ele>66</ele>
        <time>2011-10-02T07:23:07Z</time>
      </trkpt>
      <trkpt lat="47.33351" lon="-1.37198">
        <ele>66</ele>
        <time>2011-10-02T07:23:10Z</time>
      </trkpt>
      <trkpt lat="47.33354" lon="-1.37211">
        <ele>67</ele>
        <time>2011-10-02T07:23:12Z</time>
      </trkpt>
      <trkpt lat="47.33358" lon="-1.37229">
        <ele>66</ele>
        <time>2011-10-02T07:23:15Z</time>
      </trkpt>
      <trkpt lat="47.33361" lon="-1.37239">
        <ele>66</ele>
        <time>2011-10-02T07:23:17Z</time>
      </trkpt>
      <trkpt lat="47.33366" lon="-1.37253">
        <ele>67</ele>
        <time>2011-10-02T07:23:20Z</time>
      </trkpt>
      <trkpt lat="47.33371" lon="-1.37268">
        <ele>67</ele>
        <time>2011-10-02T07:23:23Z</time>
      </trkpt>
      <trkpt lat="47.33375" lon="-1.37283">
        <ele>67</ele>
        <time>2011-10-02T07:23:26Z</time>
      </trkpt>
      <trkpt lat="47.33378" lon="-1.37293">
        <ele>67</ele>
        <time>2011-10-02T07:23:28Z</time>
      </trkpt>
      <trkpt lat="47.33382" lon="-1.37309">
        <ele>67</ele>
        <time>2011-10-02T07:23:31Z</time>
      </trkpt>
      <trkpt lat="47.33384" lon="-1.37326">
        <ele>68</ele>
        <time>2011-10-02T07:23:34Z</time>
      </trkpt>
      <trkpt lat="47.33386" lon="-1.37342">
        <ele>68</ele>
        <time>2011-10-02T07:23:37Z</time>
      </trkpt>
      <trkpt lat="47.33386" lon="-1.37356">
        <ele>68</ele>
        <time>2011-10-02T07:23:39Z</time>
      </trkpt>
      <trkpt lat="47.3339" lon="-1.37375">
        <ele>69</ele>
        <time>2011-10-02T07:23:42Z</time>
      </trkpt>
      <trkpt lat="47.33396" lon="-1.37391">
        <ele>69</ele>
        <time>2011-10-02T07:23:45Z</time>
      </trkpt>
      <trkpt lat="47.33401" lon="-1.37403">
        <ele>68</ele>
        <time>2011-10-02T07:23:48Z</time>
      </trkpt>
      <trkpt lat="47.33404" lon="-1.37409">
        <ele>68</ele>
        <time>2011-10-02T07:23:50Z</time>
      </trkpt>
      <trkpt lat="47.33408" lon="-1.37418">
        <ele>68</ele>
        <time>2011-10-02T07:23:53Z</time>
      </trkpt>
      <trkpt lat="47.33408" lon="-1.37418">
        <ele>68</ele>
        <time>2011-10-02T07:23:55Z</time>
      </trkpt>
      <trkpt lat="47.33427" lon="-1.37451">
        <ele>67</ele>
        <time>2011-10-02T07:24:06Z</time>
      </trkpt>
      <trkpt lat="47.33431" lon="-1.37463">
        <ele>67</ele>
        <time>2011-10-02T07:24:09Z</time>
      </trkpt>
      <trkpt lat="47.33432" lon="-1.37474">
        <ele>67</ele>
        <time>2011-10-02T07:24:11Z</time>
      </trkpt>
      <trkpt lat="47.33432" lon="-1.37484">
        <ele>67</ele>
        <time>2011-10-02T07:24:13Z</time>
      </trkpt>
      <trkpt lat="47.33429" lon="-1.37497">
        <ele>67</ele>
        <time>2011-10-02T07:24:16Z</time>
      </trkpt>
      <trkpt lat="47.33427" lon="-1.37505">
        <ele>67</ele>
        <time>2011-10-02T07:24:18Z</time>
      </trkpt>
      <trkpt lat="47.33421" lon="-1.37515">
        <ele>67</ele>
        <time>2011-10-02T07:24:21Z</time>
      </trkpt>
      <trkpt lat="47.33418" lon="-1.37522">
        <ele>67</ele>
        <time>2011-10-02T07:24:23Z</time>
      </trkpt>
      <trkpt lat="47.33412" lon="-1.37531">
        <ele>68</ele>
        <time>2011-10-02T07:24:26Z</time>
      </trkpt>
      <trkpt lat="47.33409" lon="-1.37537">
        <ele>68</ele>
        <time>2011-10-02T07:24:28Z</time>
      </trkpt>
      <trkpt lat="47.33405" lon="-1.37544">
        <ele>69</ele>
        <time>2011-10-02T07:24:30Z</time>
      </trkpt>
      <trkpt lat="47.334" lon="-1.37554">
        <ele>69</ele>
        <time>2011-10-02T07:24:33Z</time>
      </trkpt>
      <trkpt lat="47.33396" lon="-1.37565">
        <ele>69</ele>
        <time>2011-10-02T07:24:36Z</time>
      </trkpt>
      <trkpt lat="47.33392" lon="-1.37575">
        <ele>69</ele>
        <time>2011-10-02T07:24:39Z</time>
      </trkpt>
      <trkpt lat="47.33388" lon="-1.37582">
        <ele>69</ele>
        <time>2011-10-02T07:24:41Z</time>
      </trkpt>
      <trkpt lat="47.33385" lon="-1.3759">
        <ele>70</ele>
        <time>2011-10-02T07:24:43Z</time>
      </trkpt>
      <trkpt lat="47.33379" lon="-1.37602">
        <ele>71</ele>
        <time>2011-10-02T07:24:46Z</time>
      </trkpt>
      <trkpt lat="47.33373" lon="-1.37617">
        <ele>71</ele>
        <time>2011-10-02T07:24:49Z</time>
      </trkpt>
      <trkpt lat="47.33365" lon="-1.37634">
        <ele>71</ele>
        <time>2011-10-02T07:24:52Z</time>
      </trkpt>
      <trkpt lat="47.33359" lon="-1.37653">
        <ele>71</ele>
        <time>2011-10-02T07:24:55Z</time>
      </trkpt>
      <trkpt lat="47.33355" lon="-1.37666">
        <ele>71</ele>
        <time>2011-10-02T07:24:57Z</time>
      </trkpt>
      <trkpt lat="47.33348" lon="-1.37687">
        <ele>72</ele>
        <time>2011-10-02T07:25:00Z</time>
      </trkpt>
      <trkpt lat="47.33345" lon="-1.377">
        <ele>72</ele>
        <time>2011-10-02T07:25:02Z</time>
      </trkpt>
      <trkpt lat="47.33341" lon="-1.37721">
        <ele>72</ele>
        <time>2011-10-02T07:25:05Z</time>
      </trkpt>
      <trkpt lat="47.33335" lon="-1.3774">
        <ele>72</ele>
        <time>2011-10-02T07:25:08Z</time>
      </trkpt>
      <trkpt lat="47.33329" lon="-1.3776">
        <ele>73</ele>
        <time>2011-10-02T07:25:11Z</time>
      </trkpt>
      <trkpt lat="47.33322" lon="-1.3778">
        <ele>73</ele>
        <time>2011-10-02T07:25:14Z</time>
      </trkpt>
      <trkpt lat="47.33315" lon="-1.378">
        <ele>73</ele>
        <time>2011-10-02T07:25:17Z</time>
      </trkpt>
      <trkpt lat="47.3331" lon="-1.37812">
        <ele>74</ele>
        <time>2011-10-02T07:25:19Z</time>
      </trkpt>
      <trkpt lat="47.33301" lon="-1.37829">
        <ele>74</ele>
        <time>2011-10-02T07:25:22Z</time>
      </trkpt>
      <trkpt lat="47.33292" lon="-1.37837">
        <ele>75</ele>
        <time>2011-10-02T07:25:24Z</time>
      </trkpt>
      <trkpt lat="47.33282" lon="-1.37844">
        <ele>75</ele>
        <time>2011-10-02T07:25:26Z</time>
      </trkpt>
      <trkpt lat="47.33265" lon="-1.37851">
        <ele>75</ele>
        <time>2011-10-02T07:25:29Z</time>
      </trkpt>
      <trkpt lat="47.33252" lon="-1.37856">
        <ele>75</ele>
        <time>2011-10-02T07:25:31Z</time>
      </trkpt>
      <trkpt lat="47.33233" lon="-1.37861">
        <ele>76</ele>
        <time>2011-10-02T07:25:34Z</time>
      </trkpt>
      <trkpt lat="47.33221" lon="-1.37865">
        <ele>76</ele>
        <time>2011-10-02T07:25:36Z</time>
      </trkpt>
      <trkpt lat="47.3321" lon="-1.3787">
        <ele>76</ele>
        <time>2011-10-02T07:25:38Z</time>
      </trkpt>
      <trkpt lat="47.33191" lon="-1.37878">
        <ele>76</ele>
        <time>2011-10-02T07:25:41Z</time>
      </trkpt>
      <trkpt lat="47.3318" lon="-1.37884">
        <ele>76</ele>
        <time>2011-10-02T07:25:43Z</time>
      </trkpt>
      <trkpt lat="47.33167" lon="-1.37891">
        <ele>76</ele>
        <time>2011-10-02T07:25:46Z</time>
      </trkpt>
      <trkpt lat="47.33156" lon="-1.37899">
        <ele>77</ele>
        <time>2011-10-02T07:25:49Z</time>
      </trkpt>
      <trkpt lat="47.33145" lon="-1.37908">
        <ele>77</ele>
        <time>2011-10-02T07:25:52Z</time>
      </trkpt>
      <trkpt lat="47.33132" lon="-1.37918">
        <ele>77</ele>
        <time>2011-10-02T07:25:55Z</time>
      </trkpt>
      <trkpt lat="47.3312" lon="-1.3793">
        <ele>77</ele>
        <time>2011-10-02T07:25:58Z</time>
      </trkpt>
      <trkpt lat="47.33112" lon="-1.37941">
        <ele>77</ele>
        <time>2011-10-02T07:26:00Z</time>
      </trkpt>
      <trkpt lat="47.33104" lon="-1.37952">
        <ele>77</ele>
        <time>2011-10-02T07:26:02Z</time>
      </trkpt>
      <trkpt lat="47.33097" lon="-1.37962">
        <ele>77</ele>
        <time>2011-10-02T07:26:04Z</time>
      </trkpt>
      <trkpt lat="47.33083" lon="-1.3796">
        <ele>77</ele>
        <time>2011-10-02T07:26:07Z</time>
      </trkpt>
      <trkpt lat="47.33069" lon="-1.37951">
        <ele>77</ele>
        <time>2011-10-02T07:26:10Z</time>
      </trkpt>
      <trkpt lat="47.33055" lon="-1.37939">
        <ele>77</ele>
        <time>2011-10-02T07:26:13Z</time>
      </trkpt>
      <trkpt lat="47.3304" lon="-1.37927">
        <ele>77</ele>
        <time>2011-10-02T07:26:16Z</time>
      </trkpt>
      <trkpt lat="47.33029" lon="-1.37919">
        <ele>77</ele>
        <time>2011-10-02T07:26:18Z</time>
      </trkpt>
      <trkpt lat="47.33018" lon="-1.37912">
        <ele>78</ele>
        <time>2011-10-02T07:26:20Z</time>
      </trkpt>
      <trkpt lat="47.33002" lon="-1.37899">
        <ele>78</ele>
        <time>2011-10-02T07:26:23Z</time>
      </trkpt>
      <trkpt lat="47.32986" lon="-1.37885">
        <ele>78</ele>
        <time>2011-10-02T07:26:26Z</time>
      </trkpt>
      <trkpt lat="47.32974" lon="-1.37876">
        <ele>78</ele>
        <time>2011-10-02T07:26:28Z</time>
      </trkpt>
      <trkpt lat="47.32958" lon="-1.37863">
        <ele>79</ele>
        <time>2011-10-02T07:26:31Z</time>
      </trkpt>
      <trkpt lat="47.32941" lon="-1.37851">
        <ele>79</ele>
        <time>2011-10-02T07:26:34Z</time>
      </trkpt>
      <trkpt lat="47.32925" lon="-1.37839">
        <ele>79</ele>
        <time>2011-10-02T07:26:37Z</time>
      </trkpt>
      <trkpt lat="47.32914" lon="-1.37831">
        <ele>79</ele>
        <time>2011-10-02T07:26:39Z</time>
      </trkpt>
      <trkpt lat="47.32904" lon="-1.37824">
        <ele>78</ele>
        <time>2011-10-02T07:26:41Z</time>
      </trkpt>
      <trkpt lat="47.32888" lon="-1.37813">
        <ele>78</ele>
        <time>2011-10-02T07:26:44Z</time>
      </trkpt>
      <trkpt lat="47.32871" lon="-1.37803">
        <ele>78</ele>
        <time>2011-10-02T07:26:47Z</time>
      </trkpt>
      <trkpt lat="47.32855" lon="-1.37791">
        <ele>78</ele>
        <time>2011-10-02T07:26:50Z</time>
      </trkpt>
      <trkpt lat="47.32837" lon="-1.37778">
        <ele>78</ele>
        <time>2011-10-02T07:26:53Z</time>
      </trkpt>
      <trkpt lat="47.3282" lon="-1.37765">
        <ele>78</ele>
        <time>2011-10-02T07:26:56Z</time>
      </trkpt>
      <trkpt lat="47.32808" lon="-1.37756">
        <ele>77</ele>
        <time>2011-10-02T07:26:58Z</time>
      </trkpt>
      <trkpt lat="47.32792" lon="-1.37742">
        <ele>77</ele>
        <time>2011-10-02T07:27:01Z</time>
      </trkpt>
      <trkpt lat="47.32774" lon="-1.37729">
        <ele>77</ele>
        <time>2011-10-02T07:27:04Z</time>
      </trkpt>
      <trkpt lat="47.32757" lon="-1.37716">
        <ele>77</ele>
        <time>2011-10-02T07:27:07Z</time>
      </trkpt>
      <trkpt lat="47.32739" lon="-1.37703">
        <ele>77</ele>
        <time>2011-10-02T07:27:10Z</time>
      </trkpt>
      <trkpt lat="47.32722" lon="-1.37689">
        <ele>77</ele>
        <time>2011-10-02T07:27:13Z</time>
      </trkpt>
      <trkpt lat="47.32704" lon="-1.37677">
        <ele>77</ele>
        <time>2011-10-02T07:27:16Z</time>
      </trkpt>
      <trkpt lat="47.32687" lon="-1.37664">
        <ele>77</ele>
        <time>2011-10-02T07:27:19Z</time>
      </trkpt>
      <trkpt lat="47.3267" lon="-1.37649">
        <ele>77</ele>
        <time>2011-10-02T07:27:22Z</time>
      </trkpt>
      <trkpt lat="47.32652" lon="-1.37635">
        <ele>77</ele>
        <time>2011-10-02T07:27:25Z</time>
      </trkpt>
      <trkpt lat="47.32635" lon="-1.37622">
        <ele>78</ele>
        <time>2011-10-02T07:27:28Z</time>
      </trkpt>
      <trkpt lat="47.32619" lon="-1.37608">
        <ele>77</ele>
        <time>2011-10-02T07:27:31Z</time>
      </trkpt>
      <trkpt lat="47.32609" lon="-1.37598">
        <ele>77</ele>
        <time>2011-10-02T07:27:33Z</time>
      </trkpt>
      <trkpt lat="47.326" lon="-1.37587">
        <ele>77</ele>
        <time>2011-10-02T07:27:35Z</time>
      </trkpt>
      <trkpt lat="47.32588" lon="-1.37569">
        <ele>77</ele>
        <time>2011-10-02T07:27:38Z</time>
      </trkpt>
      <trkpt lat="47.32582" lon="-1.37559">
        <ele>77</ele>
        <time>2011-10-02T07:27:40Z</time>
      </trkpt>
      <trkpt lat="47.32582" lon="-1.37559">
        <ele>77</ele>
        <time>2011-10-02T07:27:42Z</time>
      </trkpt>
      <trkpt lat="47.32574" lon="-1.37534">
        <ele>77</ele>
        <time>2011-10-02T07:27:55Z</time>
      </trkpt>
      <trkpt lat="47.32568" lon="-1.37514">
        <ele>77</ele>
        <time>2011-10-02T07:27:58Z</time>
      </trkpt>
      <trkpt lat="47.32563" lon="-1.37499">
        <ele>77</ele>
        <time>2011-10-02T07:28:00Z</time>
      </trkpt>
      <trkpt lat="47.32553" lon="-1.37476">
        <ele>77</ele>
        <time>2011-10-02T07:28:03Z</time>
      </trkpt>
      <trkpt lat="47.32543" lon="-1.37451">
        <ele>77</ele>
        <time>2011-10-02T07:28:06Z</time>
      </trkpt>
      <trkpt lat="47.32532" lon="-1.37424">
        <ele>77</ele>
        <time>2011-10-02T07:28:09Z</time>
      </trkpt>
      <trkpt lat="47.32525" lon="-1.37404">
        <ele>76</ele>
        <time>2011-10-02T07:28:11Z</time>
      </trkpt>
      <trkpt lat="47.32518" lon="-1.37384">
        <ele>76</ele>
        <time>2011-10-02T07:28:13Z</time>
      </trkpt>
      <trkpt lat="47.32507" lon="-1.37356">
        <ele>76</ele>
        <time>2011-10-02T07:28:16Z</time>
      </trkpt>
      <trkpt lat="47.32498" lon="-1.37337">
        <ele>76</ele>
        <time>2011-10-02T07:28:18Z</time>
      </trkpt>
      <trkpt lat="47.32485" lon="-1.37306">
        <ele>75</ele>
        <time>2011-10-02T07:28:21Z</time>
      </trkpt>
      <trkpt lat="47.32472" lon="-1.37275">
        <ele>75</ele>
        <time>2011-10-02T07:28:24Z</time>
      </trkpt>
      <trkpt lat="47.32464" lon="-1.37254">
        <ele>75</ele>
        <time>2011-10-02T07:28:26Z</time>
      </trkpt>
      <trkpt lat="47.32456" lon="-1.37232">
        <ele>74</ele>
        <time>2011-10-02T07:28:28Z</time>
      </trkpt>
      <trkpt lat="47.32445" lon="-1.37199">
        <ele>73</ele>
        <time>2011-10-02T07:28:31Z</time>
      </trkpt>
      <trkpt lat="47.32439" lon="-1.37176">
        <ele>73</ele>
        <time>2011-10-02T07:28:33Z</time>
      </trkpt>
      <trkpt lat="47.32432" lon="-1.37142">
        <ele>73</ele>
        <time>2011-10-02T07:28:36Z</time>
      </trkpt>
      <trkpt lat="47.32428" lon="-1.37119">
        <ele>73</ele>
        <time>2011-10-02T07:28:38Z</time>
      </trkpt>
      <trkpt lat="47.32419" lon="-1.37085">
        <ele>73</ele>
        <time>2011-10-02T07:28:41Z</time>
      </trkpt>
      <trkpt lat="47.32412" lon="-1.37065">
        <ele>72</ele>
        <time>2011-10-02T07:28:43Z</time>
      </trkpt>
      <trkpt lat="47.32397" lon="-1.3705">
        <ele>72</ele>
        <time>2011-10-02T07:28:46Z</time>
      </trkpt>
      <trkpt lat="47.32388" lon="-1.37028">
        <ele>72</ele>
        <time>2011-10-02T07:28:49Z</time>
      </trkpt>
      <trkpt lat="47.32377" lon="-1.37009">
        <ele>72</ele>
        <time>2011-10-02T07:28:52Z</time>
      </trkpt>
      <trkpt lat="47.32368" lon="-1.36995">
        <ele>70</ele>
        <time>2011-10-02T07:28:54Z</time>
      </trkpt>
      <trkpt lat="47.32363" lon="-1.36977">
        <ele>70</ele>
        <time>2011-10-02T07:28:56Z</time>
      </trkpt>
      <trkpt lat="47.32357" lon="-1.3695">
        <ele>70</ele>
        <time>2011-10-02T07:28:59Z</time>
      </trkpt>
      <trkpt lat="47.32352" lon="-1.36933">
        <ele>70</ele>
        <time>2011-10-02T07:29:01Z</time>
      </trkpt>
      <trkpt lat="47.32343" lon="-1.36908">
        <ele>69</ele>
        <time>2011-10-02T07:29:04Z</time>
      </trkpt>
      <trkpt lat="47.32335" lon="-1.36893">
        <ele>69</ele>
        <time>2011-10-02T07:29:06Z</time>
      </trkpt>
      <trkpt lat="47.32323" lon="-1.36874">
        <ele>69</ele>
        <time>2011-10-02T07:29:09Z</time>
      </trkpt>
      <trkpt lat="47.32307" lon="-1.36862">
        <ele>69</ele>
        <time>2011-10-02T07:29:12Z</time>
      </trkpt>
      <trkpt lat="47.32291" lon="-1.36849">
        <ele>69</ele>
        <time>2011-10-02T07:29:15Z</time>
      </trkpt>
      <trkpt lat="47.32281" lon="-1.3684">
        <ele>69</ele>
        <time>2011-10-02T07:29:17Z</time>
      </trkpt>
      <trkpt lat="47.32267" lon="-1.36827">
        <ele>67</ele>
        <time>2011-10-02T07:29:20Z</time>
      </trkpt>
      <trkpt lat="47.32257" lon="-1.36819">
        <ele>67</ele>
        <time>2011-10-02T07:29:22Z</time>
      </trkpt>
      <trkpt lat="47.32247" lon="-1.36811">
        <ele>67</ele>
        <time>2011-10-02T07:29:24Z</time>
      </trkpt>
      <trkpt lat="47.32234" lon="-1.36794">
        <ele>66</ele>
        <time>2011-10-02T07:29:27Z</time>
      </trkpt>
      <trkpt lat="47.32225" lon="-1.36782">
        <ele>66</ele>
        <time>2011-10-02T07:29:29Z</time>
      </trkpt>
      <trkpt lat="47.32211" lon="-1.36768">
        <ele>66</ele>
        <time>2011-10-02T07:29:32Z</time>
      </trkpt>
      <trkpt lat="47.32202" lon="-1.36759">
        <ele>66</ele>
        <time>2011-10-02T07:29:34Z</time>
      </trkpt>
      <trkpt lat="47.32194" lon="-1.3674">
        <ele>65</ele>
        <time>2011-10-02T07:29:37Z</time>
      </trkpt>
      <trkpt lat="47.32192" lon="-1.36725">
        <ele>64</ele>
        <time>2011-10-02T07:29:40Z</time>
      </trkpt>
      <trkpt lat="47.32192" lon="-1.36725">
        <ele>64</ele>
        <time>2011-10-02T07:29:41Z</time>
      </trkpt>
      <trkpt lat="47.32195" lon="-1.3668">
        <ele>63</ele>
        <time>2011-10-02T07:29:52Z</time>
      </trkpt>
      <trkpt lat="47.32191" lon="-1.36666">
        <ele>62</ele>
        <time>2011-10-02T07:29:55Z</time>
      </trkpt>
      <trkpt lat="47.32191" lon="-1.36666">
        <ele>62</ele>
        <time>2011-10-02T07:29:56Z</time>
      </trkpt>
      <trkpt lat="47.32184" lon="-1.36639">
        <ele>61</ele>
        <time>2011-10-02T07:30:01Z</time>
      </trkpt>
      <trkpt lat="47.32179" lon="-1.36629">
        <ele>61</ele>
        <time>2011-10-02T07:30:04Z</time>
      </trkpt>
      <trkpt lat="47.32179" lon="-1.36629">
        <ele>61</ele>
        <time>2011-10-02T07:30:05Z</time>
      </trkpt>
      <trkpt lat="47.32174" lon="-1.36593">
        <ele>58</ele>
        <time>2011-10-02T07:30:13Z</time>
      </trkpt>
      <trkpt lat="47.32176" lon="-1.36572">
        <ele>57</ele>
        <time>2011-10-02T07:30:16Z</time>
      </trkpt>
      <trkpt lat="47.32178" lon="-1.36558">
        <ele>58</ele>
        <time>2011-10-02T07:30:18Z</time>
      </trkpt>
      <trkpt lat="47.32177" lon="-1.36537">
        <ele>58</ele>
        <time>2011-10-02T07:30:21Z</time>
      </trkpt>
      <trkpt lat="47.32175" lon="-1.36522">
        <ele>57</ele>
        <time>2011-10-02T07:30:23Z</time>
      </trkpt>
      <trkpt lat="47.32168" lon="-1.36508">
        <ele>55</ele>
        <time>2011-10-02T07:30:25Z</time>
      </trkpt>
      <trkpt lat="47.32159" lon="-1.36495">
        <ele>55</ele>
        <time>2011-10-02T07:30:27Z</time>
      </trkpt>
      <trkpt lat="47.3215" lon="-1.36482">
        <ele>57</ele>
        <time>2011-10-02T07:30:29Z</time>
      </trkpt>
      <trkpt lat="47.32137" lon="-1.3646">
        <ele>57</ele>
        <time>2011-10-02T07:30:32Z</time>
      </trkpt>
      <trkpt lat="47.32125" lon="-1.36435">
        <ele>58</ele>
        <time>2011-10-02T07:30:35Z</time>
      </trkpt>
      <trkpt lat="47.32114" lon="-1.36403">
        <ele>57</ele>
        <time>2011-10-02T07:30:38Z</time>
      </trkpt>
      <trkpt lat="47.32104" lon="-1.36377">
        <ele>56</ele>
        <time>2011-10-02T07:30:41Z</time>
      </trkpt>
      <trkpt lat="47.32096" lon="-1.36355">
        <ele>56</ele>
        <time>2011-10-02T07:30:44Z</time>
      </trkpt>
      <trkpt lat="47.32091" lon="-1.36334">
        <ele>55</ele>
        <time>2011-10-02T07:30:47Z</time>
      </trkpt>
      <trkpt lat="47.32086" lon="-1.36316">
        <ele>55</ele>
        <time>2011-10-02T07:30:50Z</time>
      </trkpt>
      <trkpt lat="47.32081" lon="-1.36297">
        <ele>55</ele>
        <time>2011-10-02T07:30:53Z</time>
      </trkpt>
      <trkpt lat="47.32073" lon="-1.36283">
        <ele>55</ele>
        <time>2011-10-02T07:30:56Z</time>
      </trkpt>
      <trkpt lat="47.3207" lon="-1.36275">
        <ele>54</ele>
        <time>2011-10-02T07:30:58Z</time>
      </trkpt>
      <trkpt lat="47.32069" lon="-1.36267">
        <ele>54</ele>
        <time>2011-10-02T07:31:00Z</time>
      </trkpt>
      <trkpt lat="47.32068" lon="-1.3626">
        <ele>54</ele>
        <time>2011-10-02T07:31:02Z</time>
      </trkpt>
      <trkpt lat="47.32069" lon="-1.36253">
        <ele>53</ele>
        <time>2011-10-02T07:31:05Z</time>
      </trkpt>
      <trkpt lat="47.32061" lon="-1.36214">
        <ele>51</ele>
        <time>2011-10-02T07:31:24Z</time>
      </trkpt>
      <trkpt lat="47.32051" lon="-1.36196">
        <ele>51</ele>
        <time>2011-10-02T07:31:27Z</time>
      </trkpt>
      <trkpt lat="47.32048" lon="-1.36185">
        <ele>50</ele>
        <time>2011-10-02T07:31:28Z</time>
      </trkpt>
      <trkpt lat="47.32037" lon="-1.36139">
        <ele>45</ele>
        <time>2011-10-02T07:31:31Z</time>
      </trkpt>
      <trkpt lat="47.32028" lon="-1.36097">
        <ele>43</ele>
        <time>2011-10-02T07:31:34Z</time>
      </trkpt>
      <trkpt lat="47.32021" lon="-1.36076">
        <ele>40</ele>
        <time>2011-10-02T07:31:36Z</time>
      </trkpt>
      <trkpt lat="47.32014" lon="-1.36061">
        <ele>39</ele>
        <time>2011-10-02T07:31:38Z</time>
      </trkpt>
      <trkpt lat="47.32005" lon="-1.36053">
        <ele>39</ele>
        <time>2011-10-02T07:31:41Z</time>
      </trkpt>
      <trkpt lat="47.31996" lon="-1.36052">
        <ele>43</ele>
        <time>2011-10-02T07:31:44Z</time>
      </trkpt>
      <trkpt lat="47.3199" lon="-1.36049">
        <ele>43</ele>
        <time>2011-10-02T07:31:47Z</time>
      </trkpt>
      <trkpt lat="47.31976" lon="-1.35994">
        <ele>42</ele>
        <time>2011-10-02T07:32:14Z</time>
      </trkpt>
      <trkpt lat="47.31971" lon="-1.3597">
        <ele>43</ele>
        <time>2011-10-02T07:32:17Z</time>
      </trkpt>
      <trkpt lat="47.31971" lon="-1.3597">
        <ele>43</ele>
        <time>2011-10-02T07:32:18Z</time>
      </trkpt>
      <trkpt lat="47.31965" lon="-1.35938">
        <ele>43</ele>
        <time>2011-10-02T07:32:21Z</time>
      </trkpt>
      <trkpt lat="47.3196" lon="-1.35916">
        <ele>45</ele>
        <time>2011-10-02T07:32:24Z</time>
      </trkpt>
      <trkpt lat="47.31951" lon="-1.35895">
        <ele>44</ele>
        <time>2011-10-02T07:32:27Z</time>
      </trkpt>
      <trkpt lat="47.31934" lon="-1.35884">
        <ele>43</ele>
        <time>2011-10-02T07:32:30Z</time>
      </trkpt>
      <trkpt lat="47.31923" lon="-1.35877">
        <ele>43</ele>
        <time>2011-10-02T07:32:32Z</time>
      </trkpt>
      <trkpt lat="47.31909" lon="-1.35864">
        <ele>42</ele>
        <time>2011-10-02T07:32:35Z</time>
      </trkpt>
      <trkpt lat="47.31896" lon="-1.35849">
        <ele>42</ele>
        <time>2011-10-02T07:32:38Z</time>
      </trkpt>
      <trkpt lat="47.31888" lon="-1.35826">
        <ele>41</ele>
        <time>2011-10-02T07:32:41Z</time>
      </trkpt>
      <trkpt lat="47.31883" lon="-1.35806">
        <ele>42</ele>
        <time>2011-10-02T07:32:44Z</time>
      </trkpt>
      <trkpt lat="47.31881" lon="-1.35784">
        <ele>42</ele>
        <time>2011-10-02T07:32:47Z</time>
      </trkpt>
      <trkpt lat="47.31882" lon="-1.35759">
        <ele>42</ele>
        <time>2011-10-02T07:32:50Z</time>
      </trkpt>
      <trkpt lat="47.31877" lon="-1.35733">
        <ele>41</ele>
        <time>2011-10-02T07:32:53Z</time>
      </trkpt>
      <trkpt lat="47.31869" lon="-1.3571">
        <ele>41</ele>
        <time>2011-10-02T07:32:56Z</time>
      </trkpt>
      <trkpt lat="47.31864" lon="-1.35698">
        <ele>40</ele>
        <time>2011-10-02T07:32:58Z</time>
      </trkpt>
      <trkpt lat="47.31862" lon="-1.35685">
        <ele>39</ele>
        <time>2011-10-02T07:33:00Z</time>
      </trkpt>
      <trkpt lat="47.31857" lon="-1.35669">
        <ele>38</ele>
        <time>2011-10-02T07:33:03Z</time>
      </trkpt>
      <trkpt lat="47.3185" lon="-1.35657">
        <ele>38</ele>
        <time>2011-10-02T07:33:06Z</time>
      </trkpt>
      <trkpt lat="47.31842" lon="-1.35649">
        <ele>38</ele>
        <time>2011-10-02T07:33:09Z</time>
      </trkpt>
      <trkpt lat="47.31833" lon="-1.35644">
        <ele>35</ele>
        <time>2011-10-02T07:33:12Z</time>
      </trkpt>
      <trkpt lat="47.31821" lon="-1.35635">
        <ele>36</ele>
        <time>2011-10-02T07:33:15Z</time>
      </trkpt>
      <trkpt lat="47.31813" lon="-1.35629">
        <ele>37</ele>
        <time>2011-10-02T07:33:17Z</time>
      </trkpt>
      <trkpt lat="47.31801" lon="-1.35615">
        <ele>38</ele>
        <time>2011-10-02T07:33:21Z</time>
      </trkpt>
      <trkpt lat="47.31794" lon="-1.35611">
        <ele>38</ele>
        <time>2011-10-02T07:33:23Z</time>
      </trkpt>
      <trkpt lat="47.31782" lon="-1.35607">
        <ele>38</ele>
        <time>2011-10-02T07:33:26Z</time>
      </trkpt>
      <trkpt lat="47.3177" lon="-1.356">
        <ele>37</ele>
        <time>2011-10-02T07:33:29Z</time>
      </trkpt>
      <trkpt lat="47.3176" lon="-1.35588">
        <ele>36</ele>
        <time>2011-10-02T07:33:32Z</time>
      </trkpt>
      <trkpt lat="47.31754" lon="-1.35579">
        <ele>34</ele>
        <time>2011-10-02T07:33:34Z</time>
      </trkpt>
      <trkpt lat="47.31748" lon="-1.35569">
        <ele>39</ele>
        <time>2011-10-02T07:33:36Z</time>
      </trkpt>
      <trkpt lat="47.31737" lon="-1.35556">
        <ele>41</ele>
        <time>2011-10-02T07:33:39Z</time>
      </trkpt>
      <trkpt lat="47.31727" lon="-1.35538">
        <ele>42</ele>
        <time>2011-10-02T07:33:42Z</time>
      </trkpt>
      <trkpt lat="47.31722" lon="-1.35514">
        <ele>41</ele>
        <time>2011-10-02T07:33:45Z</time>
      </trkpt>
      <trkpt lat="47.31719" lon="-1.35499">
        <ele>39</ele>
        <time>2011-10-02T07:33:47Z</time>
      </trkpt>
      <trkpt lat="47.31718" lon="-1.35476">
        <ele>39</ele>
        <time>2011-10-02T07:33:50Z</time>
      </trkpt>
      <trkpt lat="47.31717" lon="-1.35469">
        <ele>39</ele>
        <time>2011-10-02T07:33:52Z</time>
      </trkpt>
      <trkpt lat="47.31718" lon="-1.35448">
        <ele>39</ele>
        <time>2011-10-02T07:33:55Z</time>
      </trkpt>
      <trkpt lat="47.31718" lon="-1.35436">
        <ele>38</ele>
        <time>2011-10-02T07:33:57Z</time>
      </trkpt>
      <trkpt lat="47.3172" lon="-1.35416">
        <ele>34</ele>
        <time>2011-10-02T07:34:00Z</time>
      </trkpt>
      <trkpt lat="47.31722" lon="-1.35396">
        <ele>34</ele>
        <time>2011-10-02T07:34:03Z</time>
      </trkpt>
      <trkpt lat="47.31723" lon="-1.35374">
        <ele>34</ele>
        <time>2011-10-02T07:34:06Z</time>
      </trkpt>
      <trkpt lat="47.31723" lon="-1.35359">
        <ele>33</ele>
        <time>2011-10-02T07:34:08Z</time>
      </trkpt>
      <trkpt lat="47.31718" lon="-1.35336">
        <ele>33</ele>
        <time>2011-10-02T07:34:11Z</time>
      </trkpt>
      <trkpt lat="47.31713" lon="-1.35314">
        <ele>28</ele>
        <time>2011-10-02T07:34:14Z</time>
      </trkpt>
      <trkpt lat="47.31709" lon="-1.35299">
        <ele>28</ele>
        <time>2011-10-02T07:34:16Z</time>
      </trkpt>
      <trkpt lat="47.31705" lon="-1.35275">
        <ele>27</ele>
        <time>2011-10-02T07:34:19Z</time>
      </trkpt>
      <trkpt lat="47.31701" lon="-1.35256">
        <ele>26</ele>
        <time>2011-10-02T07:34:21Z</time>
      </trkpt>
      <trkpt lat="47.317" lon="-1.35239">
        <ele>22</ele>
        <time>2011-10-02T07:34:23Z</time>
      </trkpt>
      <trkpt lat="47.31703" lon="-1.35219">
        <ele>21</ele>
        <time>2011-10-02T07:34:26Z</time>
      </trkpt>
      <trkpt lat="47.31702" lon="-1.3521">
        <ele>21</ele>
        <time>2011-10-02T07:34:29Z</time>
      </trkpt>
      <trkpt lat="47.31711" lon="-1.35169">
        <ele>20</ele>
        <time>2011-10-02T07:34:47Z</time>
      </trkpt>
      <trkpt lat="47.31711" lon="-1.35169">
        <ele>20</ele>
        <time>2011-10-02T07:34:51Z</time>
      </trkpt>
      <trkpt lat="47.31729" lon="-1.35132">
        <ele>27</ele>
        <time>2011-10-02T07:35:00Z</time>
      </trkpt>
      <trkpt lat="47.31729" lon="-1.35132">
        <ele>27</ele>
        <time>2011-10-02T07:35:03Z</time>
      </trkpt>
      <trkpt lat="47.31746" lon="-1.35113">
        <ele>29</ele>
        <time>2011-10-02T07:35:09Z</time>
      </trkpt>
      <trkpt lat="47.31761" lon="-1.35102">
        <ele>31</ele>
        <time>2011-10-02T07:35:15Z</time>
      </trkpt>
      <trkpt lat="47.31769" lon="-1.35095">
        <ele>31</ele>
        <time>2011-10-02T07:35:24Z</time>
      </trkpt>
      <trkpt lat="47.31777" lon="-1.35086">
        <ele>31</ele>
        <time>2011-10-02T07:35:36Z</time>
      </trkpt>
      <trkpt lat="47.31785" lon="-1.35078">
        <ele>37</ele>
        <time>2011-10-02T07:35:45Z</time>
      </trkpt>
      <trkpt lat="47.31793" lon="-1.35069">
        <ele>37</ele>
        <time>2011-10-02T07:35:56Z</time>
      </trkpt>
      <trkpt lat="47.31793" lon="-1.35069">
        <ele>37</ele>
        <time>2011-10-02T07:36:08Z</time>
      </trkpt>
      <trkpt lat="47.31813" lon="-1.35036">
        <ele>39</ele>
        <time>2011-10-02T07:36:28Z</time>
      </trkpt>
      <trkpt lat="47.31821" lon="-1.35027">
        <ele>40</ele>
        <time>2011-10-02T07:36:34Z</time>
      </trkpt>
      <trkpt lat="47.31832" lon="-1.35012">
        <ele>41</ele>
        <time>2011-10-02T07:36:43Z</time>
      </trkpt>
      <trkpt lat="47.31837" lon="-1.35001">
        <ele>41</ele>
        <time>2011-10-02T07:36:48Z</time>
      </trkpt>
      <trkpt lat="47.31843" lon="-1.3499">
        <ele>43</ele>
        <time>2011-10-02T07:36:53Z</time>
      </trkpt>
      <trkpt lat="47.31847" lon="-1.34984">
        <ele>44</ele>
        <time>2011-10-02T07:36:56Z</time>
      </trkpt>
      <trkpt lat="47.31851" lon="-1.34977">
        <ele>44</ele>
        <time>2011-10-02T07:36:59Z</time>
      </trkpt>
      <trkpt lat="47.31858" lon="-1.34966">
        <ele>45</ele>
        <time>2011-10-02T07:37:05Z</time>
      </trkpt>
      <trkpt lat="47.31861" lon="-1.34961">
        <ele>46</ele>
        <time>2011-10-02T07:37:08Z</time>
      </trkpt>
      <trkpt lat="47.31867" lon="-1.3495">
        <ele>46</ele>
        <time>2011-10-02T07:37:15Z</time>
      </trkpt>
      <trkpt lat="47.31872" lon="-1.34944">
        <ele>47</ele>
        <time>2011-10-02T07:37:20Z</time>
      </trkpt>
      <trkpt lat="47.31878" lon="-1.34934">
        <ele>47</ele>
        <time>2011-10-02T07:37:32Z</time>
      </trkpt>
      <trkpt lat="47.3188" lon="-1.34928">
        <ele>48</ele>
        <time>2011-10-02T07:37:37Z</time>
      </trkpt>
      <trkpt lat="47.31882" lon="-1.3492">
        <ele>48</ele>
        <time>2011-10-02T07:37:43Z</time>
      </trkpt>
      <trkpt lat="47.31883" lon="-1.34912">
        <ele>54</ele>
        <time>2011-10-02T07:37:48Z</time>
      </trkpt>
      <trkpt lat="47.31885" lon="-1.34905">
        <ele>54</ele>
        <time>2011-10-02T07:37:53Z</time>
      </trkpt>
      <trkpt lat="47.31886" lon="-1.34898">
        <ele>54</ele>
        <time>2011-10-02T07:37:58Z</time>
      </trkpt>
      <trkpt lat="47.31887" lon="-1.34889">
        <ele>54</ele>
        <time>2011-10-02T07:38:05Z</time>
      </trkpt>
      <trkpt lat="47.31885" lon="-1.34883">
        <ele>54</ele>
        <time>2011-10-02T07:38:11Z</time>
      </trkpt>
      <trkpt lat="47.31883" lon="-1.34876">
        <ele>55</ele>
        <time>2011-10-02T07:38:17Z</time>
      </trkpt>
      <trkpt lat="47.31882" lon="-1.34869">
        <ele>55</ele>
        <time>2011-10-02T07:38:23Z</time>
      </trkpt>
      <trkpt lat="47.31874" lon="-1.34855">
        <ele>55</ele>
        <time>2011-10-02T07:38:33Z</time>
      </trkpt>
      <trkpt lat="47.31872" lon="-1.34844">
        <ele>56</ele>
        <time>2011-10-02T07:38:36Z</time>
      </trkpt>
      <trkpt lat="47.3187" lon="-1.34834">
        <ele>56</ele>
        <time>2011-10-02T07:38:38Z</time>
      </trkpt>
      <trkpt lat="47.3187" lon="-1.34819">
        <ele>57</ele>
        <time>2011-10-02T07:38:41Z</time>
      </trkpt>
      <trkpt lat="47.31873" lon="-1.3481">
        <ele>57</ele>
        <time>2011-10-02T07:38:43Z</time>
      </trkpt>
      <trkpt lat="47.31878" lon="-1.34803">
        <ele>57</ele>
        <time>2011-10-02T07:38:46Z</time>
      </trkpt>
      <trkpt lat="47.31883" lon="-1.34799">
        <ele>57</ele>
        <time>2011-10-02T07:38:48Z</time>
      </trkpt>
      <trkpt lat="47.31887" lon="-1.34795">
        <ele>58</ele>
        <time>2011-10-02T07:38:50Z</time>
      </trkpt>
      <trkpt lat="47.31894" lon="-1.34788">
        <ele>58</ele>
        <time>2011-10-02T07:38:53Z</time>
      </trkpt>
      <trkpt lat="47.319" lon="-1.3478">
        <ele>58</ele>
        <time>2011-10-02T07:38:56Z</time>
      </trkpt>
      <trkpt lat="47.31904" lon="-1.34769">
        <ele>58</ele>
        <time>2011-10-02T07:38:59Z</time>
      </trkpt>
      <trkpt lat="47.31906" lon="-1.34761">
        <ele>59</ele>
        <time>2011-10-02T07:39:01Z</time>
      </trkpt>
      <trkpt lat="47.31908" lon="-1.34751">
        <ele>59</ele>
        <time>2011-10-02T07:39:03Z</time>
      </trkpt>
      <trkpt lat="47.3191" lon="-1.3474">
        <ele>58</ele>
        <time>2011-10-02T07:39:06Z</time>
      </trkpt>
      <trkpt lat="47.3191" lon="-1.3474">
        <ele>58</ele>
        <time>2011-10-02T07:39:09Z</time>
      </trkpt>
      <trkpt lat="47.3191" lon="-1.3474">
        <ele>58</ele>
        <time>2011-10-02T07:39:47Z</time>
      </trkpt>
      <trkpt lat="47.31922" lon="-1.34699">
        <ele>60</ele>
        <time>2011-10-02T07:40:41Z</time>
      </trkpt>
      <trkpt lat="47.31922" lon="-1.34699">
        <ele>60</ele>
        <time>2011-10-02T07:40:45Z</time>
      </trkpt>
      <trkpt lat="47.31922" lon="-1.34699">
        <ele>60</ele>
        <time>2011-10-02T07:41:27Z</time>
      </trkpt>
      <trkpt lat="47.31914" lon="-1.34738">
        <ele>58</ele>
        <time>2011-10-02T07:44:10Z</time>
      </trkpt>
      <trkpt lat="47.31914" lon="-1.34738">
        <ele>58</ele>
        <time>2011-10-02T07:44:14Z</time>
      </trkpt>
      <trkpt lat="47.31914" lon="-1.34738">
        <ele>58</ele>
        <time>2011-10-02T07:44:41Z</time>
      </trkpt>
      <trkpt lat="47.31909" lon="-1.34696">
        <ele>57</ele>
        <time>2011-10-02T07:45:38Z</time>
      </trkpt>
      <trkpt lat="47.31906" lon="-1.34685">
        <ele>57</ele>
        <time>2011-10-02T07:45:41Z</time>
      </trkpt>
      <trkpt lat="47.31901" lon="-1.34673">
        <ele>57</ele>
        <time>2011-10-02T07:45:44Z</time>
      </trkpt>
      <trkpt lat="47.31896" lon="-1.34662">
        <ele>54</ele>
        <time>2011-10-02T07:45:47Z</time>
      </trkpt>
      <trkpt lat="47.31889" lon="-1.34654">
        <ele>54</ele>
        <time>2011-10-02T07:45:50Z</time>
      </trkpt>
      <trkpt lat="47.31882" lon="-1.34647">
        <ele>53</ele>
        <time>2011-10-02T07:45:53Z</time>
      </trkpt>
      <trkpt lat="47.31875" lon="-1.34641">
        <ele>52</ele>
        <time>2011-10-02T07:45:56Z</time>
      </trkpt>
      <trkpt lat="47.31869" lon="-1.34646">
        <ele>52</ele>
        <time>2011-10-02T07:45:59Z</time>
      </trkpt>
      <trkpt lat="47.31865" lon="-1.3465">
        <ele>52</ele>
        <time>2011-10-02T07:46:01Z</time>
      </trkpt>
      <trkpt lat="47.31858" lon="-1.34658">
        <ele>51</ele>
        <time>2011-10-02T07:46:04Z</time>
      </trkpt>
      <trkpt lat="47.31848" lon="-1.34669">
        <ele>52</ele>
        <time>2011-10-02T07:46:07Z</time>
      </trkpt>
      <trkpt lat="47.3184" lon="-1.34679">
        <ele>52</ele>
        <time>2011-10-02T07:46:09Z</time>
      </trkpt>
      <trkpt lat="47.31827" lon="-1.34691">
        <ele>49</ele>
        <time>2011-10-02T07:46:12Z</time>
      </trkpt>
      <trkpt lat="47.31819" lon="-1.34685">
        <ele>49</ele>
        <time>2011-10-02T07:46:15Z</time>
      </trkpt>
      <trkpt lat="47.31816" lon="-1.34673">
        <ele>49</ele>
        <time>2011-10-02T07:46:18Z</time>
      </trkpt>
      <trkpt lat="47.31811" lon="-1.34657">
        <ele>44</ele>
        <time>2011-10-02T07:46:21Z</time>
      </trkpt>
      <trkpt lat="47.31803" lon="-1.34643">
        <ele>43</ele>
        <time>2011-10-02T07:46:23Z</time>
      </trkpt>
      <trkpt lat="47.3179" lon="-1.34616">
        <ele>40</ele>
        <time>2011-10-02T07:46:26Z</time>
      </trkpt>
      <trkpt lat="47.31777" lon="-1.34588">
        <ele>37</ele>
        <time>2011-10-02T07:46:29Z</time>
      </trkpt>
      <trkpt lat="47.31768" lon="-1.34573">
        <ele>32</ele>
        <time>2011-10-02T07:46:31Z</time>
      </trkpt>
      <trkpt lat="47.31754" lon="-1.34554">
        <ele>31</ele>
        <time>2011-10-02T07:46:34Z</time>
      </trkpt>
      <trkpt lat="47.31743" lon="-1.34542">
        <ele>21</ele>
        <time>2011-10-02T07:46:36Z</time>
      </trkpt>
      <trkpt lat="47.31723" lon="-1.34535">
        <ele>20</ele>
        <time>2011-10-02T07:46:39Z</time>
      </trkpt>
      <trkpt lat="47.31702" lon="-1.34544">
        <ele>19</ele>
        <time>2011-10-02T07:46:42Z</time>
      </trkpt>
      <trkpt lat="47.31683" lon="-1.34558">
        <ele>18</ele>
        <time>2011-10-02T07:46:45Z</time>
      </trkpt>
      <trkpt lat="47.3167" lon="-1.34567">
        <ele>17</ele>
        <time>2011-10-02T07:46:48Z</time>
      </trkpt>
      <trkpt lat="47.31664" lon="-1.34568">
        <ele>13</ele>
        <time>2011-10-02T07:46:50Z</time>
      </trkpt>
      <trkpt lat="47.31664" lon="-1.34568">
        <ele>13</ele>
        <time>2011-10-02T07:46:52Z</time>
      </trkpt>
      <trkpt lat="47.31651" lon="-1.34545">
        <ele>11</ele>
        <time>2011-10-02T07:46:59Z</time>
      </trkpt>
      <trkpt lat="47.31653" lon="-1.34533">
        <ele>10</ele>
        <time>2011-10-02T07:47:02Z</time>
      </trkpt>
      <trkpt lat="47.31661" lon="-1.34519">
        <ele>10</ele>
        <time>2011-10-02T07:47:05Z</time>
      </trkpt>
      <trkpt lat="47.31672" lon="-1.34503">
        <ele>12</ele>
        <time>2011-10-02T07:47:08Z</time>
      </trkpt>
      <trkpt lat="47.3168" lon="-1.34492">
        <ele>11</ele>
        <time>2011-10-02T07:47:10Z</time>
      </trkpt>
      <trkpt lat="47.31692" lon="-1.34475">
        <ele>12</ele>
        <time>2011-10-02T07:47:13Z</time>
      </trkpt>
      <trkpt lat="47.317" lon="-1.34465">
        <ele>12</ele>
        <time>2011-10-02T07:47:15Z</time>
      </trkpt>
      <trkpt lat="47.3171" lon="-1.34448">
        <ele>12</ele>
        <time>2011-10-02T07:47:18Z</time>
      </trkpt>
      <trkpt lat="47.31718" lon="-1.34438">
        <ele>12</ele>
        <time>2011-10-02T07:47:20Z</time>
      </trkpt>
      <trkpt lat="47.31728" lon="-1.34421">
        <ele>12</ele>
        <time>2011-10-02T07:47:23Z</time>
      </trkpt>
      <trkpt lat="47.31739" lon="-1.34404">
        <ele>10</ele>
        <time>2011-10-02T07:47:26Z</time>
      </trkpt>
      <trkpt lat="47.31749" lon="-1.34386">
        <ele>9</ele>
        <time>2011-10-02T07:47:29Z</time>
      </trkpt>
      <trkpt lat="47.31757" lon="-1.34373">
        <ele>15</ele>
        <time>2011-10-02T07:47:31Z</time>
      </trkpt>
      <trkpt lat="47.31769" lon="-1.34354">
        <ele>14</ele>
        <time>2011-10-02T07:47:34Z</time>
      </trkpt>
      <trkpt lat="47.31778" lon="-1.3434">
        <ele>14</ele>
        <time>2011-10-02T07:47:36Z</time>
      </trkpt>
      <trkpt lat="47.3179" lon="-1.34319">
        <ele>12</ele>
        <time>2011-10-02T07:47:39Z</time>
      </trkpt>
      <trkpt lat="47.31804" lon="-1.34299">
        <ele>12</ele>
        <time>2011-10-02T07:47:42Z</time>
      </trkpt>
      <trkpt lat="47.31817" lon="-1.3428">
        <ele>12</ele>
        <time>2011-10-02T07:47:45Z</time>
      </trkpt>
      <trkpt lat="47.3183" lon="-1.3426">
        <ele>11</ele>
        <time>2011-10-02T07:47:48Z</time>
      </trkpt>
      <trkpt lat="47.31842" lon="-1.34239">
        <ele>13</ele>
        <time>2011-10-02T07:47:51Z</time>
      </trkpt>
      <trkpt lat="47.31854" lon="-1.34218">
        <ele>15</ele>
        <time>2011-10-02T07:47:54Z</time>
      </trkpt>
      <trkpt lat="47.31863" lon="-1.34205">
        <ele>15</ele>
        <time>2011-10-02T07:47:56Z</time>
      </trkpt>
      <trkpt lat="47.31876" lon="-1.34186">
        <ele>15</ele>
        <time>2011-10-02T07:47:59Z</time>
      </trkpt>
      <trkpt lat="47.31889" lon="-1.34169">
        <ele>16</ele>
        <time>2011-10-02T07:48:02Z</time>
      </trkpt>
      <trkpt lat="47.31902" lon="-1.34153">
        <ele>14</ele>
        <time>2011-10-02T07:48:05Z</time>
      </trkpt>
      <trkpt lat="47.3191" lon="-1.34142">
        <ele>13</ele>
        <time>2011-10-02T07:48:07Z</time>
      </trkpt>
      <trkpt lat="47.3192" lon="-1.34126">
        <ele>20</ele>
        <time>2011-10-02T07:48:10Z</time>
      </trkpt>
      <trkpt lat="47.31927" lon="-1.34114">
        <ele>19</ele>
        <time>2011-10-02T07:48:12Z</time>
      </trkpt>
      <trkpt lat="47.31937" lon="-1.34098">
        <ele>18</ele>
        <time>2011-10-02T07:48:15Z</time>
      </trkpt>
      <trkpt lat="47.31948" lon="-1.3408">
        <ele>13</ele>
        <time>2011-10-02T07:48:18Z</time>
      </trkpt>
      <trkpt lat="47.31955" lon="-1.34068">
        <ele>14</ele>
        <time>2011-10-02T07:48:20Z</time>
      </trkpt>
      <trkpt lat="47.31966" lon="-1.3405">
        <ele>15</ele>
        <time>2011-10-02T07:48:23Z</time>
      </trkpt>
      <trkpt lat="47.31976" lon="-1.34031">
        <ele>14</ele>
        <time>2011-10-02T07:48:26Z</time>
      </trkpt>
      <trkpt lat="47.31988" lon="-1.34013">
        <ele>13</ele>
        <time>2011-10-02T07:48:29Z</time>
      </trkpt>
      <trkpt lat="47.31995" lon="-1.34">
        <ele>13</ele>
        <time>2011-10-02T07:48:31Z</time>
      </trkpt>
      <trkpt lat="47.32007" lon="-1.33982">
        <ele>15</ele>
        <time>2011-10-02T07:48:34Z</time>
      </trkpt>
      <trkpt lat="47.32019" lon="-1.33965">
        <ele>16</ele>
        <time>2011-10-02T07:48:37Z</time>
      </trkpt>
      <trkpt lat="47.32026" lon="-1.33951">
        <ele>16</ele>
        <time>2011-10-02T07:48:39Z</time>
      </trkpt>
      <trkpt lat="47.32039" lon="-1.33929">
        <ele>16</ele>
        <time>2011-10-02T07:48:42Z</time>
      </trkpt>
      <trkpt lat="47.32052" lon="-1.33905">
        <ele>12</ele>
        <time>2011-10-02T07:48:45Z</time>
      </trkpt>
      <trkpt lat="47.32065" lon="-1.3388">
        <ele>11</ele>
        <time>2011-10-02T07:48:48Z</time>
      </trkpt>
      <trkpt lat="47.32078" lon="-1.33856">
        <ele>10</ele>
        <time>2011-10-02T07:48:51Z</time>
      </trkpt>
      <trkpt lat="47.32086" lon="-1.33839">
        <ele>12</ele>
        <time>2011-10-02T07:48:53Z</time>
      </trkpt>
      <trkpt lat="47.32097" lon="-1.33814">
        <ele>13</ele>
        <time>2011-10-02T07:48:56Z</time>
      </trkpt>
      <trkpt lat="47.3211" lon="-1.33789">
        <ele>14</ele>
        <time>2011-10-02T07:48:59Z</time>
      </trkpt>
      <trkpt lat="47.32122" lon="-1.33764">
        <ele>14</ele>
        <time>2011-10-02T07:49:02Z</time>
      </trkpt>
      <trkpt lat="47.32133" lon="-1.33737">
        <ele>11</ele>
        <time>2011-10-02T07:49:05Z</time>
      </trkpt>
      <trkpt lat="47.32141" lon="-1.3372">
        <ele>11</ele>
        <time>2011-10-02T07:49:07Z</time>
      </trkpt>
      <trkpt lat="47.32152" lon="-1.33693">
        <ele>10</ele>
        <time>2011-10-02T07:49:10Z</time>
      </trkpt>
      <trkpt lat="47.32159" lon="-1.33674">
        <ele>9</ele>
        <time>2011-10-02T07:49:12Z</time>
      </trkpt>
      <trkpt lat="47.32169" lon="-1.33648">
        <ele>12</ele>
        <time>2011-10-02T07:49:15Z</time>
      </trkpt>
      <trkpt lat="47.32178" lon="-1.33626">
        <ele>12</ele>
        <time>2011-10-02T07:49:18Z</time>
      </trkpt>
      <trkpt lat="47.32188" lon="-1.33602">
        <ele>12</ele>
        <time>2011-10-02T07:49:21Z</time>
      </trkpt>
      <trkpt lat="47.32199" lon="-1.33572">
        <ele>10</ele>
        <time>2011-10-02T07:49:24Z</time>
      </trkpt>
      <trkpt lat="47.3221" lon="-1.33543">
        <ele>11</ele>
        <time>2011-10-02T07:49:27Z</time>
      </trkpt>
      <trkpt lat="47.32217" lon="-1.33526">
        <ele>12</ele>
        <time>2011-10-02T07:49:29Z</time>
      </trkpt>
      <trkpt lat="47.32229" lon="-1.33501">
        <ele>13</ele>
        <time>2011-10-02T07:49:32Z</time>
      </trkpt>
      <trkpt lat="47.32241" lon="-1.33475">
        <ele>12</ele>
        <time>2011-10-02T07:49:35Z</time>
      </trkpt>
      <trkpt lat="47.32253" lon="-1.3345">
        <ele>22</ele>
        <time>2011-10-02T07:49:38Z</time>
      </trkpt>
      <trkpt lat="47.32261" lon="-1.33433">
        <ele>20</ele>
        <time>2011-10-02T07:49:40Z</time>
      </trkpt>
      <trkpt lat="47.32274" lon="-1.33409">
        <ele>16</ele>
        <time>2011-10-02T07:49:43Z</time>
      </trkpt>
      <trkpt lat="47.32282" lon="-1.33394">
        <ele>17</ele>
        <time>2011-10-02T07:49:45Z</time>
      </trkpt>
      <trkpt lat="47.32293" lon="-1.3337">
        <ele>17</ele>
        <time>2011-10-02T07:49:48Z</time>
      </trkpt>
      <trkpt lat="47.32304" lon="-1.33345">
        <ele>17</ele>
        <time>2011-10-02T07:49:51Z</time>
      </trkpt>
      <trkpt lat="47.32315" lon="-1.33321">
        <ele>12</ele>
        <time>2011-10-02T07:49:54Z</time>
      </trkpt>
      <trkpt lat="47.32325" lon="-1.33295">
        <ele>10</ele>
        <time>2011-10-02T07:49:57Z</time>
      </trkpt>
      <trkpt lat="47.32336" lon="-1.33269">
        <ele>19</ele>
        <time>2011-10-02T07:50:00Z</time>
      </trkpt>
      <trkpt lat="47.32347" lon="-1.33244">
        <ele>12</ele>
        <time>2011-10-02T07:50:03Z</time>
      </trkpt>
      <trkpt lat="47.32354" lon="-1.33227">
        <ele>14</ele>
        <time>2011-10-02T07:50:05Z</time>
      </trkpt>
      <trkpt lat="47.32366" lon="-1.33204">
        <ele>14</ele>
        <time>2011-10-02T07:50:08Z</time>
      </trkpt>
      <trkpt lat="47.32378" lon="-1.33183">
        <ele>15</ele>
        <time>2011-10-02T07:50:11Z</time>
      </trkpt>
      <trkpt lat="47.32391" lon="-1.33163">
        <ele>10</ele>
        <time>2011-10-02T07:50:14Z</time>
      </trkpt>
      <trkpt lat="47.32405" lon="-1.33144">
        <ele>10</ele>
        <time>2011-10-02T07:50:17Z</time>
      </trkpt>
      <trkpt lat="47.3242" lon="-1.33132">
        <ele>16</ele>
        <time>2011-10-02T07:50:20Z</time>
      </trkpt>
      <trkpt lat="47.32435" lon="-1.33131">
        <ele>17</ele>
        <time>2011-10-02T07:50:23Z</time>
      </trkpt>
      <trkpt lat="47.32449" lon="-1.33116">
        <ele>16</ele>
        <time>2011-10-02T07:50:26Z</time>
      </trkpt>
      <trkpt lat="47.32466" lon="-1.33094">
        <ele>16</ele>
        <time>2011-10-02T07:50:29Z</time>
      </trkpt>
      <trkpt lat="47.32483" lon="-1.33077">
        <ele>10</ele>
        <time>2011-10-02T07:50:32Z</time>
      </trkpt>
      <trkpt lat="47.32499" lon="-1.33061">
        <ele>9</ele>
        <time>2011-10-02T07:50:35Z</time>
      </trkpt>
      <trkpt lat="47.32509" lon="-1.3305">
        <ele>12</ele>
        <time>2011-10-02T07:50:37Z</time>
      </trkpt>
      <trkpt lat="47.32519" lon="-1.33039">
        <ele>11</ele>
        <time>2011-10-02T07:50:39Z</time>
      </trkpt>
      <trkpt lat="47.32536" lon="-1.33026">
        <ele>11</ele>
        <time>2011-10-02T07:50:42Z</time>
      </trkpt>
      <trkpt lat="47.32547" lon="-1.33017">
        <ele>11</ele>
        <time>2011-10-02T07:50:44Z</time>
      </trkpt>
      <trkpt lat="47.32562" lon="-1.33001">
        <ele>10</ele>
        <time>2011-10-02T07:50:47Z</time>
      </trkpt>
      <trkpt lat="47.32571" lon="-1.32991">
        <ele>6</ele>
        <time>2011-10-02T07:50:49Z</time>
      </trkpt>
      <trkpt lat="47.32584" lon="-1.32972">
        <ele>8</ele>
        <time>2011-10-02T07:50:52Z</time>
      </trkpt>
      <trkpt lat="47.32591" lon="-1.32957">
        <ele>7</ele>
        <time>2011-10-02T07:50:54Z</time>
      </trkpt>
      <trkpt lat="47.32599" lon="-1.32946">
        <ele>7</ele>
        <time>2011-10-02T07:50:56Z</time>
      </trkpt>
      <trkpt lat="47.3261" lon="-1.32951">
        <ele>8</ele>
        <time>2011-10-02T07:50:59Z</time>
      </trkpt>
      <trkpt lat="47.32616" lon="-1.32958">
        <ele>8</ele>
        <time>2011-10-02T07:51:01Z</time>
      </trkpt>
      <trkpt lat="47.32625" lon="-1.32972">
        <ele>9</ele>
        <time>2011-10-02T07:51:04Z</time>
      </trkpt>
      <trkpt lat="47.32634" lon="-1.32984">
        <ele>9</ele>
        <time>2011-10-02T07:51:07Z</time>
      </trkpt>
      <trkpt lat="47.3264" lon="-1.32992">
        <ele>10</ele>
        <time>2011-10-02T07:51:09Z</time>
      </trkpt>
      <trkpt lat="47.32651" lon="-1.33003">
        <ele>14</ele>
        <time>2011-10-02T07:51:12Z</time>
      </trkpt>
      <trkpt lat="47.32658" lon="-1.3301">
        <ele>14</ele>
        <time>2011-10-02T07:51:14Z</time>
      </trkpt>
      <trkpt lat="47.32669" lon="-1.33019">
        <ele>16</ele>
        <time>2011-10-02T07:51:17Z</time>
      </trkpt>
      <trkpt lat="47.32676" lon="-1.33025">
        <ele>17</ele>
        <time>2011-10-02T07:51:19Z</time>
      </trkpt>
      <trkpt lat="47.32684" lon="-1.33031">
        <ele>18</ele>
        <time>2011-10-02T07:51:21Z</time>
      </trkpt>
      <trkpt lat="47.32695" lon="-1.33039">
        <ele>19</ele>
        <time>2011-10-02T07:51:24Z</time>
      </trkpt>
      <trkpt lat="47.32702" lon="-1.33043">
        <ele>19</ele>
        <time>2011-10-02T07:51:26Z</time>
      </trkpt>
      <trkpt lat="47.32712" lon="-1.3305">
        <ele>19</ele>
        <time>2011-10-02T07:51:29Z</time>
      </trkpt>
      <trkpt lat="47.32719" lon="-1.33053">
        <ele>19</ele>
        <time>2011-10-02T07:51:31Z</time>
      </trkpt>
      <trkpt lat="47.3273" lon="-1.33059">
        <ele>19</ele>
        <time>2011-10-02T07:51:34Z</time>
      </trkpt>
      <trkpt lat="47.32737" lon="-1.33063">
        <ele>19</ele>
        <time>2011-10-02T07:51:36Z</time>
      </trkpt>
      <trkpt lat="47.32743" lon="-1.33071">
        <ele>19</ele>
        <time>2011-10-02T07:51:38Z</time>
      </trkpt>
      <trkpt lat="47.32753" lon="-1.33079">
        <ele>20</ele>
        <time>2011-10-02T07:51:41Z</time>
      </trkpt>
      <trkpt lat="47.32762" lon="-1.33085">
        <ele>21</ele>
        <time>2011-10-02T07:51:44Z</time>
      </trkpt>
      <trkpt lat="47.32769" lon="-1.33089">
        <ele>22</ele>
        <time>2011-10-02T07:51:46Z</time>
      </trkpt>
      <trkpt lat="47.32779" lon="-1.33098">
        <ele>24</ele>
        <time>2011-10-02T07:51:49Z</time>
      </trkpt>
      <trkpt lat="47.32786" lon="-1.33104">
        <ele>25</ele>
        <time>2011-10-02T07:51:51Z</time>
      </trkpt>
      <trkpt lat="47.32797" lon="-1.33116">
        <ele>26</ele>
        <time>2011-10-02T07:51:54Z</time>
      </trkpt>
      <trkpt lat="47.32809" lon="-1.33129">
        <ele>26</ele>
        <time>2011-10-02T07:51:57Z</time>
      </trkpt>
      <trkpt lat="47.3282" lon="-1.33142">
        <ele>27</ele>
        <time>2011-10-02T07:52:00Z</time>
      </trkpt>
      <trkpt lat="47.32832" lon="-1.3315">
        <ele>27</ele>
        <time>2011-10-02T07:52:03Z</time>
      </trkpt>
      <trkpt lat="47.32844" lon="-1.33157">
        <ele>33</ele>
        <time>2011-10-02T07:52:06Z</time>
      </trkpt>
      <trkpt lat="47.32854" lon="-1.33165">
        <ele>35</ele>
        <time>2011-10-02T07:52:09Z</time>
      </trkpt>
      <trkpt lat="47.32859" lon="-1.33171">
        <ele>33</ele>
        <time>2011-10-02T07:52:11Z</time>
      </trkpt>
      <trkpt lat="47.32868" lon="-1.33176">
        <ele>35</ele>
        <time>2011-10-02T07:52:14Z</time>
      </trkpt>
      <trkpt lat="47.32874" lon="-1.33183">
        <ele>35</ele>
        <time>2011-10-02T07:52:17Z</time>
      </trkpt>
      <trkpt lat="47.32874" lon="-1.33183">
        <ele>35</ele>
        <time>2011-10-02T07:52:20Z</time>
      </trkpt>
      <trkpt lat="47.32901" lon="-1.33207">
        <ele>36</ele>
        <time>2011-10-02T07:52:30Z</time>
      </trkpt>
      <trkpt lat="47.32901" lon="-1.33207">
        <ele>36</ele>
        <time>2011-10-02T07:52:33Z</time>
      </trkpt>
      <trkpt lat="47.32931" lon="-1.33236">
        <ele>40</ele>
        <time>2011-10-02T07:52:42Z</time>
      </trkpt>
      <trkpt lat="47.32938" lon="-1.33247">
        <ele>41</ele>
        <time>2011-10-02T07:52:46Z</time>
      </trkpt>
      <trkpt lat="47.32938" lon="-1.33247">
        <ele>41</ele>
        <time>2011-10-02T07:53:17Z</time>
      </trkpt>
      <trkpt lat="47.32927" lon="-1.332">
        <ele>44</ele>
        <time>2011-10-02T07:53:45Z</time>
      </trkpt>
      <trkpt lat="47.32928" lon="-1.33188">
        <ele>45</ele>
        <time>2011-10-02T07:53:58Z</time>
      </trkpt>
      <trkpt lat="47.32923" lon="-1.33173">
        <ele>45</ele>
        <time>2011-10-02T07:54:05Z</time>
      </trkpt>
      <trkpt lat="47.32921" lon="-1.33165">
        <ele>47</ele>
        <time>2011-10-02T07:54:09Z</time>
      </trkpt>
      <trkpt lat="47.32919" lon="-1.33159">
        <ele>48</ele>
        <time>2011-10-02T07:54:12Z</time>
      </trkpt>
      <trkpt lat="47.32915" lon="-1.33149">
        <ele>43</ele>
        <time>2011-10-02T07:54:18Z</time>
      </trkpt>
      <trkpt lat="47.32912" lon="-1.33143">
        <ele>43</ele>
        <time>2011-10-02T07:54:23Z</time>
      </trkpt>
      <trkpt lat="47.32909" lon="-1.33127">
        <ele>43</ele>
        <time>2011-10-02T07:54:35Z</time>
      </trkpt>
      <trkpt lat="47.32912" lon="-1.33121">
        <ele>44</ele>
        <time>2011-10-02T07:54:44Z</time>
      </trkpt>
      <trkpt lat="47.32915" lon="-1.33116">
        <ele>44</ele>
        <time>2011-10-02T07:54:52Z</time>
      </trkpt>
      <trkpt lat="47.32915" lon="-1.33116">
        <ele>44</ele>
        <time>2011-10-02T07:54:59Z</time>
      </trkpt>
      <trkpt lat="47.32932" lon="-1.3308">
        <ele>57</ele>
        <time>2011-10-02T07:55:30Z</time>
      </trkpt>
      <trkpt lat="47.32935" lon="-1.33071">
        <ele>58</ele>
        <time>2011-10-02T07:55:33Z</time>
      </trkpt>
      <trkpt lat="47.32938" lon="-1.33059">
        <ele>58</ele>
        <time>2011-10-02T07:55:37Z</time>
      </trkpt>
      <trkpt lat="47.3294" lon="-1.33053">
        <ele>59</ele>
        <time>2011-10-02T07:55:39Z</time>
      </trkpt>
      <trkpt lat="47.32943" lon="-1.33045">
        <ele>59</ele>
        <time>2011-10-02T07:55:42Z</time>
      </trkpt>
      <trkpt lat="47.32946" lon="-1.33035">
        <ele>60</ele>
        <time>2011-10-02T07:55:45Z</time>
      </trkpt>
      <trkpt lat="47.3295" lon="-1.33025">
        <ele>60</ele>
        <time>2011-10-02T07:55:48Z</time>
      </trkpt>
      <trkpt lat="47.32954" lon="-1.33014">
        <ele>60</ele>
        <time>2011-10-02T07:55:51Z</time>
      </trkpt>
      <trkpt lat="47.32958" lon="-1.33003">
        <ele>61</ele>
        <time>2011-10-02T07:55:54Z</time>
      </trkpt>
      <trkpt lat="47.32962" lon="-1.32993">
        <ele>62</ele>
        <time>2011-10-02T07:55:57Z</time>
      </trkpt>
      <trkpt lat="47.32966" lon="-1.32986">
        <ele>63</ele>
        <time>2011-10-02T07:55:59Z</time>
      </trkpt>
      <trkpt lat="47.32971" lon="-1.32975">
        <ele>63</ele>
        <time>2011-10-02T07:56:02Z</time>
      </trkpt>
      <trkpt lat="47.32977" lon="-1.32964">
        <ele>63</ele>
        <time>2011-10-02T07:56:05Z</time>
      </trkpt>
      <trkpt lat="47.32982" lon="-1.32952">
        <ele>63</ele>
        <time>2011-10-02T07:56:08Z</time>
      </trkpt>
      <trkpt lat="47.32987" lon="-1.3294">
        <ele>63</ele>
        <time>2011-10-02T07:56:11Z</time>
      </trkpt>
      <trkpt lat="47.32993" lon="-1.32929">
        <ele>63</ele>
        <time>2011-10-02T07:56:14Z</time>
      </trkpt>
      <trkpt lat="47.32998" lon="-1.32927">
        <ele>64</ele>
        <time>2011-10-02T07:56:16Z</time>
      </trkpt>
      <trkpt lat="47.33003" lon="-1.32929">
        <ele>64</ele>
        <time>2011-10-02T07:56:18Z</time>
      </trkpt>
      <trkpt lat="47.3301" lon="-1.32941">
        <ele>64</ele>
        <time>2011-10-02T07:56:21Z</time>
      </trkpt>
      <trkpt lat="47.33018" lon="-1.32954">
        <ele>65</ele>
        <time>2011-10-02T07:56:24Z</time>
      </trkpt>
      <trkpt lat="47.33026" lon="-1.32969">
        <ele>65</ele>
        <time>2011-10-02T07:56:27Z</time>
      </trkpt>
      <trkpt lat="47.33038" lon="-1.32984">
        <ele>65</ele>
        <time>2011-10-02T07:56:30Z</time>
      </trkpt>
      <trkpt lat="47.3305" lon="-1.32996">
        <ele>65</ele>
        <time>2011-10-02T07:56:33Z</time>
      </trkpt>
      <trkpt lat="47.33058" lon="-1.33004">
        <ele>65</ele>
        <time>2011-10-02T07:56:35Z</time>
      </trkpt>
      <trkpt lat="47.33071" lon="-1.33012">
        <ele>65</ele>
        <time>2011-10-02T07:56:38Z</time>
      </trkpt>
      <trkpt lat="47.3308" lon="-1.33018">
        <ele>65</ele>
        <time>2011-10-02T07:56:40Z</time>
      </trkpt>
      <trkpt lat="47.33088" lon="-1.33023">
        <ele>66</ele>
        <time>2011-10-02T07:56:42Z</time>
      </trkpt>
      <trkpt lat="47.33099" lon="-1.3303">
        <ele>66</ele>
        <time>2011-10-02T07:56:45Z</time>
      </trkpt>
      <trkpt lat="47.33107" lon="-1.33035">
        <ele>66</ele>
        <time>2011-10-02T07:56:47Z</time>
      </trkpt>
      <trkpt lat="47.33119" lon="-1.33036">
        <ele>66</ele>
        <time>2011-10-02T07:56:50Z</time>
      </trkpt>
      <trkpt lat="47.33131" lon="-1.33028">
        <ele>66</ele>
        <time>2011-10-02T07:56:53Z</time>
      </trkpt>
      <trkpt lat="47.33143" lon="-1.33014">
        <ele>66</ele>
        <time>2011-10-02T07:56:56Z</time>
      </trkpt>
      <trkpt lat="47.33156" lon="-1.32999">
        <ele>66</ele>
        <time>2011-10-02T07:56:59Z</time>
      </trkpt>
      <trkpt lat="47.33169" lon="-1.32984">
        <ele>66</ele>
        <time>2011-10-02T07:57:02Z</time>
      </trkpt>
      <trkpt lat="47.33182" lon="-1.32968">
        <ele>66</ele>
        <time>2011-10-02T07:57:05Z</time>
      </trkpt>
      <trkpt lat="47.33194" lon="-1.32951">
        <ele>65</ele>
        <time>2011-10-02T07:57:08Z</time>
      </trkpt>
      <trkpt lat="47.33204" lon="-1.32947">
        <ele>65</ele>
        <time>2011-10-02T07:57:10Z</time>
      </trkpt>
      <trkpt lat="47.33217" lon="-1.32959">
        <ele>65</ele>
        <time>2011-10-02T07:57:13Z</time>
      </trkpt>
      <trkpt lat="47.33228" lon="-1.32976">
        <ele>65</ele>
        <time>2011-10-02T07:57:16Z</time>
      </trkpt>
      <trkpt lat="47.33239" lon="-1.32993">
        <ele>66</ele>
        <time>2011-10-02T07:57:19Z</time>
      </trkpt>
      <trkpt lat="47.33247" lon="-1.33003">
        <ele>66</ele>
        <time>2011-10-02T07:57:21Z</time>
      </trkpt>
      <trkpt lat="47.33257" lon="-1.33019">
        <ele>66</ele>
        <time>2011-10-02T07:57:24Z</time>
      </trkpt>
      <trkpt lat="47.33264" lon="-1.33029">
        <ele>66</ele>
        <time>2011-10-02T07:57:26Z</time>
      </trkpt>
      <trkpt lat="47.33273" lon="-1.33047">
        <ele>66</ele>
        <time>2011-10-02T07:57:29Z</time>
      </trkpt>
      <trkpt lat="47.33282" lon="-1.33065">
        <ele>67</ele>
        <time>2011-10-02T07:57:32Z</time>
      </trkpt>
      <trkpt lat="47.33289" lon="-1.33078">
        <ele>67</ele>
        <time>2011-10-02T07:57:34Z</time>
      </trkpt>
      <trkpt lat="47.33297" lon="-1.33099">
        <ele>67</ele>
        <time>2011-10-02T07:57:37Z</time>
      </trkpt>
      <trkpt lat="47.33303" lon="-1.33113">
        <ele>67</ele>
        <time>2011-10-02T07:57:39Z</time>
      </trkpt>
      <trkpt lat="47.3331" lon="-1.33128">
        <ele>67</ele>
        <time>2011-10-02T07:57:41Z</time>
      </trkpt>
      <trkpt lat="47.33319" lon="-1.33148">
        <ele>67</ele>
        <time>2011-10-02T07:57:44Z</time>
      </trkpt>
      <trkpt lat="47.33329" lon="-1.33169">
        <ele>67</ele>
        <time>2011-10-02T07:57:47Z</time>
      </trkpt>
      <trkpt lat="47.33341" lon="-1.33189">
        <ele>67</ele>
        <time>2011-10-02T07:57:50Z</time>
      </trkpt>
      <trkpt lat="47.33355" lon="-1.3321">
        <ele>67</ele>
        <time>2011-10-02T07:57:53Z</time>
      </trkpt>
      <trkpt lat="47.33367" lon="-1.3323">
        <ele>67</ele>
        <time>2011-10-02T07:57:56Z</time>
      </trkpt>
      <trkpt lat="47.33383" lon="-1.3325">
        <ele>67</ele>
        <time>2011-10-02T07:57:59Z</time>
      </trkpt>
      <trkpt lat="47.33395" lon="-1.33273">
        <ele>68</ele>
        <time>2011-10-02T07:58:02Z</time>
      </trkpt>
      <trkpt lat="47.33408" lon="-1.33295">
        <ele>68</ele>
        <time>2011-10-02T07:58:05Z</time>
      </trkpt>
      <trkpt lat="47.33421" lon="-1.33316">
        <ele>69</ele>
        <time>2011-10-02T07:58:08Z</time>
      </trkpt>
      <trkpt lat="47.33434" lon="-1.33337">
        <ele>69</ele>
        <time>2011-10-02T07:58:11Z</time>
      </trkpt>
      <trkpt lat="47.33448" lon="-1.33358">
        <ele>69</ele>
        <time>2011-10-02T07:58:14Z</time>
      </trkpt>
      <trkpt lat="47.33462" lon="-1.3338">
        <ele>69</ele>
        <time>2011-10-02T07:58:17Z</time>
      </trkpt>
      <trkpt lat="47.33471" lon="-1.33395">
        <ele>69</ele>
        <time>2011-10-02T07:58:19Z</time>
      </trkpt>
      <trkpt lat="47.33479" lon="-1.33409">
        <ele>69</ele>
        <time>2011-10-02T07:58:21Z</time>
      </trkpt>
      <trkpt lat="47.33491" lon="-1.33433">
        <ele>69</ele>
        <time>2011-10-02T07:58:24Z</time>
      </trkpt>
      <trkpt lat="47.33501" lon="-1.33458">
        <ele>70</ele>
        <time>2011-10-02T07:58:27Z</time>
      </trkpt>
      <trkpt lat="47.33509" lon="-1.33473">
        <ele>70</ele>
        <time>2011-10-02T07:58:29Z</time>
      </trkpt>
      <trkpt lat="47.33521" lon="-1.33498">
        <ele>70</ele>
        <time>2011-10-02T07:58:32Z</time>
      </trkpt>
      <trkpt lat="47.33532" lon="-1.33522">
        <ele>70</ele>
        <time>2011-10-02T07:58:35Z</time>
      </trkpt>
      <trkpt lat="47.33541" lon="-1.33538">
        <ele>70</ele>
        <time>2011-10-02T07:58:37Z</time>
      </trkpt>
      <trkpt lat="47.3355" lon="-1.33552">
        <ele>71</ele>
        <time>2011-10-02T07:58:39Z</time>
      </trkpt>
      <trkpt lat="47.33564" lon="-1.33574">
        <ele>71</ele>
        <time>2011-10-02T07:58:42Z</time>
      </trkpt>
      <trkpt lat="47.33576" lon="-1.33595">
        <ele>72</ele>
        <time>2011-10-02T07:58:45Z</time>
      </trkpt>
      <trkpt lat="47.33587" lon="-1.33616">
        <ele>73</ele>
        <time>2011-10-02T07:58:48Z</time>
      </trkpt>
      <trkpt lat="47.33598" lon="-1.33637">
        <ele>73</ele>
        <time>2011-10-02T07:58:51Z</time>
      </trkpt>
      <trkpt lat="47.33605" lon="-1.33661">
        <ele>73</ele>
        <time>2011-10-02T07:58:54Z</time>
      </trkpt>
      <trkpt lat="47.33611" lon="-1.33684">
        <ele>73</ele>
        <time>2011-10-02T07:58:57Z</time>
      </trkpt>
      <trkpt lat="47.33623" lon="-1.33693">
        <ele>73</ele>
        <time>2011-10-02T07:59:00Z</time>
      </trkpt>
      <trkpt lat="47.33632" lon="-1.3368">
        <ele>74</ele>
        <time>2011-10-02T07:59:03Z</time>
      </trkpt>
      <trkpt lat="47.33639" lon="-1.33659">
        <ele>73</ele>
        <time>2011-10-02T07:59:06Z</time>
      </trkpt>
      <trkpt lat="47.33648" lon="-1.33637">
        <ele>73</ele>
        <time>2011-10-02T07:59:09Z</time>
      </trkpt>
      <trkpt lat="47.33659" lon="-1.33614">
        <ele>73</ele>
        <time>2011-10-02T07:59:12Z</time>
      </trkpt>
      <trkpt lat="47.3367" lon="-1.33593">
        <ele>72</ele>
        <time>2011-10-02T07:59:15Z</time>
      </trkpt>
      <trkpt lat="47.33684" lon="-1.33573">
        <ele>71</ele>
        <time>2011-10-02T07:59:18Z</time>
      </trkpt>
      <trkpt lat="47.33699" lon="-1.33557">
        <ele>70</ele>
        <time>2011-10-02T07:59:21Z</time>
      </trkpt>
      <trkpt lat="47.33717" lon="-1.33543">
        <ele>70</ele>
        <time>2011-10-02T07:59:24Z</time>
      </trkpt>
      <trkpt lat="47.33736" lon="-1.33527">
        <ele>69</ele>
        <time>2011-10-02T07:59:27Z</time>
      </trkpt>
      <trkpt lat="47.3375" lon="-1.33515">
        <ele>69</ele>
        <time>2011-10-02T07:59:29Z</time>
      </trkpt>
      <trkpt lat="47.33766" lon="-1.33488">
        <ele>67</ele>
        <time>2011-10-02T07:59:32Z</time>
      </trkpt>
      <trkpt lat="47.33782" lon="-1.33455">
        <ele>66</ele>
        <time>2011-10-02T07:59:35Z</time>
      </trkpt>
      <trkpt lat="47.33799" lon="-1.33418">
        <ele>65</ele>
        <time>2011-10-02T07:59:38Z</time>
      </trkpt>
      <trkpt lat="47.33814" lon="-1.33382">
        <ele>63</ele>
        <time>2011-10-02T07:59:41Z</time>
      </trkpt>
      <trkpt lat="47.33827" lon="-1.33346">
        <ele>63</ele>
        <time>2011-10-02T07:59:44Z</time>
      </trkpt>
      <trkpt lat="47.33835" lon="-1.33319">
        <ele>61</ele>
        <time>2011-10-02T07:59:47Z</time>
      </trkpt>
      <trkpt lat="47.33838" lon="-1.33308">
        <ele>60</ele>
        <time>2011-10-02T07:59:49Z</time>
      </trkpt>
      <trkpt lat="47.33842" lon="-1.33294">
        <ele>59</ele>
        <time>2011-10-02T07:59:52Z</time>
      </trkpt>
      <trkpt lat="47.33846" lon="-1.33283">
        <ele>58</ele>
        <time>2011-10-02T07:59:54Z</time>
      </trkpt>
      <trkpt lat="47.33854" lon="-1.33257">
        <ele>57</ele>
        <time>2011-10-02T07:59:57Z</time>
      </trkpt>
      <trkpt lat="47.33865" lon="-1.33227">
        <ele>52</ele>
        <time>2011-10-02T08:00:00Z</time>
      </trkpt>
      <trkpt lat="47.33877" lon="-1.33194">
        <ele>50</ele>
        <time>2011-10-02T08:00:03Z</time>
      </trkpt>
      <trkpt lat="47.33888" lon="-1.3316">
        <ele>44</ele>
        <time>2011-10-02T08:00:06Z</time>
      </trkpt>
      <trkpt lat="47.33901" lon="-1.33124">
        <ele>42</ele>
        <time>2011-10-02T08:00:09Z</time>
      </trkpt>
      <trkpt lat="47.33911" lon="-1.33089">
        <ele>39</ele>
        <time>2011-10-02T08:00:12Z</time>
      </trkpt>
      <trkpt lat="47.33916" lon="-1.33066">
        <ele>36</ele>
        <time>2011-10-02T08:00:14Z</time>
      </trkpt>
      <trkpt lat="47.3392" lon="-1.33044">
        <ele>36</ele>
        <time>2011-10-02T08:00:17Z</time>
      </trkpt>
      <trkpt lat="47.33922" lon="-1.33033">
        <ele>36</ele>
        <time>2011-10-02T08:00:20Z</time>
      </trkpt>
      <trkpt lat="47.33928" lon="-1.33021">
        <ele>35</ele>
        <time>2011-10-02T08:00:23Z</time>
      </trkpt>
      <trkpt lat="47.33928" lon="-1.33021">
        <ele>35</ele>
        <time>2011-10-02T08:00:25Z</time>
      </trkpt>
      <trkpt lat="47.33913" lon="-1.3299">
        <ele>33</ele>
        <time>2011-10-02T08:00:43Z</time>
      </trkpt>
      <trkpt lat="47.33906" lon="-1.32989">
        <ele>33</ele>
        <time>2011-10-02T08:00:45Z</time>
      </trkpt>
      <trkpt lat="47.33893" lon="-1.32987">
        <ele>34</ele>
        <time>2011-10-02T08:00:48Z</time>
      </trkpt>
      <trkpt lat="47.33881" lon="-1.32974">
        <ele>35</ele>
        <time>2011-10-02T08:00:51Z</time>
      </trkpt>
      <trkpt lat="47.33872" lon="-1.32966">
        <ele>35</ele>
        <time>2011-10-02T08:00:54Z</time>
      </trkpt>
      <trkpt lat="47.33863" lon="-1.32959">
        <ele>35</ele>
        <time>2011-10-02T08:00:57Z</time>
      </trkpt>
      <trkpt lat="47.33856" lon="-1.32955">
        <ele>35</ele>
        <time>2011-10-02T08:00:59Z</time>
      </trkpt>
      <trkpt lat="47.33847" lon="-1.32954">
        <ele>35</ele>
        <time>2011-10-02T08:01:01Z</time>
      </trkpt>
      <trkpt lat="47.33839" lon="-1.32952">
        <ele>35</ele>
        <time>2011-10-02T08:01:03Z</time>
      </trkpt>
      <trkpt lat="47.33825" lon="-1.32946">
        <ele>35</ele>
        <time>2011-10-02T08:01:06Z</time>
      </trkpt>
      <trkpt lat="47.33815" lon="-1.3294">
        <ele>35</ele>
        <time>2011-10-02T08:01:08Z</time>
      </trkpt>
      <trkpt lat="47.33801" lon="-1.3293">
        <ele>34</ele>
        <time>2011-10-02T08:01:11Z</time>
      </trkpt>
      <trkpt lat="47.33785" lon="-1.32912">
        <ele>37</ele>
        <time>2011-10-02T08:01:14Z</time>
      </trkpt>
      <trkpt lat="47.33768" lon="-1.32897">
        <ele>36</ele>
        <time>2011-10-02T08:01:17Z</time>
      </trkpt>
      <trkpt lat="47.33751" lon="-1.32882">
        <ele>37</ele>
        <time>2011-10-02T08:01:20Z</time>
      </trkpt>
      <trkpt lat="47.33734" lon="-1.32866">
        <ele>34</ele>
        <time>2011-10-02T08:01:23Z</time>
      </trkpt>
      <trkpt lat="47.33716" lon="-1.32846">
        <ele>34</ele>
        <time>2011-10-02T08:01:26Z</time>
      </trkpt>
      <trkpt lat="47.33698" lon="-1.32821">
        <ele>36</ele>
        <time>2011-10-02T08:01:29Z</time>
      </trkpt>
      <trkpt lat="47.33678" lon="-1.32801">
        <ele>36</ele>
        <time>2011-10-02T08:01:32Z</time>
      </trkpt>
      <trkpt lat="47.33657" lon="-1.32784">
        <ele>31</ele>
        <time>2011-10-02T08:01:35Z</time>
      </trkpt>
      <trkpt lat="47.33643" lon="-1.32773">
        <ele>31</ele>
        <time>2011-10-02T08:01:37Z</time>
      </trkpt>
      <trkpt lat="47.3363" lon="-1.32762">
        <ele>30</ele>
        <time>2011-10-02T08:01:39Z</time>
      </trkpt>
      <trkpt lat="47.3361" lon="-1.32746">
        <ele>33</ele>
        <time>2011-10-02T08:01:42Z</time>
      </trkpt>
      <trkpt lat="47.33592" lon="-1.32729">
        <ele>32</ele>
        <time>2011-10-02T08:01:45Z</time>
      </trkpt>
      <trkpt lat="47.33573" lon="-1.32711">
        <ele>28</ele>
        <time>2011-10-02T08:01:48Z</time>
      </trkpt>
      <trkpt lat="47.33555" lon="-1.32693">
        <ele>28</ele>
        <time>2011-10-02T08:01:51Z</time>
      </trkpt>
      <trkpt lat="47.33544" lon="-1.32679">
        <ele>28</ele>
        <time>2011-10-02T08:01:53Z</time>
      </trkpt>
      <trkpt lat="47.33527" lon="-1.3266">
        <ele>29</ele>
        <time>2011-10-02T08:01:56Z</time>
      </trkpt>
      <trkpt lat="47.3351" lon="-1.32641">
        <ele>29</ele>
        <time>2011-10-02T08:01:59Z</time>
      </trkpt>
      <trkpt lat="47.33499" lon="-1.32627">
        <ele>24</ele>
        <time>2011-10-02T08:02:01Z</time>
      </trkpt>
      <trkpt lat="47.33483" lon="-1.32605">
        <ele>25</ele>
        <time>2011-10-02T08:02:04Z</time>
      </trkpt>
      <trkpt lat="47.33472" lon="-1.32592">
        <ele>25</ele>
        <time>2011-10-02T08:02:06Z</time>
      </trkpt>
      <trkpt lat="47.33453" lon="-1.32581">
        <ele>25</ele>
        <time>2011-10-02T08:02:09Z</time>
      </trkpt>
      <trkpt lat="47.33442" lon="-1.32578">
        <ele>24</ele>
        <time>2011-10-02T08:02:12Z</time>
      </trkpt>
      <trkpt lat="47.33436" lon="-1.32576">
        <ele>23</ele>
        <time>2011-10-02T08:02:14Z</time>
      </trkpt>
      <trkpt lat="47.33414" lon="-1.32582">
        <ele>20</ele>
        <time>2011-10-02T08:02:23Z</time>
      </trkpt>
      <trkpt lat="47.33406" lon="-1.32587">
        <ele>23</ele>
        <time>2011-10-02T08:02:25Z</time>
      </trkpt>
      <trkpt lat="47.33398" lon="-1.32591">
        <ele>26</ele>
        <time>2011-10-02T08:02:27Z</time>
      </trkpt>
      <trkpt lat="47.33387" lon="-1.32594">
        <ele>28</ele>
        <time>2011-10-02T08:02:30Z</time>
      </trkpt>
      <trkpt lat="47.33381" lon="-1.32594">
        <ele>29</ele>
        <time>2011-10-02T08:02:32Z</time>
      </trkpt>
      <trkpt lat="47.33358" lon="-1.32571">
        <ele>27</ele>
        <time>2011-10-02T08:02:42Z</time>
      </trkpt>
      <trkpt lat="47.33358" lon="-1.32571">
        <ele>27</ele>
        <time>2011-10-02T08:02:45Z</time>
      </trkpt>
      <trkpt lat="47.33338" lon="-1.32544">
        <ele>26</ele>
        <time>2011-10-02T08:02:51Z</time>
      </trkpt>
      <trkpt lat="47.33331" lon="-1.32538">
        <ele>30</ele>
        <time>2011-10-02T08:02:53Z</time>
      </trkpt>
      <trkpt lat="47.33317" lon="-1.32526">
        <ele>29</ele>
        <time>2011-10-02T08:02:56Z</time>
      </trkpt>
      <trkpt lat="47.33306" lon="-1.32515">
        <ele>29</ele>
        <time>2011-10-02T08:02:58Z</time>
      </trkpt>
      <trkpt lat="47.33292" lon="-1.325">
        <ele>25</ele>
        <time>2011-10-02T08:03:00Z</time>
      </trkpt>
      <trkpt lat="47.33278" lon="-1.32483">
        <ele>26</ele>
        <time>2011-10-02T08:03:02Z</time>
      </trkpt>
      <trkpt lat="47.33256" lon="-1.32456">
        <ele>24</ele>
        <time>2011-10-02T08:03:05Z</time>
      </trkpt>
      <trkpt lat="47.33242" lon="-1.32438">
        <ele>27</ele>
        <time>2011-10-02T08:03:07Z</time>
      </trkpt>
      <trkpt lat="47.33227" lon="-1.32422">
        <ele>28</ele>
        <time>2011-10-02T08:03:09Z</time>
      </trkpt>
      <trkpt lat="47.33206" lon="-1.324">
        <ele>26</ele>
        <time>2011-10-02T08:03:12Z</time>
      </trkpt>
      <trkpt lat="47.33186" lon="-1.32378">
        <ele>26</ele>
        <time>2011-10-02T08:03:15Z</time>
      </trkpt>
      <trkpt lat="47.33168" lon="-1.32358">
        <ele>25</ele>
        <time>2011-10-02T08:03:18Z</time>
      </trkpt>
      <trkpt lat="47.33152" lon="-1.32339">
        <ele>24</ele>
        <time>2011-10-02T08:03:21Z</time>
      </trkpt>
      <trkpt lat="47.33134" lon="-1.32327">
        <ele>19</ele>
        <time>2011-10-02T08:03:24Z</time>
      </trkpt>
      <trkpt lat="47.33117" lon="-1.32314">
        <ele>18</ele>
        <time>2011-10-02T08:03:27Z</time>
      </trkpt>
      <trkpt lat="47.33103" lon="-1.32304">
        <ele>18</ele>
        <time>2011-10-02T08:03:30Z</time>
      </trkpt>
      <trkpt lat="47.33094" lon="-1.32298">
        <ele>17</ele>
        <time>2011-10-02T08:03:32Z</time>
      </trkpt>
      <trkpt lat="47.33081" lon="-1.32288">
        <ele>13</ele>
        <time>2011-10-02T08:03:35Z</time>
      </trkpt>
      <trkpt lat="47.33068" lon="-1.3228">
        <ele>12</ele>
        <time>2011-10-02T08:03:38Z</time>
      </trkpt>
      <trkpt lat="47.3306" lon="-1.32271">
        <ele>12</ele>
        <time>2011-10-02T08:03:40Z</time>
      </trkpt>
      <trkpt lat="47.33047" lon="-1.32255">
        <ele>11</ele>
        <time>2011-10-02T08:03:43Z</time>
      </trkpt>
      <trkpt lat="47.33042" lon="-1.32238">
        <ele>8</ele>
        <time>2011-10-02T08:03:45Z</time>
      </trkpt>
      <trkpt lat="47.33053" lon="-1.32209">
        <ele>8</ele>
        <time>2011-10-02T08:03:48Z</time>
      </trkpt>
      <trkpt lat="47.33064" lon="-1.32184">
        <ele>9</ele>
        <time>2011-10-02T08:03:51Z</time>
      </trkpt>
      <trkpt lat="47.33076" lon="-1.32165">
        <ele>10</ele>
        <time>2011-10-02T08:03:54Z</time>
      </trkpt>
      <trkpt lat="47.33089" lon="-1.32154">
        <ele>14</ele>
        <time>2011-10-02T08:03:57Z</time>
      </trkpt>
      <trkpt lat="47.33101" lon="-1.32149">
        <ele>16</ele>
        <time>2011-10-02T08:04:00Z</time>
      </trkpt>
      <trkpt lat="47.33114" lon="-1.32152">
        <ele>17</ele>
        <time>2011-10-02T08:04:03Z</time>
      </trkpt>
      <trkpt lat="47.3312" lon="-1.32153">
        <ele>18</ele>
        <time>2011-10-02T08:04:05Z</time>
      </trkpt>
      <trkpt lat="47.33125" lon="-1.32154">
        <ele>19</ele>
        <time>2011-10-02T08:04:07Z</time>
      </trkpt>
      <trkpt lat="47.33132" lon="-1.32156">
        <ele>19</ele>
        <time>2011-10-02T08:04:10Z</time>
      </trkpt>
      <trkpt lat="47.33138" lon="-1.3216">
        <ele>20</ele>
        <time>2011-10-02T08:04:13Z</time>
      </trkpt>
      <trkpt lat="47.33138" lon="-1.3216">
        <ele>20</ele>
        <time>2011-10-02T08:04:14Z</time>
      </trkpt>
      <trkpt lat="47.33167" lon="-1.32162">
        <ele>24</ele>
        <time>2011-10-02T08:04:38Z</time>
      </trkpt>
      <trkpt lat="47.33167" lon="-1.32162">
        <ele>24</ele>
        <time>2011-10-02T08:04:42Z</time>
      </trkpt>
      <trkpt lat="47.33194" lon="-1.32193">
        <ele>30</ele>
        <time>2011-10-02T08:05:36Z</time>
      </trkpt>
      <trkpt lat="47.33201" lon="-1.32202">
        <ele>30</ele>
        <time>2011-10-02T08:05:47Z</time>
      </trkpt>
      <trkpt lat="47.33205" lon="-1.32207">
        <ele>30</ele>
        <time>2011-10-02T08:05:52Z</time>
      </trkpt>
      <trkpt lat="47.33208" lon="-1.32211">
        <ele>31</ele>
        <time>2011-10-02T08:05:57Z</time>
      </trkpt>
      <trkpt lat="47.33208" lon="-1.32211">
        <ele>31</ele>
        <time>2011-10-02T08:06:09Z</time>
      </trkpt>
      <trkpt lat="47.33239" lon="-1.32203">
        <ele>34</ele>
        <time>2011-10-02T08:06:34Z</time>
      </trkpt>
      <trkpt lat="47.33244" lon="-1.322">
        <ele>35</ele>
        <time>2011-10-02T08:06:37Z</time>
      </trkpt>
      <trkpt lat="47.3325" lon="-1.32198">
        <ele>43</ele>
        <time>2011-10-02T08:06:40Z</time>
      </trkpt>
      <trkpt lat="47.33257" lon="-1.32195">
        <ele>43</ele>
        <time>2011-10-02T08:06:43Z</time>
      </trkpt>
      <trkpt lat="47.33263" lon="-1.32192">
        <ele>43</ele>
        <time>2011-10-02T08:06:46Z</time>
      </trkpt>
      <trkpt lat="47.33268" lon="-1.32188">
        <ele>44</ele>
        <time>2011-10-02T08:06:49Z</time>
      </trkpt>
      <trkpt lat="47.33274" lon="-1.32185">
        <ele>44</ele>
        <time>2011-10-02T08:06:52Z</time>
      </trkpt>
      <trkpt lat="47.3328" lon="-1.32182">
        <ele>44</ele>
        <time>2011-10-02T08:06:55Z</time>
      </trkpt>
      <trkpt lat="47.33285" lon="-1.3218">
        <ele>44</ele>
        <time>2011-10-02T08:06:58Z</time>
      </trkpt>
      <trkpt lat="47.3329" lon="-1.32179">
        <ele>45</ele>
        <time>2011-10-02T08:07:01Z</time>
      </trkpt>
      <trkpt lat="47.33295" lon="-1.32176">
        <ele>45</ele>
        <time>2011-10-02T08:07:04Z</time>
      </trkpt>
      <trkpt lat="47.333" lon="-1.32172">
        <ele>45</ele>
        <time>2011-10-02T08:07:07Z</time>
      </trkpt>
      <trkpt lat="47.33305" lon="-1.32166">
        <ele>48</ele>
        <time>2011-10-02T08:07:10Z</time>
      </trkpt>
      <trkpt lat="47.3331" lon="-1.3216">
        <ele>48</ele>
        <time>2011-10-02T08:07:13Z</time>
      </trkpt>
      <trkpt lat="47.33315" lon="-1.32154">
        <ele>49</ele>
        <time>2011-10-02T08:07:16Z</time>
      </trkpt>
      <trkpt lat="47.3332" lon="-1.3215">
        <ele>49</ele>
        <time>2011-10-02T08:07:18Z</time>
      </trkpt>
      <trkpt lat="47.33327" lon="-1.32145">
        <ele>49</ele>
        <time>2011-10-02T08:07:21Z</time>
      </trkpt>
      <trkpt lat="47.33334" lon="-1.32142">
        <ele>53</ele>
        <time>2011-10-02T08:07:24Z</time>
      </trkpt>
      <trkpt lat="47.33341" lon="-1.32143">
        <ele>53</ele>
        <time>2011-10-02T08:07:27Z</time>
      </trkpt>
      <trkpt lat="47.33346" lon="-1.32144">
        <ele>53</ele>
        <time>2011-10-02T08:07:29Z</time>
      </trkpt>
      <trkpt lat="47.33353" lon="-1.32148">
        <ele>53</ele>
        <time>2011-10-02T08:07:32Z</time>
      </trkpt>
      <trkpt lat="47.3336" lon="-1.32151">
        <ele>53</ele>
        <time>2011-10-02T08:07:35Z</time>
      </trkpt>
      <trkpt lat="47.33367" lon="-1.32149">
        <ele>54</ele>
        <time>2011-10-02T08:07:38Z</time>
      </trkpt>
      <trkpt lat="47.33375" lon="-1.32143">
        <ele>54</ele>
        <time>2011-10-02T08:07:41Z</time>
      </trkpt>
      <trkpt lat="47.33383" lon="-1.32135">
        <ele>55</ele>
        <time>2011-10-02T08:07:44Z</time>
      </trkpt>
      <trkpt lat="47.3339" lon="-1.32126">
        <ele>55</ele>
        <time>2011-10-02T08:07:47Z</time>
      </trkpt>
      <trkpt lat="47.33395" lon="-1.32118">
        <ele>55</ele>
        <time>2011-10-02T08:07:49Z</time>
      </trkpt>
      <trkpt lat="47.33401" lon="-1.32106">
        <ele>56</ele>
        <time>2011-10-02T08:07:52Z</time>
      </trkpt>
      <trkpt lat="47.33405" lon="-1.32098">
        <ele>56</ele>
        <time>2011-10-02T08:07:54Z</time>
      </trkpt>
      <trkpt lat="47.33411" lon="-1.32086">
        <ele>57</ele>
        <time>2011-10-02T08:07:57Z</time>
      </trkpt>
      <trkpt lat="47.33417" lon="-1.32073">
        <ele>59</ele>
        <time>2011-10-02T08:08:00Z</time>
      </trkpt>
      <trkpt lat="47.33423" lon="-1.3206">
        <ele>60</ele>
        <time>2011-10-02T08:08:03Z</time>
      </trkpt>
      <trkpt lat="47.33429" lon="-1.32046">
        <ele>60</ele>
        <time>2011-10-02T08:08:06Z</time>
      </trkpt>
      <trkpt lat="47.33434" lon="-1.32032">
        <ele>61</ele>
        <time>2011-10-02T08:08:09Z</time>
      </trkpt>
      <trkpt lat="47.33439" lon="-1.32023">
        <ele>61</ele>
        <time>2011-10-02T08:08:11Z</time>
      </trkpt>
      <trkpt lat="47.33446" lon="-1.32008">
        <ele>61</ele>
        <time>2011-10-02T08:08:14Z</time>
      </trkpt>
      <trkpt lat="47.33454" lon="-1.31995">
        <ele>63</ele>
        <time>2011-10-02T08:08:17Z</time>
      </trkpt>
      <trkpt lat="47.33462" lon="-1.31982">
        <ele>64</ele>
        <time>2011-10-02T08:08:20Z</time>
      </trkpt>
      <trkpt lat="47.33472" lon="-1.31973">
        <ele>65</ele>
        <time>2011-10-02T08:08:23Z</time>
      </trkpt>
      <trkpt lat="47.33479" lon="-1.31971">
        <ele>65</ele>
        <time>2011-10-02T08:08:25Z</time>
      </trkpt>
      <trkpt lat="47.33487" lon="-1.31972">
        <ele>65</ele>
        <time>2011-10-02T08:08:27Z</time>
      </trkpt>
      <trkpt lat="47.33494" lon="-1.31975">
        <ele>66</ele>
        <time>2011-10-02T08:08:29Z</time>
      </trkpt>
      <trkpt lat="47.33506" lon="-1.31983">
        <ele>68</ele>
        <time>2011-10-02T08:08:32Z</time>
      </trkpt>
      <trkpt lat="47.33513" lon="-1.31989">
        <ele>68</ele>
        <time>2011-10-02T08:08:34Z</time>
      </trkpt>
      <trkpt lat="47.33521" lon="-1.31996">
        <ele>68</ele>
        <time>2011-10-02T08:08:36Z</time>
      </trkpt>
      <trkpt lat="47.33534" lon="-1.32006">
        <ele>66</ele>
        <time>2011-10-02T08:08:39Z</time>
      </trkpt>
      <trkpt lat="47.33547" lon="-1.32015">
        <ele>67</ele>
        <time>2011-10-02T08:08:42Z</time>
      </trkpt>
      <trkpt lat="47.33562" lon="-1.3202">
        <ele>67</ele>
        <time>2011-10-02T08:08:45Z</time>
      </trkpt>
      <trkpt lat="47.33577" lon="-1.32021">
        <ele>67</ele>
        <time>2011-10-02T08:08:48Z</time>
      </trkpt>
      <trkpt lat="47.33593" lon="-1.3202">
        <ele>67</ele>
        <time>2011-10-02T08:08:51Z</time>
      </trkpt>
      <trkpt lat="47.33608" lon="-1.32015">
        <ele>67</ele>
        <time>2011-10-02T08:08:54Z</time>
      </trkpt>
      <trkpt lat="47.33621" lon="-1.32002">
        <ele>67</ele>
        <time>2011-10-02T08:08:57Z</time>
      </trkpt>
      <trkpt lat="47.33628" lon="-1.31992">
        <ele>69</ele>
        <time>2011-10-02T08:08:59Z</time>
      </trkpt>
      <trkpt lat="47.33638" lon="-1.31976">
        <ele>69</ele>
        <time>2011-10-02T08:09:02Z</time>
      </trkpt>
      <trkpt lat="47.33646" lon="-1.31959">
        <ele>70</ele>
        <time>2011-10-02T08:09:05Z</time>
      </trkpt>
      <trkpt lat="47.33655" lon="-1.31944">
        <ele>70</ele>
        <time>2011-10-02T08:09:08Z</time>
      </trkpt>
      <trkpt lat="47.33664" lon="-1.31929">
        <ele>70</ele>
        <time>2011-10-02T08:09:11Z</time>
      </trkpt>
      <trkpt lat="47.33674" lon="-1.31913">
        <ele>71</ele>
        <time>2011-10-02T08:09:14Z</time>
      </trkpt>
      <trkpt lat="47.33684" lon="-1.31895">
        <ele>71</ele>
        <time>2011-10-02T08:09:17Z</time>
      </trkpt>
      <trkpt lat="47.33695" lon="-1.31876">
        <ele>71</ele>
        <time>2011-10-02T08:09:20Z</time>
      </trkpt>
      <trkpt lat="47.33706" lon="-1.31857">
        <ele>70</ele>
        <time>2011-10-02T08:09:23Z</time>
      </trkpt>
      <trkpt lat="47.33713" lon="-1.31844">
        <ele>71</ele>
        <time>2011-10-02T08:09:25Z</time>
      </trkpt>
      <trkpt lat="47.33722" lon="-1.31823">
        <ele>71</ele>
        <time>2011-10-02T08:09:28Z</time>
      </trkpt>
      <trkpt lat="47.33731" lon="-1.31801">
        <ele>71</ele>
        <time>2011-10-02T08:09:31Z</time>
      </trkpt>
      <trkpt lat="47.33737" lon="-1.31785">
        <ele>71</ele>
        <time>2011-10-02T08:09:33Z</time>
      </trkpt>
      <trkpt lat="47.33743" lon="-1.3177">
        <ele>72</ele>
        <time>2011-10-02T08:09:35Z</time>
      </trkpt>
      <trkpt lat="47.33748" lon="-1.31754">
        <ele>73</ele>
        <time>2011-10-02T08:09:37Z</time>
      </trkpt>
      <trkpt lat="47.33756" lon="-1.3173">
        <ele>74</ele>
        <time>2011-10-02T08:09:40Z</time>
      </trkpt>
      <trkpt lat="47.33761" lon="-1.31714">
        <ele>74</ele>
        <time>2011-10-02T08:09:42Z</time>
      </trkpt>
      <trkpt lat="47.33767" lon="-1.3169">
        <ele>74</ele>
        <time>2011-10-02T08:09:45Z</time>
      </trkpt>
      <trkpt lat="47.33771" lon="-1.31663">
        <ele>73</ele>
        <time>2011-10-02T08:09:48Z</time>
      </trkpt>
      <trkpt lat="47.33773" lon="-1.31645">
        <ele>73</ele>
        <time>2011-10-02T08:09:50Z</time>
      </trkpt>
      <trkpt lat="47.33774" lon="-1.31628">
        <ele>73</ele>
        <time>2011-10-02T08:09:52Z</time>
      </trkpt>
      <trkpt lat="47.33776" lon="-1.316">
        <ele>73</ele>
        <time>2011-10-02T08:09:55Z</time>
      </trkpt>
      <trkpt lat="47.33778" lon="-1.31582">
        <ele>72</ele>
        <time>2011-10-02T08:09:57Z</time>
      </trkpt>
      <trkpt lat="47.33779" lon="-1.31562">
        <ele>72</ele>
        <time>2011-10-02T08:09:59Z</time>
      </trkpt>
      <trkpt lat="47.33782" lon="-1.31533">
        <ele>73</ele>
        <time>2011-10-02T08:10:02Z</time>
      </trkpt>
      <trkpt lat="47.33786" lon="-1.31512">
        <ele>73</ele>
        <time>2011-10-02T08:10:04Z</time>
      </trkpt>
      <trkpt lat="47.33791" lon="-1.31492">
        <ele>72</ele>
        <time>2011-10-02T08:10:06Z</time>
      </trkpt>
      <trkpt lat="47.33798" lon="-1.31471">
        <ele>72</ele>
        <time>2011-10-02T08:10:08Z</time>
      </trkpt>
      <trkpt lat="47.33809" lon="-1.3144">
        <ele>71</ele>
        <time>2011-10-02T08:10:11Z</time>
      </trkpt>
      <trkpt lat="47.33816" lon="-1.31421">
        <ele>70</ele>
        <time>2011-10-02T08:10:13Z</time>
      </trkpt>
      <trkpt lat="47.33827" lon="-1.31391">
        <ele>69</ele>
        <time>2011-10-02T08:10:16Z</time>
      </trkpt>
      <trkpt lat="47.33838" lon="-1.3136">
        <ele>68</ele>
        <time>2011-10-02T08:10:19Z</time>
      </trkpt>
      <trkpt lat="47.33847" lon="-1.31339">
        <ele>68</ele>
        <time>2011-10-02T08:10:21Z</time>
      </trkpt>
      <trkpt lat="47.33856" lon="-1.31319">
        <ele>67</ele>
        <time>2011-10-02T08:10:23Z</time>
      </trkpt>
      <trkpt lat="47.33873" lon="-1.31295">
        <ele>67</ele>
        <time>2011-10-02T08:10:26Z</time>
      </trkpt>
      <trkpt lat="47.33888" lon="-1.31273">
        <ele>66</ele>
        <time>2011-10-02T08:10:29Z</time>
      </trkpt>
      <trkpt lat="47.33902" lon="-1.31252">
        <ele>66</ele>
        <time>2011-10-02T08:10:32Z</time>
      </trkpt>
      <trkpt lat="47.33915" lon="-1.31235">
        <ele>64</ele>
        <time>2011-10-02T08:10:35Z</time>
      </trkpt>
      <trkpt lat="47.33925" lon="-1.31216">
        <ele>65</ele>
        <time>2011-10-02T08:10:38Z</time>
      </trkpt>
      <trkpt lat="47.33931" lon="-1.31203">
        <ele>65</ele>
        <time>2011-10-02T08:10:40Z</time>
      </trkpt>
      <trkpt lat="47.3394" lon="-1.31183">
        <ele>65</ele>
        <time>2011-10-02T08:10:43Z</time>
      </trkpt>
      <trkpt lat="47.33946" lon="-1.31171">
        <ele>65</ele>
        <time>2011-10-02T08:10:45Z</time>
      </trkpt>
      <trkpt lat="47.33956" lon="-1.31158">
        <ele>64</ele>
        <time>2011-10-02T08:10:48Z</time>
      </trkpt>
      <trkpt lat="47.33965" lon="-1.3115">
        <ele>64</ele>
        <time>2011-10-02T08:10:51Z</time>
      </trkpt>
      <trkpt lat="47.33974" lon="-1.31141">
        <ele>65</ele>
        <time>2011-10-02T08:10:54Z</time>
      </trkpt>
      <trkpt lat="47.33984" lon="-1.31131">
        <ele>65</ele>
        <time>2011-10-02T08:10:57Z</time>
      </trkpt>
      <trkpt lat="47.33992" lon="-1.31125">
        <ele>65</ele>
        <time>2011-10-02T08:10:59Z</time>
      </trkpt>
      <trkpt lat="47.34007" lon="-1.31118">
        <ele>66</ele>
        <time>2011-10-02T08:11:02Z</time>
      </trkpt>
      <trkpt lat="47.34022" lon="-1.31111">
        <ele>66</ele>
        <time>2011-10-02T08:11:05Z</time>
      </trkpt>
      <trkpt lat="47.34037" lon="-1.31103">
        <ele>66</ele>
        <time>2011-10-02T08:11:08Z</time>
      </trkpt>
      <trkpt lat="47.34052" lon="-1.31096">
        <ele>66</ele>
        <time>2011-10-02T08:11:11Z</time>
      </trkpt>
      <trkpt lat="47.34069" lon="-1.31091">
        <ele>66</ele>
        <time>2011-10-02T08:11:14Z</time>
      </trkpt>
      <trkpt lat="47.34086" lon="-1.31088">
        <ele>66</ele>
        <time>2011-10-02T08:11:17Z</time>
      </trkpt>
      <trkpt lat="47.34102" lon="-1.31085">
        <ele>66</ele>
        <time>2011-10-02T08:11:20Z</time>
      </trkpt>
      <trkpt lat="47.34112" lon="-1.31081">
        <ele>65</ele>
        <time>2011-10-02T08:11:22Z</time>
      </trkpt>
      <trkpt lat="47.34121" lon="-1.31072">
        <ele>65</ele>
        <time>2011-10-02T08:11:24Z</time>
      </trkpt>
      <trkpt lat="47.34127" lon="-1.31058">
        <ele>65</ele>
        <time>2011-10-02T08:11:26Z</time>
      </trkpt>
      <trkpt lat="47.34139" lon="-1.31039">
        <ele>65</ele>
        <time>2011-10-02T08:11:29Z</time>
      </trkpt>
      <trkpt lat="47.34154" lon="-1.31025">
        <ele>65</ele>
        <time>2011-10-02T08:11:32Z</time>
      </trkpt>
      <trkpt lat="47.34166" lon="-1.31015">
        <ele>64</ele>
        <time>2011-10-02T08:11:34Z</time>
      </trkpt>
      <trkpt lat="47.34182" lon="-1.31">
        <ele>64</ele>
        <time>2011-10-02T08:11:37Z</time>
      </trkpt>
      <trkpt lat="47.34193" lon="-1.3099">
        <ele>62</ele>
        <time>2011-10-02T08:11:39Z</time>
      </trkpt>
      <trkpt lat="47.3421" lon="-1.30975">
        <ele>62</ele>
        <time>2011-10-02T08:11:42Z</time>
      </trkpt>
      <trkpt lat="47.34229" lon="-1.30962">
        <ele>61</ele>
        <time>2011-10-02T08:11:45Z</time>
      </trkpt>
      <trkpt lat="47.34246" lon="-1.30944">
        <ele>61</ele>
        <time>2011-10-02T08:11:48Z</time>
      </trkpt>
      <trkpt lat="47.34262" lon="-1.30922">
        <ele>61</ele>
        <time>2011-10-02T08:11:51Z</time>
      </trkpt>
      <trkpt lat="47.34277" lon="-1.30896">
        <ele>58</ele>
        <time>2011-10-02T08:11:54Z</time>
      </trkpt>
      <trkpt lat="47.34293" lon="-1.30871">
        <ele>58</ele>
        <time>2011-10-02T08:11:57Z</time>
      </trkpt>
      <trkpt lat="47.3431" lon="-1.3085">
        <ele>57</ele>
        <time>2011-10-02T08:12:00Z</time>
      </trkpt>
      <trkpt lat="47.34329" lon="-1.30832">
        <ele>55</ele>
        <time>2011-10-02T08:12:03Z</time>
      </trkpt>
      <trkpt lat="47.34347" lon="-1.30806">
        <ele>54</ele>
        <time>2011-10-02T08:12:06Z</time>
      </trkpt>
      <trkpt lat="47.34358" lon="-1.3077">
        <ele>53</ele>
        <time>2011-10-02T08:12:09Z</time>
      </trkpt>
      <trkpt lat="47.34366" lon="-1.30734">
        <ele>50</ele>
        <time>2011-10-02T08:12:12Z</time>
      </trkpt>
      <trkpt lat="47.34372" lon="-1.30698">
        <ele>49</ele>
        <time>2011-10-02T08:12:15Z</time>
      </trkpt>
      <trkpt lat="47.34375" lon="-1.30675">
        <ele>49</ele>
        <time>2011-10-02T08:12:17Z</time>
      </trkpt>
      <trkpt lat="47.34382" lon="-1.30656">
        <ele>47</ele>
        <time>2011-10-02T08:12:20Z</time>
      </trkpt>
      <trkpt lat="47.34394" lon="-1.3066">
        <ele>47</ele>
        <time>2011-10-02T08:12:23Z</time>
      </trkpt>
      <trkpt lat="47.34403" lon="-1.30669">
        <ele>48</ele>
        <time>2011-10-02T08:12:26Z</time>
      </trkpt>
      <trkpt lat="47.34414" lon="-1.30678">
        <ele>48</ele>
        <time>2011-10-02T08:12:29Z</time>
      </trkpt>
      <trkpt lat="47.34425" lon="-1.30685">
        <ele>48</ele>
        <time>2011-10-02T08:12:32Z</time>
      </trkpt>
      <trkpt lat="47.34436" lon="-1.30678">
        <ele>48</ele>
        <time>2011-10-02T08:12:35Z</time>
      </trkpt>
      <trkpt lat="47.34443" lon="-1.30656">
        <ele>47</ele>
        <time>2011-10-02T08:12:38Z</time>
      </trkpt>
      <trkpt lat="47.34449" lon="-1.30629">
        <ele>47</ele>
        <time>2011-10-02T08:12:41Z</time>
      </trkpt>
      <trkpt lat="47.34454" lon="-1.306">
        <ele>47</ele>
        <time>2011-10-02T08:12:44Z</time>
      </trkpt>
      <trkpt lat="47.34457" lon="-1.30578">
        <ele>46</ele>
        <time>2011-10-02T08:12:46Z</time>
      </trkpt>
      <trkpt lat="47.34459" lon="-1.30557">
        <ele>46</ele>
        <time>2011-10-02T08:12:48Z</time>
      </trkpt>
      <trkpt lat="47.34466" lon="-1.30525">
        <ele>46</ele>
        <time>2011-10-02T08:12:51Z</time>
      </trkpt>
      <trkpt lat="47.34477" lon="-1.30502">
        <ele>46</ele>
        <time>2011-10-02T08:12:54Z</time>
      </trkpt>
      <trkpt lat="47.34486" lon="-1.30486">
        <ele>45</ele>
        <time>2011-10-02T08:12:57Z</time>
      </trkpt>
      <trkpt lat="47.34498" lon="-1.30488">
        <ele>45</ele>
        <time>2011-10-02T08:13:00Z</time>
      </trkpt>
      <trkpt lat="47.34506" lon="-1.30494">
        <ele>45</ele>
        <time>2011-10-02T08:13:02Z</time>
      </trkpt>
      <trkpt lat="47.34516" lon="-1.30499">
        <ele>44</ele>
        <time>2011-10-02T08:13:05Z</time>
      </trkpt>
      <trkpt lat="47.34523" lon="-1.3049">
        <ele>44</ele>
        <time>2011-10-02T08:13:08Z</time>
      </trkpt>
      <trkpt lat="47.34529" lon="-1.30473">
        <ele>43</ele>
        <time>2011-10-02T08:13:11Z</time>
      </trkpt>
      <trkpt lat="47.34536" lon="-1.30442">
        <ele>42</ele>
        <time>2011-10-02T08:13:14Z</time>
      </trkpt>
      <trkpt lat="47.34543" lon="-1.30405">
        <ele>39</ele>
        <time>2011-10-02T08:13:17Z</time>
      </trkpt>
      <trkpt lat="47.34548" lon="-1.30386">
        <ele>39</ele>
        <time>2011-10-02T08:13:19Z</time>
      </trkpt>
      <trkpt lat="47.34552" lon="-1.30373">
        <ele>38</ele>
        <time>2011-10-02T08:13:21Z</time>
      </trkpt>
      <trkpt lat="47.34556" lon="-1.30359">
        <ele>38</ele>
        <time>2011-10-02T08:13:23Z</time>
      </trkpt>
      <trkpt lat="47.34562" lon="-1.30336">
        <ele>37</ele>
        <time>2011-10-02T08:13:26Z</time>
      </trkpt>
      <trkpt lat="47.34569" lon="-1.30312">
        <ele>32</ele>
        <time>2011-10-02T08:13:29Z</time>
      </trkpt>
      <trkpt lat="47.34575" lon="-1.30296">
        <ele>31</ele>
        <time>2011-10-02T08:13:31Z</time>
      </trkpt>
      <trkpt lat="47.3458" lon="-1.30277">
        <ele>29</ele>
        <time>2011-10-02T08:13:34Z</time>
      </trkpt>
      <trkpt lat="47.34583" lon="-1.30266">
        <ele>28</ele>
        <time>2011-10-02T08:13:36Z</time>
      </trkpt>
      <trkpt lat="47.34583" lon="-1.30256">
        <ele>26</ele>
        <time>2011-10-02T08:13:38Z</time>
      </trkpt>
      <trkpt lat="47.34583" lon="-1.30244">
        <ele>25</ele>
        <time>2011-10-02T08:13:41Z</time>
      </trkpt>
      <trkpt lat="47.34583" lon="-1.30244">
        <ele>25</ele>
        <time>2011-10-02T08:13:42Z</time>
      </trkpt>
      <trkpt lat="47.34559" lon="-1.30236">
        <ele>24</ele>
        <time>2011-10-02T08:13:50Z</time>
      </trkpt>
      <trkpt lat="47.34533" lon="-1.30227">
        <ele>24</ele>
        <time>2011-10-02T08:13:53Z</time>
      </trkpt>
      <trkpt lat="47.34509" lon="-1.30219">
        <ele>24</ele>
        <time>2011-10-02T08:13:56Z</time>
      </trkpt>
      <trkpt lat="47.34488" lon="-1.30215">
        <ele>24</ele>
        <time>2011-10-02T08:13:59Z</time>
      </trkpt>
      <trkpt lat="47.3447" lon="-1.3021">
        <ele>24</ele>
        <time>2011-10-02T08:14:02Z</time>
      </trkpt>
      <trkpt lat="47.34458" lon="-1.30208">
        <ele>24</ele>
        <time>2011-10-02T08:14:04Z</time>
      </trkpt>
      <trkpt lat="47.34447" lon="-1.30203">
        <ele>24</ele>
        <time>2011-10-02T08:14:06Z</time>
      </trkpt>
      <trkpt lat="47.3443" lon="-1.30191">
        <ele>23</ele>
        <time>2011-10-02T08:14:09Z</time>
      </trkpt>
      <trkpt lat="47.34419" lon="-1.30181">
        <ele>22</ele>
        <time>2011-10-02T08:14:11Z</time>
      </trkpt>
      <trkpt lat="47.34401" lon="-1.30168">
        <ele>22</ele>
        <time>2011-10-02T08:14:14Z</time>
      </trkpt>
      <trkpt lat="47.34385" lon="-1.30153">
        <ele>19</ele>
        <time>2011-10-02T08:14:17Z</time>
      </trkpt>
      <trkpt lat="47.34371" lon="-1.30138">
        <ele>18</ele>
        <time>2011-10-02T08:14:20Z</time>
      </trkpt>
      <trkpt lat="47.34361" lon="-1.30128">
        <ele>18</ele>
        <time>2011-10-02T08:14:22Z</time>
      </trkpt>
      <trkpt lat="47.34353" lon="-1.3012">
        <ele>18</ele>
        <time>2011-10-02T08:14:24Z</time>
      </trkpt>
      <trkpt lat="47.34341" lon="-1.3011">
        <ele>17</ele>
        <time>2011-10-02T08:14:27Z</time>
      </trkpt>
      <trkpt lat="47.34327" lon="-1.30102">
        <ele>14</ele>
        <time>2011-10-02T08:14:30Z</time>
      </trkpt>
      <trkpt lat="47.34311" lon="-1.30093">
        <ele>14</ele>
        <time>2011-10-02T08:14:33Z</time>
      </trkpt>
      <trkpt lat="47.34296" lon="-1.30071">
        <ele>12</ele>
        <time>2011-10-02T08:14:36Z</time>
      </trkpt>
      <trkpt lat="47.34284" lon="-1.3004">
        <ele>12</ele>
        <time>2011-10-02T08:14:39Z</time>
      </trkpt>
      <trkpt lat="47.34276" lon="-1.30008">
        <ele>11</ele>
        <time>2011-10-02T08:14:42Z</time>
      </trkpt>
      <trkpt lat="47.34275" lon="-1.29974">
        <ele>10</ele>
        <time>2011-10-02T08:14:45Z</time>
      </trkpt>
      <trkpt lat="47.34277" lon="-1.29956">
        <ele>10</ele>
        <time>2011-10-02T08:14:47Z</time>
      </trkpt>
      <trkpt lat="47.34273" lon="-1.29944">
        <ele>10</ele>
        <time>2011-10-02T08:14:50Z</time>
      </trkpt>
      <trkpt lat="47.34274" lon="-1.29932">
        <ele>10</ele>
        <time>2011-10-02T08:14:53Z</time>
      </trkpt>
      <trkpt lat="47.34282" lon="-1.29914">
        <ele>9</ele>
        <time>2011-10-02T08:14:56Z</time>
      </trkpt>
      <trkpt lat="47.34293" lon="-1.2989">
        <ele>10</ele>
        <time>2011-10-02T08:14:59Z</time>
      </trkpt>
      <trkpt lat="47.34302" lon="-1.29866">
        <ele>10</ele>
        <time>2011-10-02T08:15:02Z</time>
      </trkpt>
      <trkpt lat="47.3431" lon="-1.29841">
        <ele>10</ele>
        <time>2011-10-02T08:15:05Z</time>
      </trkpt>
      <trkpt lat="47.34318" lon="-1.29816">
        <ele>9</ele>
        <time>2011-10-02T08:15:08Z</time>
      </trkpt>
      <trkpt lat="47.34328" lon="-1.29791">
        <ele>9</ele>
        <time>2011-10-02T08:15:11Z</time>
      </trkpt>
      <trkpt lat="47.34338" lon="-1.29766">
        <ele>11</ele>
        <time>2011-10-02T08:15:14Z</time>
      </trkpt>
      <trkpt lat="47.34345" lon="-1.2975">
        <ele>9</ele>
        <time>2011-10-02T08:15:16Z</time>
      </trkpt>
      <trkpt lat="47.34352" lon="-1.29735">
        <ele>10</ele>
        <time>2011-10-02T08:15:18Z</time>
      </trkpt>
      <trkpt lat="47.3436" lon="-1.29719">
        <ele>10</ele>
        <time>2011-10-02T08:15:20Z</time>
      </trkpt>
      <trkpt lat="47.34373" lon="-1.29695">
        <ele>10</ele>
        <time>2011-10-02T08:15:23Z</time>
      </trkpt>
      <trkpt lat="47.34387" lon="-1.29671">
        <ele>10</ele>
        <time>2011-10-02T08:15:26Z</time>
      </trkpt>
      <trkpt lat="47.34399" lon="-1.29647">
        <ele>9</ele>
        <time>2011-10-02T08:15:29Z</time>
      </trkpt>
      <trkpt lat="47.34408" lon="-1.29621">
        <ele>9</ele>
        <time>2011-10-02T08:15:32Z</time>
      </trkpt>
      <trkpt lat="47.34412" lon="-1.29603">
        <ele>9</ele>
        <time>2011-10-02T08:15:34Z</time>
      </trkpt>
      <trkpt lat="47.34416" lon="-1.29585">
        <ele>10</ele>
        <time>2011-10-02T08:15:36Z</time>
      </trkpt>
      <trkpt lat="47.34418" lon="-1.29557">
        <ele>11</ele>
        <time>2011-10-02T08:15:39Z</time>
      </trkpt>
      <trkpt lat="47.3442" lon="-1.29538">
        <ele>11</ele>
        <time>2011-10-02T08:15:41Z</time>
      </trkpt>
      <trkpt lat="47.34424" lon="-1.2951">
        <ele>10</ele>
        <time>2011-10-02T08:15:44Z</time>
      </trkpt>
      <trkpt lat="47.34428" lon="-1.29482">
        <ele>10</ele>
        <time>2011-10-02T08:15:47Z</time>
      </trkpt>
      <trkpt lat="47.34432" lon="-1.29453">
        <ele>10</ele>
        <time>2011-10-02T08:15:50Z</time>
      </trkpt>
      <trkpt lat="47.34434" lon="-1.29425">
        <ele>9</ele>
        <time>2011-10-02T08:15:53Z</time>
      </trkpt>
      <trkpt lat="47.34436" lon="-1.29397">
        <ele>10</ele>
        <time>2011-10-02T08:15:56Z</time>
      </trkpt>
      <trkpt lat="47.34437" lon="-1.29378">
        <ele>10</ele>
        <time>2011-10-02T08:15:58Z</time>
      </trkpt>
      <trkpt lat="47.3444" lon="-1.29352">
        <ele>10</ele>
        <time>2011-10-02T08:16:01Z</time>
      </trkpt>
      <trkpt lat="47.34441" lon="-1.29334">
        <ele>10</ele>
        <time>2011-10-02T08:16:03Z</time>
      </trkpt>
      <trkpt lat="47.34441" lon="-1.29306">
        <ele>10</ele>
        <time>2011-10-02T08:16:06Z</time>
      </trkpt>
      <trkpt lat="47.3444" lon="-1.29277">
        <ele>10</ele>
        <time>2011-10-02T08:16:09Z</time>
      </trkpt>
      <trkpt lat="47.34439" lon="-1.29249">
        <ele>10</ele>
        <time>2011-10-02T08:16:12Z</time>
      </trkpt>
      <trkpt lat="47.34439" lon="-1.29229">
        <ele>10</ele>
        <time>2011-10-02T08:16:14Z</time>
      </trkpt>
      <trkpt lat="47.34439" lon="-1.29201">
        <ele>11</ele>
        <time>2011-10-02T08:16:17Z</time>
      </trkpt>
      <trkpt lat="47.34439" lon="-1.29173">
        <ele>11</ele>
        <time>2011-10-02T08:16:20Z</time>
      </trkpt>
      <trkpt lat="47.34439" lon="-1.29155">
        <ele>12</ele>
        <time>2011-10-02T08:16:22Z</time>
      </trkpt>
      <trkpt lat="47.3444" lon="-1.29131">
        <ele>12</ele>
        <time>2011-10-02T08:16:25Z</time>
      </trkpt>
      <trkpt lat="47.34442" lon="-1.2912">
        <ele>12</ele>
        <time>2011-10-02T08:16:28Z</time>
      </trkpt>
      <trkpt lat="47.34442" lon="-1.2912">
        <ele>12</ele>
        <time>2011-10-02T08:16:29Z</time>
      </trkpt>
      <trkpt lat="47.34442" lon="-1.2912">
        <ele>12</ele>
        <time>2011-10-02T08:17:32Z</time>
      </trkpt>
      <trkpt lat="47.34432" lon="-1.29093">
        <ele>11</ele>
        <time>2011-10-02T08:20:30Z</time>
      </trkpt>
      <trkpt lat="47.3443" lon="-1.2908">
        <ele>11</ele>
        <time>2011-10-02T08:20:33Z</time>
      </trkpt>
      <trkpt lat="47.3443" lon="-1.29065">
        <ele>12</ele>
        <time>2011-10-02T08:20:36Z</time>
      </trkpt>
      <trkpt lat="47.34431" lon="-1.29056">
        <ele>12</ele>
        <time>2011-10-02T08:20:38Z</time>
      </trkpt>
      <trkpt lat="47.34434" lon="-1.29042">
        <ele>12</ele>
        <time>2011-10-02T08:20:41Z</time>
      </trkpt>
      <trkpt lat="47.34437" lon="-1.29033">
        <ele>12</ele>
        <time>2011-10-02T08:20:43Z</time>
      </trkpt>
      <trkpt lat="47.34443" lon="-1.29019">
        <ele>12</ele>
        <time>2011-10-02T08:20:46Z</time>
      </trkpt>
      <trkpt lat="47.34446" lon="-1.2901">
        <ele>12</ele>
        <time>2011-10-02T08:20:48Z</time>
      </trkpt>
      <trkpt lat="47.34449" lon="-1.28982">
        <ele>11</ele>
        <time>2011-10-02T08:20:51Z</time>
      </trkpt>
      <trkpt lat="47.34454" lon="-1.28951">
        <ele>12</ele>
        <time>2011-10-02T08:20:54Z</time>
      </trkpt>
      <trkpt lat="47.34462" lon="-1.28925">
        <ele>12</ele>
        <time>2011-10-02T08:20:57Z</time>
      </trkpt>
      <trkpt lat="47.34466" lon="-1.28909">
        <ele>10</ele>
        <time>2011-10-02T08:20:59Z</time>
      </trkpt>
      <trkpt lat="47.3447" lon="-1.28893">
        <ele>10</ele>
        <time>2011-10-02T08:21:01Z</time>
      </trkpt>
      <trkpt lat="47.34478" lon="-1.28871">
        <ele>10</ele>
        <time>2011-10-02T08:21:04Z</time>
      </trkpt>
      <trkpt lat="47.34487" lon="-1.28851">
        <ele>9</ele>
        <time>2011-10-02T08:21:07Z</time>
      </trkpt>
      <trkpt lat="47.34492" lon="-1.28839">
        <ele>9</ele>
        <time>2011-10-02T08:21:09Z</time>
      </trkpt>
      <trkpt lat="47.34494" lon="-1.28823">
        <ele>8</ele>
        <time>2011-10-02T08:21:12Z</time>
      </trkpt>
      <trkpt lat="47.34494" lon="-1.28809">
        <ele>8</ele>
        <time>2011-10-02T08:21:15Z</time>
      </trkpt>
      <trkpt lat="47.34492" lon="-1.28797">
        <ele>7</ele>
        <time>2011-10-02T08:21:18Z</time>
      </trkpt>
      <trkpt lat="47.34482" lon="-1.28794">
        <ele>7</ele>
        <time>2011-10-02T08:21:21Z</time>
      </trkpt>
      <trkpt lat="47.34467" lon="-1.28792">
        <ele>7</ele>
        <time>2011-10-02T08:21:24Z</time>
      </trkpt>
      <trkpt lat="47.34453" lon="-1.2879">
        <ele>7</ele>
        <time>2011-10-02T08:21:27Z</time>
      </trkpt>
      <trkpt lat="47.34444" lon="-1.28789">
        <ele>7</ele>
        <time>2011-10-02T08:21:29Z</time>
      </trkpt>
      <trkpt lat="47.3443" lon="-1.28786">
        <ele>7</ele>
        <time>2011-10-02T08:21:32Z</time>
      </trkpt>
      <trkpt lat="47.34415" lon="-1.28782">
        <ele>6</ele>
        <time>2011-10-02T08:21:35Z</time>
      </trkpt>
      <trkpt lat="47.34401" lon="-1.28776">
        <ele>6</ele>
        <time>2011-10-02T08:21:38Z</time>
      </trkpt>
      <trkpt lat="47.3439" lon="-1.28768">
        <ele>6</ele>
        <time>2011-10-02T08:21:41Z</time>
      </trkpt>
      <trkpt lat="47.34386" lon="-1.2876">
        <ele>6</ele>
        <time>2011-10-02T08:21:44Z</time>
      </trkpt>
      <trkpt lat="47.34391" lon="-1.28756">
        <ele>6</ele>
        <time>2011-10-02T08:21:46Z</time>
      </trkpt>
      <trkpt lat="47.34403" lon="-1.28758">
        <ele>6</ele>
        <time>2011-10-02T08:21:49Z</time>
      </trkpt>
      <trkpt lat="47.34417" lon="-1.28762">
        <ele>6</ele>
        <time>2011-10-02T08:21:52Z</time>
      </trkpt>
      <trkpt lat="47.34426" lon="-1.28764">
        <ele>6</ele>
        <time>2011-10-02T08:21:54Z</time>
      </trkpt>
      <trkpt lat="47.34435" lon="-1.28767">
        <ele>7</ele>
        <time>2011-10-02T08:21:56Z</time>
      </trkpt>
      <trkpt lat="47.34449" lon="-1.2877">
        <ele>7</ele>
        <time>2011-10-02T08:21:59Z</time>
      </trkpt>
      <trkpt lat="47.3446" lon="-1.28758">
        <ele>7</ele>
        <time>2011-10-02T08:22:02Z</time>
      </trkpt>
      <trkpt lat="47.34467" lon="-1.28728">
        <ele>7</ele>
        <time>2011-10-02T08:22:05Z</time>
      </trkpt>
      <trkpt lat="47.34473" lon="-1.28693">
        <ele>7</ele>
        <time>2011-10-02T08:22:08Z</time>
      </trkpt>
      <trkpt lat="47.34483" lon="-1.28662">
        <ele>7</ele>
        <time>2011-10-02T08:22:11Z</time>
      </trkpt>
      <trkpt lat="47.34492" lon="-1.28636">
        <ele>7</ele>
        <time>2011-10-02T08:22:14Z</time>
      </trkpt>
      <trkpt lat="47.34504" lon="-1.28615">
        <ele>8</ele>
        <time>2011-10-02T08:22:17Z</time>
      </trkpt>
      <trkpt lat="47.34514" lon="-1.28595">
        <ele>8</ele>
        <time>2011-10-02T08:22:20Z</time>
      </trkpt>
      <trkpt lat="47.3452" lon="-1.28581">
        <ele>8</ele>
        <time>2011-10-02T08:22:22Z</time>
      </trkpt>
      <trkpt lat="47.34534" lon="-1.28571">
        <ele>8</ele>
        <time>2011-10-02T08:22:25Z</time>
      </trkpt>
      <trkpt lat="47.34542" lon="-1.28564">
        <ele>9</ele>
        <time>2011-10-02T08:22:27Z</time>
      </trkpt>
      <trkpt lat="47.34551" lon="-1.28546">
        <ele>9</ele>
        <time>2011-10-02T08:22:30Z</time>
      </trkpt>
      <trkpt lat="47.34557" lon="-1.28533">
        <ele>9</ele>
        <time>2011-10-02T08:22:32Z</time>
      </trkpt>
      <trkpt lat="47.34565" lon="-1.28527">
        <ele>9</ele>
        <time>2011-10-02T08:22:35Z</time>
      </trkpt>
      <trkpt lat="47.34565" lon="-1.28527">
        <ele>9</ele>
        <time>2011-10-02T08:22:37Z</time>
      </trkpt>
      <trkpt lat="47.34563" lon="-1.28506">
        <ele>9</ele>
        <time>2011-10-02T08:22:55Z</time>
      </trkpt>
      <trkpt lat="47.34555" lon="-1.28495">
        <ele>8</ele>
        <time>2011-10-02T08:22:57Z</time>
      </trkpt>
      <trkpt lat="47.34548" lon="-1.28482">
        <ele>8</ele>
        <time>2011-10-02T08:22:59Z</time>
      </trkpt>
      <trkpt lat="47.34538" lon="-1.28461">
        <ele>8</ele>
        <time>2011-10-02T08:23:02Z</time>
      </trkpt>
      <trkpt lat="47.34528" lon="-1.28437">
        <ele>8</ele>
        <time>2011-10-02T08:23:05Z</time>
      </trkpt>
      <trkpt lat="47.34521" lon="-1.28411">
        <ele>7</ele>
        <time>2011-10-02T08:23:08Z</time>
      </trkpt>
      <trkpt lat="47.34516" lon="-1.28385">
        <ele>7</ele>
        <time>2011-10-02T08:23:11Z</time>
      </trkpt>
      <trkpt lat="47.34511" lon="-1.28359">
        <ele>7</ele>
        <time>2011-10-02T08:23:14Z</time>
      </trkpt>
      <trkpt lat="47.34509" lon="-1.28333">
        <ele>6</ele>
        <time>2011-10-02T08:23:17Z</time>
      </trkpt>
      <trkpt lat="47.34511" lon="-1.28309">
        <ele>7</ele>
        <time>2011-10-02T08:23:20Z</time>
      </trkpt>
      <trkpt lat="47.34514" lon="-1.28284">
        <ele>7</ele>
        <time>2011-10-02T08:23:23Z</time>
      </trkpt>
      <trkpt lat="47.34517" lon="-1.2826">
        <ele>7</ele>
        <time>2011-10-02T08:23:26Z</time>
      </trkpt>
      <trkpt lat="47.3452" lon="-1.28236">
        <ele>7</ele>
        <time>2011-10-02T08:23:29Z</time>
      </trkpt>
      <trkpt lat="47.34522" lon="-1.28211">
        <ele>7</ele>
        <time>2011-10-02T08:23:32Z</time>
      </trkpt>
      <trkpt lat="47.34524" lon="-1.28194">
        <ele>7</ele>
        <time>2011-10-02T08:23:34Z</time>
      </trkpt>
      <trkpt lat="47.34525" lon="-1.2817">
        <ele>6</ele>
        <time>2011-10-02T08:23:37Z</time>
      </trkpt>
      <trkpt lat="47.34526" lon="-1.28154">
        <ele>7</ele>
        <time>2011-10-02T08:23:39Z</time>
      </trkpt>
      <trkpt lat="47.34524" lon="-1.2813">
        <ele>7</ele>
        <time>2011-10-02T08:23:42Z</time>
      </trkpt>
      <trkpt lat="47.34521" lon="-1.28108">
        <ele>7</ele>
        <time>2011-10-02T08:23:45Z</time>
      </trkpt>
      <trkpt lat="47.34516" lon="-1.28087">
        <ele>7</ele>
        <time>2011-10-02T08:23:48Z</time>
      </trkpt>
      <trkpt lat="47.34512" lon="-1.28073">
        <ele>8</ele>
        <time>2011-10-02T08:23:50Z</time>
      </trkpt>
      <trkpt lat="47.34505" lon="-1.28053">
        <ele>8</ele>
        <time>2011-10-02T08:23:53Z</time>
      </trkpt>
      <trkpt lat="47.34497" lon="-1.28036">
        <ele>8</ele>
        <time>2011-10-02T08:23:56Z</time>
      </trkpt>
      <trkpt lat="47.34489" lon="-1.2802">
        <ele>9</ele>
        <time>2011-10-02T08:23:59Z</time>
      </trkpt>
      <trkpt lat="47.34479" lon="-1.28005">
        <ele>9</ele>
        <time>2011-10-02T08:24:02Z</time>
      </trkpt>
      <trkpt lat="47.34472" lon="-1.27996">
        <ele>9</ele>
        <time>2011-10-02T08:24:04Z</time>
      </trkpt>
      <trkpt lat="47.34464" lon="-1.27988">
        <ele>9</ele>
        <time>2011-10-02T08:24:06Z</time>
      </trkpt>
      <trkpt lat="47.34453" lon="-1.27977">
        <ele>9</ele>
        <time>2011-10-02T08:24:09Z</time>
      </trkpt>
      <trkpt lat="47.34445" lon="-1.2797">
        <ele>9</ele>
        <time>2011-10-02T08:24:11Z</time>
      </trkpt>
      <trkpt lat="47.34431" lon="-1.27961">
        <ele>8</ele>
        <time>2011-10-02T08:24:14Z</time>
      </trkpt>
      <trkpt lat="47.34411" lon="-1.27952">
        <ele>8</ele>
        <time>2011-10-02T08:24:17Z</time>
      </trkpt>
      <trkpt lat="47.34392" lon="-1.27944">
        <ele>8</ele>
        <time>2011-10-02T08:24:20Z</time>
      </trkpt>
      <trkpt lat="47.34373" lon="-1.27936">
        <ele>8</ele>
        <time>2011-10-02T08:24:23Z</time>
      </trkpt>
      <trkpt lat="47.34355" lon="-1.2793">
        <ele>8</ele>
        <time>2011-10-02T08:24:26Z</time>
      </trkpt>
      <trkpt lat="47.34336" lon="-1.27924">
        <ele>8</ele>
        <time>2011-10-02T08:24:29Z</time>
      </trkpt>
      <trkpt lat="47.34316" lon="-1.27918">
        <ele>7</ele>
        <time>2011-10-02T08:24:32Z</time>
      </trkpt>
      <trkpt lat="47.34295" lon="-1.27911">
        <ele>6</ele>
        <time>2011-10-02T08:24:35Z</time>
      </trkpt>
      <trkpt lat="47.34272" lon="-1.27902">
        <ele>6</ele>
        <time>2011-10-02T08:24:38Z</time>
      </trkpt>
      <trkpt lat="47.34256" lon="-1.27897">
        <ele>5</ele>
        <time>2011-10-02T08:24:40Z</time>
      </trkpt>
      <trkpt lat="47.34232" lon="-1.27889">
        <ele>4</ele>
        <time>2011-10-02T08:24:43Z</time>
      </trkpt>
      <trkpt lat="47.34217" lon="-1.27885">
        <ele>4</ele>
        <time>2011-10-02T08:24:45Z</time>
      </trkpt>
      <trkpt lat="47.34194" lon="-1.27877">
        <ele>4</ele>
        <time>2011-10-02T08:24:48Z</time>
      </trkpt>
      <trkpt lat="47.34172" lon="-1.2787">
        <ele>3</ele>
        <time>2011-10-02T08:24:51Z</time>
      </trkpt>
      <trkpt lat="47.3415" lon="-1.27863">
        <ele>3</ele>
        <time>2011-10-02T08:24:54Z</time>
      </trkpt>
      <trkpt lat="47.34136" lon="-1.27859">
        <ele>3</ele>
        <time>2011-10-02T08:24:56Z</time>
      </trkpt>
      <trkpt lat="47.34115" lon="-1.27852">
        <ele>3</ele>
        <time>2011-10-02T08:24:59Z</time>
      </trkpt>
      <trkpt lat="47.34095" lon="-1.27845">
        <ele>3</ele>
        <time>2011-10-02T08:25:02Z</time>
      </trkpt>
      <trkpt lat="47.34082" lon="-1.27841">
        <ele>3</ele>
        <time>2011-10-02T08:25:04Z</time>
      </trkpt>
      <trkpt lat="47.34063" lon="-1.27835">
        <ele>3</ele>
        <time>2011-10-02T08:25:07Z</time>
      </trkpt>
      <trkpt lat="47.3405" lon="-1.27831">
        <ele>3</ele>
        <time>2011-10-02T08:25:09Z</time>
      </trkpt>
      <trkpt lat="47.3403" lon="-1.27824">
        <ele>3</ele>
        <time>2011-10-02T08:25:12Z</time>
      </trkpt>
      <trkpt lat="47.34011" lon="-1.27818">
        <ele>3</ele>
        <time>2011-10-02T08:25:15Z</time>
      </trkpt>
      <trkpt lat="47.33992" lon="-1.27812">
        <ele>4</ele>
        <time>2011-10-02T08:25:18Z</time>
      </trkpt>
      <trkpt lat="47.33973" lon="-1.27805">
        <ele>4</ele>
        <time>2011-10-02T08:25:21Z</time>
      </trkpt>
      <trkpt lat="47.3396" lon="-1.278">
        <ele>4</ele>
        <time>2011-10-02T08:25:23Z</time>
      </trkpt>
      <trkpt lat="47.3394" lon="-1.27793">
        <ele>5</ele>
        <time>2011-10-02T08:25:26Z</time>
      </trkpt>
      <trkpt lat="47.3392" lon="-1.27787">
        <ele>5</ele>
        <time>2011-10-02T08:25:29Z</time>
      </trkpt>
      <trkpt lat="47.33899" lon="-1.27781">
        <ele>7</ele>
        <time>2011-10-02T08:25:32Z</time>
      </trkpt>
      <trkpt lat="47.33885" lon="-1.27777">
        <ele>8</ele>
        <time>2011-10-02T08:25:34Z</time>
      </trkpt>
      <trkpt lat="47.33865" lon="-1.2777">
        <ele>8</ele>
        <time>2011-10-02T08:25:37Z</time>
      </trkpt>
      <trkpt lat="47.33851" lon="-1.27766">
        <ele>9</ele>
        <time>2011-10-02T08:25:39Z</time>
      </trkpt>
      <trkpt lat="47.33837" lon="-1.27762">
        <ele>9</ele>
        <time>2011-10-02T08:25:41Z</time>
      </trkpt>
      <trkpt lat="47.33817" lon="-1.27754">
        <ele>10</ele>
        <time>2011-10-02T08:25:44Z</time>
      </trkpt>
      <trkpt lat="47.33803" lon="-1.27749">
        <ele>12</ele>
        <time>2011-10-02T08:25:46Z</time>
      </trkpt>
      <trkpt lat="47.33781" lon="-1.27742">
        <ele>13</ele>
        <time>2011-10-02T08:25:49Z</time>
      </trkpt>
      <trkpt lat="47.33767" lon="-1.27737">
        <ele>13</ele>
        <time>2011-10-02T08:25:51Z</time>
      </trkpt>
      <trkpt lat="47.33748" lon="-1.27729">
        <ele>18</ele>
        <time>2011-10-02T08:25:54Z</time>
      </trkpt>
      <trkpt lat="47.3374" lon="-1.27738">
        <ele>17</ele>
        <time>2011-10-02T08:25:56Z</time>
      </trkpt>
      <trkpt lat="47.3375" lon="-1.2775">
        <ele>12</ele>
        <time>2011-10-02T08:25:59Z</time>
      </trkpt>
      <trkpt lat="47.33769" lon="-1.27756">
        <ele>11</ele>
        <time>2011-10-02T08:26:02Z</time>
      </trkpt>
      <trkpt lat="47.33791" lon="-1.27764">
        <ele>10</ele>
        <time>2011-10-02T08:26:05Z</time>
      </trkpt>
      <trkpt lat="47.33814" lon="-1.27772">
        <ele>10</ele>
        <time>2011-10-02T08:26:08Z</time>
      </trkpt>
      <trkpt lat="47.33837" lon="-1.27779">
        <ele>9</ele>
        <time>2011-10-02T08:26:11Z</time>
      </trkpt>
      <trkpt lat="47.33858" lon="-1.27786">
        <ele>8</ele>
        <time>2011-10-02T08:26:14Z</time>
      </trkpt>
      <trkpt lat="47.33875" lon="-1.27793">
        <ele>8</ele>
        <time>2011-10-02T08:26:17Z</time>
      </trkpt>
      <trkpt lat="47.33885" lon="-1.27794">
        <ele>8</ele>
        <time>2011-10-02T08:26:19Z</time>
      </trkpt>
      <trkpt lat="47.33893" lon="-1.2779">
        <ele>8</ele>
        <time>2011-10-02T08:26:21Z</time>
      </trkpt>
      <trkpt lat="47.33901" lon="-1.27765">
        <ele>7</ele>
        <time>2011-10-02T08:26:24Z</time>
      </trkpt>
      <trkpt lat="47.33907" lon="-1.27728">
        <ele>6</ele>
        <time>2011-10-02T08:26:27Z</time>
      </trkpt>
      <trkpt lat="47.33913" lon="-1.27689">
        <ele>5</ele>
        <time>2011-10-02T08:26:30Z</time>
      </trkpt>
      <trkpt lat="47.33916" lon="-1.27665">
        <ele>3</ele>
        <time>2011-10-02T08:26:32Z</time>
      </trkpt>
      <trkpt lat="47.33921" lon="-1.27634">
        <ele>5</ele>
        <time>2011-10-02T08:26:35Z</time>
      </trkpt>
      <trkpt lat="47.33926" lon="-1.27602">
        <ele>6</ele>
        <time>2011-10-02T08:26:38Z</time>
      </trkpt>
      <trkpt lat="47.33931" lon="-1.2757">
        <ele>8</ele>
        <time>2011-10-02T08:26:41Z</time>
      </trkpt>
      <trkpt lat="47.33926" lon="-1.27543">
        <ele>7</ele>
        <time>2011-10-02T08:26:44Z</time>
      </trkpt>
      <trkpt lat="47.33918" lon="-1.27523">
        <ele>8</ele>
        <time>2011-10-02T08:26:47Z</time>
      </trkpt>
      <trkpt lat="47.33918" lon="-1.27501">
        <ele>9</ele>
        <time>2011-10-02T08:26:50Z</time>
      </trkpt>
      <trkpt lat="47.33922" lon="-1.27487">
        <ele>9</ele>
        <time>2011-10-02T08:26:52Z</time>
      </trkpt>
      <trkpt lat="47.33924" lon="-1.27471">
        <ele>9</ele>
        <time>2011-10-02T08:26:54Z</time>
      </trkpt>
      <trkpt lat="47.33925" lon="-1.27447">
        <ele>10</ele>
        <time>2011-10-02T08:26:57Z</time>
      </trkpt>
      <trkpt lat="47.33924" lon="-1.27423">
        <ele>13</ele>
        <time>2011-10-02T08:27:00Z</time>
      </trkpt>
      <trkpt lat="47.33923" lon="-1.27401">
        <ele>14</ele>
        <time>2011-10-02T08:27:03Z</time>
      </trkpt>
      <trkpt lat="47.33932" lon="-1.27379">
        <ele>14</ele>
        <time>2011-10-02T08:27:06Z</time>
      </trkpt>
      <trkpt lat="47.33943" lon="-1.27356">
        <ele>15</ele>
        <time>2011-10-02T08:27:09Z</time>
      </trkpt>
      <trkpt lat="47.33954" lon="-1.27339">
        <ele>14</ele>
        <time>2011-10-02T08:27:12Z</time>
      </trkpt>
      <trkpt lat="47.33952" lon="-1.27321">
        <ele>17</ele>
        <time>2011-10-02T08:27:15Z</time>
      </trkpt>
      <trkpt lat="47.33951" lon="-1.27311">
        <ele>17</ele>
        <time>2011-10-02T08:27:18Z</time>
      </trkpt>
      <trkpt lat="47.33949" lon="-1.27302">
        <ele>18</ele>
        <time>2011-10-02T08:27:21Z</time>
      </trkpt>
      <trkpt lat="47.33949" lon="-1.27302">
        <ele>18</ele>
        <time>2011-10-02T08:27:23Z</time>
      </trkpt>
      <trkpt lat="47.33946" lon="-1.27259">
        <ele>20</ele>
        <time>2011-10-02T08:28:03Z</time>
      </trkpt>
      <trkpt lat="47.33949" lon="-1.27246">
        <ele>21</ele>
        <time>2011-10-02T08:28:13Z</time>
      </trkpt>
      <trkpt lat="47.33949" lon="-1.27232">
        <ele>21</ele>
        <time>2011-10-02T08:28:24Z</time>
      </trkpt>
      <trkpt lat="47.33949" lon="-1.27232">
        <ele>21</ele>
        <time>2011-10-02T08:28:36Z</time>
      </trkpt>
      <trkpt lat="47.33957" lon="-1.27188">
        <ele>20</ele>
        <time>2011-10-02T08:29:12Z</time>
      </trkpt>
      <trkpt lat="47.33956" lon="-1.27164">
        <ele>22</ele>
        <time>2011-10-02T08:29:15Z</time>
      </trkpt>
      <trkpt lat="47.33953" lon="-1.27145">
        <ele>23</ele>
        <time>2011-10-02T08:29:18Z</time>
      </trkpt>
      <trkpt lat="47.33952" lon="-1.27122">
        <ele>23</ele>
        <time>2011-10-02T08:29:21Z</time>
      </trkpt>
      <trkpt lat="47.33952" lon="-1.27094">
        <ele>24</ele>
        <time>2011-10-02T08:29:24Z</time>
      </trkpt>
      <trkpt lat="47.3395" lon="-1.27075">
        <ele>24</ele>
        <time>2011-10-02T08:29:26Z</time>
      </trkpt>
      <trkpt lat="47.33948" lon="-1.27057">
        <ele>23</ele>
        <time>2011-10-02T08:29:28Z</time>
      </trkpt>
      <trkpt lat="47.33945" lon="-1.27032">
        <ele>23</ele>
        <time>2011-10-02T08:29:31Z</time>
      </trkpt>
      <trkpt lat="47.33947" lon="-1.27008">
        <ele>23</ele>
        <time>2011-10-02T08:29:34Z</time>
      </trkpt>
      <trkpt lat="47.3395" lon="-1.26985">
        <ele>21</ele>
        <time>2011-10-02T08:29:37Z</time>
      </trkpt>
      <trkpt lat="47.33953" lon="-1.26962">
        <ele>20</ele>
        <time>2011-10-02T08:29:40Z</time>
      </trkpt>
      <trkpt lat="47.33956" lon="-1.2694">
        <ele>20</ele>
        <time>2011-10-02T08:29:43Z</time>
      </trkpt>
      <trkpt lat="47.33958" lon="-1.26918">
        <ele>19</ele>
        <time>2011-10-02T08:29:46Z</time>
      </trkpt>
      <trkpt lat="47.33959" lon="-1.26895">
        <ele>20</ele>
        <time>2011-10-02T08:29:49Z</time>
      </trkpt>
      <trkpt lat="47.3396" lon="-1.2687">
        <ele>20</ele>
        <time>2011-10-02T08:29:52Z</time>
      </trkpt>
      <trkpt lat="47.3396" lon="-1.26852">
        <ele>20</ele>
        <time>2011-10-02T08:29:54Z</time>
      </trkpt>
      <trkpt lat="47.33963" lon="-1.26826">
        <ele>20</ele>
        <time>2011-10-02T08:29:57Z</time>
      </trkpt>
      <trkpt lat="47.33965" lon="-1.26809">
        <ele>20</ele>
        <time>2011-10-02T08:29:59Z</time>
      </trkpt>
      <trkpt lat="47.33966" lon="-1.26786">
        <ele>20</ele>
        <time>2011-10-02T08:30:02Z</time>
      </trkpt>
      <trkpt lat="47.33964" lon="-1.26766">
        <ele>20</ele>
        <time>2011-10-02T08:30:05Z</time>
      </trkpt>
      <trkpt lat="47.33963" lon="-1.26758">
        <ele>20</ele>
        <time>2011-10-02T08:30:07Z</time>
      </trkpt>
      <trkpt lat="47.33966" lon="-1.26714">
        <ele>24</ele>
        <time>2011-10-02T08:30:16Z</time>
      </trkpt>
      <trkpt lat="47.33969" lon="-1.26687">
        <ele>24</ele>
        <time>2011-10-02T08:30:19Z</time>
      </trkpt>
      <trkpt lat="47.33974" lon="-1.26659">
        <ele>26</ele>
        <time>2011-10-02T08:30:22Z</time>
      </trkpt>
      <trkpt lat="47.33977" lon="-1.26629">
        <ele>27</ele>
        <time>2011-10-02T08:30:25Z</time>
      </trkpt>
      <trkpt lat="47.33979" lon="-1.26609">
        <ele>26</ele>
        <time>2011-10-02T08:30:27Z</time>
      </trkpt>
      <trkpt lat="47.3398" lon="-1.26588">
        <ele>23</ele>
        <time>2011-10-02T08:30:29Z</time>
      </trkpt>
      <trkpt lat="47.33978" lon="-1.26558">
        <ele>29</ele>
        <time>2011-10-02T08:30:32Z</time>
      </trkpt>
      <trkpt lat="47.33976" lon="-1.26533">
        <ele>31</ele>
        <time>2011-10-02T08:30:35Z</time>
      </trkpt>
      <trkpt lat="47.33973" lon="-1.26509">
        <ele>30</ele>
        <time>2011-10-02T08:30:38Z</time>
      </trkpt>
      <trkpt lat="47.3397" lon="-1.26485">
        <ele>31</ele>
        <time>2011-10-02T08:30:41Z</time>
      </trkpt>
      <trkpt lat="47.33967" lon="-1.26458">
        <ele>33</ele>
        <time>2011-10-02T08:30:44Z</time>
      </trkpt>
      <trkpt lat="47.33965" lon="-1.26426">
        <ele>32</ele>
        <time>2011-10-02T08:30:47Z</time>
      </trkpt>
      <trkpt lat="47.33967" lon="-1.26393">
        <ele>28</ele>
        <time>2011-10-02T08:30:50Z</time>
      </trkpt>
      <trkpt lat="47.33968" lon="-1.26362">
        <ele>27</ele>
        <time>2011-10-02T08:30:53Z</time>
      </trkpt>
      <trkpt lat="47.33969" lon="-1.26333">
        <ele>25</ele>
        <time>2011-10-02T08:30:56Z</time>
      </trkpt>
      <trkpt lat="47.33969" lon="-1.26316">
        <ele>23</ele>
        <time>2011-10-02T08:30:58Z</time>
      </trkpt>
      <trkpt lat="47.33967" lon="-1.26291">
        <ele>23</ele>
        <time>2011-10-02T08:31:01Z</time>
      </trkpt>
      <trkpt lat="47.33965" lon="-1.26268">
        <ele>23</ele>
        <time>2011-10-02T08:31:04Z</time>
      </trkpt>
      <trkpt lat="47.33963" lon="-1.26244">
        <ele>20</ele>
        <time>2011-10-02T08:31:07Z</time>
      </trkpt>
      <trkpt lat="47.33962" lon="-1.26228">
        <ele>19</ele>
        <time>2011-10-02T08:31:09Z</time>
      </trkpt>
      <trkpt lat="47.33963" lon="-1.26204">
        <ele>19</ele>
        <time>2011-10-02T08:31:12Z</time>
      </trkpt>
      <trkpt lat="47.33967" lon="-1.26181">
        <ele>17</ele>
        <time>2011-10-02T08:31:15Z</time>
      </trkpt>
      <trkpt lat="47.3397" lon="-1.26166">
        <ele>15</ele>
        <time>2011-10-02T08:31:17Z</time>
      </trkpt>
      <trkpt lat="47.33972" lon="-1.26143">
        <ele>15</ele>
        <time>2011-10-02T08:31:20Z</time>
      </trkpt>
      <trkpt lat="47.33973" lon="-1.26118">
        <ele>15</ele>
        <time>2011-10-02T08:31:23Z</time>
      </trkpt>
      <trkpt lat="47.33974" lon="-1.26092">
        <ele>14</ele>
        <time>2011-10-02T08:31:26Z</time>
      </trkpt>
      <trkpt lat="47.33976" lon="-1.26068">
        <ele>14</ele>
        <time>2011-10-02T08:31:29Z</time>
      </trkpt>
      <trkpt lat="47.33979" lon="-1.26043">
        <ele>15</ele>
        <time>2011-10-02T08:31:32Z</time>
      </trkpt>
      <trkpt lat="47.33983" lon="-1.26026">
        <ele>13</ele>
        <time>2011-10-02T08:31:34Z</time>
      </trkpt>
      <trkpt lat="47.33987" lon="-1.26001">
        <ele>10</ele>
        <time>2011-10-02T08:31:37Z</time>
      </trkpt>
      <trkpt lat="47.3399" lon="-1.25975">
        <ele>11</ele>
        <time>2011-10-02T08:31:40Z</time>
      </trkpt>
      <trkpt lat="47.33993" lon="-1.25958">
        <ele>12</ele>
        <time>2011-10-02T08:31:42Z</time>
      </trkpt>
      <trkpt lat="47.33997" lon="-1.2593">
        <ele>10</ele>
        <time>2011-10-02T08:31:45Z</time>
      </trkpt>
      <trkpt lat="47.34" lon="-1.25912">
        <ele>8</ele>
        <time>2011-10-02T08:31:47Z</time>
      </trkpt>
      <trkpt lat="47.34005" lon="-1.25886">
        <ele>6</ele>
        <time>2011-10-02T08:31:50Z</time>
      </trkpt>
      <trkpt lat="47.34009" lon="-1.25857">
        <ele>7</ele>
        <time>2011-10-02T08:31:53Z</time>
      </trkpt>
      <trkpt lat="47.34007" lon="-1.25829">
        <ele>8</ele>
        <time>2011-10-02T08:31:56Z</time>
      </trkpt>
      <trkpt lat="47.34004" lon="-1.25803">
        <ele>7</ele>
        <time>2011-10-02T08:31:59Z</time>
      </trkpt>
      <trkpt lat="47.34004" lon="-1.25778">
        <ele>8</ele>
        <time>2011-10-02T08:32:02Z</time>
      </trkpt>
      <trkpt lat="47.34007" lon="-1.25754">
        <ele>8</ele>
        <time>2011-10-02T08:32:05Z</time>
      </trkpt>
      <trkpt lat="47.34009" lon="-1.25728">
        <ele>8</ele>
        <time>2011-10-02T08:32:08Z</time>
      </trkpt>
      <trkpt lat="47.3401" lon="-1.25709">
        <ele>7</ele>
        <time>2011-10-02T08:32:11Z</time>
      </trkpt>
      <trkpt lat="47.3401" lon="-1.25696">
        <ele>7</ele>
        <time>2011-10-02T08:32:14Z</time>
      </trkpt>
      <trkpt lat="47.34009" lon="-1.25687">
        <ele>8</ele>
        <time>2011-10-02T08:32:16Z</time>
      </trkpt>
      <trkpt lat="47.34007" lon="-1.25667">
        <ele>8</ele>
        <time>2011-10-02T08:32:19Z</time>
      </trkpt>
      <trkpt lat="47.34005" lon="-1.25638">
        <ele>8</ele>
        <time>2011-10-02T08:32:22Z</time>
      </trkpt>
      <trkpt lat="47.34004" lon="-1.25609">
        <ele>9</ele>
        <time>2011-10-02T08:32:25Z</time>
      </trkpt>
      <trkpt lat="47.34003" lon="-1.25591">
        <ele>11</ele>
        <time>2011-10-02T08:32:27Z</time>
      </trkpt>
      <trkpt lat="47.34001" lon="-1.25564">
        <ele>10</ele>
        <time>2011-10-02T08:32:30Z</time>
      </trkpt>
      <trkpt lat="47.34001" lon="-1.25548">
        <ele>10</ele>
        <time>2011-10-02T08:32:32Z</time>
      </trkpt>
      <trkpt lat="47.34001" lon="-1.25524">
        <ele>10</ele>
        <time>2011-10-02T08:32:35Z</time>
      </trkpt>
      <trkpt lat="47.34002" lon="-1.25503">
        <ele>12</ele>
        <time>2011-10-02T08:32:38Z</time>
      </trkpt>
      <trkpt lat="47.34002" lon="-1.25486">
        <ele>11</ele>
        <time>2011-10-02T08:32:41Z</time>
      </trkpt>
      <trkpt lat="47.33992" lon="-1.25476">
        <ele>17</ele>
        <time>2011-10-02T08:32:44Z</time>
      </trkpt>
      <trkpt lat="47.33981" lon="-1.25471">
        <ele>19</ele>
        <time>2011-10-02T08:32:47Z</time>
      </trkpt>
      <trkpt lat="47.33974" lon="-1.25468">
        <ele>19</ele>
        <time>2011-10-02T08:32:50Z</time>
      </trkpt>
      <trkpt lat="47.33968" lon="-1.25465">
        <ele>20</ele>
        <time>2011-10-02T08:32:54Z</time>
      </trkpt>
      <trkpt lat="47.33968" lon="-1.25465">
        <ele>20</ele>
        <time>2011-10-02T08:32:56Z</time>
      </trkpt>
      <trkpt lat="47.33978" lon="-1.25418">
        <ele>18</ele>
        <time>2011-10-02T08:33:26Z</time>
      </trkpt>
      <trkpt lat="47.33982" lon="-1.25405">
        <ele>19</ele>
        <time>2011-10-02T08:33:34Z</time>
      </trkpt>
      <trkpt lat="47.33979" lon="-1.25391">
        <ele>20</ele>
        <time>2011-10-02T08:33:42Z</time>
      </trkpt>
      <trkpt lat="47.33975" lon="-1.25378">
        <ele>21</ele>
        <time>2011-10-02T08:33:50Z</time>
      </trkpt>
      <trkpt lat="47.33969" lon="-1.25367">
        <ele>21</ele>
        <time>2011-10-02T08:33:56Z</time>
      </trkpt>
      <trkpt lat="47.33961" lon="-1.25359">
        <ele>22</ele>
        <time>2011-10-02T08:34:03Z</time>
      </trkpt>
      <trkpt lat="47.33951" lon="-1.25359">
        <ele>23</ele>
        <time>2011-10-02T08:34:09Z</time>
      </trkpt>
      <trkpt lat="47.33941" lon="-1.25361">
        <ele>24</ele>
        <time>2011-10-02T08:34:15Z</time>
      </trkpt>
      <trkpt lat="47.33932" lon="-1.25364">
        <ele>25</ele>
        <time>2011-10-02T08:34:22Z</time>
      </trkpt>
      <trkpt lat="47.33926" lon="-1.25373">
        <ele>25</ele>
        <time>2011-10-02T08:34:30Z</time>
      </trkpt>
      <trkpt lat="47.33919" lon="-1.25371">
        <ele>25</ele>
        <time>2011-10-02T08:34:36Z</time>
      </trkpt>
      <trkpt lat="47.33915" lon="-1.25364">
        <ele>34</ele>
        <time>2011-10-02T08:34:38Z</time>
      </trkpt>
      <trkpt lat="47.33911" lon="-1.25353">
        <ele>34</ele>
        <time>2011-10-02T08:34:41Z</time>
      </trkpt>
      <trkpt lat="47.33909" lon="-1.25339">
        <ele>32</ele>
        <time>2011-10-02T08:34:44Z</time>
      </trkpt>
      <trkpt lat="47.33907" lon="-1.25325">
        <ele>33</ele>
        <time>2011-10-02T08:34:47Z</time>
      </trkpt>
      <trkpt lat="47.33904" lon="-1.25312">
        <ele>34</ele>
        <time>2011-10-02T08:34:50Z</time>
      </trkpt>
      <trkpt lat="47.33902" lon="-1.25297">
        <ele>35</ele>
        <time>2011-10-02T08:34:53Z</time>
      </trkpt>
      <trkpt lat="47.339" lon="-1.25278">
        <ele>35</ele>
        <time>2011-10-02T08:34:56Z</time>
      </trkpt>
      <trkpt lat="47.33899" lon="-1.25254">
        <ele>33</ele>
        <time>2011-10-02T08:34:59Z</time>
      </trkpt>
      <trkpt lat="47.33899" lon="-1.25239">
        <ele>33</ele>
        <time>2011-10-02T08:35:01Z</time>
      </trkpt>
      <trkpt lat="47.339" lon="-1.25212">
        <ele>33</ele>
        <time>2011-10-02T08:35:04Z</time>
      </trkpt>
      <trkpt lat="47.339" lon="-1.25185">
        <ele>32</ele>
        <time>2011-10-02T08:35:07Z</time>
      </trkpt>
      <trkpt lat="47.33904" lon="-1.25162">
        <ele>28</ele>
        <time>2011-10-02T08:35:10Z</time>
      </trkpt>
      <trkpt lat="47.33907" lon="-1.25151">
        <ele>28</ele>
        <time>2011-10-02T08:35:13Z</time>
      </trkpt>
      <trkpt lat="47.33902" lon="-1.25149">
        <ele>28</ele>
        <time>2011-10-02T08:35:16Z</time>
      </trkpt>
      <trkpt lat="47.33898" lon="-1.25149">
        <ele>29</ele>
        <time>2011-10-02T08:35:18Z</time>
      </trkpt>
      <trkpt lat="47.33867" lon="-1.25157">
        <ele>32</ele>
        <time>2011-10-02T08:35:37Z</time>
      </trkpt>
      <trkpt lat="47.33867" lon="-1.25157">
        <ele>32</ele>
        <time>2011-10-02T08:35:40Z</time>
      </trkpt>
      <trkpt lat="47.33829" lon="-1.25167">
        <ele>41</ele>
        <time>2011-10-02T08:36:03Z</time>
      </trkpt>
      <trkpt lat="47.3382" lon="-1.25169">
        <ele>44</ele>
        <time>2011-10-02T08:36:09Z</time>
      </trkpt>
      <trkpt lat="47.3381" lon="-1.2517">
        <ele>46</ele>
        <time>2011-10-02T08:36:16Z</time>
      </trkpt>
      <trkpt lat="47.338" lon="-1.25172">
        <ele>47</ele>
        <time>2011-10-02T08:36:22Z</time>
      </trkpt>
      <trkpt lat="47.33791" lon="-1.25181">
        <ele>49</ele>
        <time>2011-10-02T08:36:31Z</time>
      </trkpt>
      <trkpt lat="47.33787" lon="-1.25194">
        <ele>49</ele>
        <time>2011-10-02T08:36:39Z</time>
      </trkpt>
      <trkpt lat="47.33786" lon="-1.25209">
        <ele>49</ele>
        <time>2011-10-02T08:36:47Z</time>
      </trkpt>
      <trkpt lat="47.33785" lon="-1.25217">
        <ele>50</ele>
        <time>2011-10-02T08:36:51Z</time>
      </trkpt>
      <trkpt lat="47.33785" lon="-1.25225">
        <ele>50</ele>
        <time>2011-10-02T08:36:55Z</time>
      </trkpt>
      <trkpt lat="47.33783" lon="-1.25232">
        <ele>50</ele>
        <time>2011-10-02T08:36:59Z</time>
      </trkpt>
      <trkpt lat="47.33781" lon="-1.25239">
        <ele>51</ele>
        <time>2011-10-02T08:37:03Z</time>
      </trkpt>
      <trkpt lat="47.33779" lon="-1.25247">
        <ele>51</ele>
        <time>2011-10-02T08:37:07Z</time>
      </trkpt>
      <trkpt lat="47.33778" lon="-1.25256">
        <ele>53</ele>
        <time>2011-10-02T08:37:12Z</time>
      </trkpt>
      <trkpt lat="47.33776" lon="-1.25263">
        <ele>53</ele>
        <time>2011-10-02T08:37:16Z</time>
      </trkpt>
      <trkpt lat="47.3377" lon="-1.25271">
        <ele>53</ele>
        <time>2011-10-02T08:37:22Z</time>
      </trkpt>
      <trkpt lat="47.3376" lon="-1.25274">
        <ele>54</ele>
        <time>2011-10-02T08:37:30Z</time>
      </trkpt>
      <trkpt lat="47.33752" lon="-1.2527">
        <ele>55</ele>
        <time>2011-10-02T08:37:36Z</time>
      </trkpt>
      <trkpt lat="47.33741" lon="-1.25264">
        <ele>60</ele>
        <time>2011-10-02T08:37:43Z</time>
      </trkpt>
      <trkpt lat="47.33735" lon="-1.25263">
        <ele>60</ele>
        <time>2011-10-02T08:37:46Z</time>
      </trkpt>
      <trkpt lat="47.33729" lon="-1.25263">
        <ele>60</ele>
        <time>2011-10-02T08:37:48Z</time>
      </trkpt>
      <trkpt lat="47.33721" lon="-1.25264">
        <ele>61</ele>
        <time>2011-10-02T08:37:51Z</time>
      </trkpt>
      <trkpt lat="47.33713" lon="-1.25264">
        <ele>62</ele>
        <time>2011-10-02T08:37:54Z</time>
      </trkpt>
      <trkpt lat="47.33705" lon="-1.25264">
        <ele>62</ele>
        <time>2011-10-02T08:37:57Z</time>
      </trkpt>
      <trkpt lat="47.337" lon="-1.25266">
        <ele>62</ele>
        <time>2011-10-02T08:37:59Z</time>
      </trkpt>
      <trkpt lat="47.33693" lon="-1.2527">
        <ele>63</ele>
        <time>2011-10-02T08:38:02Z</time>
      </trkpt>
      <trkpt lat="47.33688" lon="-1.2528">
        <ele>63</ele>
        <time>2011-10-02T08:38:05Z</time>
      </trkpt>
      <trkpt lat="47.33686" lon="-1.25288">
        <ele>63</ele>
        <time>2011-10-02T08:38:07Z</time>
      </trkpt>
      <trkpt lat="47.33685" lon="-1.25301">
        <ele>63</ele>
        <time>2011-10-02T08:38:10Z</time>
      </trkpt>
      <trkpt lat="47.33686" lon="-1.25314">
        <ele>64</ele>
        <time>2011-10-02T08:38:13Z</time>
      </trkpt>
      <trkpt lat="47.33687" lon="-1.25328">
        <ele>64</ele>
        <time>2011-10-02T08:38:16Z</time>
      </trkpt>
      <trkpt lat="47.33687" lon="-1.25345">
        <ele>65</ele>
        <time>2011-10-02T08:38:19Z</time>
      </trkpt>
      <trkpt lat="47.33684" lon="-1.2536">
        <ele>64</ele>
        <time>2011-10-02T08:38:22Z</time>
      </trkpt>
      <trkpt lat="47.33674" lon="-1.25367">
        <ele>64</ele>
        <time>2011-10-02T08:38:25Z</time>
      </trkpt>
      <trkpt lat="47.33662" lon="-1.2537">
        <ele>67</ele>
        <time>2011-10-02T08:38:28Z</time>
      </trkpt>
      <trkpt lat="47.33651" lon="-1.25371">
        <ele>67</ele>
        <time>2011-10-02T08:38:31Z</time>
      </trkpt>
      <trkpt lat="47.33642" lon="-1.25371">
        <ele>67</ele>
        <time>2011-10-02T08:38:33Z</time>
      </trkpt>
      <trkpt lat="47.33628" lon="-1.25372">
        <ele>67</ele>
        <time>2011-10-02T08:38:36Z</time>
      </trkpt>
      <trkpt lat="47.33619" lon="-1.25372">
        <ele>68</ele>
        <time>2011-10-02T08:38:38Z</time>
      </trkpt>
      <trkpt lat="47.33606" lon="-1.25372">
        <ele>68</ele>
        <time>2011-10-02T08:38:41Z</time>
      </trkpt>
      <trkpt lat="47.33592" lon="-1.25373">
        <ele>68</ele>
        <time>2011-10-02T08:38:44Z</time>
      </trkpt>
      <trkpt lat="47.33579" lon="-1.25376">
        <ele>69</ele>
        <time>2011-10-02T08:38:47Z</time>
      </trkpt>
      <trkpt lat="47.3357" lon="-1.25378">
        <ele>70</ele>
        <time>2011-10-02T08:38:49Z</time>
      </trkpt>
      <trkpt lat="47.33558" lon="-1.25383">
        <ele>70</ele>
        <time>2011-10-02T08:38:52Z</time>
      </trkpt>
      <trkpt lat="47.33547" lon="-1.25385">
        <ele>70</ele>
        <time>2011-10-02T08:38:55Z</time>
      </trkpt>
      <trkpt lat="47.33542" lon="-1.25375">
        <ele>70</ele>
        <time>2011-10-02T08:38:57Z</time>
      </trkpt>
      <trkpt lat="47.33537" lon="-1.25354">
        <ele>70</ele>
        <time>2011-10-02T08:39:00Z</time>
      </trkpt>
      <trkpt lat="47.33533" lon="-1.25341">
        <ele>70</ele>
        <time>2011-10-02T08:39:02Z</time>
      </trkpt>
      <trkpt lat="47.33528" lon="-1.25322">
        <ele>70</ele>
        <time>2011-10-02T08:39:05Z</time>
      </trkpt>
      <trkpt lat="47.33523" lon="-1.2531">
        <ele>70</ele>
        <time>2011-10-02T08:39:07Z</time>
      </trkpt>
      <trkpt lat="47.33514" lon="-1.2529">
        <ele>70</ele>
        <time>2011-10-02T08:39:10Z</time>
      </trkpt>
      <trkpt lat="47.33504" lon="-1.25269">
        <ele>70</ele>
        <time>2011-10-02T08:39:13Z</time>
      </trkpt>
      <trkpt lat="47.33492" lon="-1.25251">
        <ele>72</ele>
        <time>2011-10-02T08:39:16Z</time>
      </trkpt>
      <trkpt lat="47.33483" lon="-1.25238">
        <ele>71</ele>
        <time>2011-10-02T08:39:18Z</time>
      </trkpt>
      <trkpt lat="47.33468" lon="-1.25218">
        <ele>70</ele>
        <time>2011-10-02T08:39:21Z</time>
      </trkpt>
      <trkpt lat="47.33458" lon="-1.25204">
        <ele>70</ele>
        <time>2011-10-02T08:39:23Z</time>
      </trkpt>
      <trkpt lat="47.33441" lon="-1.25184">
        <ele>69</ele>
        <time>2011-10-02T08:39:26Z</time>
      </trkpt>
      <trkpt lat="47.33424" lon="-1.25162">
        <ele>67</ele>
        <time>2011-10-02T08:39:29Z</time>
      </trkpt>
      <trkpt lat="47.33412" lon="-1.25148">
        <ele>70</ele>
        <time>2011-10-02T08:39:31Z</time>
      </trkpt>
      <trkpt lat="47.33396" lon="-1.25127">
        <ele>70</ele>
        <time>2011-10-02T08:39:34Z</time>
      </trkpt>
      <trkpt lat="47.33382" lon="-1.25106">
        <ele>71</ele>
        <time>2011-10-02T08:39:37Z</time>
      </trkpt>
      <trkpt lat="47.33371" lon="-1.25086">
        <ele>72</ele>
        <time>2011-10-02T08:39:40Z</time>
      </trkpt>
      <trkpt lat="47.33365" lon="-1.25072">
        <ele>72</ele>
        <time>2011-10-02T08:39:42Z</time>
      </trkpt>
      <trkpt lat="47.3336" lon="-1.25058">
        <ele>72</ele>
        <time>2011-10-02T08:39:44Z</time>
      </trkpt>
      <trkpt lat="47.33357" lon="-1.25045">
        <ele>71</ele>
        <time>2011-10-02T08:39:46Z</time>
      </trkpt>
      <trkpt lat="47.33354" lon="-1.25024">
        <ele>71</ele>
        <time>2011-10-02T08:39:49Z</time>
      </trkpt>
      <trkpt lat="47.33353" lon="-1.2501">
        <ele>72</ele>
        <time>2011-10-02T08:39:51Z</time>
      </trkpt>
      <trkpt lat="47.33351" lon="-1.24996">
        <ele>71</ele>
        <time>2011-10-02T08:39:53Z</time>
      </trkpt>
      <trkpt lat="47.33348" lon="-1.24975">
        <ele>70</ele>
        <time>2011-10-02T08:39:56Z</time>
      </trkpt>
      <trkpt lat="47.33347" lon="-1.24961">
        <ele>70</ele>
        <time>2011-10-02T08:39:58Z</time>
      </trkpt>
      <trkpt lat="47.33348" lon="-1.24939">
        <ele>69</ele>
        <time>2011-10-02T08:40:01Z</time>
      </trkpt>
      <trkpt lat="47.33359" lon="-1.24923">
        <ele>69</ele>
        <time>2011-10-02T08:40:04Z</time>
      </trkpt>
      <trkpt lat="47.33372" lon="-1.24911">
        <ele>68</ele>
        <time>2011-10-02T08:40:07Z</time>
      </trkpt>
      <trkpt lat="47.33381" lon="-1.24905">
        <ele>68</ele>
        <time>2011-10-02T08:40:09Z</time>
      </trkpt>
      <trkpt lat="47.33398" lon="-1.24896">
        <ele>68</ele>
        <time>2011-10-02T08:40:12Z</time>
      </trkpt>
      <trkpt lat="47.33419" lon="-1.2489">
        <ele>64</ele>
        <time>2011-10-02T08:40:15Z</time>
      </trkpt>
      <trkpt lat="47.33435" lon="-1.24888">
        <ele>64</ele>
        <time>2011-10-02T08:40:17Z</time>
      </trkpt>
      <trkpt lat="47.33452" lon="-1.24888">
        <ele>63</ele>
        <time>2011-10-02T08:40:19Z</time>
      </trkpt>
      <trkpt lat="47.33477" lon="-1.24892">
        <ele>62</ele>
        <time>2011-10-02T08:40:22Z</time>
      </trkpt>
      <trkpt lat="47.33496" lon="-1.24904">
        <ele>60</ele>
        <time>2011-10-02T08:40:25Z</time>
      </trkpt>
      <trkpt lat="47.33511" lon="-1.24916">
        <ele>58</ele>
        <time>2011-10-02T08:40:28Z</time>
      </trkpt>
      <trkpt lat="47.33525" lon="-1.24925">
        <ele>54</ele>
        <time>2011-10-02T08:40:31Z</time>
      </trkpt>
      <trkpt lat="47.33539" lon="-1.2493">
        <ele>53</ele>
        <time>2011-10-02T08:40:34Z</time>
      </trkpt>
      <trkpt lat="47.33558" lon="-1.2493">
        <ele>52</ele>
        <time>2011-10-02T08:40:37Z</time>
      </trkpt>
      <trkpt lat="47.33573" lon="-1.24928">
        <ele>51</ele>
        <time>2011-10-02T08:40:39Z</time>
      </trkpt>
      <trkpt lat="47.33591" lon="-1.24926">
        <ele>49</ele>
        <time>2011-10-02T08:40:41Z</time>
      </trkpt>
      <trkpt lat="47.3362" lon="-1.24926">
        <ele>47</ele>
        <time>2011-10-02T08:40:44Z</time>
      </trkpt>
      <trkpt lat="47.33649" lon="-1.24929">
        <ele>45</ele>
        <time>2011-10-02T08:40:47Z</time>
      </trkpt>
      <trkpt lat="47.33678" lon="-1.24929">
        <ele>41</ele>
        <time>2011-10-02T08:40:50Z</time>
      </trkpt>
      <trkpt lat="47.33705" lon="-1.24926">
        <ele>40</ele>
        <time>2011-10-02T08:40:53Z</time>
      </trkpt>
      <trkpt lat="47.33733" lon="-1.24918">
        <ele>37</ele>
        <time>2011-10-02T08:40:56Z</time>
      </trkpt>
      <trkpt lat="47.33759" lon="-1.24909">
        <ele>31</ele>
        <time>2011-10-02T08:40:59Z</time>
      </trkpt>
      <trkpt lat="47.33786" lon="-1.24903">
        <ele>27</ele>
        <time>2011-10-02T08:41:02Z</time>
      </trkpt>
      <trkpt lat="47.33809" lon="-1.24903">
        <ele>24</ele>
        <time>2011-10-02T08:41:05Z</time>
      </trkpt>
      <trkpt lat="47.33821" lon="-1.24916">
        <ele>20</ele>
        <time>2011-10-02T08:41:08Z</time>
      </trkpt>
      <trkpt lat="47.33824" lon="-1.24936">
        <ele>23</ele>
        <time>2011-10-02T08:41:11Z</time>
      </trkpt>
      <trkpt lat="47.33836" lon="-1.24944">
        <ele>17</ele>
        <time>2011-10-02T08:41:14Z</time>
      </trkpt>
      <trkpt lat="47.33845" lon="-1.24948">
        <ele>16</ele>
        <time>2011-10-02T08:41:16Z</time>
      </trkpt>
      <trkpt lat="47.3386" lon="-1.24953">
        <ele>16</ele>
        <time>2011-10-02T08:41:19Z</time>
      </trkpt>
      <trkpt lat="47.3387" lon="-1.24955">
        <ele>15</ele>
        <time>2011-10-02T08:41:21Z</time>
      </trkpt>
      <trkpt lat="47.33886" lon="-1.24958">
        <ele>14</ele>
        <time>2011-10-02T08:41:24Z</time>
      </trkpt>
      <trkpt lat="47.33898" lon="-1.24953">
        <ele>13</ele>
        <time>2011-10-02T08:41:26Z</time>
      </trkpt>
      <trkpt lat="47.33915" lon="-1.24943">
        <ele>12</ele>
        <time>2011-10-02T08:41:29Z</time>
      </trkpt>
      <trkpt lat="47.33924" lon="-1.24937">
        <ele>7</ele>
        <time>2011-10-02T08:41:31Z</time>
      </trkpt>
      <trkpt lat="47.3393" lon="-1.24934">
        <ele>7</ele>
        <time>2011-10-02T08:41:33Z</time>
      </trkpt>
      <trkpt lat="47.33936" lon="-1.24931">
        <ele>7</ele>
        <time>2011-10-02T08:41:35Z</time>
      </trkpt>
      <trkpt lat="47.33945" lon="-1.24926">
        <ele>7</ele>
        <time>2011-10-02T08:41:38Z</time>
      </trkpt>
      <trkpt lat="47.33952" lon="-1.24923">
        <ele>7</ele>
        <time>2011-10-02T08:41:40Z</time>
      </trkpt>
      <trkpt lat="47.33962" lon="-1.24916">
        <ele>7</ele>
        <time>2011-10-02T08:41:43Z</time>
      </trkpt>
      <trkpt lat="47.33971" lon="-1.24911">
        <ele>7</ele>
        <time>2011-10-02T08:41:46Z</time>
      </trkpt>
      <trkpt lat="47.3398" lon="-1.24906">
        <ele>6</ele>
        <time>2011-10-02T08:41:49Z</time>
      </trkpt>
      <trkpt lat="47.33988" lon="-1.24901">
        <ele>6</ele>
        <time>2011-10-02T08:41:52Z</time>
      </trkpt>
      <trkpt lat="47.33995" lon="-1.24896">
        <ele>6</ele>
        <time>2011-10-02T08:41:55Z</time>
      </trkpt>
      <trkpt lat="47.34003" lon="-1.24892">
        <ele>6</ele>
        <time>2011-10-02T08:41:58Z</time>
      </trkpt>
      <trkpt lat="47.34012" lon="-1.24888">
        <ele>6</ele>
        <time>2011-10-02T08:42:01Z</time>
      </trkpt>
      <trkpt lat="47.3402" lon="-1.24883">
        <ele>6</ele>
        <time>2011-10-02T08:42:04Z</time>
      </trkpt>
      <trkpt lat="47.34028" lon="-1.24878">
        <ele>6</ele>
        <time>2011-10-02T08:42:07Z</time>
      </trkpt>
      <trkpt lat="47.34028" lon="-1.24878">
        <ele>6</ele>
        <time>2011-10-02T08:42:10Z</time>
      </trkpt>
      <trkpt lat="47.34046" lon="-1.24881">
        <ele>6</ele>
        <time>2011-10-02T08:42:16Z</time>
      </trkpt>
      <trkpt lat="47.34059" lon="-1.24875">
        <ele>6</ele>
        <time>2011-10-02T08:42:19Z</time>
      </trkpt>
      <trkpt lat="47.34075" lon="-1.24865">
        <ele>7</ele>
        <time>2011-10-02T08:42:22Z</time>
      </trkpt>
      <trkpt lat="47.34086" lon="-1.24857">
        <ele>7</ele>
        <time>2011-10-02T08:42:24Z</time>
      </trkpt>
      <trkpt lat="47.34101" lon="-1.24846">
        <ele>7</ele>
        <time>2011-10-02T08:42:27Z</time>
      </trkpt>
      <trkpt lat="47.34111" lon="-1.24838">
        <ele>7</ele>
        <time>2011-10-02T08:42:29Z</time>
      </trkpt>
      <trkpt lat="47.34127" lon="-1.24828">
        <ele>7</ele>
        <time>2011-10-02T08:42:32Z</time>
      </trkpt>
      <trkpt lat="47.34142" lon="-1.24818">
        <ele>7</ele>
        <time>2011-10-02T08:42:35Z</time>
      </trkpt>
      <trkpt lat="47.34157" lon="-1.24816">
        <ele>7</ele>
        <time>2011-10-02T08:42:38Z</time>
      </trkpt>
      <trkpt lat="47.34169" lon="-1.24822">
        <ele>7</ele>
        <time>2011-10-02T08:42:40Z</time>
      </trkpt>
      <trkpt lat="47.34181" lon="-1.24833">
        <ele>7</ele>
        <time>2011-10-02T08:42:43Z</time>
      </trkpt>
      <trkpt lat="47.34186" lon="-1.24843">
        <ele>7</ele>
        <time>2011-10-02T08:42:46Z</time>
      </trkpt>
      <trkpt lat="47.34186" lon="-1.24843">
        <ele>7</ele>
        <time>2011-10-02T08:42:47Z</time>
      </trkpt>
      <trkpt lat="47.34205" lon="-1.24856">
        <ele>7</ele>
        <time>2011-10-02T08:43:07Z</time>
      </trkpt>
      <trkpt lat="47.34213" lon="-1.2484">
        <ele>7</ele>
        <time>2011-10-02T08:43:10Z</time>
      </trkpt>
      <trkpt lat="47.34218" lon="-1.24823">
        <ele>6</ele>
        <time>2011-10-02T08:43:13Z</time>
      </trkpt>
      <trkpt lat="47.34223" lon="-1.24806">
        <ele>6</ele>
        <time>2011-10-02T08:43:16Z</time>
      </trkpt>
      <trkpt lat="47.34226" lon="-1.24796">
        <ele>6</ele>
        <time>2011-10-02T08:43:18Z</time>
      </trkpt>
      <trkpt lat="47.3423" lon="-1.24781">
        <ele>5</ele>
        <time>2011-10-02T08:43:21Z</time>
      </trkpt>
      <trkpt lat="47.34234" lon="-1.24771">
        <ele>5</ele>
        <time>2011-10-02T08:43:23Z</time>
      </trkpt>
      <trkpt lat="47.34238" lon="-1.24756">
        <ele>4</ele>
        <time>2011-10-02T08:43:26Z</time>
      </trkpt>
      <trkpt lat="47.34244" lon="-1.2474">
        <ele>4</ele>
        <time>2011-10-02T08:43:29Z</time>
      </trkpt>
      <trkpt lat="47.34247" lon="-1.2473">
        <ele>4</ele>
        <time>2011-10-02T08:43:31Z</time>
      </trkpt>
      <trkpt lat="47.34251" lon="-1.24717">
        <ele>4</ele>
        <time>2011-10-02T08:43:34Z</time>
      </trkpt>
      <trkpt lat="47.34253" lon="-1.2471">
        <ele>4</ele>
        <time>2011-10-02T08:43:36Z</time>
      </trkpt>
      <trkpt lat="47.34256" lon="-1.247">
        <ele>4</ele>
        <time>2011-10-02T08:43:39Z</time>
      </trkpt>
      <trkpt lat="47.3426" lon="-1.24679">
        <ele>4</ele>
        <time>2011-10-02T08:43:45Z</time>
      </trkpt>
      <trkpt lat="47.34262" lon="-1.24666">
        <ele>4</ele>
        <time>2011-10-02T08:43:48Z</time>
      </trkpt>
      <trkpt lat="47.34264" lon="-1.24657">
        <ele>5</ele>
        <time>2011-10-02T08:43:50Z</time>
      </trkpt>
      <trkpt lat="47.34266" lon="-1.24643">
        <ele>5</ele>
        <time>2011-10-02T08:43:53Z</time>
      </trkpt>
      <trkpt lat="47.34267" lon="-1.24634">
        <ele>5</ele>
        <time>2011-10-02T08:43:55Z</time>
      </trkpt>
      <trkpt lat="47.34268" lon="-1.24626">
        <ele>5</ele>
        <time>2011-10-02T08:43:58Z</time>
      </trkpt>
      <trkpt lat="47.34268" lon="-1.24626">
        <ele>5</ele>
        <time>2011-10-02T08:44:00Z</time>
      </trkpt>
      <trkpt lat="47.34276" lon="-1.24605">
        <ele>5</ele>
        <time>2011-10-02T08:44:16Z</time>
      </trkpt>
      <trkpt lat="47.34281" lon="-1.24582">
        <ele>6</ele>
        <time>2011-10-02T08:44:19Z</time>
      </trkpt>
      <trkpt lat="47.34287" lon="-1.24558">
        <ele>6</ele>
        <time>2011-10-02T08:44:22Z</time>
      </trkpt>
      <trkpt lat="47.34294" lon="-1.24535">
        <ele>6</ele>
        <time>2011-10-02T08:44:25Z</time>
      </trkpt>
      <trkpt lat="47.343" lon="-1.24511">
        <ele>6</ele>
        <time>2011-10-02T08:44:28Z</time>
      </trkpt>
      <trkpt lat="47.34307" lon="-1.24489">
        <ele>6</ele>
        <time>2011-10-02T08:44:31Z</time>
      </trkpt>
      <trkpt lat="47.34314" lon="-1.24467">
        <ele>6</ele>
        <time>2011-10-02T08:44:34Z</time>
      </trkpt>
      <trkpt lat="47.34321" lon="-1.24445">
        <ele>6</ele>
        <time>2011-10-02T08:44:37Z</time>
      </trkpt>
      <trkpt lat="47.34328" lon="-1.24423">
        <ele>5</ele>
        <time>2011-10-02T08:44:40Z</time>
      </trkpt>
      <trkpt lat="47.34333" lon="-1.24407">
        <ele>5</ele>
        <time>2011-10-02T08:44:42Z</time>
      </trkpt>
      <trkpt lat="47.3434" lon="-1.24385">
        <ele>5</ele>
        <time>2011-10-02T08:44:45Z</time>
      </trkpt>
      <trkpt lat="47.34345" lon="-1.24369">
        <ele>5</ele>
        <time>2011-10-02T08:44:47Z</time>
      </trkpt>
      <trkpt lat="47.34353" lon="-1.24346">
        <ele>6</ele>
        <time>2011-10-02T08:44:50Z</time>
      </trkpt>
      <trkpt lat="47.3436" lon="-1.24323">
        <ele>6</ele>
        <time>2011-10-02T08:44:53Z</time>
      </trkpt>
      <trkpt lat="47.34367" lon="-1.243">
        <ele>6</ele>
        <time>2011-10-02T08:44:56Z</time>
      </trkpt>
      <trkpt lat="47.34373" lon="-1.24276">
        <ele>6</ele>
        <time>2011-10-02T08:44:59Z</time>
      </trkpt>
      <trkpt lat="47.34379" lon="-1.24253">
        <ele>6</ele>
        <time>2011-10-02T08:45:02Z</time>
      </trkpt>
      <trkpt lat="47.34386" lon="-1.24229">
        <ele>6</ele>
        <time>2011-10-02T08:45:05Z</time>
      </trkpt>
      <trkpt lat="47.34392" lon="-1.24205">
        <ele>6</ele>
        <time>2011-10-02T08:45:08Z</time>
      </trkpt>
      <trkpt lat="47.344" lon="-1.24182">
        <ele>6</ele>
        <time>2011-10-02T08:45:11Z</time>
      </trkpt>
      <trkpt lat="47.34404" lon="-1.24167">
        <ele>5</ele>
        <time>2011-10-02T08:45:13Z</time>
      </trkpt>
      <trkpt lat="47.3441" lon="-1.24145">
        <ele>6</ele>
        <time>2011-10-02T08:45:16Z</time>
      </trkpt>
      <trkpt lat="47.34414" lon="-1.24131">
        <ele>6</ele>
        <time>2011-10-02T08:45:18Z</time>
      </trkpt>
      <trkpt lat="47.34417" lon="-1.24116">
        <ele>6</ele>
        <time>2011-10-02T08:45:20Z</time>
      </trkpt>
      <trkpt lat="47.34421" lon="-1.24093">
        <ele>6</ele>
        <time>2011-10-02T08:45:23Z</time>
      </trkpt>
      <trkpt lat="47.34426" lon="-1.2407">
        <ele>6</ele>
        <time>2011-10-02T08:45:26Z</time>
      </trkpt>
      <trkpt lat="47.34431" lon="-1.24046">
        <ele>6</ele>
        <time>2011-10-02T08:45:29Z</time>
      </trkpt>
      <trkpt lat="47.34434" lon="-1.24031">
        <ele>6</ele>
        <time>2011-10-02T08:45:31Z</time>
      </trkpt>
      <trkpt lat="47.34438" lon="-1.24015">
        <ele>6</ele>
        <time>2011-10-02T08:45:33Z</time>
      </trkpt>
      <trkpt lat="47.34441" lon="-1.23999">
        <ele>6</ele>
        <time>2011-10-02T08:45:35Z</time>
      </trkpt>
      <trkpt lat="47.34446" lon="-1.23976">
        <ele>6</ele>
        <time>2011-10-02T08:45:38Z</time>
      </trkpt>
      <trkpt lat="47.34451" lon="-1.23954">
        <ele>6</ele>
        <time>2011-10-02T08:45:41Z</time>
      </trkpt>
      <trkpt lat="47.34456" lon="-1.23932">
        <ele>6</ele>
        <time>2011-10-02T08:45:44Z</time>
      </trkpt>
      <trkpt lat="47.3446" lon="-1.2391">
        <ele>6</ele>
        <time>2011-10-02T08:45:47Z</time>
      </trkpt>
      <trkpt lat="47.34465" lon="-1.23888">
        <ele>6</ele>
        <time>2011-10-02T08:45:50Z</time>
      </trkpt>
      <trkpt lat="47.34471" lon="-1.23867">
        <ele>6</ele>
        <time>2011-10-02T08:45:53Z</time>
      </trkpt>
      <trkpt lat="47.34476" lon="-1.23846">
        <ele>5</ele>
        <time>2011-10-02T08:45:56Z</time>
      </trkpt>
      <trkpt lat="47.3448" lon="-1.23834">
        <ele>5</ele>
        <time>2011-10-02T08:45:58Z</time>
      </trkpt>
      <trkpt lat="47.34485" lon="-1.23817">
        <ele>5</ele>
        <time>2011-10-02T08:46:01Z</time>
      </trkpt>
      <trkpt lat="47.34485" lon="-1.23817">
        <ele>5</ele>
        <time>2011-10-02T08:46:02Z</time>
      </trkpt>
      <trkpt lat="47.34491" lon="-1.23784">
        <ele>6</ele>
        <time>2011-10-02T08:46:28Z</time>
      </trkpt>
      <trkpt lat="47.34493" lon="-1.23767">
        <ele>6</ele>
        <time>2011-10-02T08:46:31Z</time>
      </trkpt>
      <trkpt lat="47.34496" lon="-1.23751">
        <ele>6</ele>
        <time>2011-10-02T08:46:34Z</time>
      </trkpt>
      <trkpt lat="47.34498" lon="-1.23741">
        <ele>6</ele>
        <time>2011-10-02T08:46:36Z</time>
      </trkpt>
      <trkpt lat="47.34502" lon="-1.23727">
        <ele>6</ele>
        <time>2011-10-02T08:46:39Z</time>
      </trkpt>
      <trkpt lat="47.34503" lon="-1.23714">
        <ele>6</ele>
        <time>2011-10-02T08:46:42Z</time>
      </trkpt>
      <trkpt lat="47.34504" lon="-1.23699">
        <ele>7</ele>
        <time>2011-10-02T08:46:45Z</time>
      </trkpt>
      <trkpt lat="47.34509" lon="-1.23679">
        <ele>7</ele>
        <time>2011-10-02T08:46:48Z</time>
      </trkpt>
      <trkpt lat="47.34515" lon="-1.23658">
        <ele>7</ele>
        <time>2011-10-02T08:46:51Z</time>
      </trkpt>
      <trkpt lat="47.34519" lon="-1.23643">
        <ele>7</ele>
        <time>2011-10-02T08:46:53Z</time>
      </trkpt>
      <trkpt lat="47.34525" lon="-1.2362">
        <ele>6</ele>
        <time>2011-10-02T08:46:56Z</time>
      </trkpt>
      <trkpt lat="47.34528" lon="-1.23605">
        <ele>6</ele>
        <time>2011-10-02T08:46:58Z</time>
      </trkpt>
      <trkpt lat="47.34534" lon="-1.23582">
        <ele>7</ele>
        <time>2011-10-02T08:47:01Z</time>
      </trkpt>
      <trkpt lat="47.34537" lon="-1.23566">
        <ele>7</ele>
        <time>2011-10-02T08:47:03Z</time>
      </trkpt>
      <trkpt lat="47.34541" lon="-1.23543">
        <ele>7</ele>
        <time>2011-10-02T08:47:06Z</time>
      </trkpt>
      <trkpt lat="47.34545" lon="-1.23528">
        <ele>7</ele>
        <time>2011-10-02T08:47:08Z</time>
      </trkpt>
      <trkpt lat="47.3455" lon="-1.23506">
        <ele>7</ele>
        <time>2011-10-02T08:47:11Z</time>
      </trkpt>
      <trkpt lat="47.34555" lon="-1.23484">
        <ele>7</ele>
        <time>2011-10-02T08:47:14Z</time>
      </trkpt>
      <trkpt lat="47.34559" lon="-1.23462">
        <ele>7</ele>
        <time>2011-10-02T08:47:17Z</time>
      </trkpt>
      <trkpt lat="47.34562" lon="-1.23441">
        <ele>7</ele>
        <time>2011-10-02T08:47:20Z</time>
      </trkpt>
      <trkpt lat="47.34561" lon="-1.23419">
        <ele>7</ele>
        <time>2011-10-02T08:47:23Z</time>
      </trkpt>
      <trkpt lat="47.34562" lon="-1.23397">
        <ele>6</ele>
        <time>2011-10-02T08:47:26Z</time>
      </trkpt>
      <trkpt lat="47.34563" lon="-1.23374">
        <ele>6</ele>
        <time>2011-10-02T08:47:29Z</time>
      </trkpt>
      <trkpt lat="47.34562" lon="-1.2335">
        <ele>6</ele>
        <time>2011-10-02T08:47:32Z</time>
      </trkpt>
      <trkpt lat="47.34559" lon="-1.23327">
        <ele>6</ele>
        <time>2011-10-02T08:47:35Z</time>
      </trkpt>
      <trkpt lat="47.34558" lon="-1.23312">
        <ele>7</ele>
        <time>2011-10-02T08:47:37Z</time>
      </trkpt>
      <trkpt lat="47.34556" lon="-1.2329">
        <ele>7</ele>
        <time>2011-10-02T08:47:40Z</time>
      </trkpt>
      <trkpt lat="47.34551" lon="-1.23271">
        <ele>7</ele>
        <time>2011-10-02T08:47:43Z</time>
      </trkpt>
      <trkpt lat="47.3454" lon="-1.23264">
        <ele>7</ele>
        <time>2011-10-02T08:47:46Z</time>
      </trkpt>
      <trkpt lat="47.34536" lon="-1.23256">
        <ele>7</ele>
        <time>2011-10-02T08:47:49Z</time>
      </trkpt>
      <trkpt lat="47.34545" lon="-1.23243">
        <ele>7</ele>
        <time>2011-10-02T08:47:52Z</time>
      </trkpt>
      <trkpt lat="47.34555" lon="-1.23231">
        <ele>7</ele>
        <time>2011-10-02T08:47:55Z</time>
      </trkpt>
      <trkpt lat="47.34561" lon="-1.2322">
        <ele>7</ele>
        <time>2011-10-02T08:47:57Z</time>
      </trkpt>
      <trkpt lat="47.34571" lon="-1.23195">
        <ele>7</ele>
        <time>2011-10-02T08:48:00Z</time>
      </trkpt>
      <trkpt lat="47.34577" lon="-1.23175">
        <ele>8</ele>
        <time>2011-10-02T08:48:02Z</time>
      </trkpt>
      <trkpt lat="47.34591" lon="-1.23143">
        <ele>7</ele>
        <time>2011-10-02T08:48:05Z</time>
      </trkpt>
      <trkpt lat="47.34599" lon="-1.23125">
        <ele>7</ele>
        <time>2011-10-02T08:48:07Z</time>
      </trkpt>
      <trkpt lat="47.34609" lon="-1.23097">
        <ele>8</ele>
        <time>2011-10-02T08:48:10Z</time>
      </trkpt>
      <trkpt lat="47.34617" lon="-1.23069">
        <ele>8</ele>
        <time>2011-10-02T08:48:13Z</time>
      </trkpt>
      <trkpt lat="47.34616" lon="-1.23052">
        <ele>8</ele>
        <time>2011-10-02T08:48:15Z</time>
      </trkpt>
      <trkpt lat="47.34612" lon="-1.23034">
        <ele>8</ele>
        <time>2011-10-02T08:48:17Z</time>
      </trkpt>
      <trkpt lat="47.34605" lon="-1.23006">
        <ele>9</ele>
        <time>2011-10-02T08:48:20Z</time>
      </trkpt>
      <trkpt lat="47.34601" lon="-1.22977">
        <ele>9</ele>
        <time>2011-10-02T08:48:23Z</time>
      </trkpt>
      <trkpt lat="47.34587" lon="-1.22956">
        <ele>9</ele>
        <time>2011-10-02T08:48:26Z</time>
      </trkpt>
      <trkpt lat="47.34576" lon="-1.22943">
        <ele>10</ele>
        <time>2011-10-02T08:48:28Z</time>
      </trkpt>
      <trkpt lat="47.3456" lon="-1.22923">
        <ele>10</ele>
        <time>2011-10-02T08:48:31Z</time>
      </trkpt>
      <trkpt lat="47.3455" lon="-1.22908">
        <ele>10</ele>
        <time>2011-10-02T08:48:33Z</time>
      </trkpt>
      <trkpt lat="47.34534" lon="-1.22887">
        <ele>10</ele>
        <time>2011-10-02T08:48:36Z</time>
      </trkpt>
      <trkpt lat="47.34519" lon="-1.22867">
        <ele>9</ele>
        <time>2011-10-02T08:48:39Z</time>
      </trkpt>
      <trkpt lat="47.34502" lon="-1.22848">
        <ele>9</ele>
        <time>2011-10-02T08:48:42Z</time>
      </trkpt>
      <trkpt lat="47.34485" lon="-1.22829">
        <ele>8</ele>
        <time>2011-10-02T08:48:45Z</time>
      </trkpt>
      <trkpt lat="47.34468" lon="-1.22808">
        <ele>8</ele>
        <time>2011-10-02T08:48:48Z</time>
      </trkpt>
      <trkpt lat="47.34456" lon="-1.22795">
        <ele>8</ele>
        <time>2011-10-02T08:48:50Z</time>
      </trkpt>
      <trkpt lat="47.34438" lon="-1.22776">
        <ele>8</ele>
        <time>2011-10-02T08:48:53Z</time>
      </trkpt>
      <trkpt lat="47.34426" lon="-1.22763">
        <ele>8</ele>
        <time>2011-10-02T08:48:55Z</time>
      </trkpt>
      <trkpt lat="47.34409" lon="-1.22745">
        <ele>8</ele>
        <time>2011-10-02T08:48:58Z</time>
      </trkpt>
      <trkpt lat="47.34397" lon="-1.22733">
        <ele>8</ele>
        <time>2011-10-02T08:49:00Z</time>
      </trkpt>
      <trkpt lat="47.34386" lon="-1.22722">
        <ele>8</ele>
        <time>2011-10-02T08:49:02Z</time>
      </trkpt>
      <trkpt lat="47.34375" lon="-1.22711">
        <ele>8</ele>
        <time>2011-10-02T08:49:04Z</time>
      </trkpt>
      <trkpt lat="47.34358" lon="-1.22694">
        <ele>7</ele>
        <time>2011-10-02T08:49:07Z</time>
      </trkpt>
      <trkpt lat="47.34339" lon="-1.22674">
        <ele>7</ele>
        <time>2011-10-02T08:49:10Z</time>
      </trkpt>
      <trkpt lat="47.3432" lon="-1.22653">
        <ele>7</ele>
        <time>2011-10-02T08:49:13Z</time>
      </trkpt>
      <trkpt lat="47.34299" lon="-1.22638">
        <ele>8</ele>
        <time>2011-10-02T08:49:16Z</time>
      </trkpt>
      <trkpt lat="47.34283" lon="-1.22636">
        <ele>8</ele>
        <time>2011-10-02T08:49:18Z</time>
      </trkpt>
      <trkpt lat="47.3426" lon="-1.2264">
        <ele>8</ele>
        <time>2011-10-02T08:49:21Z</time>
      </trkpt>
      <trkpt lat="47.3424" lon="-1.2265">
        <ele>8</ele>
        <time>2011-10-02T08:49:24Z</time>
      </trkpt>
      <trkpt lat="47.34223" lon="-1.2266">
        <ele>8</ele>
        <time>2011-10-02T08:49:27Z</time>
      </trkpt>
      <trkpt lat="47.34216" lon="-1.22657">
        <ele>8</ele>
        <time>2011-10-02T08:49:29Z</time>
      </trkpt>
      <trkpt lat="47.34212" lon="-1.22646">
        <ele>9</ele>
        <time>2011-10-02T08:49:31Z</time>
      </trkpt>
      <trkpt lat="47.3421" lon="-1.22622">
        <ele>9</ele>
        <time>2011-10-02T08:49:34Z</time>
      </trkpt>
      <trkpt lat="47.34212" lon="-1.22588">
        <ele>9</ele>
        <time>2011-10-02T08:49:37Z</time>
      </trkpt>
      <trkpt lat="47.34214" lon="-1.22566">
        <ele>9</ele>
        <time>2011-10-02T08:49:39Z</time>
      </trkpt>
      <trkpt lat="47.34217" lon="-1.22545">
        <ele>9</ele>
        <time>2011-10-02T08:49:41Z</time>
      </trkpt>
      <trkpt lat="47.3422" lon="-1.22513">
        <ele>9</ele>
        <time>2011-10-02T08:49:44Z</time>
      </trkpt>
      <trkpt lat="47.34222" lon="-1.22481">
        <ele>9</ele>
        <time>2011-10-02T08:49:47Z</time>
      </trkpt>
      <trkpt lat="47.34225" lon="-1.2245">
        <ele>8</ele>
        <time>2011-10-02T08:49:50Z</time>
      </trkpt>
      <trkpt lat="47.34227" lon="-1.22421">
        <ele>8</ele>
        <time>2011-10-02T08:49:53Z</time>
      </trkpt>
      <trkpt lat="47.34228" lon="-1.22392">
        <ele>9</ele>
        <time>2011-10-02T08:49:56Z</time>
      </trkpt>
      <trkpt lat="47.3423" lon="-1.22363">
        <ele>9</ele>
        <time>2011-10-02T08:49:59Z</time>
      </trkpt>
      <trkpt lat="47.34233" lon="-1.22334">
        <ele>9</ele>
        <time>2011-10-02T08:50:02Z</time>
      </trkpt>
      <trkpt lat="47.34236" lon="-1.22314">
        <ele>10</ele>
        <time>2011-10-02T08:50:04Z</time>
      </trkpt>
      <trkpt lat="47.34238" lon="-1.22293">
        <ele>10</ele>
        <time>2011-10-02T08:50:06Z</time>
      </trkpt>
      <trkpt lat="47.34242" lon="-1.22263">
        <ele>10</ele>
        <time>2011-10-02T08:50:09Z</time>
      </trkpt>
      <trkpt lat="47.34245" lon="-1.22242">
        <ele>10</ele>
        <time>2011-10-02T08:50:11Z</time>
      </trkpt>
      <trkpt lat="47.34249" lon="-1.22212">
        <ele>11</ele>
        <time>2011-10-02T08:50:14Z</time>
      </trkpt>
      <trkpt lat="47.34253" lon="-1.22192">
        <ele>8</ele>
        <time>2011-10-02T08:50:16Z</time>
      </trkpt>
      <trkpt lat="47.34258" lon="-1.22162">
        <ele>9</ele>
        <time>2011-10-02T08:50:19Z</time>
      </trkpt>
      <trkpt lat="47.34263" lon="-1.22131">
        <ele>8</ele>
        <time>2011-10-02T08:50:22Z</time>
      </trkpt>
      <trkpt lat="47.34267" lon="-1.22111">
        <ele>8</ele>
        <time>2011-10-02T08:50:24Z</time>
      </trkpt>
      <trkpt lat="47.34269" lon="-1.22091">
        <ele>9</ele>
        <time>2011-10-02T08:50:26Z</time>
      </trkpt>
      <trkpt lat="47.34275" lon="-1.22062">
        <ele>8</ele>
        <time>2011-10-02T08:50:29Z</time>
      </trkpt>
      <trkpt lat="47.34287" lon="-1.22038">
        <ele>8</ele>
        <time>2011-10-02T08:50:32Z</time>
      </trkpt>
      <trkpt lat="47.34295" lon="-1.2201">
        <ele>8</ele>
        <time>2011-10-02T08:50:35Z</time>
      </trkpt>
      <trkpt lat="47.34298" lon="-1.2199">
        <ele>8</ele>
        <time>2011-10-02T08:50:37Z</time>
      </trkpt>
      <trkpt lat="47.34301" lon="-1.2196">
        <ele>8</ele>
        <time>2011-10-02T08:50:40Z</time>
      </trkpt>
      <trkpt lat="47.34303" lon="-1.21929">
        <ele>8</ele>
        <time>2011-10-02T08:50:43Z</time>
      </trkpt>
      <trkpt lat="47.34303" lon="-1.21908">
        <ele>8</ele>
        <time>2011-10-02T08:50:45Z</time>
      </trkpt>
      <trkpt lat="47.34305" lon="-1.21876">
        <ele>8</ele>
        <time>2011-10-02T08:50:48Z</time>
      </trkpt>
      <trkpt lat="47.34306" lon="-1.21844">
        <ele>8</ele>
        <time>2011-10-02T08:50:51Z</time>
      </trkpt>
      <trkpt lat="47.34305" lon="-1.21825">
        <ele>7</ele>
        <time>2011-10-02T08:50:53Z</time>
      </trkpt>
      <trkpt lat="47.34298" lon="-1.21812">
        <ele>6</ele>
        <time>2011-10-02T08:50:55Z</time>
      </trkpt>
      <trkpt lat="47.34282" lon="-1.21813">
        <ele>7</ele>
        <time>2011-10-02T08:50:58Z</time>
      </trkpt>
      <trkpt lat="47.34271" lon="-1.21814">
        <ele>7</ele>
        <time>2011-10-02T08:51:00Z</time>
      </trkpt>
      <trkpt lat="47.3426" lon="-1.21813">
        <ele>7</ele>
        <time>2011-10-02T08:51:02Z</time>
      </trkpt>
      <trkpt lat="47.34244" lon="-1.21811">
        <ele>10</ele>
        <time>2011-10-02T08:51:05Z</time>
      </trkpt>
      <trkpt lat="47.34234" lon="-1.2181">
        <ele>11</ele>
        <time>2011-10-02T08:51:07Z</time>
      </trkpt>
      <trkpt lat="47.34219" lon="-1.2181">
        <ele>12</ele>
        <time>2011-10-02T08:51:10Z</time>
      </trkpt>
      <trkpt lat="47.34208" lon="-1.2181">
        <ele>12</ele>
        <time>2011-10-02T08:51:13Z</time>
      </trkpt>
      <trkpt lat="47.342" lon="-1.21812">
        <ele>13</ele>
        <time>2011-10-02T08:51:16Z</time>
      </trkpt>
      <trkpt lat="47.34194" lon="-1.21817">
        <ele>13</ele>
        <time>2011-10-02T08:51:19Z</time>
      </trkpt>
      <trkpt lat="47.34178" lon="-1.21824">
        <ele>14</ele>
        <time>2011-10-02T08:51:28Z</time>
      </trkpt>
      <trkpt lat="47.34175" lon="-1.21813">
        <ele>14</ele>
        <time>2011-10-02T08:51:31Z</time>
      </trkpt>
      <trkpt lat="47.34173" lon="-1.21802">
        <ele>14</ele>
        <time>2011-10-02T08:51:33Z</time>
      </trkpt>
      <trkpt lat="47.34171" lon="-1.21791">
        <ele>14</ele>
        <time>2011-10-02T08:51:35Z</time>
      </trkpt>
      <trkpt lat="47.34169" lon="-1.21772">
        <ele>15</ele>
        <time>2011-10-02T08:51:38Z</time>
      </trkpt>
      <trkpt lat="47.34167" lon="-1.21753">
        <ele>18</ele>
        <time>2011-10-02T08:51:41Z</time>
      </trkpt>
      <trkpt lat="47.34165" lon="-1.21732">
        <ele>25</ele>
        <time>2011-10-02T08:51:44Z</time>
      </trkpt>
      <trkpt lat="47.34162" lon="-1.2171">
        <ele>28</ele>
        <time>2011-10-02T08:51:47Z</time>
      </trkpt>
      <trkpt lat="47.3416" lon="-1.21687">
        <ele>27</ele>
        <time>2011-10-02T08:51:50Z</time>
      </trkpt>
      <trkpt lat="47.34159" lon="-1.21665">
        <ele>26</ele>
        <time>2011-10-02T08:51:53Z</time>
      </trkpt>
      <trkpt lat="47.34159" lon="-1.21643">
        <ele>30</ele>
        <time>2011-10-02T08:51:56Z</time>
      </trkpt>
      <trkpt lat="47.3416" lon="-1.21621">
        <ele>31</ele>
        <time>2011-10-02T08:51:59Z</time>
      </trkpt>
      <trkpt lat="47.3416" lon="-1.21599">
        <ele>28</ele>
        <time>2011-10-02T08:52:02Z</time>
      </trkpt>
      <trkpt lat="47.3416" lon="-1.21576">
        <ele>26</ele>
        <time>2011-10-02T08:52:05Z</time>
      </trkpt>
      <trkpt lat="47.3416" lon="-1.21554">
        <ele>31</ele>
        <time>2011-10-02T08:52:08Z</time>
      </trkpt>
      <trkpt lat="47.34159" lon="-1.21539">
        <ele>31</ele>
        <time>2011-10-02T08:52:10Z</time>
      </trkpt>
      <trkpt lat="47.34159" lon="-1.21516">
        <ele>28</ele>
        <time>2011-10-02T08:52:13Z</time>
      </trkpt>
      <trkpt lat="47.34159" lon="-1.21491">
        <ele>26</ele>
        <time>2011-10-02T08:52:16Z</time>
      </trkpt>
      <trkpt lat="47.34159" lon="-1.21467">
        <ele>29</ele>
        <time>2011-10-02T08:52:19Z</time>
      </trkpt>
      <trkpt lat="47.34159" lon="-1.21443">
        <ele>28</ele>
        <time>2011-10-02T08:52:22Z</time>
      </trkpt>
      <trkpt lat="47.3416" lon="-1.2142">
        <ele>22</ele>
        <time>2011-10-02T08:52:25Z</time>
      </trkpt>
      <trkpt lat="47.34161" lon="-1.21397">
        <ele>26</ele>
        <time>2011-10-02T08:52:28Z</time>
      </trkpt>
      <trkpt lat="47.34162" lon="-1.21374">
        <ele>28</ele>
        <time>2011-10-02T08:52:31Z</time>
      </trkpt>
      <trkpt lat="47.34162" lon="-1.2136">
        <ele>27</ele>
        <time>2011-10-02T08:52:33Z</time>
      </trkpt>
      <trkpt lat="47.34161" lon="-1.21347">
        <ele>25</ele>
        <time>2011-10-02T08:52:35Z</time>
      </trkpt>
      <trkpt lat="47.34161" lon="-1.21333">
        <ele>22</ele>
        <time>2011-10-02T08:52:37Z</time>
      </trkpt>
      <trkpt lat="47.34162" lon="-1.21321">
        <ele>24</ele>
        <time>2011-10-02T08:52:39Z</time>
      </trkpt>
      <trkpt lat="47.34162" lon="-1.21303">
        <ele>27</ele>
        <time>2011-10-02T08:52:42Z</time>
      </trkpt>
      <trkpt lat="47.34162" lon="-1.21293">
        <ele>27</ele>
        <time>2011-10-02T08:52:44Z</time>
      </trkpt>
      <trkpt lat="47.34163" lon="-1.21277">
        <ele>26</ele>
        <time>2011-10-02T08:52:47Z</time>
      </trkpt>
      <trkpt lat="47.34157" lon="-1.21269">
        <ele>26</ele>
        <time>2011-10-02T08:52:50Z</time>
      </trkpt>
      <trkpt lat="47.34149" lon="-1.21265">
        <ele>27</ele>
        <time>2011-10-02T08:52:53Z</time>
      </trkpt>
      <trkpt lat="47.34142" lon="-1.21261">
        <ele>28</ele>
        <time>2011-10-02T08:52:56Z</time>
      </trkpt>
      <trkpt lat="47.34137" lon="-1.21255">
        <ele>29</ele>
        <time>2011-10-02T08:52:59Z</time>
      </trkpt>
      <trkpt lat="47.34135" lon="-1.21246">
        <ele>29</ele>
        <time>2011-10-02T08:53:02Z</time>
      </trkpt>
      <trkpt lat="47.34134" lon="-1.21234">
        <ele>29</ele>
        <time>2011-10-02T08:53:05Z</time>
      </trkpt>
      <trkpt lat="47.34133" lon="-1.21224">
        <ele>29</ele>
        <time>2011-10-02T08:53:07Z</time>
      </trkpt>
      <trkpt lat="47.34131" lon="-1.21208">
        <ele>30</ele>
        <time>2011-10-02T08:53:10Z</time>
      </trkpt>
      <trkpt lat="47.34128" lon="-1.21193">
        <ele>30</ele>
        <time>2011-10-02T08:53:13Z</time>
      </trkpt>
      <trkpt lat="47.34126" lon="-1.21177">
        <ele>30</ele>
        <time>2011-10-02T08:53:16Z</time>
      </trkpt>
      <trkpt lat="47.34123" lon="-1.21168">
        <ele>31</ele>
        <time>2011-10-02T08:53:18Z</time>
      </trkpt>
      <trkpt lat="47.34118" lon="-1.21155">
        <ele>31</ele>
        <time>2011-10-02T08:53:21Z</time>
      </trkpt>
      <trkpt lat="47.34115" lon="-1.21148">
        <ele>32</ele>
        <time>2011-10-02T08:53:23Z</time>
      </trkpt>
      <trkpt lat="47.34115" lon="-1.21135">
        <ele>31</ele>
        <time>2011-10-02T08:53:26Z</time>
      </trkpt>
      <trkpt lat="47.34119" lon="-1.21123">
        <ele>31</ele>
        <time>2011-10-02T08:53:29Z</time>
      </trkpt>
      <trkpt lat="47.34124" lon="-1.2111">
        <ele>30</ele>
        <time>2011-10-02T08:53:32Z</time>
      </trkpt>
      <trkpt lat="47.3413" lon="-1.211">
        <ele>30</ele>
        <time>2011-10-02T08:53:35Z</time>
      </trkpt>
      <trkpt lat="47.34136" lon="-1.21091">
        <ele>29</ele>
        <time>2011-10-02T08:53:38Z</time>
      </trkpt>
      <trkpt lat="47.34141" lon="-1.21086">
        <ele>29</ele>
        <time>2011-10-02T08:53:40Z</time>
      </trkpt>
      <trkpt lat="47.34146" lon="-1.21077">
        <ele>30</ele>
        <time>2011-10-02T08:53:43Z</time>
      </trkpt>
      <trkpt lat="47.34148" lon="-1.21071">
        <ele>30</ele>
        <time>2011-10-02T08:53:45Z</time>
      </trkpt>
      <trkpt lat="47.34151" lon="-1.21065">
        <ele>30</ele>
        <time>2011-10-02T08:53:47Z</time>
      </trkpt>
      <trkpt lat="47.34153" lon="-1.21057">
        <ele>31</ele>
        <time>2011-10-02T08:53:50Z</time>
      </trkpt>
      <trkpt lat="47.34153" lon="-1.2105">
        <ele>31</ele>
        <time>2011-10-02T08:53:53Z</time>
      </trkpt>
      <trkpt lat="47.34141" lon="-1.21014">
        <ele>33</ele>
        <time>2011-10-02T08:54:17Z</time>
      </trkpt>
      <trkpt lat="47.3414" lon="-1.21006">
        <ele>33</ele>
        <time>2011-10-02T08:54:21Z</time>
      </trkpt>
      <trkpt lat="47.34142" lon="-1.20997">
        <ele>36</ele>
        <time>2011-10-02T08:54:25Z</time>
      </trkpt>
      <trkpt lat="47.34142" lon="-1.2099">
        <ele>36</ele>
        <time>2011-10-02T08:54:29Z</time>
      </trkpt>
      <trkpt lat="47.34142" lon="-1.20982">
        <ele>36</ele>
        <time>2011-10-02T08:54:33Z</time>
      </trkpt>
      <trkpt lat="47.34141" lon="-1.20974">
        <ele>36</ele>
        <time>2011-10-02T08:54:37Z</time>
      </trkpt>
      <trkpt lat="47.34139" lon="-1.20966">
        <ele>37</ele>
        <time>2011-10-02T08:54:41Z</time>
      </trkpt>
      <trkpt lat="47.34133" lon="-1.20951">
        <ele>38</ele>
        <time>2011-10-02T08:54:49Z</time>
      </trkpt>
      <trkpt lat="47.34131" lon="-1.20946">
        <ele>38</ele>
        <time>2011-10-02T08:54:52Z</time>
      </trkpt>
      <trkpt lat="47.34128" lon="-1.20939">
        <ele>38</ele>
        <time>2011-10-02T08:54:55Z</time>
      </trkpt>
      <trkpt lat="47.34126" lon="-1.20929">
        <ele>39</ele>
        <time>2011-10-02T08:54:58Z</time>
      </trkpt>
      <trkpt lat="47.34125" lon="-1.20919">
        <ele>39</ele>
        <time>2011-10-02T08:55:01Z</time>
      </trkpt>
      <trkpt lat="47.34124" lon="-1.20907">
        <ele>40</ele>
        <time>2011-10-02T08:55:04Z</time>
      </trkpt>
      <trkpt lat="47.34123" lon="-1.20896">
        <ele>41</ele>
        <time>2011-10-02T08:55:07Z</time>
      </trkpt>
      <trkpt lat="47.34122" lon="-1.20884">
        <ele>41</ele>
        <time>2011-10-02T08:55:10Z</time>
      </trkpt>
      <trkpt lat="47.3412" lon="-1.20875">
        <ele>41</ele>
        <time>2011-10-02T08:55:12Z</time>
      </trkpt>
      <trkpt lat="47.34119" lon="-1.20866">
        <ele>41</ele>
        <time>2011-10-02T08:55:14Z</time>
      </trkpt>
      <trkpt lat="47.34118" lon="-1.2085">
        <ele>41</ele>
        <time>2011-10-02T08:55:17Z</time>
      </trkpt>
      <trkpt lat="47.34117" lon="-1.20838">
        <ele>42</ele>
        <time>2011-10-02T08:55:19Z</time>
      </trkpt>
      <trkpt lat="47.34116" lon="-1.20826">
        <ele>42</ele>
        <time>2011-10-02T08:55:21Z</time>
      </trkpt>
      <trkpt lat="47.34115" lon="-1.20815">
        <ele>42</ele>
        <time>2011-10-02T08:55:23Z</time>
      </trkpt>
      <trkpt lat="47.34113" lon="-1.20805">
        <ele>42</ele>
        <time>2011-10-02T08:55:25Z</time>
      </trkpt>
      <trkpt lat="47.3411" lon="-1.20791">
        <ele>43</ele>
        <time>2011-10-02T08:55:28Z</time>
      </trkpt>
      <trkpt lat="47.34107" lon="-1.20777">
        <ele>43</ele>
        <time>2011-10-02T08:55:31Z</time>
      </trkpt>
      <trkpt lat="47.34104" lon="-1.20769">
        <ele>44</ele>
        <time>2011-10-02T08:55:33Z</time>
      </trkpt>
      <trkpt lat="47.341" lon="-1.20761">
        <ele>44</ele>
        <time>2011-10-02T08:55:35Z</time>
      </trkpt>
      <trkpt lat="47.34096" lon="-1.2075">
        <ele>45</ele>
        <time>2011-10-02T08:55:38Z</time>
      </trkpt>
      <trkpt lat="47.34092" lon="-1.20738">
        <ele>45</ele>
        <time>2011-10-02T08:55:41Z</time>
      </trkpt>
      <trkpt lat="47.3409" lon="-1.2073">
        <ele>45</ele>
        <time>2011-10-02T08:55:43Z</time>
      </trkpt>
      <trkpt lat="47.34089" lon="-1.20716">
        <ele>44</ele>
        <time>2011-10-02T08:55:46Z</time>
      </trkpt>
      <trkpt lat="47.34088" lon="-1.20706">
        <ele>44</ele>
        <time>2011-10-02T08:55:48Z</time>
      </trkpt>
      <trkpt lat="47.34088" lon="-1.20696">
        <ele>44</ele>
        <time>2011-10-02T08:55:50Z</time>
      </trkpt>
      <trkpt lat="47.34095" lon="-1.20682">
        <ele>45</ele>
        <time>2011-10-02T08:55:53Z</time>
      </trkpt>
      <trkpt lat="47.34101" lon="-1.2067">
        <ele>45</ele>
        <time>2011-10-02T08:55:56Z</time>
      </trkpt>
      <trkpt lat="47.34111" lon="-1.20663">
        <ele>43</ele>
        <time>2011-10-02T08:55:59Z</time>
      </trkpt>
      <trkpt lat="47.34122" lon="-1.20665">
        <ele>41</ele>
        <time>2011-10-02T08:56:02Z</time>
      </trkpt>
      <trkpt lat="47.34134" lon="-1.20667">
        <ele>41</ele>
        <time>2011-10-02T08:56:05Z</time>
      </trkpt>
      <trkpt lat="47.34141" lon="-1.20664">
        <ele>39</ele>
        <time>2011-10-02T08:56:07Z</time>
      </trkpt>
      <trkpt lat="47.34143" lon="-1.20653">
        <ele>39</ele>
        <time>2011-10-02T08:56:10Z</time>
      </trkpt>
      <trkpt lat="47.34143" lon="-1.20653">
        <ele>39</ele>
        <time>2011-10-02T08:56:13Z</time>
      </trkpt>
      <trkpt lat="47.34125" lon="-1.20612">
        <ele>41</ele>
        <time>2011-10-02T08:56:29Z</time>
      </trkpt>
      <trkpt lat="47.34121" lon="-1.2058">
        <ele>41</ele>
        <time>2011-10-02T08:56:32Z</time>
      </trkpt>
      <trkpt lat="47.34121" lon="-1.2056">
        <ele>41</ele>
        <time>2011-10-02T08:56:34Z</time>
      </trkpt>
      <trkpt lat="47.34123" lon="-1.20536">
        <ele>41</ele>
        <time>2011-10-02T08:56:37Z</time>
      </trkpt>
      <trkpt lat="47.34124" lon="-1.20523">
        <ele>42</ele>
        <time>2011-10-02T08:56:39Z</time>
      </trkpt>
      <trkpt lat="47.34127" lon="-1.20507">
        <ele>41</ele>
        <time>2011-10-02T08:56:42Z</time>
      </trkpt>
      <trkpt lat="47.34132" lon="-1.20498">
        <ele>43</ele>
        <time>2011-10-02T08:56:44Z</time>
      </trkpt>
      <trkpt lat="47.3414" lon="-1.20484">
        <ele>43</ele>
        <time>2011-10-02T08:56:47Z</time>
      </trkpt>
      <trkpt lat="47.3415" lon="-1.20466">
        <ele>43</ele>
        <time>2011-10-02T08:56:50Z</time>
      </trkpt>
      <trkpt lat="47.34162" lon="-1.20447">
        <ele>43</ele>
        <time>2011-10-02T08:56:53Z</time>
      </trkpt>
      <trkpt lat="47.34172" lon="-1.20437">
        <ele>38</ele>
        <time>2011-10-02T08:56:55Z</time>
      </trkpt>
      <trkpt lat="47.34186" lon="-1.20424">
        <ele>38</ele>
        <time>2011-10-02T08:56:58Z</time>
      </trkpt>
      <trkpt lat="47.34195" lon="-1.20416">
        <ele>38</ele>
        <time>2011-10-02T08:57:00Z</time>
      </trkpt>
      <trkpt lat="47.34202" lon="-1.20405">
        <ele>38</ele>
        <time>2011-10-02T08:57:02Z</time>
      </trkpt>
      <trkpt lat="47.3421" lon="-1.20383">
        <ele>37</ele>
        <time>2011-10-02T08:57:05Z</time>
      </trkpt>
      <trkpt lat="47.34213" lon="-1.20359">
        <ele>37</ele>
        <time>2011-10-02T08:57:08Z</time>
      </trkpt>
      <trkpt lat="47.34215" lon="-1.20335">
        <ele>37</ele>
        <time>2011-10-02T08:57:11Z</time>
      </trkpt>
      <trkpt lat="47.34218" lon="-1.20312">
        <ele>38</ele>
        <time>2011-10-02T08:57:14Z</time>
      </trkpt>
      <trkpt lat="47.34217" lon="-1.20298">
        <ele>39</ele>
        <time>2011-10-02T08:57:16Z</time>
      </trkpt>
      <trkpt lat="47.34209" lon="-1.20288">
        <ele>39</ele>
        <time>2011-10-02T08:57:19Z</time>
      </trkpt>
      <trkpt lat="47.34199" lon="-1.2029">
        <ele>40</ele>
        <time>2011-10-02T08:57:22Z</time>
      </trkpt>
      <trkpt lat="47.34191" lon="-1.20286">
        <ele>40</ele>
        <time>2011-10-02T08:57:25Z</time>
      </trkpt>
      <trkpt lat="47.34189" lon="-1.20278">
        <ele>41</ele>
        <time>2011-10-02T08:57:27Z</time>
      </trkpt>
      <trkpt lat="47.34188" lon="-1.20265">
        <ele>41</ele>
        <time>2011-10-02T08:57:30Z</time>
      </trkpt>
      <trkpt lat="47.34189" lon="-1.20256">
        <ele>41</ele>
        <time>2011-10-02T08:57:32Z</time>
      </trkpt>
      <trkpt lat="47.34189" lon="-1.20246">
        <ele>41</ele>
        <time>2011-10-02T08:57:34Z</time>
      </trkpt>
      <trkpt lat="47.34189" lon="-1.20228">
        <ele>41</ele>
        <time>2011-10-02T08:57:37Z</time>
      </trkpt>
      <trkpt lat="47.34188" lon="-1.20207">
        <ele>40</ele>
        <time>2011-10-02T08:57:40Z</time>
      </trkpt>
      <trkpt lat="47.34187" lon="-1.20187">
        <ele>40</ele>
        <time>2011-10-02T08:57:43Z</time>
      </trkpt>
      <trkpt lat="47.34185" lon="-1.20165">
        <ele>40</ele>
        <time>2011-10-02T08:57:46Z</time>
      </trkpt>
      <trkpt lat="47.34183" lon="-1.20142">
        <ele>39</ele>
        <time>2011-10-02T08:57:49Z</time>
      </trkpt>
      <trkpt lat="47.34182" lon="-1.20127">
        <ele>39</ele>
        <time>2011-10-02T08:57:51Z</time>
      </trkpt>
      <trkpt lat="47.34179" lon="-1.20104">
        <ele>40</ele>
        <time>2011-10-02T08:57:54Z</time>
      </trkpt>
      <trkpt lat="47.34177" lon="-1.20085">
        <ele>41</ele>
        <time>2011-10-02T08:57:56Z</time>
      </trkpt>
      <trkpt lat="47.34174" lon="-1.20065">
        <ele>41</ele>
        <time>2011-10-02T08:57:58Z</time>
      </trkpt>
      <trkpt lat="47.34173" lon="-1.20042">
        <ele>41</ele>
        <time>2011-10-02T08:58:01Z</time>
      </trkpt>
      <trkpt lat="47.34173" lon="-1.20029">
        <ele>41</ele>
        <time>2011-10-02T08:58:04Z</time>
      </trkpt>
      <trkpt lat="47.34179" lon="-1.20018">
        <ele>42</ele>
        <time>2011-10-02T08:58:07Z</time>
      </trkpt>
      <trkpt lat="47.34191" lon="-1.20009">
        <ele>41</ele>
        <time>2011-10-02T08:58:10Z</time>
      </trkpt>
      <trkpt lat="47.34207" lon="-1.19999">
        <ele>42</ele>
        <time>2011-10-02T08:58:13Z</time>
      </trkpt>
      <trkpt lat="47.34224" lon="-1.19993">
        <ele>40</ele>
        <time>2011-10-02T08:58:16Z</time>
      </trkpt>
      <trkpt lat="47.34236" lon="-1.19985">
        <ele>40</ele>
        <time>2011-10-02T08:58:19Z</time>
      </trkpt>
      <trkpt lat="47.34241" lon="-1.19969">
        <ele>40</ele>
        <time>2011-10-02T08:58:22Z</time>
      </trkpt>
      <trkpt lat="47.34243" lon="-1.19952">
        <ele>41</ele>
        <time>2011-10-02T08:58:25Z</time>
      </trkpt>
      <trkpt lat="47.34244" lon="-1.19935">
        <ele>41</ele>
        <time>2011-10-02T08:58:28Z</time>
      </trkpt>
      <trkpt lat="47.34245" lon="-1.19924">
        <ele>41</ele>
        <time>2011-10-02T08:58:30Z</time>
      </trkpt>
      <trkpt lat="47.34246" lon="-1.19908">
        <ele>42</ele>
        <time>2011-10-02T08:58:33Z</time>
      </trkpt>
      <trkpt lat="47.34247" lon="-1.19897">
        <ele>43</ele>
        <time>2011-10-02T08:58:35Z</time>
      </trkpt>
      <trkpt lat="47.34249" lon="-1.19886">
        <ele>44</ele>
        <time>2011-10-02T08:58:38Z</time>
      </trkpt>
      <trkpt lat="47.34253" lon="-1.19874">
        <ele>38</ele>
        <time>2011-10-02T08:58:41Z</time>
      </trkpt>
      <trkpt lat="47.34256" lon="-1.19862">
        <ele>38</ele>
        <time>2011-10-02T08:58:44Z</time>
      </trkpt>
      <trkpt lat="47.34257" lon="-1.19854">
        <ele>39</ele>
        <time>2011-10-02T08:58:46Z</time>
      </trkpt>
      <trkpt lat="47.34259" lon="-1.19842">
        <ele>41</ele>
        <time>2011-10-02T08:58:49Z</time>
      </trkpt>
      <trkpt lat="47.3426" lon="-1.19834">
        <ele>41</ele>
        <time>2011-10-02T08:58:51Z</time>
      </trkpt>
      <trkpt lat="47.34261" lon="-1.19825">
        <ele>42</ele>
        <time>2011-10-02T08:58:53Z</time>
      </trkpt>
      <trkpt lat="47.34261" lon="-1.19817">
        <ele>41</ele>
        <time>2011-10-02T08:58:55Z</time>
      </trkpt>
      <trkpt lat="47.34261" lon="-1.19804">
        <ele>40</ele>
        <time>2011-10-02T08:58:58Z</time>
      </trkpt>
      <trkpt lat="47.34262" lon="-1.19791">
        <ele>40</ele>
        <time>2011-10-02T08:59:01Z</time>
      </trkpt>
      <trkpt lat="47.34263" lon="-1.19777">
        <ele>41</ele>
        <time>2011-10-02T08:59:04Z</time>
      </trkpt>
      <trkpt lat="47.34267" lon="-1.19761">
        <ele>41</ele>
        <time>2011-10-02T08:59:07Z</time>
      </trkpt>
      <trkpt lat="47.34272" lon="-1.19747">
        <ele>42</ele>
        <time>2011-10-02T08:59:09Z</time>
      </trkpt>
      <trkpt lat="47.34284" lon="-1.19723">
        <ele>41</ele>
        <time>2011-10-02T08:59:12Z</time>
      </trkpt>
      <trkpt lat="47.34297" lon="-1.19699">
        <ele>40</ele>
        <time>2011-10-02T08:59:15Z</time>
      </trkpt>
      <trkpt lat="47.34305" lon="-1.19683">
        <ele>39</ele>
        <time>2011-10-02T08:59:17Z</time>
      </trkpt>
      <trkpt lat="47.34312" lon="-1.19665">
        <ele>39</ele>
        <time>2011-10-02T08:59:19Z</time>
      </trkpt>
      <trkpt lat="47.34321" lon="-1.19636">
        <ele>40</ele>
        <time>2011-10-02T08:59:22Z</time>
      </trkpt>
      <trkpt lat="47.34327" lon="-1.19617">
        <ele>40</ele>
        <time>2011-10-02T08:59:24Z</time>
      </trkpt>
      <trkpt lat="47.34334" lon="-1.19586">
        <ele>35</ele>
        <time>2011-10-02T08:59:27Z</time>
      </trkpt>
      <trkpt lat="47.34338" lon="-1.19565">
        <ele>33</ele>
        <time>2011-10-02T08:59:29Z</time>
      </trkpt>
      <trkpt lat="47.34338" lon="-1.19534">
        <ele>32</ele>
        <time>2011-10-02T08:59:32Z</time>
      </trkpt>
      <trkpt lat="47.34336" lon="-1.19506">
        <ele>34</ele>
        <time>2011-10-02T08:59:35Z</time>
      </trkpt>
      <trkpt lat="47.34334" lon="-1.1948">
        <ele>33</ele>
        <time>2011-10-02T08:59:38Z</time>
      </trkpt>
      <trkpt lat="47.34335" lon="-1.19453">
        <ele>33</ele>
        <time>2011-10-02T08:59:41Z</time>
      </trkpt>
      <trkpt lat="47.34337" lon="-1.19424">
        <ele>37</ele>
        <time>2011-10-02T08:59:44Z</time>
      </trkpt>
      <trkpt lat="47.34338" lon="-1.19396">
        <ele>36</ele>
        <time>2011-10-02T08:59:47Z</time>
      </trkpt>
      <trkpt lat="47.3434" lon="-1.19374">
        <ele>36</ele>
        <time>2011-10-02T08:59:50Z</time>
      </trkpt>
      <trkpt lat="47.3435" lon="-1.19361">
        <ele>36</ele>
        <time>2011-10-02T08:59:53Z</time>
      </trkpt>
      <trkpt lat="47.34364" lon="-1.19341">
        <ele>35</ele>
        <time>2011-10-02T08:59:56Z</time>
      </trkpt>
      <trkpt lat="47.34369" lon="-1.1931">
        <ele>35</ele>
        <time>2011-10-02T08:59:59Z</time>
      </trkpt>
      <trkpt lat="47.3437" lon="-1.1929">
        <ele>36</ele>
        <time>2011-10-02T09:00:01Z</time>
      </trkpt>
      <trkpt lat="47.34369" lon="-1.19265">
        <ele>36</ele>
        <time>2011-10-02T09:00:04Z</time>
      </trkpt>
      <trkpt lat="47.34369" lon="-1.19242">
        <ele>37</ele>
        <time>2011-10-02T09:00:07Z</time>
      </trkpt>
      <trkpt lat="47.3438" lon="-1.19229">
        <ele>36</ele>
        <time>2011-10-02T09:00:10Z</time>
      </trkpt>
      <trkpt lat="47.34394" lon="-1.1923">
        <ele>34</ele>
        <time>2011-10-02T09:00:13Z</time>
      </trkpt>
      <trkpt lat="47.34413" lon="-1.19233">
        <ele>32</ele>
        <time>2011-10-02T09:00:16Z</time>
      </trkpt>
      <trkpt lat="47.34432" lon="-1.19236">
        <ele>24</ele>
        <time>2011-10-02T09:00:19Z</time>
      </trkpt>
      <trkpt lat="47.3444" lon="-1.19233">
        <ele>23</ele>
        <time>2011-10-02T09:00:21Z</time>
      </trkpt>
      <trkpt lat="47.34444" lon="-1.19223">
        <ele>22</ele>
        <time>2011-10-02T09:00:24Z</time>
      </trkpt>
      <trkpt lat="47.34445" lon="-1.19215">
        <ele>22</ele>
        <time>2011-10-02T09:00:26Z</time>
      </trkpt>
      <trkpt lat="47.34445" lon="-1.19207">
        <ele>22</ele>
        <time>2011-10-02T09:00:28Z</time>
      </trkpt>
      <trkpt lat="47.34446" lon="-1.19198">
        <ele>22</ele>
        <time>2011-10-02T09:00:30Z</time>
      </trkpt>
      <trkpt lat="47.34447" lon="-1.19186">
        <ele>22</ele>
        <time>2011-10-02T09:00:32Z</time>
      </trkpt>
      <trkpt lat="47.34453" lon="-1.19165">
        <ele>22</ele>
        <time>2011-10-02T09:00:35Z</time>
      </trkpt>
      <trkpt lat="47.34459" lon="-1.19139">
        <ele>21</ele>
        <time>2011-10-02T09:00:38Z</time>
      </trkpt>
      <trkpt lat="47.34465" lon="-1.19112">
        <ele>20</ele>
        <time>2011-10-02T09:00:41Z</time>
      </trkpt>
      <trkpt lat="47.34467" lon="-1.19083">
        <ele>20</ele>
        <time>2011-10-02T09:00:44Z</time>
      </trkpt>
      <trkpt lat="47.34465" lon="-1.19056">
        <ele>21</ele>
        <time>2011-10-02T09:00:47Z</time>
      </trkpt>
      <trkpt lat="47.34464" lon="-1.19039">
        <ele>21</ele>
        <time>2011-10-02T09:00:49Z</time>
      </trkpt>
      <trkpt lat="47.34468" lon="-1.19014">
        <ele>21</ele>
        <time>2011-10-02T09:00:52Z</time>
      </trkpt>
      <trkpt lat="47.34471" lon="-1.18997">
        <ele>21</ele>
        <time>2011-10-02T09:00:54Z</time>
      </trkpt>
      <trkpt lat="47.34474" lon="-1.18979">
        <ele>21</ele>
        <time>2011-10-02T09:00:56Z</time>
      </trkpt>
      <trkpt lat="47.34477" lon="-1.18952">
        <ele>21</ele>
        <time>2011-10-02T09:00:59Z</time>
      </trkpt>
      <trkpt lat="47.34481" lon="-1.18927">
        <ele>20</ele>
        <time>2011-10-02T09:01:02Z</time>
      </trkpt>
      <trkpt lat="47.34483" lon="-1.18908">
        <ele>20</ele>
        <time>2011-10-02T09:01:05Z</time>
      </trkpt>
      <trkpt lat="47.34483" lon="-1.18898">
        <ele>21</ele>
        <time>2011-10-02T09:01:08Z</time>
      </trkpt>
      <trkpt lat="47.34491" lon="-1.18877">
        <ele>21</ele>
        <time>2011-10-02T09:01:11Z</time>
      </trkpt>
      <trkpt lat="47.34502" lon="-1.18854">
        <ele>15</ele>
        <time>2011-10-02T09:01:14Z</time>
      </trkpt>
      <trkpt lat="47.34506" lon="-1.18843">
        <ele>15</ele>
        <time>2011-10-02T09:01:17Z</time>
      </trkpt>
      <trkpt lat="47.34512" lon="-1.1883">
        <ele>15</ele>
        <time>2011-10-02T09:01:20Z</time>
      </trkpt>
      <trkpt lat="47.34518" lon="-1.18818">
        <ele>14</ele>
        <time>2011-10-02T09:01:22Z</time>
      </trkpt>
      <trkpt lat="47.34529" lon="-1.18804">
        <ele>12</ele>
        <time>2011-10-02T09:01:25Z</time>
      </trkpt>
      <trkpt lat="47.34543" lon="-1.18813">
        <ele>12</ele>
        <time>2011-10-02T09:01:28Z</time>
      </trkpt>
      <trkpt lat="47.34552" lon="-1.18836">
        <ele>11</ele>
        <time>2011-10-02T09:01:31Z</time>
      </trkpt>
      <trkpt lat="47.34553" lon="-1.18864">
        <ele>12</ele>
        <time>2011-10-02T09:01:34Z</time>
      </trkpt>
      <trkpt lat="47.34554" lon="-1.18892">
        <ele>12</ele>
        <time>2011-10-02T09:01:37Z</time>
      </trkpt>
      <trkpt lat="47.34558" lon="-1.18916">
        <ele>11</ele>
        <time>2011-10-02T09:01:40Z</time>
      </trkpt>
      <trkpt lat="47.34573" lon="-1.18925">
        <ele>10</ele>
        <time>2011-10-02T09:01:43Z</time>
      </trkpt>
      <trkpt lat="47.34592" lon="-1.18921">
        <ele>8</ele>
        <time>2011-10-02T09:01:46Z</time>
      </trkpt>
      <trkpt lat="47.34605" lon="-1.1892">
        <ele>8</ele>
        <time>2011-10-02T09:01:48Z</time>
      </trkpt>
      <trkpt lat="47.34617" lon="-1.1892">
        <ele>7</ele>
        <time>2011-10-02T09:01:50Z</time>
      </trkpt>
      <trkpt lat="47.34633" lon="-1.18922">
        <ele>7</ele>
        <time>2011-10-02T09:01:53Z</time>
      </trkpt>
      <trkpt lat="47.34648" lon="-1.18935">
        <ele>7</ele>
        <time>2011-10-02T09:01:56Z</time>
      </trkpt>
      <trkpt lat="47.34655" lon="-1.18958">
        <ele>7</ele>
        <time>2011-10-02T09:01:59Z</time>
      </trkpt>
      <trkpt lat="47.34655" lon="-1.18974">
        <ele>8</ele>
        <time>2011-10-02T09:02:01Z</time>
      </trkpt>
      <trkpt lat="47.34655" lon="-1.18982">
        <ele>8</ele>
        <time>2011-10-02T09:02:03Z</time>
      </trkpt>
      <trkpt lat="47.34668" lon="-1.18974">
        <ele>7</ele>
        <time>2011-10-02T09:02:12Z</time>
      </trkpt>
      <trkpt lat="47.34676" lon="-1.18974">
        <ele>7</ele>
        <time>2011-10-02T09:02:14Z</time>
      </trkpt>
      <trkpt lat="47.34684" lon="-1.18972">
        <ele>7</ele>
        <time>2011-10-02T09:02:16Z</time>
      </trkpt>
      <trkpt lat="47.34691" lon="-1.18971">
        <ele>7</ele>
        <time>2011-10-02T09:02:18Z</time>
      </trkpt>
      <trkpt lat="47.347" lon="-1.18974">
        <ele>7</ele>
        <time>2011-10-02T09:02:21Z</time>
      </trkpt>
      <trkpt lat="47.34704" lon="-1.18978">
        <ele>7</ele>
        <time>2011-10-02T09:02:23Z</time>
      </trkpt>
      <trkpt lat="47.34718" lon="-1.18982">
        <ele>7</ele>
        <time>2011-10-02T09:02:28Z</time>
      </trkpt>
      <trkpt lat="47.34728" lon="-1.18975">
        <ele>7</ele>
        <time>2011-10-02T09:02:31Z</time>
      </trkpt>
      <trkpt lat="47.34735" lon="-1.1897">
        <ele>7</ele>
        <time>2011-10-02T09:02:33Z</time>
      </trkpt>
      <trkpt lat="47.34745" lon="-1.18961">
        <ele>7</ele>
        <time>2011-10-02T09:02:36Z</time>
      </trkpt>
      <trkpt lat="47.3475" lon="-1.18957">
        <ele>7</ele>
        <time>2011-10-02T09:02:38Z</time>
      </trkpt>
      <trkpt lat="47.34778" lon="-1.18951">
        <ele>7</ele>
        <time>2011-10-02T09:02:48Z</time>
      </trkpt>
      <trkpt lat="47.34788" lon="-1.18957">
        <ele>7</ele>
        <time>2011-10-02T09:02:50Z</time>
      </trkpt>
      <trkpt lat="47.34802" lon="-1.18966">
        <ele>7</ele>
        <time>2011-10-02T09:02:53Z</time>
      </trkpt>
      <trkpt lat="47.34813" lon="-1.18979">
        <ele>8</ele>
        <time>2011-10-02T09:02:56Z</time>
      </trkpt>
      <trkpt lat="47.34818" lon="-1.18992">
        <ele>8</ele>
        <time>2011-10-02T09:02:58Z</time>
      </trkpt>
      <trkpt lat="47.34822" lon="-1.19013">
        <ele>8</ele>
        <time>2011-10-02T09:03:01Z</time>
      </trkpt>
      <trkpt lat="47.34823" lon="-1.19034">
        <ele>8</ele>
        <time>2011-10-02T09:03:04Z</time>
      </trkpt>
      <trkpt lat="47.34824" lon="-1.19056">
        <ele>8</ele>
        <time>2011-10-02T09:03:07Z</time>
      </trkpt>
      <trkpt lat="47.34824" lon="-1.19078">
        <ele>8</ele>
        <time>2011-10-02T09:03:10Z</time>
      </trkpt>
      <trkpt lat="47.34825" lon="-1.19102">
        <ele>8</ele>
        <time>2011-10-02T09:03:13Z</time>
      </trkpt>
      <trkpt lat="47.34827" lon="-1.19118">
        <ele>8</ele>
        <time>2011-10-02T09:03:15Z</time>
      </trkpt>
      <trkpt lat="47.34828" lon="-1.19133">
        <ele>8</ele>
        <time>2011-10-02T09:03:17Z</time>
      </trkpt>
      <trkpt lat="47.34829" lon="-1.19157">
        <ele>8</ele>
        <time>2011-10-02T09:03:20Z</time>
      </trkpt>
      <trkpt lat="47.34829" lon="-1.19184">
        <ele>8</ele>
        <time>2011-10-02T09:03:23Z</time>
      </trkpt>
      <trkpt lat="47.34827" lon="-1.19213">
        <ele>8</ele>
        <time>2011-10-02T09:03:26Z</time>
      </trkpt>
      <trkpt lat="47.34824" lon="-1.19232">
        <ele>8</ele>
        <time>2011-10-02T09:03:28Z</time>
      </trkpt>
      <trkpt lat="47.34815" lon="-1.19261">
        <ele>8</ele>
        <time>2011-10-02T09:03:31Z</time>
      </trkpt>
      <trkpt lat="47.34809" lon="-1.19289">
        <ele>8</ele>
        <time>2011-10-02T09:03:34Z</time>
      </trkpt>
      <trkpt lat="47.34807" lon="-1.19317">
        <ele>8</ele>
        <time>2011-10-02T09:03:37Z</time>
      </trkpt>
      <trkpt lat="47.34807" lon="-1.19335">
        <ele>7</ele>
        <time>2011-10-02T09:03:39Z</time>
      </trkpt>
      <trkpt lat="47.34807" lon="-1.19353">
        <ele>7</ele>
        <time>2011-10-02T09:03:41Z</time>
      </trkpt>
      <trkpt lat="47.34808" lon="-1.19381">
        <ele>8</ele>
        <time>2011-10-02T09:03:44Z</time>
      </trkpt>
      <trkpt lat="47.34808" lon="-1.19398">
        <ele>8</ele>
        <time>2011-10-02T09:03:46Z</time>
      </trkpt>
      <trkpt lat="47.34815" lon="-1.1941">
        <ele>8</ele>
        <time>2011-10-02T09:03:49Z</time>
      </trkpt>
      <trkpt lat="47.34827" lon="-1.19411">
        <ele>8</ele>
        <time>2011-10-02T09:03:52Z</time>
      </trkpt>
      <trkpt lat="47.34845" lon="-1.19418">
        <ele>8</ele>
        <time>2011-10-02T09:03:55Z</time>
      </trkpt>
      <trkpt lat="47.34856" lon="-1.19432">
        <ele>8</ele>
        <time>2011-10-02T09:03:57Z</time>
      </trkpt>
      <trkpt lat="47.34871" lon="-1.19456">
        <ele>9</ele>
        <time>2011-10-02T09:04:00Z</time>
      </trkpt>
      <trkpt lat="47.34878" lon="-1.19473">
        <ele>9</ele>
        <time>2011-10-02T09:04:02Z</time>
      </trkpt>
      <trkpt lat="47.34889" lon="-1.19496">
        <ele>9</ele>
        <time>2011-10-02T09:04:05Z</time>
      </trkpt>
      <trkpt lat="47.349" lon="-1.19518">
        <ele>10</ele>
        <time>2011-10-02T09:04:08Z</time>
      </trkpt>
      <trkpt lat="47.34907" lon="-1.19532">
        <ele>10</ele>
        <time>2011-10-02T09:04:10Z</time>
      </trkpt>
      <trkpt lat="47.34914" lon="-1.19546">
        <ele>10</ele>
        <time>2011-10-02T09:04:12Z</time>
      </trkpt>
      <trkpt lat="47.34926" lon="-1.19566">
        <ele>10</ele>
        <time>2011-10-02T09:04:15Z</time>
      </trkpt>
      <trkpt lat="47.34932" lon="-1.19579">
        <ele>10</ele>
        <time>2011-10-02T09:04:17Z</time>
      </trkpt>
      <trkpt lat="47.34942" lon="-1.19597">
        <ele>9</ele>
        <time>2011-10-02T09:04:20Z</time>
      </trkpt>
      <trkpt lat="47.34953" lon="-1.19613">
        <ele>9</ele>
        <time>2011-10-02T09:04:23Z</time>
      </trkpt>
      <trkpt lat="47.34964" lon="-1.19629">
        <ele>9</ele>
        <time>2011-10-02T09:04:26Z</time>
      </trkpt>
      <trkpt lat="47.34972" lon="-1.1965">
        <ele>9</ele>
        <time>2011-10-02T09:04:29Z</time>
      </trkpt>
      <trkpt lat="47.34976" lon="-1.19664">
        <ele>9</ele>
        <time>2011-10-02T09:04:31Z</time>
      </trkpt>
      <trkpt lat="47.34981" lon="-1.19683">
        <ele>9</ele>
        <time>2011-10-02T09:04:34Z</time>
      </trkpt>
      <trkpt lat="47.3499" lon="-1.19702">
        <ele>9</ele>
        <time>2011-10-02T09:04:37Z</time>
      </trkpt>
      <trkpt lat="47.35004" lon="-1.19709">
        <ele>8</ele>
        <time>2011-10-02T09:04:40Z</time>
      </trkpt>
      <trkpt lat="47.35018" lon="-1.19712">
        <ele>8</ele>
        <time>2011-10-02T09:04:43Z</time>
      </trkpt>
      <trkpt lat="47.35026" lon="-1.1971">
        <ele>8</ele>
        <time>2011-10-02T09:04:45Z</time>
      </trkpt>
      <trkpt lat="47.35034" lon="-1.19693">
        <ele>8</ele>
        <time>2011-10-02T09:04:48Z</time>
      </trkpt>
      <trkpt lat="47.35034" lon="-1.19676">
        <ele>8</ele>
        <time>2011-10-02T09:04:50Z</time>
      </trkpt>
      <trkpt lat="47.35035" lon="-1.19658">
        <ele>8</ele>
        <time>2011-10-02T09:04:52Z</time>
      </trkpt>
      <trkpt lat="47.35036" lon="-1.1964">
        <ele>7</ele>
        <time>2011-10-02T09:04:54Z</time>
      </trkpt>
      <trkpt lat="47.35039" lon="-1.19612">
        <ele>7</ele>
        <time>2011-10-02T09:04:57Z</time>
      </trkpt>
      <trkpt lat="47.3504" lon="-1.19593">
        <ele>7</ele>
        <time>2011-10-02T09:04:59Z</time>
      </trkpt>
      <trkpt lat="47.35043" lon="-1.19564">
        <ele>6</ele>
        <time>2011-10-02T09:05:02Z</time>
      </trkpt>
      <trkpt lat="47.35044" lon="-1.19545">
        <ele>6</ele>
        <time>2011-10-02T09:05:04Z</time>
      </trkpt>
      <trkpt lat="47.35046" lon="-1.19526">
        <ele>6</ele>
        <time>2011-10-02T09:05:06Z</time>
      </trkpt>
      <trkpt lat="47.35049" lon="-1.19498">
        <ele>6</ele>
        <time>2011-10-02T09:05:09Z</time>
      </trkpt>
      <trkpt lat="47.35052" lon="-1.1948">
        <ele>6</ele>
        <time>2011-10-02T09:05:11Z</time>
      </trkpt>
      <trkpt lat="47.35057" lon="-1.19454">
        <ele>6</ele>
        <time>2011-10-02T09:05:14Z</time>
      </trkpt>
      <trkpt lat="47.35061" lon="-1.19438">
        <ele>6</ele>
        <time>2011-10-02T09:05:16Z</time>
      </trkpt>
      <trkpt lat="47.35068" lon="-1.19413">
        <ele>7</ele>
        <time>2011-10-02T09:05:19Z</time>
      </trkpt>
      <trkpt lat="47.35076" lon="-1.19388">
        <ele>7</ele>
        <time>2011-10-02T09:05:22Z</time>
      </trkpt>
      <trkpt lat="47.35081" lon="-1.19372">
        <ele>7</ele>
        <time>2011-10-02T09:05:24Z</time>
      </trkpt>
      <trkpt lat="47.35088" lon="-1.19348">
        <ele>7</ele>
        <time>2011-10-02T09:05:27Z</time>
      </trkpt>
      <trkpt lat="47.35096" lon="-1.19324">
        <ele>7</ele>
        <time>2011-10-02T09:05:30Z</time>
      </trkpt>
      <trkpt lat="47.35101" lon="-1.19309">
        <ele>7</ele>
        <time>2011-10-02T09:05:32Z</time>
      </trkpt>
      <trkpt lat="47.35109" lon="-1.19285">
        <ele>7</ele>
        <time>2011-10-02T09:05:35Z</time>
      </trkpt>
      <trkpt lat="47.35117" lon="-1.19262">
        <ele>7</ele>
        <time>2011-10-02T09:05:38Z</time>
      </trkpt>
      <trkpt lat="47.35122" lon="-1.19247">
        <ele>7</ele>
        <time>2011-10-02T09:05:40Z</time>
      </trkpt>
      <trkpt lat="47.35131" lon="-1.19224">
        <ele>7</ele>
        <time>2011-10-02T09:05:43Z</time>
      </trkpt>
      <trkpt lat="47.35138" lon="-1.19199">
        <ele>7</ele>
        <time>2011-10-02T09:05:46Z</time>
      </trkpt>
      <trkpt lat="47.35145" lon="-1.19174">
        <ele>7</ele>
        <time>2011-10-02T09:05:49Z</time>
      </trkpt>
      <trkpt lat="47.35151" lon="-1.19148">
        <ele>8</ele>
        <time>2011-10-02T09:05:52Z</time>
      </trkpt>
      <trkpt lat="47.35157" lon="-1.19121">
        <ele>7</ele>
        <time>2011-10-02T09:05:55Z</time>
      </trkpt>
      <trkpt lat="47.3516" lon="-1.19095">
        <ele>7</ele>
        <time>2011-10-02T09:05:58Z</time>
      </trkpt>
      <trkpt lat="47.35161" lon="-1.19078">
        <ele>7</ele>
        <time>2011-10-02T09:06:00Z</time>
      </trkpt>
      <trkpt lat="47.35163" lon="-1.19061">
        <ele>7</ele>
        <time>2011-10-02T09:06:02Z</time>
      </trkpt>
      <trkpt lat="47.35166" lon="-1.19036">
        <ele>8</ele>
        <time>2011-10-02T09:06:05Z</time>
      </trkpt>
      <trkpt lat="47.35167" lon="-1.19011">
        <ele>7</ele>
        <time>2011-10-02T09:06:08Z</time>
      </trkpt>
      <trkpt lat="47.35167" lon="-1.18994">
        <ele>8</ele>
        <time>2011-10-02T09:06:10Z</time>
      </trkpt>
      <trkpt lat="47.35167" lon="-1.18978">
        <ele>8</ele>
        <time>2011-10-02T09:06:12Z</time>
      </trkpt>
      <trkpt lat="47.35168" lon="-1.18953">
        <ele>8</ele>
        <time>2011-10-02T09:06:15Z</time>
      </trkpt>
      <trkpt lat="47.3517" lon="-1.18935">
        <ele>8</ele>
        <time>2011-10-02T09:06:17Z</time>
      </trkpt>
      <trkpt lat="47.35173" lon="-1.1891">
        <ele>9</ele>
        <time>2011-10-02T09:06:20Z</time>
      </trkpt>
      <trkpt lat="47.35177" lon="-1.18884">
        <ele>8</ele>
        <time>2011-10-02T09:06:23Z</time>
      </trkpt>
      <trkpt lat="47.3518" lon="-1.18859">
        <ele>8</ele>
        <time>2011-10-02T09:06:26Z</time>
      </trkpt>
      <trkpt lat="47.35183" lon="-1.18842">
        <ele>8</ele>
        <time>2011-10-02T09:06:28Z</time>
      </trkpt>
      <trkpt lat="47.35188" lon="-1.18817">
        <ele>8</ele>
        <time>2011-10-02T09:06:31Z</time>
      </trkpt>
      <trkpt lat="47.35191" lon="-1.188">
        <ele>8</ele>
        <time>2011-10-02T09:06:33Z</time>
      </trkpt>
      <trkpt lat="47.35195" lon="-1.18782">
        <ele>8</ele>
        <time>2011-10-02T09:06:35Z</time>
      </trkpt>
      <trkpt lat="47.35202" lon="-1.18757">
        <ele>8</ele>
        <time>2011-10-02T09:06:38Z</time>
      </trkpt>
      <trkpt lat="47.35207" lon="-1.1874">
        <ele>8</ele>
        <time>2011-10-02T09:06:40Z</time>
      </trkpt>
      <trkpt lat="47.35212" lon="-1.18715">
        <ele>8</ele>
        <time>2011-10-02T09:06:43Z</time>
      </trkpt>
      <trkpt lat="47.35215" lon="-1.18699">
        <ele>8</ele>
        <time>2011-10-02T09:06:45Z</time>
      </trkpt>
      <trkpt lat="47.35219" lon="-1.18683">
        <ele>8</ele>
        <time>2011-10-02T09:06:47Z</time>
      </trkpt>
      <trkpt lat="47.35225" lon="-1.1866">
        <ele>8</ele>
        <time>2011-10-02T09:06:50Z</time>
      </trkpt>
      <trkpt lat="47.35231" lon="-1.18637">
        <ele>8</ele>
        <time>2011-10-02T09:06:53Z</time>
      </trkpt>
      <trkpt lat="47.35235" lon="-1.18622">
        <ele>8</ele>
        <time>2011-10-02T09:06:55Z</time>
      </trkpt>
      <trkpt lat="47.35243" lon="-1.18601">
        <ele>8</ele>
        <time>2011-10-02T09:06:58Z</time>
      </trkpt>
      <trkpt lat="47.3525" lon="-1.1858">
        <ele>8</ele>
        <time>2011-10-02T09:07:01Z</time>
      </trkpt>
      <trkpt lat="47.35255" lon="-1.18566">
        <ele>8</ele>
        <time>2011-10-02T09:07:03Z</time>
      </trkpt>
      <trkpt lat="47.35264" lon="-1.18545">
        <ele>9</ele>
        <time>2011-10-02T09:07:06Z</time>
      </trkpt>
      <trkpt lat="47.35271" lon="-1.18532">
        <ele>9</ele>
        <time>2011-10-02T09:07:08Z</time>
      </trkpt>
      <trkpt lat="47.3528" lon="-1.18511">
        <ele>9</ele>
        <time>2011-10-02T09:07:11Z</time>
      </trkpt>
      <trkpt lat="47.35291" lon="-1.18493">
        <ele>10</ele>
        <time>2011-10-02T09:07:14Z</time>
      </trkpt>
      <trkpt lat="47.35303" lon="-1.18475">
        <ele>10</ele>
        <time>2011-10-02T09:07:17Z</time>
      </trkpt>
      <trkpt lat="47.35315" lon="-1.18458">
        <ele>10</ele>
        <time>2011-10-02T09:07:20Z</time>
      </trkpt>
      <trkpt lat="47.35328" lon="-1.18442">
        <ele>10</ele>
        <time>2011-10-02T09:07:23Z</time>
      </trkpt>
      <trkpt lat="47.35342" lon="-1.18426">
        <ele>9</ele>
        <time>2011-10-02T09:07:26Z</time>
      </trkpt>
      <trkpt lat="47.35356" lon="-1.1841">
        <ele>9</ele>
        <time>2011-10-02T09:07:29Z</time>
      </trkpt>
      <trkpt lat="47.35365" lon="-1.18397">
        <ele>9</ele>
        <time>2011-10-02T09:07:31Z</time>
      </trkpt>
      <trkpt lat="47.35373" lon="-1.18382">
        <ele>9</ele>
        <time>2011-10-02T09:07:33Z</time>
      </trkpt>
      <trkpt lat="47.35384" lon="-1.18359">
        <ele>8</ele>
        <time>2011-10-02T09:07:36Z</time>
      </trkpt>
      <trkpt lat="47.3539" lon="-1.18344">
        <ele>8</ele>
        <time>2011-10-02T09:07:38Z</time>
      </trkpt>
      <trkpt lat="47.35399" lon="-1.18324">
        <ele>8</ele>
        <time>2011-10-02T09:07:41Z</time>
      </trkpt>
      <trkpt lat="47.35404" lon="-1.1831">
        <ele>8</ele>
        <time>2011-10-02T09:07:43Z</time>
      </trkpt>
      <trkpt lat="47.35412" lon="-1.18287">
        <ele>9</ele>
        <time>2011-10-02T09:07:46Z</time>
      </trkpt>
      <trkpt lat="47.35419" lon="-1.18273">
        <ele>7</ele>
        <time>2011-10-02T09:07:48Z</time>
      </trkpt>
      <trkpt lat="47.35428" lon="-1.18258">
        <ele>7</ele>
        <time>2011-10-02T09:07:50Z</time>
      </trkpt>
      <trkpt lat="47.3544" lon="-1.18239">
        <ele>8</ele>
        <time>2011-10-02T09:07:53Z</time>
      </trkpt>
      <trkpt lat="47.35451" lon="-1.18225">
        <ele>8</ele>
        <time>2011-10-02T09:07:56Z</time>
      </trkpt>
      <trkpt lat="47.35464" lon="-1.18231">
        <ele>8</ele>
        <time>2011-10-02T09:07:59Z</time>
      </trkpt>
      <trkpt lat="47.35476" lon="-1.18237">
        <ele>8</ele>
        <time>2011-10-02T09:08:01Z</time>
      </trkpt>
      <trkpt lat="47.35487" lon="-1.18221">
        <ele>8</ele>
        <time>2011-10-02T09:08:04Z</time>
      </trkpt>
      <trkpt lat="47.35492" lon="-1.18208">
        <ele>8</ele>
        <time>2011-10-02T09:08:06Z</time>
      </trkpt>
      <trkpt lat="47.35498" lon="-1.18196">
        <ele>8</ele>
        <time>2011-10-02T09:08:08Z</time>
      </trkpt>
      <trkpt lat="47.35511" lon="-1.18198">
        <ele>7</ele>
        <time>2011-10-02T09:08:11Z</time>
      </trkpt>
      <trkpt lat="47.35522" lon="-1.18212">
        <ele>7</ele>
        <time>2011-10-02T09:08:14Z</time>
      </trkpt>
      <trkpt lat="47.35535" lon="-1.18228">
        <ele>7</ele>
        <time>2011-10-02T09:08:17Z</time>
      </trkpt>
      <trkpt lat="47.35548" lon="-1.18244">
        <ele>7</ele>
        <time>2011-10-02T09:08:20Z</time>
      </trkpt>
      <trkpt lat="47.35562" lon="-1.18258">
        <ele>7</ele>
        <time>2011-10-02T09:08:23Z</time>
      </trkpt>
      <trkpt lat="47.35576" lon="-1.18273">
        <ele>7</ele>
        <time>2011-10-02T09:08:26Z</time>
      </trkpt>
      <trkpt lat="47.35591" lon="-1.18287">
        <ele>7</ele>
        <time>2011-10-02T09:08:29Z</time>
      </trkpt>
      <trkpt lat="47.35605" lon="-1.18302">
        <ele>7</ele>
        <time>2011-10-02T09:08:32Z</time>
      </trkpt>
      <trkpt lat="47.35617" lon="-1.18317">
        <ele>7</ele>
        <time>2011-10-02T09:08:35Z</time>
      </trkpt>
      <trkpt lat="47.35631" lon="-1.18331">
        <ele>8</ele>
        <time>2011-10-02T09:08:38Z</time>
      </trkpt>
      <trkpt lat="47.35644" lon="-1.18346">
        <ele>8</ele>
        <time>2011-10-02T09:08:41Z</time>
      </trkpt>
      <trkpt lat="47.35658" lon="-1.18359">
        <ele>8</ele>
        <time>2011-10-02T09:08:44Z</time>
      </trkpt>
      <trkpt lat="47.35671" lon="-1.18371">
        <ele>8</ele>
        <time>2011-10-02T09:08:47Z</time>
      </trkpt>
      <trkpt lat="47.35685" lon="-1.18384">
        <ele>8</ele>
        <time>2011-10-02T09:08:50Z</time>
      </trkpt>
      <trkpt lat="47.357" lon="-1.18396">
        <ele>8</ele>
        <time>2011-10-02T09:08:53Z</time>
      </trkpt>
      <trkpt lat="47.35714" lon="-1.18405">
        <ele>8</ele>
        <time>2011-10-02T09:08:56Z</time>
      </trkpt>
      <trkpt lat="47.35728" lon="-1.18409">
        <ele>8</ele>
        <time>2011-10-02T09:08:59Z</time>
      </trkpt>
      <trkpt lat="47.35742" lon="-1.18409">
        <ele>8</ele>
        <time>2011-10-02T09:09:02Z</time>
      </trkpt>
      <trkpt lat="47.35751" lon="-1.18394">
        <ele>8</ele>
        <time>2011-10-02T09:09:05Z</time>
      </trkpt>
      <trkpt lat="47.35755" lon="-1.18379">
        <ele>8</ele>
        <time>2011-10-02T09:09:07Z</time>
      </trkpt>
      <trkpt lat="47.35754" lon="-1.18354">
        <ele>8</ele>
        <time>2011-10-02T09:09:10Z</time>
      </trkpt>
      <trkpt lat="47.35748" lon="-1.1833">
        <ele>9</ele>
        <time>2011-10-02T09:09:13Z</time>
      </trkpt>
      <trkpt lat="47.3574" lon="-1.18309">
        <ele>9</ele>
        <time>2011-10-02T09:09:16Z</time>
      </trkpt>
      <trkpt lat="47.35738" lon="-1.18288">
        <ele>10</ele>
        <time>2011-10-02T09:09:19Z</time>
      </trkpt>
      <trkpt lat="47.3574" lon="-1.18266">
        <ele>11</ele>
        <time>2011-10-02T09:09:22Z</time>
      </trkpt>
      <trkpt lat="47.35744" lon="-1.18252">
        <ele>11</ele>
        <time>2011-10-02T09:09:24Z</time>
      </trkpt>
      <trkpt lat="47.35749" lon="-1.18237">
        <ele>11</ele>
        <time>2011-10-02T09:09:26Z</time>
      </trkpt>
      <trkpt lat="47.35758" lon="-1.18216">
        <ele>10</ele>
        <time>2011-10-02T09:09:29Z</time>
      </trkpt>
      <trkpt lat="47.35768" lon="-1.18195">
        <ele>9</ele>
        <time>2011-10-02T09:09:32Z</time>
      </trkpt>
      <trkpt lat="47.35776" lon="-1.18173">
        <ele>9</ele>
        <time>2011-10-02T09:09:35Z</time>
      </trkpt>
      <trkpt lat="47.35781" lon="-1.18159">
        <ele>9</ele>
        <time>2011-10-02T09:09:37Z</time>
      </trkpt>
      <trkpt lat="47.3579" lon="-1.18137">
        <ele>9</ele>
        <time>2011-10-02T09:09:40Z</time>
      </trkpt>
      <trkpt lat="47.35795" lon="-1.18123">
        <ele>8</ele>
        <time>2011-10-02T09:09:42Z</time>
      </trkpt>
      <trkpt lat="47.35802" lon="-1.18101">
        <ele>9</ele>
        <time>2011-10-02T09:09:45Z</time>
      </trkpt>
      <trkpt lat="47.35808" lon="-1.18087">
        <ele>9</ele>
        <time>2011-10-02T09:09:47Z</time>
      </trkpt>
      <trkpt lat="47.35813" lon="-1.18073">
        <ele>9</ele>
        <time>2011-10-02T09:09:49Z</time>
      </trkpt>
      <trkpt lat="47.35822" lon="-1.18051">
        <ele>9</ele>
        <time>2011-10-02T09:09:52Z</time>
      </trkpt>
      <trkpt lat="47.35828" lon="-1.18037">
        <ele>10</ele>
        <time>2011-10-02T09:09:54Z</time>
      </trkpt>
      <trkpt lat="47.35836" lon="-1.18015">
        <ele>10</ele>
        <time>2011-10-02T09:09:57Z</time>
      </trkpt>
      <trkpt lat="47.35843" lon="-1.18002">
        <ele>10</ele>
        <time>2011-10-02T09:09:59Z</time>
      </trkpt>
      <trkpt lat="47.35854" lon="-1.17984">
        <ele>10</ele>
        <time>2011-10-02T09:10:02Z</time>
      </trkpt>
      <trkpt lat="47.35865" lon="-1.17965">
        <ele>9</ele>
        <time>2011-10-02T09:10:05Z</time>
      </trkpt>
      <trkpt lat="47.35876" lon="-1.17944">
        <ele>9</ele>
        <time>2011-10-02T09:10:08Z</time>
      </trkpt>
      <trkpt lat="47.35883" lon="-1.17927">
        <ele>9</ele>
        <time>2011-10-02T09:10:10Z</time>
      </trkpt>
      <trkpt lat="47.35892" lon="-1.17901">
        <ele>9</ele>
        <time>2011-10-02T09:10:13Z</time>
      </trkpt>
      <trkpt lat="47.35902" lon="-1.17874">
        <ele>10</ele>
        <time>2011-10-02T09:10:16Z</time>
      </trkpt>
      <trkpt lat="47.35909" lon="-1.17856">
        <ele>10</ele>
        <time>2011-10-02T09:10:18Z</time>
      </trkpt>
      <trkpt lat="47.35919" lon="-1.17829">
        <ele>11</ele>
        <time>2011-10-02T09:10:21Z</time>
      </trkpt>
      <trkpt lat="47.35927" lon="-1.17811">
        <ele>10</ele>
        <time>2011-10-02T09:10:23Z</time>
      </trkpt>
      <trkpt lat="47.35934" lon="-1.17794">
        <ele>9</ele>
        <time>2011-10-02T09:10:25Z</time>
      </trkpt>
      <trkpt lat="47.35944" lon="-1.1777">
        <ele>9</ele>
        <time>2011-10-02T09:10:28Z</time>
      </trkpt>
      <trkpt lat="47.35954" lon="-1.17745">
        <ele>9</ele>
        <time>2011-10-02T09:10:31Z</time>
      </trkpt>
      <trkpt lat="47.3596" lon="-1.17729">
        <ele>9</ele>
        <time>2011-10-02T09:10:33Z</time>
      </trkpt>
      <trkpt lat="47.35965" lon="-1.17713">
        <ele>9</ele>
        <time>2011-10-02T09:10:35Z</time>
      </trkpt>
      <trkpt lat="47.35972" lon="-1.17688">
        <ele>10</ele>
        <time>2011-10-02T09:10:38Z</time>
      </trkpt>
      <trkpt lat="47.35976" lon="-1.17672">
        <ele>10</ele>
        <time>2011-10-02T09:10:40Z</time>
      </trkpt>
      <trkpt lat="47.3598" lon="-1.17646">
        <ele>11</ele>
        <time>2011-10-02T09:10:43Z</time>
      </trkpt>
      <trkpt lat="47.35983" lon="-1.17622">
        <ele>11</ele>
        <time>2011-10-02T09:10:46Z</time>
      </trkpt>
      <trkpt lat="47.35984" lon="-1.17597">
        <ele>11</ele>
        <time>2011-10-02T09:10:49Z</time>
      </trkpt>
      <trkpt lat="47.35982" lon="-1.17575">
        <ele>10</ele>
        <time>2011-10-02T09:10:52Z</time>
      </trkpt>
      <trkpt lat="47.35978" lon="-1.17558">
        <ele>10</ele>
        <time>2011-10-02T09:10:55Z</time>
      </trkpt>
      <trkpt lat="47.35974" lon="-1.17549">
        <ele>10</ele>
        <time>2011-10-02T09:10:57Z</time>
      </trkpt>
      <trkpt lat="47.35971" lon="-1.1754">
        <ele>10</ele>
        <time>2011-10-02T09:10:59Z</time>
      </trkpt>
      <trkpt lat="47.35969" lon="-1.17528">
        <ele>10</ele>
        <time>2011-10-02T09:11:02Z</time>
      </trkpt>
      <trkpt lat="47.35969" lon="-1.17528">
        <ele>10</ele>
        <time>2011-10-02T09:11:04Z</time>
      </trkpt>
      <trkpt lat="47.35988" lon="-1.17534">
        <ele>10</ele>
        <time>2011-10-02T09:11:08Z</time>
      </trkpt>
      <trkpt lat="47.36" lon="-1.17542">
        <ele>10</ele>
        <time>2011-10-02T09:11:11Z</time>
      </trkpt>
      <trkpt lat="47.36013" lon="-1.1755">
        <ele>9</ele>
        <time>2011-10-02T09:11:14Z</time>
      </trkpt>
      <trkpt lat="47.36024" lon="-1.17556">
        <ele>9</ele>
        <time>2011-10-02T09:11:16Z</time>
      </trkpt>
      <trkpt lat="47.3604" lon="-1.17564">
        <ele>9</ele>
        <time>2011-10-02T09:11:19Z</time>
      </trkpt>
      <trkpt lat="47.36049" lon="-1.17569">
        <ele>9</ele>
        <time>2011-10-02T09:11:21Z</time>
      </trkpt>
      <trkpt lat="47.36062" lon="-1.17575">
        <ele>8</ele>
        <time>2011-10-02T09:11:24Z</time>
      </trkpt>
      <trkpt lat="47.36071" lon="-1.1758">
        <ele>8</ele>
        <time>2011-10-02T09:11:26Z</time>
      </trkpt>
      <trkpt lat="47.3608" lon="-1.17584">
        <ele>7</ele>
        <time>2011-10-02T09:11:28Z</time>
      </trkpt>
      <trkpt lat="47.36094" lon="-1.17591">
        <ele>7</ele>
        <time>2011-10-02T09:11:31Z</time>
      </trkpt>
      <trkpt lat="47.36103" lon="-1.17596">
        <ele>7</ele>
        <time>2011-10-02T09:11:33Z</time>
      </trkpt>
      <trkpt lat="47.36118" lon="-1.17604">
        <ele>7</ele>
        <time>2011-10-02T09:11:36Z</time>
      </trkpt>
      <trkpt lat="47.36129" lon="-1.17609">
        <ele>7</ele>
        <time>2011-10-02T09:11:38Z</time>
      </trkpt>
      <trkpt lat="47.36146" lon="-1.17618">
        <ele>7</ele>
        <time>2011-10-02T09:11:41Z</time>
      </trkpt>
      <trkpt lat="47.36157" lon="-1.17624">
        <ele>7</ele>
        <time>2011-10-02T09:11:43Z</time>
      </trkpt>
      <trkpt lat="47.36174" lon="-1.17634">
        <ele>7</ele>
        <time>2011-10-02T09:11:46Z</time>
      </trkpt>
      <trkpt lat="47.36192" lon="-1.17644">
        <ele>7</ele>
        <time>2011-10-02T09:11:49Z</time>
      </trkpt>
      <trkpt lat="47.36209" lon="-1.17652">
        <ele>7</ele>
        <time>2011-10-02T09:11:52Z</time>
      </trkpt>
      <trkpt lat="47.36224" lon="-1.17661">
        <ele>7</ele>
        <time>2011-10-02T09:11:55Z</time>
      </trkpt>
      <trkpt lat="47.36239" lon="-1.1767">
        <ele>7</ele>
        <time>2011-10-02T09:11:58Z</time>
      </trkpt>
      <trkpt lat="47.36254" lon="-1.17679">
        <ele>7</ele>
        <time>2011-10-02T09:12:01Z</time>
      </trkpt>
      <trkpt lat="47.3627" lon="-1.17687">
        <ele>7</ele>
        <time>2011-10-02T09:12:04Z</time>
      </trkpt>
      <trkpt lat="47.36281" lon="-1.17693">
        <ele>7</ele>
        <time>2011-10-02T09:12:06Z</time>
      </trkpt>
      <trkpt lat="47.36291" lon="-1.17699">
        <ele>7</ele>
        <time>2011-10-02T09:12:08Z</time>
      </trkpt>
      <trkpt lat="47.36308" lon="-1.17708">
        <ele>7</ele>
        <time>2011-10-02T09:12:11Z</time>
      </trkpt>
      <trkpt lat="47.36327" lon="-1.17717">
        <ele>7</ele>
        <time>2011-10-02T09:12:14Z</time>
      </trkpt>
      <trkpt lat="47.36346" lon="-1.17725">
        <ele>10</ele>
        <time>2011-10-02T09:12:17Z</time>
      </trkpt>
      <trkpt lat="47.36362" lon="-1.17713">
        <ele>11</ele>
        <time>2011-10-02T09:12:20Z</time>
      </trkpt>
      <trkpt lat="47.36371" lon="-1.17697">
        <ele>11</ele>
        <time>2011-10-02T09:12:22Z</time>
      </trkpt>
      <trkpt lat="47.36385" lon="-1.17673">
        <ele>12</ele>
        <time>2011-10-02T09:12:25Z</time>
      </trkpt>
      <trkpt lat="47.36401" lon="-1.17656">
        <ele>12</ele>
        <time>2011-10-02T09:12:28Z</time>
      </trkpt>
      <trkpt lat="47.3641" lon="-1.17647">
        <ele>12</ele>
        <time>2011-10-02T09:12:30Z</time>
      </trkpt>
      <trkpt lat="47.36405" lon="-1.17643">
        <ele>11</ele>
        <time>2011-10-02T09:12:33Z</time>
      </trkpt>
      <trkpt lat="47.36389" lon="-1.17659">
        <ele>11</ele>
        <time>2011-10-02T09:12:36Z</time>
      </trkpt>
      <trkpt lat="47.36366" lon="-1.17683">
        <ele>11</ele>
        <time>2011-10-02T09:12:39Z</time>
      </trkpt>
      <trkpt lat="47.36347" lon="-1.17705">
        <ele>10</ele>
        <time>2011-10-02T09:12:42Z</time>
      </trkpt>
      <trkpt lat="47.36336" lon="-1.17718">
        <ele>10</ele>
        <time>2011-10-02T09:12:44Z</time>
      </trkpt>
      <trkpt lat="47.36327" lon="-1.17732">
        <ele>8</ele>
        <time>2011-10-02T09:12:46Z</time>
      </trkpt>
      <trkpt lat="47.36318" lon="-1.17752">
        <ele>8</ele>
        <time>2011-10-02T09:12:49Z</time>
      </trkpt>
      <trkpt lat="47.36313" lon="-1.1777">
        <ele>8</ele>
        <time>2011-10-02T09:12:52Z</time>
      </trkpt>
      <trkpt lat="47.36307" lon="-1.17789">
        <ele>8</ele>
        <time>2011-10-02T09:12:55Z</time>
      </trkpt>
      <trkpt lat="47.36299" lon="-1.17809">
        <ele>9</ele>
        <time>2011-10-02T09:12:58Z</time>
      </trkpt>
      <trkpt lat="47.3629" lon="-1.17834">
        <ele>9</ele>
        <time>2011-10-02T09:13:01Z</time>
      </trkpt>
      <trkpt lat="47.36284" lon="-1.1786">
        <ele>9</ele>
        <time>2011-10-02T09:13:04Z</time>
      </trkpt>
      <trkpt lat="47.3628" lon="-1.17885">
        <ele>9</ele>
        <time>2011-10-02T09:13:07Z</time>
      </trkpt>
      <trkpt lat="47.36276" lon="-1.17912">
        <ele>9</ele>
        <time>2011-10-02T09:13:10Z</time>
      </trkpt>
      <trkpt lat="47.36274" lon="-1.1793">
        <ele>9</ele>
        <time>2011-10-02T09:13:12Z</time>
      </trkpt>
      <trkpt lat="47.3627" lon="-1.17957">
        <ele>9</ele>
        <time>2011-10-02T09:13:15Z</time>
      </trkpt>
      <trkpt lat="47.36266" lon="-1.17984">
        <ele>9</ele>
        <time>2011-10-02T09:13:18Z</time>
      </trkpt>
      <trkpt lat="47.36263" lon="-1.18011">
        <ele>8</ele>
        <time>2011-10-02T09:13:21Z</time>
      </trkpt>
      <trkpt lat="47.3626" lon="-1.18037">
        <ele>9</ele>
        <time>2011-10-02T09:13:24Z</time>
      </trkpt>
      <trkpt lat="47.36257" lon="-1.18065">
        <ele>8</ele>
        <time>2011-10-02T09:13:27Z</time>
      </trkpt>
      <trkpt lat="47.36253" lon="-1.18093">
        <ele>8</ele>
        <time>2011-10-02T09:13:30Z</time>
      </trkpt>
      <trkpt lat="47.36251" lon="-1.18112">
        <ele>9</ele>
        <time>2011-10-02T09:13:32Z</time>
      </trkpt>
      <trkpt lat="47.36247" lon="-1.1814">
        <ele>8</ele>
        <time>2011-10-02T09:13:35Z</time>
      </trkpt>
      <trkpt lat="47.36245" lon="-1.18159">
        <ele>9</ele>
        <time>2011-10-02T09:13:37Z</time>
      </trkpt>
      <trkpt lat="47.3624" lon="-1.18186">
        <ele>9</ele>
        <time>2011-10-02T09:13:40Z</time>
      </trkpt>
      <trkpt lat="47.36235" lon="-1.18213">
        <ele>9</ele>
        <time>2011-10-02T09:13:43Z</time>
      </trkpt>
      <trkpt lat="47.36229" lon="-1.18241">
        <ele>10</ele>
        <time>2011-10-02T09:13:46Z</time>
      </trkpt>
      <trkpt lat="47.36224" lon="-1.18259">
        <ele>10</ele>
        <time>2011-10-02T09:13:48Z</time>
      </trkpt>
      <trkpt lat="47.36218" lon="-1.18275">
        <ele>9</ele>
        <time>2011-10-02T09:13:50Z</time>
      </trkpt>
      <trkpt lat="47.3621" lon="-1.1829">
        <ele>9</ele>
        <time>2011-10-02T09:13:52Z</time>
      </trkpt>
      <trkpt lat="47.36198" lon="-1.18313">
        <ele>9</ele>
        <time>2011-10-02T09:13:55Z</time>
      </trkpt>
      <trkpt lat="47.36188" lon="-1.18335">
        <ele>9</ele>
        <time>2011-10-02T09:13:58Z</time>
      </trkpt>
      <trkpt lat="47.36178" lon="-1.18357">
        <ele>9</ele>
        <time>2011-10-02T09:14:01Z</time>
      </trkpt>
      <trkpt lat="47.36169" lon="-1.18378">
        <ele>10</ele>
        <time>2011-10-02T09:14:04Z</time>
      </trkpt>
      <trkpt lat="47.36163" lon="-1.18391">
        <ele>9</ele>
        <time>2011-10-02T09:14:06Z</time>
      </trkpt>
      <trkpt lat="47.36157" lon="-1.18408">
        <ele>10</ele>
        <time>2011-10-02T09:14:09Z</time>
      </trkpt>
      <trkpt lat="47.36156" lon="-1.18415">
        <ele>11</ele>
        <time>2011-10-02T09:14:11Z</time>
      </trkpt>
      <trkpt lat="47.36156" lon="-1.18415">
        <ele>11</ele>
        <time>2011-10-02T09:14:12Z</time>
      </trkpt>
      <trkpt lat="47.36149" lon="-1.18436">
        <ele>11</ele>
        <time>2011-10-02T09:14:18Z</time>
      </trkpt>
      <trkpt lat="47.36143" lon="-1.18447">
        <ele>11</ele>
        <time>2011-10-02T09:14:20Z</time>
      </trkpt>
      <trkpt lat="47.36135" lon="-1.18464">
        <ele>10</ele>
        <time>2011-10-02T09:14:23Z</time>
      </trkpt>
      <trkpt lat="47.3613" lon="-1.18484">
        <ele>11</ele>
        <time>2011-10-02T09:14:26Z</time>
      </trkpt>
      <trkpt lat="47.36131" lon="-1.18503">
        <ele>11</ele>
        <time>2011-10-02T09:14:29Z</time>
      </trkpt>
      <trkpt lat="47.36132" lon="-1.18513">
        <ele>11</ele>
        <time>2011-10-02T09:14:31Z</time>
      </trkpt>
      <trkpt lat="47.36139" lon="-1.18521">
        <ele>11</ele>
        <time>2011-10-02T09:14:34Z</time>
      </trkpt>
      <trkpt lat="47.36161" lon="-1.18515">
        <ele>11</ele>
        <time>2011-10-02T09:14:43Z</time>
      </trkpt>
      <trkpt lat="47.3617" lon="-1.18507">
        <ele>12</ele>
        <time>2011-10-02T09:14:46Z</time>
      </trkpt>
      <trkpt lat="47.36183" lon="-1.185">
        <ele>12</ele>
        <time>2011-10-02T09:14:49Z</time>
      </trkpt>
      <trkpt lat="47.36191" lon="-1.18502">
        <ele>12</ele>
        <time>2011-10-02T09:14:52Z</time>
      </trkpt>
      <trkpt lat="47.36196" lon="-1.18507">
        <ele>12</ele>
        <time>2011-10-02T09:14:54Z</time>
      </trkpt>
      <trkpt lat="47.36201" lon="-1.18511">
        <ele>12</ele>
        <time>2011-10-02T09:14:56Z</time>
      </trkpt>
      <trkpt lat="47.3621" lon="-1.18514">
        <ele>13</ele>
        <time>2011-10-02T09:14:59Z</time>
      </trkpt>
      <trkpt lat="47.36216" lon="-1.18516">
        <ele>13</ele>
        <time>2011-10-02T09:15:01Z</time>
      </trkpt>
    </trkseg>
  </trk>
</gpx>